<?xml version='1.0' encoding='UTF-8'?><gpx version="1.1" creator="JPX - https://github.com/jenetics/jpx" xmlns="http://www.topografix.com/GPX/1/1"><trk><trkseg><trkpt lat="45.5087722" lon="11.5072768"><ele>33.99999999999999</ele><time>2026-04-06T06:17:39.079Z</time></trkpt><trkpt lat="45.5088292" lon="11.5073219"><ele>34.0</ele><time>2026-04-06T06:19:04.079Z</time></trkpt><trkpt lat="45.5088807" lon="11.5072441"><ele>34.0</ele><time>2026-04-06T06:19:08.079Z</time></trkpt><trkpt lat="45.5089063" lon="11.5071596"><ele>34.0</ele><time>2026-04-06T06:19:11.079Z</time></trkpt><trkpt lat="45.5089806" lon="11.5071174"><ele>34.0</ele><time>2026-04-06T06:19:14.079Z</time></trkpt><trkpt lat="45.50905" lon="11.5070971"><ele>33.99999999999999</ele><time>2026-04-06T06:19:16.079Z</time></trkpt><trkpt lat="45.5091018" lon="11.5070274"><ele>34.0</ele><time>2026-04-06T06:19:18.079Z</time></trkpt><trkpt lat="45.5091499" lon="11.5069499"><ele>34.16666666666667</ele><time>2026-04-06T06:19:20.079Z</time></trkpt><trkpt lat="45.5091962" lon="11.5068747"><ele>34.333333333333336</ele><time>2026-04-06T06:19:22.079Z</time></trkpt><trkpt lat="45.5092431" lon="11.5067892"><ele>34.5</ele><time>2026-04-06T06:19:25.079Z</time></trkpt><trkpt lat="45.5092935" lon="11.5067254"><ele>34.666666666666664</ele><time>2026-04-06T06:19:29.079Z</time></trkpt><trkpt lat="45.5093727" lon="11.5067257"><ele>34.83333333333333</ele><time>2026-04-06T06:19:33.079Z</time></trkpt><trkpt lat="45.509448" lon="11.5067535"><ele>35.0</ele><time>2026-04-06T06:19:36.079Z</time></trkpt><trkpt lat="45.5095335" lon="11.5067675"><ele>35.5</ele><time>2026-04-06T06:19:39.079Z</time></trkpt><trkpt lat="45.5096155" lon="11.5067653"><ele>36.0</ele><time>2026-04-06T06:19:42.079Z</time></trkpt><trkpt lat="45.5099972" lon="11.5068598"><ele>36.0</ele><time>2026-04-06T06:20:01.079Z</time></trkpt><trkpt lat="45.5100633" lon="11.5068912"><ele>36.0</ele><time>2026-04-06T06:20:04.079Z</time></trkpt><trkpt lat="45.5101493" lon="11.5068956"><ele>36.0</ele><time>2026-04-06T06:20:07.079Z</time></trkpt><trkpt lat="45.5102429" lon="11.5068985"><ele>36.0</ele><time>2026-04-06T06:20:10.079Z</time></trkpt><trkpt lat="45.5103139" lon="11.506919"><ele>36.0</ele><time>2026-04-06T06:20:12.079Z</time></trkpt><trkpt lat="45.5104026" lon="11.5069635"><ele>36.0</ele><time>2026-04-06T06:20:15.079Z</time></trkpt><trkpt lat="45.510469" lon="11.5070092"><ele>35.666666666666664</ele><time>2026-04-06T06:20:17.079Z</time></trkpt><trkpt lat="45.510539" lon="11.5070472"><ele>35.333333333333336</ele><time>2026-04-06T06:20:19.079Z</time></trkpt><trkpt lat="45.5106134" lon="11.5070892"><ele>35.0</ele><time>2026-04-06T06:20:21.079Z</time></trkpt><trkpt lat="45.5106851" lon="11.5071461"><ele>34.66666666666667</ele><time>2026-04-06T06:20:23.079Z</time></trkpt><trkpt lat="45.5107668" lon="11.5071799"><ele>34.333333333333336</ele><time>2026-04-06T06:20:25.079Z</time></trkpt><trkpt lat="45.5108569" lon="11.5072143"><ele>34.0</ele><time>2026-04-06T06:20:27.079Z</time></trkpt><trkpt lat="45.5109379" lon="11.5072472"><ele>34.0</ele><time>2026-04-06T06:20:29.079Z</time></trkpt><trkpt lat="45.5110282" lon="11.5072758"><ele>34.0</ele><time>2026-04-06T06:20:31.079Z</time></trkpt><trkpt lat="45.5111201" lon="11.5072901"><ele>34.0</ele><time>2026-04-06T06:20:33.079Z</time></trkpt><trkpt lat="45.5112151" lon="11.5073124"><ele>34.0</ele><time>2026-04-06T06:20:35.079Z</time></trkpt><trkpt lat="45.5113107" lon="11.5073262"><ele>34.0</ele><time>2026-04-06T06:20:37.079Z</time></trkpt><trkpt lat="45.511399" lon="11.5072971"><ele>34.0</ele><time>2026-04-06T06:20:39.079Z</time></trkpt><trkpt lat="45.5114863" lon="11.5072805"><ele>34.0</ele><time>2026-04-06T06:20:42.079Z</time></trkpt><trkpt lat="45.5115766" lon="11.5072994"><ele>34.0</ele><time>2026-04-06T06:20:45.079Z</time></trkpt><trkpt lat="45.5116501" lon="11.5073395"><ele>34.0</ele><time>2026-04-06T06:20:47.079Z</time></trkpt><trkpt lat="45.5117282" lon="11.5073846"><ele>34.0</ele><time>2026-04-06T06:20:49.079Z</time></trkpt><trkpt lat="45.5118025" lon="11.5074497"><ele>34.0</ele><time>2026-04-06T06:20:51.079Z</time></trkpt><trkpt lat="45.511881" lon="11.507502"><ele>34.0</ele><time>2026-04-06T06:20:53.079Z</time></trkpt><trkpt lat="45.511957" lon="11.507553"><ele>34.0</ele><time>2026-04-06T06:20:55.079Z</time></trkpt><trkpt lat="45.5120427" lon="11.5076028"><ele>34.0</ele><time>2026-04-06T06:20:57.079Z</time></trkpt><trkpt lat="45.5121199" lon="11.5076516"><ele>34.0</ele><time>2026-04-06T06:20:59.079Z</time></trkpt><trkpt lat="45.5122007" lon="11.5077186"><ele>34.0</ele><time>2026-04-06T06:21:01.079Z</time></trkpt><trkpt lat="45.5122897" lon="11.507763"><ele>34.0</ele><time>2026-04-06T06:21:03.079Z</time></trkpt><trkpt lat="45.5123732" lon="11.5078123"><ele>33.8</ele><time>2026-04-06T06:21:05.079Z</time></trkpt><trkpt lat="45.5124734" lon="11.5078635"><ele>33.599999999999994</ele><time>2026-04-06T06:21:07.079Z</time></trkpt><trkpt lat="45.5125573" lon="11.5079305"><ele>33.4</ele><time>2026-04-06T06:21:09.079Z</time></trkpt><trkpt lat="45.5126412" lon="11.5079772"><ele>33.199999999999996</ele><time>2026-04-06T06:21:11.079Z</time></trkpt><trkpt lat="45.5127366" lon="11.5080477"><ele>33.0</ele><time>2026-04-06T06:21:13.079Z</time></trkpt><trkpt lat="45.5128305" lon="11.5081223"><ele>33.0</ele><time>2026-04-06T06:21:15.079Z</time></trkpt><trkpt lat="45.5129153" lon="11.5081924"><ele>33.0</ele><time>2026-04-06T06:21:17.079Z</time></trkpt><trkpt lat="45.5130028" lon="11.5082527"><ele>33.0</ele><time>2026-04-06T06:21:19.079Z</time></trkpt><trkpt lat="45.5130928" lon="11.5083161"><ele>33.0</ele><time>2026-04-06T06:21:22.079Z</time></trkpt><trkpt lat="45.5131606" lon="11.5083565"><ele>33.0</ele><time>2026-04-06T06:21:24.079Z</time></trkpt><trkpt lat="45.5132396" lon="11.5084133"><ele>33.0</ele><time>2026-04-06T06:21:26.079Z</time></trkpt><trkpt lat="45.513305" lon="11.5084553"><ele>33.0</ele><time>2026-04-06T06:21:28.079Z</time></trkpt><trkpt lat="45.5133837" lon="11.5085073"><ele>33.0</ele><time>2026-04-06T06:21:30.079Z</time></trkpt><trkpt lat="45.5134929" lon="11.5085902"><ele>33.0</ele><time>2026-04-06T06:21:33.079Z</time></trkpt><trkpt lat="45.5135626" lon="11.5086382"><ele>33.0</ele><time>2026-04-06T06:21:35.079Z</time></trkpt><trkpt lat="45.5136387" lon="11.5086856"><ele>33.0</ele><time>2026-04-06T06:21:37.079Z</time></trkpt><trkpt lat="45.5137115" lon="11.5087262"><ele>33.0</ele><time>2026-04-06T06:21:39.079Z</time></trkpt><trkpt lat="45.5137768" lon="11.5087759"><ele>33.0</ele><time>2026-04-06T06:21:41.079Z</time></trkpt><trkpt lat="45.5138339" lon="11.5088174"><ele>33.0</ele><time>2026-04-06T06:21:43.079Z</time></trkpt><trkpt lat="45.5138954" lon="11.5088701"><ele>33.0</ele><time>2026-04-06T06:21:45.079Z</time></trkpt><trkpt lat="45.5139674" lon="11.508914"><ele>33.0</ele><time>2026-04-06T06:21:47.079Z</time></trkpt><trkpt lat="45.5140269" lon="11.5089669"><ele>33.0</ele><time>2026-04-06T06:21:49.079Z</time></trkpt><trkpt lat="45.5140875" lon="11.5090152"><ele>33.0</ele><time>2026-04-06T06:21:51.079Z</time></trkpt><trkpt lat="45.5141681" lon="11.50908"><ele>33.0</ele><time>2026-04-06T06:21:54.079Z</time></trkpt><trkpt lat="45.514238" lon="11.509131"><ele>33.0</ele><time>2026-04-06T06:21:56.079Z</time></trkpt><trkpt lat="45.5143059" lon="11.5091736"><ele>33.0</ele><time>2026-04-06T06:21:58.079Z</time></trkpt><trkpt lat="45.5143723" lon="11.5092381"><ele>33.0</ele><time>2026-04-06T06:22:00.079Z</time></trkpt><trkpt lat="45.5144515" lon="11.5092957"><ele>33.0</ele><time>2026-04-06T06:22:02.079Z</time></trkpt><trkpt lat="45.514524" lon="11.5093525"><ele>33.0</ele><time>2026-04-06T06:22:04.079Z</time></trkpt><trkpt lat="45.5145982" lon="11.5094041"><ele>32.833333333333336</ele><time>2026-04-06T06:22:06.079Z</time></trkpt><trkpt lat="45.514673" lon="11.5094585"><ele>32.666666666666664</ele><time>2026-04-06T06:22:08.079Z</time></trkpt><trkpt lat="45.5147414" lon="11.5095115"><ele>32.5</ele><time>2026-04-06T06:22:10.079Z</time></trkpt><trkpt lat="45.5148119" lon="11.509566"><ele>32.33333333333333</ele><time>2026-04-06T06:22:12.079Z</time></trkpt><trkpt lat="45.5148921" lon="11.5096187"><ele>32.166666666666664</ele><time>2026-04-06T06:22:14.079Z</time></trkpt><trkpt lat="45.5149729" lon="11.5096716"><ele>32.0</ele><time>2026-04-06T06:22:16.079Z</time></trkpt><trkpt lat="45.5150473" lon="11.5097258"><ele>31.999999999999996</ele><time>2026-04-06T06:22:18.079Z</time></trkpt><trkpt lat="45.5151287" lon="11.5097853"><ele>32.0</ele><time>2026-04-06T06:22:20.079Z</time></trkpt><trkpt lat="45.5152038" lon="11.5098362"><ele>32.0</ele><time>2026-04-06T06:22:22.079Z</time></trkpt><trkpt lat="45.5152822" lon="11.5098885"><ele>32.0</ele><time>2026-04-06T06:22:24.079Z</time></trkpt><trkpt lat="45.5153695" lon="11.509941"><ele>31.999999999999996</ele><time>2026-04-06T06:22:26.079Z</time></trkpt><trkpt lat="45.5154514" lon="11.5099982"><ele>32.0</ele><time>2026-04-06T06:22:28.079Z</time></trkpt><trkpt lat="45.5155309" lon="11.5100468"><ele>31.8</ele><time>2026-04-06T06:22:30.079Z</time></trkpt><trkpt lat="45.5156111" lon="11.5101029"><ele>31.6</ele><time>2026-04-06T06:22:32.079Z</time></trkpt><trkpt lat="45.5157064" lon="11.5101539"><ele>31.400000000000002</ele><time>2026-04-06T06:22:34.079Z</time></trkpt><trkpt lat="45.5157935" lon="11.5102167"><ele>31.200000000000003</ele><time>2026-04-06T06:22:36.079Z</time></trkpt><trkpt lat="45.5158804" lon="11.5102946"><ele>31.0</ele><time>2026-04-06T06:22:38.079Z</time></trkpt><trkpt lat="45.5159435" lon="11.5103582"><ele>31.000000000000004</ele><time>2026-04-06T06:22:40.079Z</time></trkpt><trkpt lat="45.5159943" lon="11.5104257"><ele>31.0</ele><time>2026-04-06T06:22:42.079Z</time></trkpt><trkpt lat="45.5160644" lon="11.5104857"><ele>31.0</ele><time>2026-04-06T06:22:44.079Z</time></trkpt><trkpt lat="45.5161407" lon="11.5105307"><ele>31.0</ele><time>2026-04-06T06:22:46.079Z</time></trkpt><trkpt lat="45.5162137" lon="11.510577"><ele>31.000000000000004</ele><time>2026-04-06T06:22:48.079Z</time></trkpt><trkpt lat="45.5162991" lon="11.5106177"><ele>31.0</ele><time>2026-04-06T06:22:50.079Z</time></trkpt><trkpt lat="45.5163795" lon="11.5106591"><ele>31.166666666666668</ele><time>2026-04-06T06:22:52.079Z</time></trkpt><trkpt lat="45.5164451" lon="11.5107086"><ele>31.333333333333336</ele><time>2026-04-06T06:22:54.079Z</time></trkpt><trkpt lat="45.5165106" lon="11.5107433"><ele>31.5</ele><time>2026-04-06T06:22:56.08Z</time></trkpt><trkpt lat="45.5165822" lon="11.5107854"><ele>31.666666666666664</ele><time>2026-04-06T06:22:58.079Z</time></trkpt><trkpt lat="45.5166597" lon="11.510828"><ele>31.833333333333332</ele><time>2026-04-06T06:23:00.079Z</time></trkpt><trkpt lat="45.516737" lon="11.5108747"><ele>32.0</ele><time>2026-04-06T06:23:02.079Z</time></trkpt><trkpt lat="45.5168053" lon="11.5109144"><ele>31.999999999999996</ele><time>2026-04-06T06:23:04.079Z</time></trkpt><trkpt lat="45.5168734" lon="11.5109596"><ele>32.0</ele><time>2026-04-06T06:23:06.079Z</time></trkpt><trkpt lat="45.5169437" lon="11.511011"><ele>32.0</ele><time>2026-04-06T06:23:08.079Z</time></trkpt><trkpt lat="45.517009" lon="11.5110645"><ele>32.0</ele><time>2026-04-06T06:23:10.079Z</time></trkpt><trkpt lat="45.5170728" lon="11.5111079"><ele>31.999999999999996</ele><time>2026-04-06T06:23:12.079Z</time></trkpt><trkpt lat="45.5171397" lon="11.511161"><ele>32.0</ele><time>2026-04-06T06:23:14.079Z</time></trkpt><trkpt lat="45.5172066" lon="11.5112025"><ele>31.71428571428571</ele><time>2026-04-06T06:23:16.079Z</time></trkpt><trkpt lat="45.5172721" lon="11.5112372"><ele>31.428571428571423</ele><time>2026-04-06T06:23:18.079Z</time></trkpt><trkpt lat="45.5173361" lon="11.5112869"><ele>31.142857142857142</ele><time>2026-04-06T06:23:20.079Z</time></trkpt><trkpt lat="45.5173832" lon="11.5113652"><ele>30.857142857142854</ele><time>2026-04-06T06:23:22.079Z</time></trkpt><trkpt lat="45.5173942" lon="11.5114648"><ele>30.57142857142857</ele><time>2026-04-06T06:23:24.079Z</time></trkpt><trkpt lat="45.5173946" lon="11.5115662"><ele>30.285714285714285</ele><time>2026-04-06T06:23:26.079Z</time></trkpt><trkpt lat="45.5174424" lon="11.5116461"><ele>30.0</ele><time>2026-04-06T06:23:28.079Z</time></trkpt><trkpt lat="45.5175035" lon="11.511701"><ele>30.0</ele><time>2026-04-06T06:23:30.079Z</time></trkpt><trkpt lat="45.5175683" lon="11.5117611"><ele>30.0</ele><time>2026-04-06T06:23:32.079Z</time></trkpt><trkpt lat="45.5176299" lon="11.5118239"><ele>30.0</ele><time>2026-04-06T06:23:34.079Z</time></trkpt><trkpt lat="45.5176621" lon="11.5119199"><ele>30.0</ele><time>2026-04-06T06:23:36.079Z</time></trkpt><trkpt lat="45.5176824" lon="11.5120352"><ele>30.0</ele><time>2026-04-06T06:23:38.079Z</time></trkpt><trkpt lat="45.5176832" lon="11.5121599"><ele>30.0</ele><time>2026-04-06T06:23:40.079Z</time></trkpt><trkpt lat="45.5176795" lon="11.5122702"><ele>30.0</ele><time>2026-04-06T06:23:42.079Z</time></trkpt><trkpt lat="45.517684" lon="11.5123808"><ele>30.0</ele><time>2026-04-06T06:23:44.079Z</time></trkpt><trkpt lat="45.5176896" lon="11.5125048"><ele>30.0</ele><time>2026-04-06T06:23:46.079Z</time></trkpt><trkpt lat="45.5176883" lon="11.5126341"><ele>30.0</ele><time>2026-04-06T06:23:48.079Z</time></trkpt><trkpt lat="45.5176963" lon="11.5127672"><ele>30.0</ele><time>2026-04-06T06:23:50.079Z</time></trkpt><trkpt lat="45.5177006" lon="11.5129013"><ele>30.0</ele><time>2026-04-06T06:23:52.079Z</time></trkpt><trkpt lat="45.5177013" lon="11.5130255"><ele>30.333333333333332</ele><time>2026-04-06T06:23:54.079Z</time></trkpt><trkpt lat="45.5177061" lon="11.5131516"><ele>30.666666666666664</ele><time>2026-04-06T06:23:56.079Z</time></trkpt><trkpt lat="45.517709" lon="11.5132746"><ele>31.0</ele><time>2026-04-06T06:23:58.079Z</time></trkpt><trkpt lat="45.5177091" lon="11.5133963"><ele>31.333333333333332</ele><time>2026-04-06T06:24:00.079Z</time></trkpt><trkpt lat="45.5177045" lon="11.5134916"><ele>31.666666666666664</ele><time>2026-04-06T06:24:02.079Z</time></trkpt><trkpt lat="45.5177083" lon="11.5135893"><ele>32.0</ele><time>2026-04-06T06:24:04.079Z</time></trkpt><trkpt lat="45.5177079" lon="11.5136889"><ele>31.57142857142857</ele><time>2026-04-06T06:24:06.079Z</time></trkpt><trkpt lat="45.5177079" lon="11.5137812"><ele>31.14285714285714</ele><time>2026-04-06T06:24:08.079Z</time></trkpt><trkpt lat="45.5177037" lon="11.5138817"><ele>30.714285714285715</ele><time>2026-04-06T06:24:10.079Z</time></trkpt><trkpt lat="45.5176995" lon="11.5139806"><ele>30.285714285714285</ele><time>2026-04-06T06:24:12.079Z</time></trkpt><trkpt lat="45.517702" lon="11.5140842"><ele>29.857142857142858</ele><time>2026-04-06T06:24:14.079Z</time></trkpt><trkpt lat="45.5177067" lon="11.5141935"><ele>29.42857142857143</ele><time>2026-04-06T06:24:16.079Z</time></trkpt><trkpt lat="45.5177073" lon="11.5143061"><ele>29.000000000000004</ele><time>2026-04-06T06:24:18.079Z</time></trkpt><trkpt lat="45.51771" lon="11.5144249"><ele>28.999999999999996</ele><time>2026-04-06T06:24:20.079Z</time></trkpt><trkpt lat="45.5177113" lon="11.5145382"><ele>29.0</ele><time>2026-04-06T06:24:22.079Z</time></trkpt><trkpt lat="45.5177148" lon="11.5146471"><ele>29.0</ele><time>2026-04-06T06:24:24.079Z</time></trkpt><trkpt lat="45.5177171" lon="11.5147553"><ele>29.0</ele><time>2026-04-06T06:24:26.079Z</time></trkpt><trkpt lat="45.5177209" lon="11.5148715"><ele>28.999999999999996</ele><time>2026-04-06T06:24:28.079Z</time></trkpt><trkpt lat="45.5177216" lon="11.5149819"><ele>29.0</ele><time>2026-04-06T06:24:30.09Z</time></trkpt><trkpt lat="45.5177228" lon="11.5150928"><ele>29.000000000000004</ele><time>2026-04-06T06:24:32.079Z</time></trkpt><trkpt lat="45.5177119" lon="11.5151897"><ele>29.0</ele><time>2026-04-06T06:24:34.079Z</time></trkpt><trkpt lat="45.5177133" lon="11.515297"><ele>29.000000000000004</ele><time>2026-04-06T06:24:36.079Z</time></trkpt><trkpt lat="45.5177139" lon="11.5153996"><ele>29.000000000000004</ele><time>2026-04-06T06:24:38.079Z</time></trkpt><trkpt lat="45.5177174" lon="11.5154969"><ele>29.0</ele><time>2026-04-06T06:24:40.079Z</time></trkpt><trkpt lat="45.5177249" lon="11.5156026"><ele>29.000000000000004</ele><time>2026-04-06T06:24:42.079Z</time></trkpt><trkpt lat="45.517728" lon="11.5157103"><ele>29.000000000000004</ele><time>2026-04-06T06:24:44.079Z</time></trkpt><trkpt lat="45.5177282" lon="11.5158245"><ele>29.333333333333332</ele><time>2026-04-06T06:24:46.079Z</time></trkpt><trkpt lat="45.5177347" lon="11.5159429"><ele>29.666666666666664</ele><time>2026-04-06T06:24:48.079Z</time></trkpt><trkpt lat="45.5177384" lon="11.5160553"><ele>30.0</ele><time>2026-04-06T06:24:50.079Z</time></trkpt><trkpt lat="45.5177447" lon="11.5161673"><ele>30.333333333333336</ele><time>2026-04-06T06:24:52.079Z</time></trkpt><trkpt lat="45.5177462" lon="11.5162778"><ele>30.666666666666668</ele><time>2026-04-06T06:24:54.079Z</time></trkpt><trkpt lat="45.5177463" lon="11.5163904"><ele>31.0</ele><time>2026-04-06T06:24:56.079Z</time></trkpt><trkpt lat="45.5177461" lon="11.5164933"><ele>31.166666666666668</ele><time>2026-04-06T06:24:58.079Z</time></trkpt><trkpt lat="45.5177471" lon="11.5166001"><ele>31.333333333333336</ele><time>2026-04-06T06:25:00.08Z</time></trkpt><trkpt lat="45.5177442" lon="11.5167099"><ele>31.5</ele><time>2026-04-06T06:25:02.079Z</time></trkpt><trkpt lat="45.5177446" lon="11.5168171"><ele>31.666666666666664</ele><time>2026-04-06T06:25:04.079Z</time></trkpt><trkpt lat="45.5177482" lon="11.51692"><ele>31.833333333333332</ele><time>2026-04-06T06:25:06.079Z</time></trkpt><trkpt lat="45.5177537" lon="11.5170292"><ele>32.0</ele><time>2026-04-06T06:25:08.079Z</time></trkpt><trkpt lat="45.5177597" lon="11.5171438"><ele>31.666666666666664</ele><time>2026-04-06T06:25:10.079Z</time></trkpt><trkpt lat="45.5177638" lon="11.5172649"><ele>31.333333333333332</ele><time>2026-04-06T06:25:12.079Z</time></trkpt><trkpt lat="45.5177655" lon="11.5173755"><ele>31.0</ele><time>2026-04-06T06:25:14.079Z</time></trkpt><trkpt lat="45.5177645" lon="11.5174904"><ele>30.666666666666664</ele><time>2026-04-06T06:25:16.079Z</time></trkpt><trkpt lat="45.5177611" lon="11.5176008"><ele>30.333333333333332</ele><time>2026-04-06T06:25:18.079Z</time></trkpt><trkpt lat="45.517761" lon="11.5177085"><ele>30.0</ele><time>2026-04-06T06:25:20.079Z</time></trkpt><trkpt lat="45.5177597" lon="11.5178238"><ele>29.666666666666668</ele><time>2026-04-06T06:25:22.079Z</time></trkpt><trkpt lat="45.5177513" lon="11.517943"><ele>29.333333333333336</ele><time>2026-04-06T06:25:24.079Z</time></trkpt><trkpt lat="45.5177423" lon="11.5180534"><ele>29.0</ele><time>2026-04-06T06:25:26.079Z</time></trkpt><trkpt lat="45.5177322" lon="11.5181618"><ele>28.666666666666668</ele><time>2026-04-06T06:25:28.079Z</time></trkpt><trkpt lat="45.5177295" lon="11.5182744"><ele>28.333333333333336</ele><time>2026-04-06T06:25:30.079Z</time></trkpt><trkpt lat="45.5177272" lon="11.5183858"><ele>28.0</ele><time>2026-04-06T06:25:32.079Z</time></trkpt><trkpt lat="45.5177229" lon="11.5184963"><ele>28.000000000000004</ele><time>2026-04-06T06:25:34.079Z</time></trkpt><trkpt lat="45.5177216" lon="11.5186099"><ele>28.0</ele><time>2026-04-06T06:25:36.079Z</time></trkpt><trkpt lat="45.5177231" lon="11.5187262"><ele>28.0</ele><time>2026-04-06T06:25:38.079Z</time></trkpt><trkpt lat="45.517722" lon="11.5188378"><ele>28.0</ele><time>2026-04-06T06:25:40.079Z</time></trkpt><trkpt lat="45.5177168" lon="11.5189456"><ele>28.000000000000004</ele><time>2026-04-06T06:25:42.079Z</time></trkpt><trkpt lat="45.5177181" lon="11.5190478"><ele>28.0</ele><time>2026-04-06T06:25:44.079Z</time></trkpt><trkpt lat="45.517714" lon="11.5191532"><ele>28.333333333333336</ele><time>2026-04-06T06:25:46.079Z</time></trkpt><trkpt lat="45.51771" lon="11.5192608"><ele>28.666666666666668</ele><time>2026-04-06T06:25:48.079Z</time></trkpt><trkpt lat="45.5177119" lon="11.5193704"><ele>29.0</ele><time>2026-04-06T06:25:50.079Z</time></trkpt><trkpt lat="45.5177088" lon="11.5194825"><ele>29.333333333333336</ele><time>2026-04-06T06:25:52.079Z</time></trkpt><trkpt lat="45.5177113" lon="11.5195949"><ele>29.666666666666668</ele><time>2026-04-06T06:25:54.079Z</time></trkpt><trkpt lat="45.5177164" lon="11.5197009"><ele>30.0</ele><time>2026-04-06T06:25:56.079Z</time></trkpt><trkpt lat="45.5177191" lon="11.5198053"><ele>30.0</ele><time>2026-04-06T06:25:58.079Z</time></trkpt><trkpt lat="45.5177162" lon="11.5199177"><ele>30.0</ele><time>2026-04-06T06:26:00.079Z</time></trkpt><trkpt lat="45.5177149" lon="11.5200303"><ele>30.0</ele><time>2026-04-06T06:26:02.079Z</time></trkpt><trkpt lat="45.5177116" lon="11.5201414"><ele>30.0</ele><time>2026-04-06T06:26:04.079Z</time></trkpt><trkpt lat="45.5177056" lon="11.5202517"><ele>30.0</ele><time>2026-04-06T06:26:06.079Z</time></trkpt><trkpt lat="45.5177023" lon="11.520357"><ele>30.0</ele><time>2026-04-06T06:26:08.079Z</time></trkpt><trkpt lat="45.517701" lon="11.5204696"><ele>30.0</ele><time>2026-04-06T06:26:10.079Z</time></trkpt><trkpt lat="45.5177028" lon="11.52058"><ele>30.0</ele><time>2026-04-06T06:26:12.079Z</time></trkpt><trkpt lat="45.5177052" lon="11.5206861"><ele>30.0</ele><time>2026-04-06T06:26:14.079Z</time></trkpt><trkpt lat="45.5177096" lon="11.5207975"><ele>30.0</ele><time>2026-04-06T06:26:16.079Z</time></trkpt><trkpt lat="45.5177191" lon="11.5209055"><ele>30.0</ele><time>2026-04-06T06:26:18.079Z</time></trkpt><trkpt lat="45.5177224" lon="11.5210063"><ele>30.0</ele><time>2026-04-06T06:26:20.079Z</time></trkpt><trkpt lat="45.5177207" lon="11.5211018"><ele>30.0</ele><time>2026-04-06T06:26:22.079Z</time></trkpt><trkpt lat="45.5177289" lon="11.5212308"><ele>30.0</ele><time>2026-04-06T06:26:25.079Z</time></trkpt><trkpt lat="45.5177673" lon="11.5213479"><ele>30.0</ele><time>2026-04-06T06:26:28.079Z</time></trkpt><trkpt lat="45.5178322" lon="11.5213791"><ele>30.0</ele><time>2026-04-06T06:26:30.079Z</time></trkpt><trkpt lat="45.5179107" lon="11.5214029"><ele>30.0</ele><time>2026-04-06T06:26:32.079Z</time></trkpt><trkpt lat="45.5179973" lon="11.5214283"><ele>30.0</ele><time>2026-04-06T06:26:34.079Z</time></trkpt><trkpt lat="45.5183568" lon="11.521581"><ele>30.2</ele><time>2026-04-06T06:26:42.079Z</time></trkpt><trkpt lat="45.5185129" lon="11.5215569"><ele>30.4</ele><time>2026-04-06T06:26:46.079Z</time></trkpt><trkpt lat="45.5185889" lon="11.5216166"><ele>30.6</ele><time>2026-04-06T06:26:49.079Z</time></trkpt><trkpt lat="45.5186124" lon="11.5217049"><ele>30.8</ele><time>2026-04-06T06:26:51.08Z</time></trkpt><trkpt lat="45.5186148" lon="11.5218077"><ele>31.0</ele><time>2026-04-06T06:26:53.079Z</time></trkpt><trkpt lat="45.5186127" lon="11.5219153"><ele>31.000000000000004</ele><time>2026-04-06T06:26:55.079Z</time></trkpt><trkpt lat="45.5186083" lon="11.5220285"><ele>31.0</ele><time>2026-04-06T06:26:57.079Z</time></trkpt><trkpt lat="45.518614" lon="11.5221422"><ele>31.0</ele><time>2026-04-06T06:26:59.079Z</time></trkpt><trkpt lat="45.5186166" lon="11.522258"><ele>31.0</ele><time>2026-04-06T06:27:01.079Z</time></trkpt><trkpt lat="45.5186183" lon="11.5223741"><ele>31.000000000000004</ele><time>2026-04-06T06:27:03.079Z</time></trkpt><trkpt lat="45.5186117" lon="11.5224871"><ele>31.0</ele><time>2026-04-06T06:27:05.079Z</time></trkpt><trkpt lat="45.5186068" lon="11.5226"><ele>30.857142857142858</ele><time>2026-04-06T06:27:07.079Z</time></trkpt><trkpt lat="45.5186034" lon="11.5227049"><ele>30.714285714285715</ele><time>2026-04-06T06:27:09.079Z</time></trkpt><trkpt lat="45.5186057" lon="11.5228071"><ele>30.571428571428573</ele><time>2026-04-06T06:27:11.079Z</time></trkpt><trkpt lat="45.5186017" lon="11.5229027"><ele>30.42857142857143</ele><time>2026-04-06T06:27:13.079Z</time></trkpt><trkpt lat="45.5185929" lon="11.5229993"><ele>30.285714285714285</ele><time>2026-04-06T06:27:15.079Z</time></trkpt><trkpt lat="45.5185917" lon="11.523097"><ele>30.142857142857146</ele><time>2026-04-06T06:27:17.079Z</time></trkpt><trkpt lat="45.5185882" lon="11.5232025"><ele>30.0</ele><time>2026-04-06T06:27:19.079Z</time></trkpt><trkpt lat="45.5185916" lon="11.5233026"><ele>29.857142857142858</ele><time>2026-04-06T06:27:21.079Z</time></trkpt><trkpt lat="45.518585" lon="11.5234069"><ele>29.714285714285715</ele><time>2026-04-06T06:27:23.079Z</time></trkpt><trkpt lat="45.5185762" lon="11.5235094"><ele>29.571428571428573</ele><time>2026-04-06T06:27:25.079Z</time></trkpt><trkpt lat="45.5185736" lon="11.5236097"><ele>29.42857142857143</ele><time>2026-04-06T06:27:27.079Z</time></trkpt><trkpt lat="45.5185793" lon="11.5237013"><ele>29.285714285714285</ele><time>2026-04-06T06:27:29.079Z</time></trkpt><trkpt lat="45.5185775" lon="11.5237934"><ele>29.142857142857146</ele><time>2026-04-06T06:27:31.079Z</time></trkpt><trkpt lat="45.5185754" lon="11.5238901"><ele>29.000000000000004</ele><time>2026-04-06T06:27:33.079Z</time></trkpt><trkpt lat="45.5185709" lon="11.5239862"><ele>29.000000000000004</ele><time>2026-04-06T06:27:35.079Z</time></trkpt><trkpt lat="45.5185736" lon="11.5240937"><ele>29.0</ele><time>2026-04-06T06:27:37.079Z</time></trkpt><trkpt lat="45.518572" lon="11.5241916"><ele>29.000000000000004</ele><time>2026-04-06T06:27:39.079Z</time></trkpt><trkpt lat="45.5185601" lon="11.5242892"><ele>29.000000000000004</ele><time>2026-04-06T06:27:41.103Z</time></trkpt><trkpt lat="45.5185596" lon="11.524388"><ele>29.0</ele><time>2026-04-06T06:27:43.079Z</time></trkpt><trkpt lat="45.5185566" lon="11.5244856"><ele>29.000000000000004</ele><time>2026-04-06T06:27:45.079Z</time></trkpt><trkpt lat="45.518554" lon="11.5245821"><ele>29.000000000000004</ele><time>2026-04-06T06:27:47.079Z</time></trkpt><trkpt lat="45.5185511" lon="11.5246802"><ele>29.000000000000004</ele><time>2026-04-06T06:27:49.008Z</time></trkpt><trkpt lat="45.5185393" lon="11.5247823"><ele>29.0</ele><time>2026-04-06T06:27:51.079Z</time></trkpt><trkpt lat="45.5185317" lon="11.5248771"><ele>29.000000000000004</ele><time>2026-04-06T06:27:53.079Z</time></trkpt><trkpt lat="45.5185206" lon="11.5249726"><ele>29.000000000000004</ele><time>2026-04-06T06:27:55.079Z</time></trkpt><trkpt lat="45.518505" lon="11.5250845"><ele>29.0</ele><time>2026-04-06T06:27:57.079Z</time></trkpt><trkpt lat="45.5184895" lon="11.5251738"><ele>29.000000000000004</ele><time>2026-04-06T06:27:59.083Z</time></trkpt><trkpt lat="45.5184766" lon="11.5252739"><ele>29.000000000000004</ele><time>2026-04-06T06:28:01.07Z</time></trkpt><trkpt lat="45.5184708" lon="11.5253793"><ele>29.166666666666664</ele><time>2026-04-06T06:28:03.079Z</time></trkpt><trkpt lat="45.5184655" lon="11.5254831"><ele>29.333333333333332</ele><time>2026-04-06T06:28:05.079Z</time></trkpt><trkpt lat="45.5184545" lon="11.5255802"><ele>29.5</ele><time>2026-04-06T06:28:06.981Z</time></trkpt><trkpt lat="45.5184526" lon="11.5256974"><ele>29.666666666666664</ele><time>2026-04-06T06:28:09.079Z</time></trkpt><trkpt lat="45.5184453" lon="11.5258247"><ele>29.833333333333332</ele><time>2026-04-06T06:28:11.064Z</time></trkpt><trkpt lat="45.5184355" lon="11.5259389"><ele>30.0</ele><time>2026-04-06T06:28:14.079Z</time></trkpt><trkpt lat="45.5184343" lon="11.5260767"><ele>30.0</ele><time>2026-04-06T06:28:17.079Z</time></trkpt><trkpt lat="45.5184312" lon="11.5261757"><ele>30.0</ele><time>2026-04-06T06:28:19.079Z</time></trkpt><trkpt lat="45.5184323" lon="11.5262758"><ele>30.0</ele><time>2026-04-06T06:28:21.079Z</time></trkpt><trkpt lat="45.5184205" lon="11.5263754"><ele>30.0</ele><time>2026-04-06T06:28:23.079Z</time></trkpt><trkpt lat="45.5183998" lon="11.5265279"><ele>30.0</ele><time>2026-04-06T06:28:26.088Z</time></trkpt><trkpt lat="45.5183845" lon="11.5266258"><ele>30.0</ele><time>2026-04-06T06:28:28.079Z</time></trkpt><trkpt lat="45.5183761" lon="11.5267266"><ele>29.714285714285715</ele><time>2026-04-06T06:28:30.079Z</time></trkpt><trkpt lat="45.5183593" lon="11.5268175"><ele>29.428571428571427</ele><time>2026-04-06T06:28:32.079Z</time></trkpt><trkpt lat="45.5183466" lon="11.5269151"><ele>29.142857142857142</ele><time>2026-04-06T06:28:34.094Z</time></trkpt><trkpt lat="45.5183336" lon="11.5270141"><ele>28.857142857142858</ele><time>2026-04-06T06:28:36.079Z</time></trkpt><trkpt lat="45.5183209" lon="11.5271145"><ele>28.57142857142857</ele><time>2026-04-06T06:28:38.079Z</time></trkpt><trkpt lat="45.5183066" lon="11.527218"><ele>28.285714285714285</ele><time>2026-04-06T06:28:40.079Z</time></trkpt><trkpt lat="45.51829" lon="11.5273228"><ele>28.0</ele><time>2026-04-06T06:28:42.079Z</time></trkpt><trkpt lat="45.5182767" lon="11.5274291"><ele>28.0</ele><time>2026-04-06T06:28:44.079Z</time></trkpt><trkpt lat="45.5182702" lon="11.5275385"><ele>28.0</ele><time>2026-04-06T06:28:46.079Z</time></trkpt><trkpt lat="45.5182483" lon="11.5276378"><ele>28.0</ele><time>2026-04-06T06:28:48.079Z</time></trkpt><trkpt lat="45.5182271" lon="11.5277294"><ele>28.0</ele><time>2026-04-06T06:28:50.079Z</time></trkpt><trkpt lat="45.5182116" lon="11.5278188"><ele>28.0</ele><time>2026-04-06T06:28:52.079Z</time></trkpt><trkpt lat="45.5182003" lon="11.5279125"><ele>28.0</ele><time>2026-04-06T06:28:54.079Z</time></trkpt><trkpt lat="45.5181943" lon="11.5280105"><ele>28.0</ele><time>2026-04-06T06:28:56.084Z</time></trkpt><trkpt lat="45.5181835" lon="11.5281077"><ele>28.166666666666668</ele><time>2026-04-06T06:28:58.079Z</time></trkpt><trkpt lat="45.5181678" lon="11.528206"><ele>28.333333333333336</ele><time>2026-04-06T06:29:00.049Z</time></trkpt><trkpt lat="45.5181521" lon="11.5283132"><ele>28.5</ele><time>2026-04-06T06:29:02.079Z</time></trkpt><trkpt lat="45.5181373" lon="11.5284243"><ele>28.666666666666664</ele><time>2026-04-06T06:29:04.087Z</time></trkpt><trkpt lat="45.5181276" lon="11.5285312"><ele>28.833333333333332</ele><time>2026-04-06T06:29:06.002Z</time></trkpt><trkpt lat="45.5181092" lon="11.5286382"><ele>29.0</ele><time>2026-04-06T06:29:08.079Z</time></trkpt><trkpt lat="45.5180983" lon="11.5287402"><ele>29.000000000000004</ele><time>2026-04-06T06:29:10.079Z</time></trkpt><trkpt lat="45.5180904" lon="11.5288418"><ele>29.0</ele><time>2026-04-06T06:29:12.093Z</time></trkpt><trkpt lat="45.5180796" lon="11.5289441"><ele>29.000000000000004</ele><time>2026-04-06T06:29:14.079Z</time></trkpt><trkpt lat="45.5180686" lon="11.52905"><ele>29.000000000000004</ele><time>2026-04-06T06:29:16.029Z</time></trkpt><trkpt lat="45.5180562" lon="11.5291606"><ele>29.0</ele><time>2026-04-06T06:29:18.114Z</time></trkpt><trkpt lat="45.5180443" lon="11.5292589"><ele>29.000000000000004</ele><time>2026-04-06T06:29:20.003Z</time></trkpt><trkpt lat="45.5180347" lon="11.5293683"><ele>29.000000000000004</ele><time>2026-04-06T06:29:22.079Z</time></trkpt><trkpt lat="45.5180233" lon="11.529474"><ele>28.999999999999996</ele><time>2026-04-06T06:29:24.079Z</time></trkpt><trkpt lat="45.5180143" lon="11.5295806"><ele>29.0</ele><time>2026-04-06T06:29:26.068Z</time></trkpt><trkpt lat="45.5180047" lon="11.5296893"><ele>29.0</ele><time>2026-04-06T06:29:28.079Z</time></trkpt><trkpt lat="45.5179961" lon="11.5297961"><ele>29.0</ele><time>2026-04-06T06:29:30.079Z</time></trkpt><trkpt lat="45.5179859" lon="11.5299056"><ele>28.999999999999996</ele><time>2026-04-06T06:29:32.079Z</time></trkpt><trkpt lat="45.5179757" lon="11.5300115"><ele>29.0</ele><time>2026-04-06T06:29:34.123Z</time></trkpt><trkpt lat="45.5179561" lon="11.5301143"><ele>28.999999999999996</ele><time>2026-04-06T06:29:36.079Z</time></trkpt><trkpt lat="45.5179455" lon="11.5302271"><ele>29.0</ele><time>2026-04-06T06:29:38.08Z</time></trkpt><trkpt lat="45.5179365" lon="11.5303409"><ele>29.0</ele><time>2026-04-06T06:29:40.079Z</time></trkpt><trkpt lat="45.5179256" lon="11.5304486"><ele>29.0</ele><time>2026-04-06T06:29:42.086Z</time></trkpt><trkpt lat="45.5179197" lon="11.5305533"><ele>28.999999999999996</ele><time>2026-04-06T06:29:44.11Z</time></trkpt><trkpt lat="45.5179151" lon="11.5306569"><ele>29.0</ele><time>2026-04-06T06:29:46.079Z</time></trkpt><trkpt lat="45.5179102" lon="11.5307627"><ele>28.999999999999996</ele><time>2026-04-06T06:29:48.079Z</time></trkpt><trkpt lat="45.5179209" lon="11.5308665"><ele>29.0</ele><time>2026-04-06T06:29:50.092Z</time></trkpt><trkpt lat="45.517942" lon="11.5309739"><ele>29.0</ele><time>2026-04-06T06:29:52.079Z</time></trkpt><trkpt lat="45.5179641" lon="11.5310726"><ele>29.0</ele><time>2026-04-06T06:29:54.079Z</time></trkpt><trkpt lat="45.5179795" lon="11.5311798"><ele>28.999999999999996</ele><time>2026-04-06T06:29:56.079Z</time></trkpt><trkpt lat="45.5179892" lon="11.5312855"><ele>29.0</ele><time>2026-04-06T06:29:58.079Z</time></trkpt><trkpt lat="45.5179962" lon="11.5313934"><ele>29.000000000000004</ele><time>2026-04-06T06:30:00.079Z</time></trkpt><trkpt lat="45.5179938" lon="11.5315031"><ele>29.0</ele><time>2026-04-06T06:30:02.079Z</time></trkpt><trkpt lat="45.5179805" lon="11.53161"><ele>29.000000000000004</ele><time>2026-04-06T06:30:04.079Z</time></trkpt><trkpt lat="45.5179727" lon="11.531716"><ele>29.000000000000004</ele><time>2026-04-06T06:30:06.079Z</time></trkpt><trkpt lat="45.517968" lon="11.5318189"><ele>29.0</ele><time>2026-04-06T06:30:08.089Z</time></trkpt><trkpt lat="45.5179649" lon="11.5319208"><ele>29.000000000000004</ele><time>2026-04-06T06:30:10.08Z</time></trkpt><trkpt lat="45.5179587" lon="11.5320118"><ele>29.000000000000004</ele><time>2026-04-06T06:30:11.903Z</time></trkpt><trkpt lat="45.51795" lon="11.5321351"><ele>29.000000000000004</ele><time>2026-04-06T06:30:14.079Z</time></trkpt><trkpt lat="45.517945" lon="11.5322435"><ele>29.0</ele><time>2026-04-06T06:30:16.079Z</time></trkpt><trkpt lat="45.5179406" lon="11.5323587"><ele>29.000000000000004</ele><time>2026-04-06T06:30:18.079Z</time></trkpt><trkpt lat="45.5179362" lon="11.5324695"><ele>29.000000000000004</ele><time>2026-04-06T06:30:20.085Z</time></trkpt><trkpt lat="45.5179325" lon="11.5325803"><ele>29.0</ele><time>2026-04-06T06:30:22.079Z</time></trkpt><trkpt lat="45.5179388" lon="11.5326754"><ele>29.000000000000004</ele><time>2026-04-06T06:30:24.079Z</time></trkpt><trkpt lat="45.5179623" lon="11.5327605"><ele>29.000000000000004</ele><time>2026-04-06T06:30:26.079Z</time></trkpt><trkpt lat="45.5180077" lon="11.5328375"><ele>29.000000000000004</ele><time>2026-04-06T06:30:28.091Z</time></trkpt><trkpt lat="45.5180699" lon="11.532875"><ele>29.0</ele><time>2026-04-06T06:30:30.079Z</time></trkpt><trkpt lat="45.5181416" lon="11.5328989"><ele>29.000000000000004</ele><time>2026-04-06T06:30:32.08Z</time></trkpt><trkpt lat="45.5182192" lon="11.5329094"><ele>29.000000000000004</ele><time>2026-04-06T06:30:34.079Z</time></trkpt><trkpt lat="45.5182936" lon="11.5329241"><ele>29.0</ele><time>2026-04-06T06:30:36.097Z</time></trkpt><trkpt lat="45.5183608" lon="11.5329454"><ele>29.000000000000004</ele><time>2026-04-06T06:30:38.079Z</time></trkpt><trkpt lat="45.5184242" lon="11.5329715"><ele>29.000000000000004</ele><time>2026-04-06T06:30:40.079Z</time></trkpt><trkpt lat="45.5184899" lon="11.5330037"><ele>28.85714285714286</ele><time>2026-04-06T06:30:42.079Z</time></trkpt><trkpt lat="45.51856" lon="11.53303"><ele>28.714285714285715</ele><time>2026-04-06T06:30:44.079Z</time></trkpt><trkpt lat="45.5186223" lon="11.5330689"><ele>28.571428571428573</ele><time>2026-04-06T06:30:46.009Z</time></trkpt><trkpt lat="45.5186718" lon="11.533133"><ele>28.42857142857143</ele><time>2026-04-06T06:30:48.079Z</time></trkpt><trkpt lat="45.5187219" lon="11.5332346"><ele>28.285714285714285</ele><time>2026-04-06T06:30:51.079Z</time></trkpt><trkpt lat="45.5187441" lon="11.5333333"><ele>28.142857142857142</ele><time>2026-04-06T06:30:53.984Z</time></trkpt><trkpt lat="45.5187904" lon="11.5334249"><ele>28.0</ele><time>2026-04-06T06:30:58.084Z</time></trkpt><trkpt lat="45.5188669" lon="11.5334368"><ele>28.000000000000004</ele><time>2026-04-06T06:31:02.079Z</time></trkpt><trkpt lat="45.5188862" lon="11.5335295"><ele>28.0</ele><time>2026-04-06T06:31:06.09Z</time></trkpt><trkpt lat="45.5188911" lon="11.5336257"><ele>28.0</ele><time>2026-04-06T06:31:09.031Z</time></trkpt><trkpt lat="45.5188804" lon="11.5337556"><ele>28.0</ele><time>2026-04-06T06:31:11.989Z</time></trkpt><trkpt lat="45.5188591" lon="11.5338662"><ele>28.000000000000004</ele><time>2026-04-06T06:31:14.096Z</time></trkpt><trkpt lat="45.5188282" lon="11.5339527"><ele>28.0</ele><time>2026-04-06T06:31:16.05Z</time></trkpt><trkpt lat="45.5187557" lon="11.5340169"><ele>30.166666666666668</ele><time>2026-04-06T06:31:18.079Z</time></trkpt><trkpt lat="45.5186843" lon="11.5340718"><ele>32.333333333333336</ele><time>2026-04-06T06:31:20.079Z</time></trkpt><trkpt lat="45.5186255" lon="11.5341371"><ele>34.5</ele><time>2026-04-06T06:31:22.08Z</time></trkpt><trkpt lat="45.5185746" lon="11.5342238"><ele>36.666666666666664</ele><time>2026-04-06T06:31:24.079Z</time></trkpt><trkpt lat="45.5185236" lon="11.5343069"><ele>38.83333333333333</ele><time>2026-04-06T06:31:26.079Z</time></trkpt><trkpt lat="45.5184719" lon="11.5343769"><ele>41.0</ele><time>2026-04-06T06:31:28.079Z</time></trkpt><trkpt lat="45.5184123" lon="11.5344586"><ele>41.0</ele><time>2026-04-06T06:31:30.112Z</time></trkpt><trkpt lat="45.518336" lon="11.5344951"><ele>41.0</ele><time>2026-04-06T06:31:32.079Z</time></trkpt><trkpt lat="45.5182675" lon="11.5345538"><ele>41.0</ele><time>2026-04-06T06:31:34.383Z</time></trkpt><trkpt lat="45.5181908" lon="11.5346338"><ele>41.0</ele><time>2026-04-06T06:31:36.843Z</time></trkpt><trkpt lat="45.5181317" lon="11.534687"><ele>41.0</ele><time>2026-04-06T06:31:39.08Z</time></trkpt><trkpt lat="45.5180608" lon="11.5347576"><ele>41.0</ele><time>2026-04-06T06:31:42.079Z</time></trkpt><trkpt lat="45.5180126" lon="11.5348261"><ele>42.166666666666664</ele><time>2026-04-06T06:31:44.088Z</time></trkpt><trkpt lat="45.5179398" lon="11.5349073"><ele>43.33333333333333</ele><time>2026-04-06T06:31:47.109Z</time></trkpt><trkpt lat="45.5178901" lon="11.5349668"><ele>44.5</ele><time>2026-04-06T06:31:49.079Z</time></trkpt><trkpt lat="45.5178253" lon="11.5350576"><ele>45.666666666666664</ele><time>2026-04-06T06:31:52.094Z</time></trkpt><trkpt lat="45.517791" lon="11.5351393"><ele>46.833333333333336</ele><time>2026-04-06T06:31:54.079Z</time></trkpt><trkpt lat="45.5177648" lon="11.5352292"><ele>48.0</ele><time>2026-04-06T06:31:55.952Z</time></trkpt><trkpt lat="45.5177786" lon="11.5353362"><ele>46.285714285714285</ele><time>2026-04-06T06:31:58.079Z</time></trkpt><trkpt lat="45.5178184" lon="11.535423"><ele>44.57142857142857</ele><time>2026-04-06T06:32:00.079Z</time></trkpt><trkpt lat="45.5178519" lon="11.5355065"><ele>42.85714285714286</ele><time>2026-04-06T06:32:02.079Z</time></trkpt><trkpt lat="45.5178757" lon="11.5355966"><ele>41.14285714285714</ele><time>2026-04-06T06:32:04.08Z</time></trkpt><trkpt lat="45.5178996" lon="11.5356814"><ele>39.42857142857143</ele><time>2026-04-06T06:32:06.089Z</time></trkpt><trkpt lat="45.5179269" lon="11.5357737"><ele>37.714285714285715</ele><time>2026-04-06T06:32:07.99Z</time></trkpt><trkpt lat="45.5179422" lon="11.5358709"><ele>36.0</ele><time>2026-04-06T06:32:10.079Z</time></trkpt><trkpt lat="45.5179605" lon="11.535959"><ele>35.166666666666664</ele><time>2026-04-06T06:32:12.064Z</time></trkpt><trkpt lat="45.5180079" lon="11.5360586"><ele>34.333333333333336</ele><time>2026-04-06T06:32:15.079Z</time></trkpt><trkpt lat="45.5180837" lon="11.5361216"><ele>33.5</ele><time>2026-04-06T06:32:18.079Z</time></trkpt><trkpt lat="45.5181452" lon="11.5361658"><ele>32.66666666666667</ele><time>2026-04-06T06:32:20.079Z</time></trkpt><trkpt lat="45.5181891" lon="11.5362457"><ele>31.833333333333336</ele><time>2026-04-06T06:32:22.086Z</time></trkpt><trkpt lat="45.518224" lon="11.5363313"><ele>31.0</ele><time>2026-04-06T06:32:24.089Z</time></trkpt><trkpt lat="45.5182746" lon="11.5364356"><ele>30.666666666666668</ele><time>2026-04-06T06:32:27.079Z</time></trkpt><trkpt lat="45.5183244" lon="11.5365396"><ele>30.333333333333336</ele><time>2026-04-06T06:32:30.027Z</time></trkpt><trkpt lat="45.5183614" lon="11.5366158"><ele>30.0</ele><time>2026-04-06T06:32:32.079Z</time></trkpt><trkpt lat="45.5184034" lon="11.5366922"><ele>29.666666666666664</ele><time>2026-04-06T06:32:34.079Z</time></trkpt><trkpt lat="45.5184687" lon="11.5367953"><ele>29.333333333333332</ele><time>2026-04-06T06:32:37.079Z</time></trkpt><trkpt lat="45.5185141" lon="11.5368777"><ele>29.0</ele><time>2026-04-06T06:32:39.079Z</time></trkpt><trkpt lat="45.5185557" lon="11.5369684"><ele>28.999999999999996</ele><time>2026-04-06T06:32:41.085Z</time></trkpt><trkpt lat="45.5185982" lon="11.5370435"><ele>29.0</ele><time>2026-04-06T06:32:43.079Z</time></trkpt><trkpt lat="45.5186428" lon="11.5371144"><ele>29.0</ele><time>2026-04-06T06:32:45.079Z</time></trkpt><trkpt lat="45.5186946" lon="11.5371917"><ele>29.0</ele><time>2026-04-06T06:32:48.079Z</time></trkpt><trkpt lat="45.5187584" lon="11.5372675"><ele>28.999999999999996</ele><time>2026-04-06T06:32:51.079Z</time></trkpt><trkpt lat="45.5188187" lon="11.5373634"><ele>29.0</ele><time>2026-04-06T06:32:54.044Z</time></trkpt><trkpt lat="45.5188811" lon="11.5374618"><ele>29.333333333333332</ele><time>2026-04-06T06:32:57.071Z</time></trkpt><trkpt lat="45.5189227" lon="11.5375354"><ele>29.666666666666664</ele><time>2026-04-06T06:32:59.079Z</time></trkpt><trkpt lat="45.5189881" lon="11.5376243"><ele>30.0</ele><time>2026-04-06T06:33:02.079Z</time></trkpt><trkpt lat="45.5190473" lon="11.5377264"><ele>30.333333333333336</ele><time>2026-04-06T06:33:05.079Z</time></trkpt><trkpt lat="45.5190753" lon="11.5378104"><ele>30.666666666666668</ele><time>2026-04-06T06:33:07.08Z</time></trkpt><trkpt lat="45.5190855" lon="11.5379004"><ele>31.0</ele><time>2026-04-06T06:33:09.079Z</time></trkpt><trkpt lat="45.5190803" lon="11.5380154"><ele>33.0</ele><time>2026-04-06T06:33:12.079Z</time></trkpt><trkpt lat="45.5191206" lon="11.5380997"><ele>35.0</ele><time>2026-04-06T06:33:15.024Z</time></trkpt><trkpt lat="45.5192093" lon="11.5381219"><ele>37.0</ele><time>2026-04-06T06:33:18.079Z</time></trkpt><trkpt lat="45.5193055" lon="11.5381017"><ele>39.0</ele><time>2026-04-06T06:33:21.079Z</time></trkpt><trkpt lat="45.5193717" lon="11.5380793"><ele>41.0</ele><time>2026-04-06T06:33:23.051Z</time></trkpt><trkpt lat="45.5194394" lon="11.5380633"><ele>43.0</ele><time>2026-04-06T06:33:25.079Z</time></trkpt><trkpt lat="45.5195073" lon="11.538029"><ele>42.28571428571429</ele><time>2026-04-06T06:33:27.088Z</time></trkpt><trkpt lat="45.51958" lon="11.5380006"><ele>41.57142857142857</ele><time>2026-04-06T06:33:29.079Z</time></trkpt><trkpt lat="45.5196437" lon="11.5379591"><ele>40.85714285714286</ele><time>2026-04-06T06:33:30.985Z</time></trkpt><trkpt lat="45.519706" lon="11.5378977"><ele>40.142857142857146</ele><time>2026-04-06T06:33:33.079Z</time></trkpt><trkpt lat="45.5197635" lon="11.5378312"><ele>39.42857142857143</ele><time>2026-04-06T06:33:35.079Z</time></trkpt><trkpt lat="45.5198195" lon="11.5377643"><ele>38.714285714285715</ele><time>2026-04-06T06:33:37.079Z</time></trkpt><trkpt lat="45.5198773" lon="11.537702"><ele>38.0</ele><time>2026-04-06T06:33:39.079Z</time></trkpt><trkpt lat="45.5199336" lon="11.537634"><ele>37.0</ele><time>2026-04-06T06:33:41.079Z</time></trkpt><trkpt lat="45.51999" lon="11.5375588"><ele>36.0</ele><time>2026-04-06T06:33:43.084Z</time></trkpt><trkpt lat="45.5200483" lon="11.5374789"><ele>35.0</ele><time>2026-04-06T06:33:45.079Z</time></trkpt><trkpt lat="45.5201057" lon="11.5373969"><ele>34.0</ele><time>2026-04-06T06:33:47.079Z</time></trkpt><trkpt lat="45.5201581" lon="11.5373119"><ele>33.0</ele><time>2026-04-06T06:33:49.079Z</time></trkpt><trkpt lat="45.5202138" lon="11.5372309"><ele>32.0</ele><time>2026-04-06T06:33:51.069Z</time></trkpt><trkpt lat="45.5202743" lon="11.5371461"><ele>31.999999999999996</ele><time>2026-04-06T06:33:53.079Z</time></trkpt><trkpt lat="45.5203393" lon="11.5370808"><ele>32.0</ele><time>2026-04-06T06:33:54.704Z</time></trkpt><trkpt lat="45.5204209" lon="11.5370249"><ele>32.0</ele><time>2026-04-06T06:33:57.08Z</time></trkpt><trkpt lat="45.5204971" lon="11.5369885"><ele>32.0</ele><time>2026-04-06T06:33:59.079Z</time></trkpt><trkpt lat="45.5205759" lon="11.5369588"><ele>31.999999999999996</ele><time>2026-04-06T06:34:01.079Z</time></trkpt><trkpt lat="45.5206545" lon="11.536931"><ele>32.0</ele><time>2026-04-06T06:34:03.079Z</time></trkpt><trkpt lat="45.5207367" lon="11.5369068"><ele>31.833333333333332</ele><time>2026-04-06T06:34:05.086Z</time></trkpt><trkpt lat="45.5208155" lon="11.5369007"><ele>31.666666666666664</ele><time>2026-04-06T06:34:07.079Z</time></trkpt><trkpt lat="45.5208887" lon="11.536883"><ele>31.5</ele><time>2026-04-06T06:34:09.079Z</time></trkpt><trkpt lat="45.5209615" lon="11.5368671"><ele>31.333333333333336</ele><time>2026-04-06T06:34:11.079Z</time></trkpt><trkpt lat="45.5210379" lon="11.5368534"><ele>31.166666666666668</ele><time>2026-04-06T06:34:13.091Z</time></trkpt><trkpt lat="45.5211109" lon="11.5368493"><ele>31.0</ele><time>2026-04-06T06:34:15.079Z</time></trkpt><trkpt lat="45.5211835" lon="11.5368414"><ele>31.0</ele><time>2026-04-06T06:34:17.079Z</time></trkpt><trkpt lat="45.5212574" lon="11.5368456"><ele>31.000000000000004</ele><time>2026-04-06T06:34:19.079Z</time></trkpt><trkpt lat="45.5213289" lon="11.5368534"><ele>31.0</ele><time>2026-04-06T06:34:21.079Z</time></trkpt><trkpt lat="45.5213944" lon="11.5368769"><ele>31.0</ele><time>2026-04-06T06:34:23.079Z</time></trkpt><trkpt lat="45.5214501" lon="11.5369222"><ele>31.000000000000004</ele><time>2026-04-06T06:34:25.079Z</time></trkpt><trkpt lat="45.5215383" lon="11.5369476"><ele>31.0</ele><time>2026-04-06T06:34:28.079Z</time></trkpt><trkpt lat="45.5216051" lon="11.5369493"><ele>31.0</ele><time>2026-04-06T06:34:30.087Z</time></trkpt><trkpt lat="45.5216871" lon="11.5369466"><ele>31.000000000000004</ele><time>2026-04-06T06:34:32.615Z</time></trkpt><trkpt lat="45.5217789" lon="11.5369374"><ele>31.0</ele><time>2026-04-06T06:34:35.079Z</time></trkpt><trkpt lat="45.5218733" lon="11.536929"><ele>31.0</ele><time>2026-04-06T06:34:38.079Z</time></trkpt><trkpt lat="45.5219383" lon="11.5369362"><ele>31.0</ele><time>2026-04-06T06:34:40.079Z</time></trkpt><trkpt lat="45.5220092" lon="11.5369352"><ele>31.000000000000004</ele><time>2026-04-06T06:34:42.079Z</time></trkpt><trkpt lat="45.5220851" lon="11.5369172"><ele>31.0</ele><time>2026-04-06T06:34:44.079Z</time></trkpt><trkpt lat="45.522163" lon="11.5368802"><ele>32.42857142857143</ele><time>2026-04-06T06:34:46.079Z</time></trkpt><trkpt lat="45.5222367" lon="11.5368353"><ele>33.85714285714286</ele><time>2026-04-06T06:34:48.079Z</time></trkpt><trkpt lat="45.5223075" lon="11.5367835"><ele>35.285714285714285</ele><time>2026-04-06T06:34:50.079Z</time></trkpt><trkpt lat="45.5223692" lon="11.5367202"><ele>36.714285714285715</ele><time>2026-04-06T06:34:52.079Z</time></trkpt><trkpt lat="45.5224199" lon="11.5366403"><ele>38.14285714285714</ele><time>2026-04-06T06:34:54.069Z</time></trkpt><trkpt lat="45.5224531" lon="11.5365533"><ele>39.57142857142857</ele><time>2026-04-06T06:34:56.079Z</time></trkpt><trkpt lat="45.5224782" lon="11.5364676"><ele>41.0</ele><time>2026-04-06T06:34:58.079Z</time></trkpt><trkpt lat="45.5225023" lon="11.5363784"><ele>41.0</ele><time>2026-04-06T06:35:00.079Z</time></trkpt><trkpt lat="45.522531" lon="11.5362851"><ele>41.0</ele><time>2026-04-06T06:35:02.081Z</time></trkpt><trkpt lat="45.5225624" lon="11.5361979"><ele>41.0</ele><time>2026-04-06T06:35:04.079Z</time></trkpt><trkpt lat="45.5225916" lon="11.5361028"><ele>41.0</ele><time>2026-04-06T06:35:06.079Z</time></trkpt><trkpt lat="45.5226253" lon="11.5360058"><ele>41.0</ele><time>2026-04-06T06:35:08.07Z</time></trkpt><trkpt lat="45.5226575" lon="11.5358979"><ele>41.0</ele><time>2026-04-06T06:35:10.087Z</time></trkpt><trkpt lat="45.5227055" lon="11.5357914"><ele>40.0</ele><time>2026-04-06T06:35:12.079Z</time></trkpt><trkpt lat="45.5227443" lon="11.5356705"><ele>39.0</ele><time>2026-04-06T06:35:14.079Z</time></trkpt><trkpt lat="45.522774" lon="11.5355562"><ele>38.0</ele><time>2026-04-06T06:35:16.079Z</time></trkpt><trkpt lat="45.5228217" lon="11.5354345"><ele>37.0</ele><time>2026-04-06T06:35:18.079Z</time></trkpt><trkpt lat="45.522858" lon="11.5353116"><ele>36.0</ele><time>2026-04-06T06:35:20.079Z</time></trkpt><trkpt lat="45.5228994" lon="11.5351974"><ele>35.333333333333336</ele><time>2026-04-06T06:35:22.079Z</time></trkpt><trkpt lat="45.5229396" lon="11.5350842"><ele>34.666666666666664</ele><time>2026-04-06T06:35:24.079Z</time></trkpt><trkpt lat="45.5229878" lon="11.5349858"><ele>34.0</ele><time>2026-04-06T06:35:26.079Z</time></trkpt><trkpt lat="45.5230425" lon="11.5349039"><ele>33.33333333333333</ele><time>2026-04-06T06:35:28.079Z</time></trkpt><trkpt lat="45.5230934" lon="11.5348256"><ele>32.666666666666664</ele><time>2026-04-06T06:35:30.079Z</time></trkpt><trkpt lat="45.5231542" lon="11.53477"><ele>32.0</ele><time>2026-04-06T06:35:32.079Z</time></trkpt><trkpt lat="45.5232112" lon="11.534715"><ele>31.999999999999996</ele><time>2026-04-06T06:35:34.079Z</time></trkpt><trkpt lat="45.5232656" lon="11.534656"><ele>32.0</ele><time>2026-04-06T06:35:36.079Z</time></trkpt><trkpt lat="45.5233235" lon="11.5345939"><ele>32.0</ele><time>2026-04-06T06:35:38.079Z</time></trkpt><trkpt lat="45.5233884" lon="11.5345304"><ele>32.0</ele><time>2026-04-06T06:35:40.079Z</time></trkpt><trkpt lat="45.5234546" lon="11.5344663"><ele>31.999999999999996</ele><time>2026-04-06T06:35:42.079Z</time></trkpt><trkpt lat="45.5235254" lon="11.5343991"><ele>32.0</ele><time>2026-04-06T06:35:44.079Z</time></trkpt><trkpt lat="45.5235936" lon="11.5343328"><ele>31.999999999999996</ele><time>2026-04-06T06:35:46.079Z</time></trkpt><trkpt lat="45.5236588" lon="11.5342745"><ele>32.0</ele><time>2026-04-06T06:35:48.079Z</time></trkpt><trkpt lat="45.5237157" lon="11.5342146"><ele>32.0</ele><time>2026-04-06T06:35:50.079Z</time></trkpt><trkpt lat="45.523777" lon="11.5341478"><ele>32.0</ele><time>2026-04-06T06:35:52.079Z</time></trkpt><trkpt lat="45.5238373" lon="11.534068"><ele>31.999999999999996</ele><time>2026-04-06T06:35:54.079Z</time></trkpt><trkpt lat="45.5238945" lon="11.5339843"><ele>32.0</ele><time>2026-04-06T06:35:56.079Z</time></trkpt><trkpt lat="45.5239468" lon="11.5339073"><ele>32.57142857142857</ele><time>2026-04-06T06:35:58.079Z</time></trkpt><trkpt lat="45.5239999" lon="11.5338283"><ele>33.14285714285714</ele><time>2026-04-06T06:36:00.079Z</time></trkpt><trkpt lat="45.5240467" lon="11.5337472"><ele>33.714285714285715</ele><time>2026-04-06T06:36:02.079Z</time></trkpt><trkpt lat="45.524096" lon="11.5336705"><ele>34.285714285714285</ele><time>2026-04-06T06:36:04.079Z</time></trkpt><trkpt lat="45.5241425" lon="11.5336005"><ele>34.85714285714286</ele><time>2026-04-06T06:36:06.079Z</time></trkpt><trkpt lat="45.5241908" lon="11.533527"><ele>35.42857142857143</ele><time>2026-04-06T06:36:08.079Z</time></trkpt><trkpt lat="45.5242329" lon="11.5334523"><ele>36.0</ele><time>2026-04-06T06:36:10.079Z</time></trkpt><trkpt lat="45.5242786" lon="11.5333759"><ele>36.00000000000001</ele><time>2026-04-06T06:36:12.079Z</time></trkpt><trkpt lat="45.524331" lon="11.5332986"><ele>36.0</ele><time>2026-04-06T06:36:14.079Z</time></trkpt><trkpt lat="45.5243836" lon="11.5332384"><ele>36.0</ele><time>2026-04-06T06:36:16.079Z</time></trkpt><trkpt lat="45.5244394" lon="11.5331661"><ele>36.0</ele><time>2026-04-06T06:36:18.079Z</time></trkpt><trkpt lat="45.5244895" lon="11.5330989"><ele>36.0</ele><time>2026-04-06T06:36:20.079Z</time></trkpt><trkpt lat="45.5245391" lon="11.5330265"><ele>36.00000000000001</ele><time>2026-04-06T06:36:22.079Z</time></trkpt><trkpt lat="45.5245895" lon="11.5329182"><ele>36.0</ele><time>2026-04-06T06:36:25.079Z</time></trkpt><trkpt lat="45.5246172" lon="11.5328345"><ele>37.85714285714286</ele><time>2026-04-06T06:36:27.079Z</time></trkpt><trkpt lat="45.5246634" lon="11.5327134"><ele>39.714285714285715</ele><time>2026-04-06T06:36:30.079Z</time></trkpt><trkpt lat="45.5247031" lon="11.5326399"><ele>41.57142857142857</ele><time>2026-04-06T06:36:32.08Z</time></trkpt><trkpt lat="45.5247481" lon="11.5325632"><ele>43.42857142857143</ele><time>2026-04-06T06:36:34.079Z</time></trkpt><trkpt lat="45.5247951" lon="11.532493"><ele>45.285714285714285</ele><time>2026-04-06T06:36:36.079Z</time></trkpt><trkpt lat="45.524835" lon="11.5324155"><ele>47.142857142857146</ele><time>2026-04-06T06:36:38.079Z</time></trkpt><trkpt lat="45.5248678" lon="11.5323337"><ele>49.0</ele><time>2026-04-06T06:36:40.079Z</time></trkpt><trkpt lat="45.5249015" lon="11.5322544"><ele>48.99999999999999</ele><time>2026-04-06T06:36:42.079Z</time></trkpt><trkpt lat="45.5249525" lon="11.5321404"><ele>49.0</ele><time>2026-04-06T06:36:45.079Z</time></trkpt><trkpt lat="45.5249963" lon="11.5320579"><ele>49.0</ele><time>2026-04-06T06:36:47.079Z</time></trkpt><trkpt lat="45.5250481" lon="11.5319724"><ele>49.0</ele><time>2026-04-06T06:36:50.079Z</time></trkpt><trkpt lat="45.5250862" lon="11.5318965"><ele>48.99999999999999</ele><time>2026-04-06T06:36:53.079Z</time></trkpt><trkpt lat="45.5251285" lon="11.5318256"><ele>49.0</ele><time>2026-04-06T06:36:56.079Z</time></trkpt><trkpt lat="45.5251822" lon="11.5317375"><ele>48.714285714285715</ele><time>2026-04-06T06:36:59.079Z</time></trkpt><trkpt lat="45.525235" lon="11.5316243"><ele>48.42857142857143</ele><time>2026-04-06T06:37:02.079Z</time></trkpt><trkpt lat="45.525271" lon="11.531539"><ele>48.14285714285714</ele><time>2026-04-06T06:37:04.079Z</time></trkpt><trkpt lat="45.5253165" lon="11.5314722"><ele>47.85714285714286</ele><time>2026-04-06T06:37:06.079Z</time></trkpt><trkpt lat="45.5253507" lon="11.5313865"><ele>47.57142857142857</ele><time>2026-04-06T06:37:08.079Z</time></trkpt><trkpt lat="45.5254002" lon="11.5313188"><ele>47.285714285714285</ele><time>2026-04-06T06:37:10.079Z</time></trkpt><trkpt lat="45.5254557" lon="11.5312686"><ele>47.0</ele><time>2026-04-06T06:37:12.079Z</time></trkpt><trkpt lat="45.5255125" lon="11.5312266"><ele>45.33333333333333</ele><time>2026-04-06T06:37:14.079Z</time></trkpt><trkpt lat="45.5255797" lon="11.5311828"><ele>43.666666666666664</ele><time>2026-04-06T06:37:16.079Z</time></trkpt><trkpt lat="45.5256505" lon="11.5311366"><ele>42.0</ele><time>2026-04-06T06:37:18.079Z</time></trkpt><trkpt lat="45.5257164" lon="11.5311117"><ele>40.333333333333336</ele><time>2026-04-06T06:37:20.079Z</time></trkpt><trkpt lat="45.5257854" lon="11.5310941"><ele>38.66666666666667</ele><time>2026-04-06T06:37:22.079Z</time></trkpt><trkpt lat="45.5258633" lon="11.5310787"><ele>37.0</ele><time>2026-04-06T06:37:24.079Z</time></trkpt><trkpt lat="45.5259479" lon="11.5310631"><ele>37.0</ele><time>2026-04-06T06:37:26.079Z</time></trkpt><trkpt lat="45.5260382" lon="11.531047"><ele>37.0</ele><time>2026-04-06T06:37:28.079Z</time></trkpt><trkpt lat="45.5261371" lon="11.5310145"><ele>37.0</ele><time>2026-04-06T06:37:30.079Z</time></trkpt><trkpt lat="45.526224" lon="11.5309866"><ele>37.0</ele><time>2026-04-06T06:37:32.079Z</time></trkpt><trkpt lat="45.5263104" lon="11.5309491"><ele>37.0</ele><time>2026-04-06T06:37:34.079Z</time></trkpt><trkpt lat="45.5263928" lon="11.5309159"><ele>37.833333333333336</ele><time>2026-04-06T06:37:36.079Z</time></trkpt><trkpt lat="45.5264714" lon="11.5308834"><ele>38.66666666666667</ele><time>2026-04-06T06:37:38.079Z</time></trkpt><trkpt lat="45.5265475" lon="11.5308532"><ele>39.5</ele><time>2026-04-06T06:37:40.079Z</time></trkpt><trkpt lat="45.5266198" lon="11.5308158"><ele>40.333333333333336</ele><time>2026-04-06T06:37:42.079Z</time></trkpt><trkpt lat="45.526694" lon="11.5307728"><ele>41.166666666666664</ele><time>2026-04-06T06:37:44.079Z</time></trkpt><trkpt lat="45.5267669" lon="11.5307272"><ele>42.0</ele><time>2026-04-06T06:37:46.079Z</time></trkpt><trkpt lat="45.5268431" lon="11.5306861"><ele>42.0</ele><time>2026-04-06T06:37:48.079Z</time></trkpt><trkpt lat="45.526916" lon="11.5306586"><ele>42.0</ele><time>2026-04-06T06:37:50.079Z</time></trkpt><trkpt lat="45.5269905" lon="11.5306228"><ele>42.0</ele><time>2026-04-06T06:37:52.079Z</time></trkpt><trkpt lat="45.5270624" lon="11.5305857"><ele>42.0</ele><time>2026-04-06T06:37:54.079Z</time></trkpt><trkpt lat="45.5271469" lon="11.5305424"><ele>42.0</ele><time>2026-04-06T06:37:56.079Z</time></trkpt><trkpt lat="45.5272174" lon="11.5305032"><ele>42.0</ele><time>2026-04-06T06:37:58.08Z</time></trkpt><trkpt lat="45.5272827" lon="11.5304677"><ele>41.166666666666664</ele><time>2026-04-06T06:37:59.941Z</time></trkpt><trkpt lat="45.5273583" lon="11.5304188"><ele>40.333333333333336</ele><time>2026-04-06T06:38:02.08Z</time></trkpt><trkpt lat="45.527427" lon="11.530369"><ele>39.5</ele><time>2026-04-06T06:38:04.079Z</time></trkpt><trkpt lat="45.5274888" lon="11.530305"><ele>38.66666666666667</ele><time>2026-04-06T06:38:06.079Z</time></trkpt><trkpt lat="45.5275433" lon="11.530228"><ele>37.833333333333336</ele><time>2026-04-06T06:38:08.092Z</time></trkpt><trkpt lat="45.5275887" lon="11.5301526"><ele>37.0</ele><time>2026-04-06T06:38:10.079Z</time></trkpt><trkpt lat="45.5276383" lon="11.5300685"><ele>37.0</ele><time>2026-04-06T06:38:12.079Z</time></trkpt><trkpt lat="45.5276784" lon="11.5299692"><ele>37.0</ele><time>2026-04-06T06:38:14.079Z</time></trkpt><trkpt lat="45.5277256" lon="11.5298666"><ele>37.0</ele><time>2026-04-06T06:38:16.079Z</time></trkpt><trkpt lat="45.5277824" lon="11.52978"><ele>37.0</ele><time>2026-04-06T06:38:18.055Z</time></trkpt><trkpt lat="45.5278656" lon="11.5296923"><ele>37.0</ele><time>2026-04-06T06:38:20.079Z</time></trkpt><trkpt lat="45.5279558" lon="11.5296177"><ele>36.4</ele><time>2026-04-06T06:38:22.079Z</time></trkpt><trkpt lat="45.5280608" lon="11.5295626"><ele>35.800000000000004</ele><time>2026-04-06T06:38:24.079Z</time></trkpt><trkpt lat="45.528163" lon="11.5295285"><ele>35.2</ele><time>2026-04-06T06:38:26.079Z</time></trkpt><trkpt lat="45.5282598" lon="11.5295023"><ele>34.6</ele><time>2026-04-06T06:38:28.079Z</time></trkpt><trkpt lat="45.5283683" lon="11.5294697"><ele>34.0</ele><time>2026-04-06T06:38:30.079Z</time></trkpt><trkpt lat="45.5284629" lon="11.5294457"><ele>34.0</ele><time>2026-04-06T06:38:32.079Z</time></trkpt><trkpt lat="45.5285581" lon="11.5294478"><ele>34.0</ele><time>2026-04-06T06:38:34.079Z</time></trkpt><trkpt lat="45.5286495" lon="11.5294814"><ele>34.0</ele><time>2026-04-06T06:38:36.079Z</time></trkpt><trkpt lat="45.5287424" lon="11.5295341"><ele>34.0</ele><time>2026-04-06T06:38:38.079Z</time></trkpt><trkpt lat="45.5288219" lon="11.5295922"><ele>34.0</ele><time>2026-04-06T06:38:40.079Z</time></trkpt><trkpt lat="45.5288894" lon="11.5296742"><ele>34.5</ele><time>2026-04-06T06:38:42.079Z</time></trkpt><trkpt lat="45.5289438" lon="11.5297709"><ele>35.0</ele><time>2026-04-06T06:38:44.079Z</time></trkpt><trkpt lat="45.5289895" lon="11.5298872"><ele>35.5</ele><time>2026-04-06T06:38:46.079Z</time></trkpt><trkpt lat="45.5290428" lon="11.5299891"><ele>36.0</ele><time>2026-04-06T06:38:48.08Z</time></trkpt><trkpt lat="45.5290957" lon="11.5300922"><ele>36.5</ele><time>2026-04-06T06:38:50.079Z</time></trkpt><trkpt lat="45.5291403" lon="11.5301959"><ele>37.0</ele><time>2026-04-06T06:38:52.079Z</time></trkpt><trkpt lat="45.5291708" lon="11.5303106"><ele>37.66666666666667</ele><time>2026-04-06T06:38:54.079Z</time></trkpt><trkpt lat="45.5292092" lon="11.5304135"><ele>38.333333333333336</ele><time>2026-04-06T06:38:56.079Z</time></trkpt><trkpt lat="45.5292527" lon="11.5305045"><ele>39.0</ele><time>2026-04-06T06:38:58.079Z</time></trkpt><trkpt lat="45.5293028" lon="11.5305916"><ele>39.666666666666664</ele><time>2026-04-06T06:39:00.079Z</time></trkpt><trkpt lat="45.5293611" lon="11.5306744"><ele>40.33333333333333</ele><time>2026-04-06T06:39:02.079Z</time></trkpt><trkpt lat="45.5294176" lon="11.5307629"><ele>41.0</ele><time>2026-04-06T06:39:04.079Z</time></trkpt><trkpt lat="45.5294795" lon="11.5308468"><ele>41.0</ele><time>2026-04-06T06:39:06.079Z</time></trkpt><trkpt lat="45.5295338" lon="11.5309339"><ele>41.0</ele><time>2026-04-06T06:39:08.079Z</time></trkpt><trkpt lat="45.5295981" lon="11.5310233"><ele>41.0</ele><time>2026-04-06T06:39:10.079Z</time></trkpt><trkpt lat="45.529668" lon="11.5311123"><ele>41.0</ele><time>2026-04-06T06:39:12.079Z</time></trkpt><trkpt lat="45.5297309" lon="11.5311952"><ele>41.0</ele><time>2026-04-06T06:39:14.079Z</time></trkpt><trkpt lat="45.5298003" lon="11.5312757"><ele>41.0</ele><time>2026-04-06T06:39:16.079Z</time></trkpt><trkpt lat="45.5298697" lon="11.5313613"><ele>40.33333333333333</ele><time>2026-04-06T06:39:18.079Z</time></trkpt><trkpt lat="45.5299378" lon="11.5314414"><ele>39.666666666666664</ele><time>2026-04-06T06:39:20.079Z</time></trkpt><trkpt lat="45.5300143" lon="11.5315226"><ele>39.0</ele><time>2026-04-06T06:39:22.079Z</time></trkpt><trkpt lat="45.5300829" lon="11.5315989"><ele>38.333333333333336</ele><time>2026-04-06T06:39:24.079Z</time></trkpt><trkpt lat="45.530146" lon="11.5316862"><ele>37.66666666666667</ele><time>2026-04-06T06:39:26.079Z</time></trkpt><trkpt lat="45.5302162" lon="11.5317555"><ele>37.0</ele><time>2026-04-06T06:39:28.08Z</time></trkpt><trkpt lat="45.5302791" lon="11.5318426"><ele>37.0</ele><time>2026-04-06T06:39:30.079Z</time></trkpt><trkpt lat="45.5303543" lon="11.5319128"><ele>37.0</ele><time>2026-04-06T06:39:32.079Z</time></trkpt><trkpt lat="45.5304214" lon="11.5319897"><ele>37.0</ele><time>2026-04-06T06:39:34.079Z</time></trkpt><trkpt lat="45.5304895" lon="11.5320625"><ele>37.0</ele><time>2026-04-06T06:39:36.079Z</time></trkpt><trkpt lat="45.5305581" lon="11.5321327"><ele>37.0</ele><time>2026-04-06T06:39:38.079Z</time></trkpt><trkpt lat="45.5306402" lon="11.5322111"><ele>37.0</ele><time>2026-04-06T06:39:40.079Z</time></trkpt><trkpt lat="45.5307005" lon="11.5322749"><ele>36.66666666666667</ele><time>2026-04-06T06:39:42.079Z</time></trkpt><trkpt lat="45.5307709" lon="11.5323581"><ele>36.333333333333336</ele><time>2026-04-06T06:39:44.079Z</time></trkpt><trkpt lat="45.5308333" lon="11.5324276"><ele>36.0</ele><time>2026-04-06T06:39:46.079Z</time></trkpt><trkpt lat="45.5308892" lon="11.5325075"><ele>35.666666666666664</ele><time>2026-04-06T06:39:48.079Z</time></trkpt><trkpt lat="45.5309554" lon="11.5325807"><ele>35.33333333333333</ele><time>2026-04-06T06:39:50.079Z</time></trkpt><trkpt lat="45.5310178" lon="11.5326558"><ele>35.0</ele><time>2026-04-06T06:39:52.079Z</time></trkpt><trkpt lat="45.5310841" lon="11.5327253"><ele>35.0</ele><time>2026-04-06T06:39:54.079Z</time></trkpt><trkpt lat="45.5311555" lon="11.5327927"><ele>35.0</ele><time>2026-04-06T06:39:56.079Z</time></trkpt><trkpt lat="45.5312341" lon="11.5328624"><ele>35.0</ele><time>2026-04-06T06:39:58.079Z</time></trkpt><trkpt lat="45.5312858" lon="11.5329417"><ele>35.0</ele><time>2026-04-06T06:40:00.079Z</time></trkpt><trkpt lat="45.5313408" lon="11.533019"><ele>35.0</ele><time>2026-04-06T06:40:02.079Z</time></trkpt><trkpt lat="45.531408" lon="11.5331002"><ele>35.0</ele><time>2026-04-06T06:40:04.079Z</time></trkpt><trkpt lat="45.5314695" lon="11.5331873"><ele>34.666666666666664</ele><time>2026-04-06T06:40:06.079Z</time></trkpt><trkpt lat="45.5315256" lon="11.5332653"><ele>34.33333333333333</ele><time>2026-04-06T06:40:08.079Z</time></trkpt><trkpt lat="45.53159" lon="11.5333467"><ele>34.0</ele><time>2026-04-06T06:40:10.08Z</time></trkpt><trkpt lat="45.5316608" lon="11.533407"><ele>33.666666666666664</ele><time>2026-04-06T06:40:12.079Z</time></trkpt><trkpt lat="45.5317339" lon="11.5334579"><ele>33.333333333333336</ele><time>2026-04-06T06:40:14.079Z</time></trkpt><trkpt lat="45.5318165" lon="11.5335012"><ele>33.0</ele><time>2026-04-06T06:40:16.079Z</time></trkpt><trkpt lat="45.5318987" lon="11.5335457"><ele>33.0</ele><time>2026-04-06T06:40:18.079Z</time></trkpt><trkpt lat="45.531979" lon="11.5335867"><ele>33.0</ele><time>2026-04-06T06:40:20.079Z</time></trkpt><trkpt lat="45.5320582" lon="11.5336297"><ele>33.0</ele><time>2026-04-06T06:40:22.079Z</time></trkpt><trkpt lat="45.5321382" lon="11.5336635"><ele>33.0</ele><time>2026-04-06T06:40:24.079Z</time></trkpt><trkpt lat="45.5322208" lon="11.5336855"><ele>33.0</ele><time>2026-04-06T06:40:26.079Z</time></trkpt><trkpt lat="45.5322827" lon="11.5337451"><ele>33.0</ele><time>2026-04-06T06:40:28.079Z</time></trkpt><trkpt lat="45.5322714" lon="11.5338491"><ele>33.14285714285714</ele><time>2026-04-06T06:40:30.079Z</time></trkpt><trkpt lat="45.5322247" lon="11.5339316"><ele>33.285714285714285</ele><time>2026-04-06T06:40:32.079Z</time></trkpt><trkpt lat="45.5321816" lon="11.5340075"><ele>33.42857142857143</ele><time>2026-04-06T06:40:34.079Z</time></trkpt><trkpt lat="45.5321373" lon="11.5340849"><ele>33.57142857142857</ele><time>2026-04-06T06:40:36.079Z</time></trkpt><trkpt lat="45.5320881" lon="11.5341652"><ele>33.714285714285715</ele><time>2026-04-06T06:40:38.079Z</time></trkpt><trkpt lat="45.5320396" lon="11.5342384"><ele>33.857142857142854</ele><time>2026-04-06T06:40:40.079Z</time></trkpt><trkpt lat="45.5319861" lon="11.5343128"><ele>34.0</ele><time>2026-04-06T06:40:42.079Z</time></trkpt><trkpt lat="45.5319293" lon="11.534389"><ele>33.99999999999999</ele><time>2026-04-06T06:40:44.079Z</time></trkpt><trkpt lat="45.5318776" lon="11.5344708"><ele>34.0</ele><time>2026-04-06T06:40:46.079Z</time></trkpt><trkpt lat="45.5318273" lon="11.5345544"><ele>34.0</ele><time>2026-04-06T06:40:48.079Z</time></trkpt><trkpt lat="45.5317764" lon="11.5346255"><ele>34.0</ele><time>2026-04-06T06:40:50.079Z</time></trkpt><trkpt lat="45.5317248" lon="11.5346985"><ele>34.0</ele><time>2026-04-06T06:40:52.079Z</time></trkpt><trkpt lat="45.5316804" lon="11.5347763"><ele>33.99999999999999</ele><time>2026-04-06T06:40:54.079Z</time></trkpt><trkpt lat="45.5316505" lon="11.5348688"><ele>34.0</ele><time>2026-04-06T06:40:56.079Z</time></trkpt><trkpt lat="45.5316162" lon="11.5349656"><ele>33.833333333333336</ele><time>2026-04-06T06:40:58.079Z</time></trkpt><trkpt lat="45.5315815" lon="11.5350602"><ele>33.66666666666667</ele><time>2026-04-06T06:41:00.079Z</time></trkpt><trkpt lat="45.5315459" lon="11.5351573"><ele>33.5</ele><time>2026-04-06T06:41:02.079Z</time></trkpt><trkpt lat="45.5315076" lon="11.5352537"><ele>33.333333333333336</ele><time>2026-04-06T06:41:04.079Z</time></trkpt><trkpt lat="45.5314919" lon="11.535355"><ele>33.166666666666664</ele><time>2026-04-06T06:41:06.079Z</time></trkpt><trkpt lat="45.5314933" lon="11.5354582"><ele>33.0</ele><time>2026-04-06T06:41:08.079Z</time></trkpt><trkpt lat="45.5315096" lon="11.5355669"><ele>33.285714285714285</ele><time>2026-04-06T06:41:10.079Z</time></trkpt><trkpt lat="45.5315398" lon="11.535666"><ele>33.57142857142857</ele><time>2026-04-06T06:41:12.079Z</time></trkpt><trkpt lat="45.5315803" lon="11.5357562"><ele>33.85714285714286</ele><time>2026-04-06T06:41:14.079Z</time></trkpt><trkpt lat="45.53163" lon="11.5358356"><ele>34.14285714285714</ele><time>2026-04-06T06:41:16.079Z</time></trkpt><trkpt lat="45.531687" lon="11.5358952"><ele>34.42857142857143</ele><time>2026-04-06T06:41:18.079Z</time></trkpt><trkpt lat="45.5317518" lon="11.5359574"><ele>34.714285714285715</ele><time>2026-04-06T06:41:20.079Z</time></trkpt><trkpt lat="45.5318096" lon="11.5360112"><ele>35.0</ele><time>2026-04-06T06:41:22.079Z</time></trkpt><trkpt lat="45.5318741" lon="11.5360642"><ele>35.0</ele><time>2026-04-06T06:41:24.079Z</time></trkpt><trkpt lat="45.5319417" lon="11.5361241"><ele>35.0</ele><time>2026-04-06T06:41:26.08Z</time></trkpt><trkpt lat="45.5319982" lon="11.5361777"><ele>35.0</ele><time>2026-04-06T06:41:28.079Z</time></trkpt><trkpt lat="45.5320528" lon="11.5362374"><ele>35.0</ele><time>2026-04-06T06:41:30.079Z</time></trkpt><trkpt lat="45.5321045" lon="11.5363111"><ele>35.0</ele><time>2026-04-06T06:41:32.079Z</time></trkpt><trkpt lat="45.5321365" lon="11.5364011"><ele>35.0</ele><time>2026-04-06T06:41:34.079Z</time></trkpt><trkpt lat="45.5321494" lon="11.5365025"><ele>35.0</ele><time>2026-04-06T06:41:36.079Z</time></trkpt><trkpt lat="45.5321498" lon="11.5366155"><ele>35.42857142857143</ele><time>2026-04-06T06:41:38.079Z</time></trkpt><trkpt lat="45.5321283" lon="11.5367149"><ele>35.85714285714286</ele><time>2026-04-06T06:41:40.079Z</time></trkpt><trkpt lat="45.5321077" lon="11.5368153"><ele>36.285714285714285</ele><time>2026-04-06T06:41:42.079Z</time></trkpt><trkpt lat="45.5321029" lon="11.5369199"><ele>36.714285714285715</ele><time>2026-04-06T06:41:44.079Z</time></trkpt><trkpt lat="45.5320857" lon="11.5370156"><ele>37.142857142857146</ele><time>2026-04-06T06:41:46.08Z</time></trkpt><trkpt lat="45.5320448" lon="11.5371027"><ele>37.57142857142857</ele><time>2026-04-06T06:41:48.079Z</time></trkpt><trkpt lat="45.5320032" lon="11.5371885"><ele>38.0</ele><time>2026-04-06T06:41:50.079Z</time></trkpt><trkpt lat="45.5319556" lon="11.5372707"><ele>38.0</ele><time>2026-04-06T06:41:52.079Z</time></trkpt><trkpt lat="45.5319055" lon="11.5373485"><ele>38.0</ele><time>2026-04-06T06:41:54.079Z</time></trkpt><trkpt lat="45.5318506" lon="11.5374143"><ele>38.0</ele><time>2026-04-06T06:41:56.079Z</time></trkpt><trkpt lat="45.5317878" lon="11.537473"><ele>38.0</ele><time>2026-04-06T06:41:58.079Z</time></trkpt><trkpt lat="45.531724" lon="11.537522"><ele>38.0</ele><time>2026-04-06T06:42:00.079Z</time></trkpt><trkpt lat="45.5316685" lon="11.5375646"><ele>38.0</ele><time>2026-04-06T06:42:02.079Z</time></trkpt><trkpt lat="45.531608" lon="11.5376136"><ele>38.0</ele><time>2026-04-06T06:42:04.079Z</time></trkpt><trkpt lat="45.5315507" lon="11.537665"><ele>38.0</ele><time>2026-04-06T06:42:06.079Z</time></trkpt><trkpt lat="45.5314946" lon="11.5377144"><ele>38.0</ele><time>2026-04-06T06:42:08.079Z</time></trkpt><trkpt lat="45.5314392" lon="11.5377625"><ele>38.0</ele><time>2026-04-06T06:42:10.079Z</time></trkpt><trkpt lat="45.5313825" lon="11.5378169"><ele>38.0</ele><time>2026-04-06T06:42:12.079Z</time></trkpt><trkpt lat="45.5313245" lon="11.5378753"><ele>38.0</ele><time>2026-04-06T06:42:14.079Z</time></trkpt><trkpt lat="45.5312676" lon="11.5379432"><ele>38.0</ele><time>2026-04-06T06:42:16.079Z</time></trkpt><trkpt lat="45.5312127" lon="11.5380144"><ele>38.0</ele><time>2026-04-06T06:42:18.079Z</time></trkpt><trkpt lat="45.5311627" lon="11.5380899"><ele>38.0</ele><time>2026-04-06T06:42:20.079Z</time></trkpt><trkpt lat="45.5311213" lon="11.538162"><ele>38.0</ele><time>2026-04-06T06:42:22.079Z</time></trkpt><trkpt lat="45.5310635" lon="11.5382645"><ele>38.0</ele><time>2026-04-06T06:42:25.08Z</time></trkpt><trkpt lat="45.5310243" lon="11.5383383"><ele>38.0</ele><time>2026-04-06T06:42:27.079Z</time></trkpt><trkpt lat="45.5309784" lon="11.5384141"><ele>38.0</ele><time>2026-04-06T06:42:29.079Z</time></trkpt><trkpt lat="45.5309404" lon="11.5384895"><ele>38.0</ele><time>2026-04-06T06:42:31.079Z</time></trkpt><trkpt lat="45.5308875" lon="11.5385944"><ele>38.0</ele><time>2026-04-06T06:42:34.079Z</time></trkpt><trkpt lat="45.5308495" lon="11.5386671"><ele>38.33333333333333</ele><time>2026-04-06T06:42:36.079Z</time></trkpt><trkpt lat="45.5308081" lon="11.5387392"><ele>38.666666666666664</ele><time>2026-04-06T06:42:38.079Z</time></trkpt><trkpt lat="45.5307709" lon="11.5388118"><ele>39.0</ele><time>2026-04-06T06:42:40.079Z</time></trkpt><trkpt lat="45.5307195" lon="11.53892"><ele>39.333333333333336</ele><time>2026-04-06T06:42:43.079Z</time></trkpt><trkpt lat="45.5306664" lon="11.5390252"><ele>39.66666666666667</ele><time>2026-04-06T06:42:46.079Z</time></trkpt><trkpt lat="45.5306209" lon="11.53912"><ele>40.0</ele><time>2026-04-06T06:42:49.079Z</time></trkpt><trkpt lat="45.5305775" lon="11.5392077"><ele>40.0</ele><time>2026-04-06T06:42:52.079Z</time></trkpt><trkpt lat="45.5305872" lon="11.5393123"><ele>40.0</ele><time>2026-04-06T06:42:55.079Z</time></trkpt><trkpt lat="45.5306501" lon="11.5394013"><ele>40.0</ele><time>2026-04-06T06:42:58.079Z</time></trkpt><trkpt lat="45.5307145" lon="11.5394808"><ele>40.0</ele><time>2026-04-06T06:43:01.079Z</time></trkpt><trkpt lat="45.5307716" lon="11.5395229"><ele>40.0</ele><time>2026-04-06T06:43:05.079Z</time></trkpt><trkpt lat="45.5308261" lon="11.5395984"><ele>40.0</ele><time>2026-04-06T06:43:08.079Z</time></trkpt><trkpt lat="45.5308961" lon="11.5396661"><ele>41.0</ele><time>2026-04-06T06:43:11.079Z</time></trkpt><trkpt lat="45.5309603" lon="11.539726"><ele>42.0</ele><time>2026-04-06T06:43:14.079Z</time></trkpt><trkpt lat="45.531034" lon="11.539776"><ele>43.0</ele><time>2026-04-06T06:43:17.079Z</time></trkpt><trkpt lat="45.5311089" lon="11.5398482"><ele>44.0</ele><time>2026-04-06T06:43:20.079Z</time></trkpt><trkpt lat="45.531164" lon="11.5399087"><ele>45.0</ele><time>2026-04-06T06:43:23.079Z</time></trkpt><trkpt lat="45.5312093" lon="11.5399788"><ele>46.0</ele><time>2026-04-06T06:43:26.079Z</time></trkpt><trkpt lat="45.5312622" lon="11.5400402"><ele>46.85714285714286</ele><time>2026-04-06T06:43:29.079Z</time></trkpt><trkpt lat="45.5313288" lon="11.5400564"><ele>47.71428571428571</ele><time>2026-04-06T06:43:32.079Z</time></trkpt><trkpt lat="45.5314012" lon="11.5400776"><ele>48.57142857142857</ele><time>2026-04-06T06:43:35.079Z</time></trkpt><trkpt lat="45.531467" lon="11.5400985"><ele>49.42857142857143</ele><time>2026-04-06T06:43:38.079Z</time></trkpt><trkpt lat="45.5315254" lon="11.5401565"><ele>50.28571428571429</ele><time>2026-04-06T06:43:43.079Z</time></trkpt><trkpt lat="45.5315933" lon="11.5401819"><ele>51.14285714285714</ele><time>2026-04-06T06:43:49.079Z</time></trkpt><trkpt lat="45.5316421" lon="11.5402565"><ele>52.0</ele><time>2026-04-06T06:43:52.079Z</time></trkpt><trkpt lat="45.5317061" lon="11.5402949"><ele>52.0</ele><time>2026-04-06T06:43:55.079Z</time></trkpt><trkpt lat="45.5317588" lon="11.5403498"><ele>52.0</ele><time>2026-04-06T06:43:58.079Z</time></trkpt><trkpt lat="45.5318307" lon="11.5403683"><ele>52.0</ele><time>2026-04-06T06:44:01.079Z</time></trkpt><trkpt lat="45.5319111" lon="11.5403469"><ele>52.0</ele><time>2026-04-06T06:44:05.079Z</time></trkpt><trkpt lat="45.5319712" lon="11.5403138"><ele>52.0</ele><time>2026-04-06T06:44:08.079Z</time></trkpt><trkpt lat="45.5320256" lon="11.5402496"><ele>52.0</ele><time>2026-04-06T06:44:12.079Z</time></trkpt><trkpt lat="45.5320545" lon="11.5401503"><ele>52.0</ele><time>2026-04-06T06:44:16.08Z</time></trkpt><trkpt lat="45.5321031" lon="11.5400587"><ele>54.285714285714285</ele><time>2026-04-06T06:44:20.079Z</time></trkpt><trkpt lat="45.5321268" lon="11.5399682"><ele>56.57142857142857</ele><time>2026-04-06T06:44:24.079Z</time></trkpt><trkpt lat="45.5321474" lon="11.5398744"><ele>58.857142857142854</ele><time>2026-04-06T06:44:28.08Z</time></trkpt><trkpt lat="45.5321654" lon="11.5397776"><ele>61.14285714285714</ele><time>2026-04-06T06:44:32.079Z</time></trkpt><trkpt lat="45.5321738" lon="11.5396858"><ele>63.42857142857143</ele><time>2026-04-06T06:44:35.079Z</time></trkpt><trkpt lat="45.5321729" lon="11.5395664"><ele>65.71428571428571</ele><time>2026-04-06T06:44:39.079Z</time></trkpt><trkpt lat="45.5321669" lon="11.5394727"><ele>68.0</ele><time>2026-04-06T06:44:42.079Z</time></trkpt><trkpt lat="45.5321851" lon="11.5393752"><ele>67.99999999999999</ele><time>2026-04-06T06:44:45.079Z</time></trkpt><trkpt lat="45.5321915" lon="11.5392851"><ele>68.0</ele><time>2026-04-06T06:44:48.079Z</time></trkpt><trkpt lat="45.5321783" lon="11.5391887"><ele>68.0</ele><time>2026-04-06T06:44:51.079Z</time></trkpt><trkpt lat="45.5321683" lon="11.5390996"><ele>68.0</ele><time>2026-04-06T06:44:54.079Z</time></trkpt><trkpt lat="45.5321961" lon="11.5389945"><ele>68.0</ele><time>2026-04-06T06:44:58.079Z</time></trkpt><trkpt lat="45.5322293" lon="11.5389097"><ele>67.99999999999999</ele><time>2026-04-06T06:45:01.079Z</time></trkpt><trkpt lat="45.5322647" lon="11.5388183"><ele>68.0</ele><time>2026-04-06T06:45:05.079Z</time></trkpt><trkpt lat="45.5323061" lon="11.5387445"><ele>67.14285714285714</ele><time>2026-04-06T06:45:08.079Z</time></trkpt><trkpt lat="45.5323513" lon="11.5386477"><ele>66.28571428571428</ele><time>2026-04-06T06:45:12.079Z</time></trkpt><trkpt lat="45.5323871" lon="11.5385723"><ele>65.42857142857143</ele><time>2026-04-06T06:45:15.079Z</time></trkpt><trkpt lat="45.5324367" lon="11.5384901"><ele>64.57142857142857</ele><time>2026-04-06T06:45:19.079Z</time></trkpt><trkpt lat="45.5324966" lon="11.5384339"><ele>63.71428571428572</ele><time>2026-04-06T06:45:23.079Z</time></trkpt><trkpt lat="45.5325582" lon="11.538384"><ele>62.85714285714286</ele><time>2026-04-06T06:45:27.079Z</time></trkpt><trkpt lat="45.5326023" lon="11.5383053"><ele>62.0</ele><time>2026-04-06T06:45:32.079Z</time></trkpt><trkpt lat="45.5326476" lon="11.5382379"><ele>62.00000000000001</ele><time>2026-04-06T06:45:36.079Z</time></trkpt><trkpt lat="45.5327058" lon="11.5381506"><ele>62.0</ele><time>2026-04-06T06:45:41.079Z</time></trkpt><trkpt lat="45.5327736" lon="11.5381199"><ele>62.0</ele><time>2026-04-06T06:45:45.079Z</time></trkpt><trkpt lat="45.532828" lon="11.5381899"><ele>62.0</ele><time>2026-04-06T06:45:49.079Z</time></trkpt><trkpt lat="45.5328237" lon="11.5383048"><ele>62.00000000000001</ele><time>2026-04-06T06:45:54.079Z</time></trkpt><trkpt lat="45.5328055" lon="11.5384109"><ele>62.0</ele><time>2026-04-06T06:45:58.079Z</time></trkpt><trkpt lat="45.5327767" lon="11.5384921"><ele>62.0</ele><time>2026-04-06T06:46:01.079Z</time></trkpt><trkpt lat="45.5327885" lon="11.5385947"><ele>62.00000000000001</ele><time>2026-04-06T06:46:05.079Z</time></trkpt><trkpt lat="45.5328074" lon="11.5386868"><ele>62.0</ele><time>2026-04-06T06:46:08.079Z</time></trkpt><trkpt lat="45.5328005" lon="11.5387927"><ele>62.0</ele><time>2026-04-06T06:46:12.079Z</time></trkpt><trkpt lat="45.5328055" lon="11.5388854"><ele>62.00000000000001</ele><time>2026-04-06T06:46:16.079Z</time></trkpt><trkpt lat="45.5327824" lon="11.5390059"><ele>62.0</ele><time>2026-04-06T06:46:19.079Z</time></trkpt><trkpt lat="45.5327667" lon="11.5391172"><ele>62.0</ele><time>2026-04-06T06:46:23.079Z</time></trkpt><trkpt lat="45.532771" lon="11.5392099"><ele>62.85714285714286</ele><time>2026-04-06T06:46:26.079Z</time></trkpt><trkpt lat="45.5327586" lon="11.5393122"><ele>63.71428571428572</ele><time>2026-04-06T06:46:30.079Z</time></trkpt><trkpt lat="45.5327469" lon="11.5394077"><ele>64.57142857142857</ele><time>2026-04-06T06:46:34.079Z</time></trkpt><trkpt lat="45.5327282" lon="11.5395153"><ele>65.42857142857143</ele><time>2026-04-06T06:46:37.079Z</time></trkpt><trkpt lat="45.5327195" lon="11.5396281"><ele>66.28571428571428</ele><time>2026-04-06T06:46:41.079Z</time></trkpt><trkpt lat="45.5327083" lon="11.5397348"><ele>67.14285714285714</ele><time>2026-04-06T06:46:44.01Z</time></trkpt><trkpt lat="45.5327067" lon="11.5398405"><ele>68.0</ele><time>2026-04-06T06:46:47.094Z</time></trkpt><trkpt lat="45.5327203" lon="11.5399464"><ele>68.85714285714285</ele><time>2026-04-06T06:46:51.079Z</time></trkpt><trkpt lat="45.5327389" lon="11.5400441"><ele>69.71428571428571</ele><time>2026-04-06T06:46:54.197Z</time></trkpt><trkpt lat="45.5327606" lon="11.5401328"><ele>70.57142857142857</ele><time>2026-04-06T06:46:58.079Z</time></trkpt><trkpt lat="45.5327826" lon="11.5402313"><ele>71.42857142857142</ele><time>2026-04-06T06:47:02.079Z</time></trkpt><trkpt lat="45.5328047" lon="11.5403283"><ele>72.28571428571428</ele><time>2026-04-06T06:47:05.719Z</time></trkpt><trkpt lat="45.5328145" lon="11.5404475"><ele>73.14285714285714</ele><time>2026-04-06T06:47:10.079Z</time></trkpt><trkpt lat="45.5328148" lon="11.5405628"><ele>74.0</ele><time>2026-04-06T06:47:13.198Z</time></trkpt><trkpt lat="45.5328313" lon="11.5406991"><ele>74.85714285714286</ele><time>2026-04-06T06:47:16.079Z</time></trkpt><trkpt lat="45.5328156" lon="11.5407868"><ele>75.71428571428571</ele><time>2026-04-06T06:47:19.079Z</time></trkpt><trkpt lat="45.532823" lon="11.5408877"><ele>76.57142857142857</ele><time>2026-04-06T06:47:24.079Z</time></trkpt><trkpt lat="45.5328513" lon="11.5409753"><ele>77.42857142857143</ele><time>2026-04-06T06:47:28.079Z</time></trkpt><trkpt lat="45.532899" lon="11.5410441"><ele>78.28571428571429</ele><time>2026-04-06T06:47:32.08Z</time></trkpt><trkpt lat="45.5329461" lon="11.5411162"><ele>79.14285714285714</ele><time>2026-04-06T06:47:36.079Z</time></trkpt><trkpt lat="45.5329916" lon="11.5411921"><ele>80.0</ele><time>2026-04-06T06:47:41.079Z</time></trkpt><trkpt lat="45.5329995" lon="11.5412976"><ele>81.71428571428571</ele><time>2026-04-06T06:47:45.079Z</time></trkpt><trkpt lat="45.5330186" lon="11.541387"><ele>83.42857142857143</ele><time>2026-04-06T06:47:53.079Z</time></trkpt><trkpt lat="45.5329941" lon="11.5414837"><ele>85.14285714285714</ele><time>2026-04-06T06:48:03.079Z</time></trkpt><trkpt lat="45.532949" lon="11.5415827"><ele>86.85714285714286</ele><time>2026-04-06T06:48:08.079Z</time></trkpt><trkpt lat="45.5328936" lon="11.5416691"><ele>88.57142857142857</ele><time>2026-04-06T06:48:11.079Z</time></trkpt><trkpt lat="45.532854" lon="11.5417563"><ele>90.28571428571429</ele><time>2026-04-06T06:48:14.079Z</time></trkpt><trkpt lat="45.5328469" lon="11.5418535"><ele>92.0</ele><time>2026-04-06T06:48:17.079Z</time></trkpt><trkpt lat="45.5329084" lon="11.541802"><ele>95.66666666666667</ele><time>2026-04-06T06:48:21.079Z</time></trkpt><trkpt lat="45.5329477" lon="11.5417074"><ele>99.33333333333334</ele><time>2026-04-06T06:48:24.079Z</time></trkpt><trkpt lat="45.5329965" lon="11.5416145"><ele>103.0</ele><time>2026-04-06T06:48:27.09Z</time></trkpt><trkpt lat="45.5330697" lon="11.5415523"><ele>106.66666666666667</ele><time>2026-04-06T06:48:30.079Z</time></trkpt><trkpt lat="45.533139" lon="11.5414972"><ele>110.33333333333333</ele><time>2026-04-06T06:48:33.079Z</time></trkpt><trkpt lat="45.5332044" lon="11.5414444"><ele>114.0</ele><time>2026-04-06T06:48:36.079Z</time></trkpt><trkpt lat="45.5332758" lon="11.5413821"><ele>114.0</ele><time>2026-04-06T06:48:39.079Z</time></trkpt><trkpt lat="45.5333303" lon="11.5413025"><ele>114.0</ele><time>2026-04-06T06:48:42.079Z</time></trkpt><trkpt lat="45.5333728" lon="11.5412172"><ele>114.0</ele><time>2026-04-06T06:48:45.079Z</time></trkpt><trkpt lat="45.5334142" lon="11.5411094"><ele>114.0</ele><time>2026-04-06T06:48:48.079Z</time></trkpt><trkpt lat="45.5334216" lon="11.5410121"><ele>114.0</ele><time>2026-04-06T06:48:51.079Z</time></trkpt><trkpt lat="45.5334175" lon="11.5409053"><ele>114.0</ele><time>2026-04-06T06:48:54.033Z</time></trkpt><trkpt lat="45.533418" lon="11.5407995"><ele>112.83333333333333</ele><time>2026-04-06T06:48:57.079Z</time></trkpt><trkpt lat="45.5334386" lon="11.5406953"><ele>111.66666666666666</ele><time>2026-04-06T06:49:00.029Z</time></trkpt><trkpt lat="45.5334783" lon="11.5405925"><ele>110.5</ele><time>2026-04-06T06:49:03.079Z</time></trkpt><trkpt lat="45.5335177" lon="11.5404971"><ele>109.33333333333333</ele><time>2026-04-06T06:49:06.011Z</time></trkpt><trkpt lat="45.5335684" lon="11.5403907"><ele>108.16666666666666</ele><time>2026-04-06T06:49:09.079Z</time></trkpt><trkpt lat="45.5335775" lon="11.5402898"><ele>107.0</ele><time>2026-04-06T06:49:11.079Z</time></trkpt><trkpt lat="45.533593" lon="11.5401752"><ele>106.99999999999999</ele><time>2026-04-06T06:49:14.079Z</time></trkpt><trkpt lat="45.53363" lon="11.5400572"><ele>107.0</ele><time>2026-04-06T06:49:17.079Z</time></trkpt><trkpt lat="45.5337049" lon="11.5400625"><ele>107.0</ele><time>2026-04-06T06:49:20.079Z</time></trkpt><trkpt lat="45.5336911" lon="11.5401611"><ele>107.0</ele><time>2026-04-06T06:49:23.079Z</time></trkpt><trkpt lat="45.5336775" lon="11.5402693"><ele>106.99999999999999</ele><time>2026-04-06T06:49:26.079Z</time></trkpt><trkpt lat="45.5336582" lon="11.540368"><ele>107.0</ele><time>2026-04-06T06:49:29.079Z</time></trkpt><trkpt lat="45.5336541" lon="11.5404616"><ele>106.99999999999999</ele><time>2026-04-06T06:49:32.079Z</time></trkpt><trkpt lat="45.5336436" lon="11.5405814"><ele>107.0</ele><time>2026-04-06T06:49:35.079Z</time></trkpt><trkpt lat="45.5336177" lon="11.5406792"><ele>107.0</ele><time>2026-04-06T06:49:37.079Z</time></trkpt><trkpt lat="45.5336041" lon="11.5407885"><ele>107.0</ele><time>2026-04-06T06:49:40.079Z</time></trkpt><trkpt lat="45.5335922" lon="11.5408922"><ele>106.99999999999999</ele><time>2026-04-06T06:49:43.079Z</time></trkpt><trkpt lat="45.5336038" lon="11.5409834"><ele>107.0</ele><time>2026-04-06T06:49:46.079Z</time></trkpt><trkpt lat="45.5335917" lon="11.5411033"><ele>107.00000000000001</ele><time>2026-04-06T06:49:49.079Z</time></trkpt><trkpt lat="45.5335915" lon="11.5412087"><ele>107.0</ele><time>2026-04-06T06:49:52.079Z</time></trkpt><trkpt lat="45.5335951" lon="11.5413104"><ele>107.0</ele><time>2026-04-06T06:49:55.079Z</time></trkpt><trkpt lat="45.5336076" lon="11.5414086"><ele>107.0</ele><time>2026-04-06T06:49:58.079Z</time></trkpt><trkpt lat="45.5336642" lon="11.5414608"><ele>107.0</ele><time>2026-04-06T06:50:01.079Z</time></trkpt><trkpt lat="45.533703" lon="11.5413783"><ele>107.00000000000001</ele><time>2026-04-06T06:50:04.079Z</time></trkpt><trkpt lat="45.5337132" lon="11.5412889"><ele>107.0</ele><time>2026-04-06T06:50:07.079Z</time></trkpt><trkpt lat="45.5337155" lon="11.5411898"><ele>107.00000000000001</ele><time>2026-04-06T06:50:10.079Z</time></trkpt><trkpt lat="45.533718" lon="11.541092"><ele>107.0</ele><time>2026-04-06T06:50:13.079Z</time></trkpt><trkpt lat="45.533749" lon="11.541"><ele>107.0</ele><time>2026-04-06T06:50:16.079Z</time></trkpt><trkpt lat="45.5337537" lon="11.540902"><ele>107.0</ele><time>2026-04-06T06:50:19.079Z</time></trkpt><trkpt lat="45.5337752" lon="11.5408037"><ele>107.0</ele><time>2026-04-06T06:50:22.079Z</time></trkpt><trkpt lat="45.5337994" lon="11.5407004"><ele>107.00000000000001</ele><time>2026-04-06T06:50:25.079Z</time></trkpt><trkpt lat="45.5338296" lon="11.5405833"><ele>107.0</ele><time>2026-04-06T06:50:28.089Z</time></trkpt><trkpt lat="45.5338826" lon="11.5405279"><ele>110.85714285714286</ele><time>2026-04-06T06:50:29.079Z</time></trkpt><trkpt lat="45.5339262" lon="11.5404525"><ele>114.71428571428572</ele><time>2026-04-06T06:50:31.079Z</time></trkpt><trkpt lat="45.5339904" lon="11.540404"><ele>118.57142857142858</ele><time>2026-04-06T06:50:35.079Z</time></trkpt><trkpt lat="45.5339946" lon="11.5405108"><ele>122.42857142857143</ele><time>2026-04-06T06:50:41.079Z</time></trkpt><trkpt lat="45.5339645" lon="11.5405974"><ele>126.28571428571428</ele><time>2026-04-06T06:50:43.079Z</time></trkpt><trkpt lat="45.5339239" lon="11.5407179"><ele>130.14285714285714</ele><time>2026-04-06T06:50:46.079Z</time></trkpt><trkpt lat="45.5339011" lon="11.540811"><ele>134.0</ele><time>2026-04-06T06:50:48.079Z</time></trkpt><trkpt lat="45.5338845" lon="11.540942"><ele>134.0</ele><time>2026-04-06T06:50:51.091Z</time></trkpt><trkpt lat="45.5338825" lon="11.5410521"><ele>134.0</ele><time>2026-04-06T06:50:53.015Z</time></trkpt><trkpt lat="45.5339049" lon="11.541161"><ele>134.0</ele><time>2026-04-06T06:50:55.079Z</time></trkpt><trkpt lat="45.5339275" lon="11.5412637"><ele>134.0</ele><time>2026-04-06T06:50:57.079Z</time></trkpt><trkpt lat="45.5339381" lon="11.5413588"><ele>134.0</ele><time>2026-04-06T06:50:59.079Z</time></trkpt><trkpt lat="45.5339159" lon="11.5414636"><ele>134.0</ele><time>2026-04-06T06:51:01.079Z</time></trkpt><trkpt lat="45.5339313" lon="11.5415564"><ele>134.0</ele><time>2026-04-06T06:51:04.079Z</time></trkpt><trkpt lat="45.5339908" lon="11.5414965"><ele>134.0</ele><time>2026-04-06T06:51:08.079Z</time></trkpt><trkpt lat="45.5340096" lon="11.5413895"><ele>134.0</ele><time>2026-04-06T06:51:11.079Z</time></trkpt><trkpt lat="45.5340261" lon="11.5412804"><ele>134.0</ele><time>2026-04-06T06:51:14.079Z</time></trkpt><trkpt lat="45.5340443" lon="11.5411881"><ele>134.0</ele><time>2026-04-06T06:51:17.079Z</time></trkpt><trkpt lat="45.5340759" lon="11.5410724"><ele>134.0</ele><time>2026-04-06T06:51:20.079Z</time></trkpt><trkpt lat="45.5341083" lon="11.5409581"><ele>134.0</ele><time>2026-04-06T06:51:23.079Z</time></trkpt><trkpt lat="45.5341615" lon="11.5408597"><ele>134.0</ele><time>2026-04-06T06:51:26.079Z</time></trkpt><trkpt lat="45.534223" lon="11.5407712"><ele>134.0</ele><time>2026-04-06T06:51:29.079Z</time></trkpt><trkpt lat="45.5342853" lon="11.5406936"><ele>134.0</ele><time>2026-04-06T06:51:32.079Z</time></trkpt><trkpt lat="45.5343518" lon="11.5405778"><ele>134.0</ele><time>2026-04-06T06:51:36.079Z</time></trkpt><trkpt lat="45.5343929" lon="11.5404819"><ele>134.0</ele><time>2026-04-06T06:51:39.079Z</time></trkpt><trkpt lat="45.5344476" lon="11.540403"><ele>134.0</ele><time>2026-04-06T06:51:42.079Z</time></trkpt><trkpt lat="45.5345327" lon="11.5403576"><ele>134.14285714285714</ele><time>2026-04-06T06:51:45.079Z</time></trkpt><trkpt lat="45.5346075" lon="11.5403401"><ele>134.28571428571428</ele><time>2026-04-06T06:51:48.079Z</time></trkpt><trkpt lat="45.5346753" lon="11.5404081"><ele>134.42857142857142</ele><time>2026-04-06T06:51:52.079Z</time></trkpt><trkpt lat="45.5347323" lon="11.5404745"><ele>134.57142857142856</ele><time>2026-04-06T06:51:55.079Z</time></trkpt><trkpt lat="45.5347868" lon="11.5405338"><ele>134.7142857142857</ele><time>2026-04-06T06:51:58.079Z</time></trkpt><trkpt lat="45.5348468" lon="11.5405801"><ele>134.85714285714286</ele><time>2026-04-06T06:52:01.079Z</time></trkpt><trkpt lat="45.5349087" lon="11.5406337"><ele>135.0</ele><time>2026-04-06T06:52:04.079Z</time></trkpt><trkpt lat="45.5349663" lon="11.5407111"><ele>135.83333333333334</ele><time>2026-04-06T06:52:08.079Z</time></trkpt><trkpt lat="45.5350307" lon="11.5407607"><ele>136.66666666666666</ele><time>2026-04-06T06:52:11.079Z</time></trkpt><trkpt lat="45.5350722" lon="11.5408867"><ele>137.5</ele><time>2026-04-06T06:54:25.082Z</time></trkpt><trkpt lat="45.5350767" lon="11.5409988"><ele>138.33333333333331</ele><time>2026-04-06T06:54:27.082Z</time></trkpt><trkpt lat="45.5351017" lon="11.541142"><ele>139.16666666666666</ele><time>2026-04-06T06:54:29.082Z</time></trkpt><trkpt lat="45.5351078" lon="11.5412336"><ele>140.0</ele><time>2026-04-06T06:54:30.082Z</time></trkpt><trkpt lat="45.5351127" lon="11.5413914"><ele>140.0</ele><time>2026-04-06T06:54:32.082Z</time></trkpt><trkpt lat="45.5351344" lon="11.5414895"><ele>140.0</ele><time>2026-04-06T06:54:34.082Z</time></trkpt><trkpt lat="45.5351088" lon="11.5415763"><ele>140.0</ele><time>2026-04-06T06:54:36.082Z</time></trkpt><trkpt lat="45.5350732" lon="11.5416522"><ele>140.0</ele><time>2026-04-06T06:54:38.082Z</time></trkpt><trkpt lat="45.5350385" lon="11.5417681"><ele>140.0</ele><time>2026-04-06T06:54:41.082Z</time></trkpt><trkpt lat="45.5350141" lon="11.5418933"><ele>140.0</ele><time>2026-04-06T06:54:44.082Z</time></trkpt><trkpt lat="45.5349923" lon="11.5419925"><ele>139.0</ele><time>2026-04-06T06:54:46.082Z</time></trkpt><trkpt lat="45.5349694" lon="11.5420966"><ele>138.0</ele><time>2026-04-06T06:54:48.082Z</time></trkpt><trkpt lat="45.5349402" lon="11.5421959"><ele>137.0</ele><time>2026-04-06T06:54:50.082Z</time></trkpt><trkpt lat="45.5349108" lon="11.5422979"><ele>136.0</ele><time>2026-04-06T06:54:52.082Z</time></trkpt><trkpt lat="45.5348786" lon="11.5424078"><ele>135.0</ele><time>2026-04-06T06:54:54.083Z</time></trkpt><trkpt lat="45.534845" lon="11.5425094"><ele>134.0</ele><time>2026-04-06T06:54:56.097Z</time></trkpt><trkpt lat="45.5348088" lon="11.5426087"><ele>134.0</ele><time>2026-04-06T06:54:59.084Z</time></trkpt><trkpt lat="45.5347656" lon="11.5427314"><ele>134.0</ele><time>2026-04-06T06:55:02.082Z</time></trkpt><trkpt lat="45.534735" lon="11.5428151"><ele>134.0</ele><time>2026-04-06T06:55:04.045Z</time></trkpt><trkpt lat="45.5347085" lon="11.5428983"><ele>134.0</ele><time>2026-04-06T06:55:06.067Z</time></trkpt><trkpt lat="45.5346829" lon="11.5429891"><ele>134.0</ele><time>2026-04-06T06:55:08.082Z</time></trkpt><trkpt lat="45.5346724" lon="11.5430886"><ele>134.0</ele><time>2026-04-06T06:55:10.082Z</time></trkpt><trkpt lat="45.5346912" lon="11.5431971"><ele>134.0</ele><time>2026-04-06T06:55:12.082Z</time></trkpt><trkpt lat="45.5347306" lon="11.5432961"><ele>133.6</ele><time>2026-04-06T06:55:14.103Z</time></trkpt><trkpt lat="45.5347782" lon="11.5433987"><ele>133.2</ele><time>2026-04-06T06:55:16.082Z</time></trkpt><trkpt lat="45.5347913" lon="11.5435131"><ele>132.79999999999998</ele><time>2026-04-06T06:55:18.083Z</time></trkpt><trkpt lat="45.5347618" lon="11.5436359"><ele>132.4</ele><time>2026-04-06T06:55:20.083Z</time></trkpt><trkpt lat="45.5347344" lon="11.5437694"><ele>132.0</ele><time>2026-04-06T06:55:22.082Z</time></trkpt><trkpt lat="45.5347136" lon="11.5439171"><ele>132.0</ele><time>2026-04-06T06:55:24.082Z</time></trkpt><trkpt lat="45.5347077" lon="11.5440727"><ele>132.0</ele><time>2026-04-06T06:55:26.082Z</time></trkpt><trkpt lat="45.5347102" lon="11.5442239"><ele>132.0</ele><time>2026-04-06T06:55:28.082Z</time></trkpt><trkpt lat="45.5347093" lon="11.5443626"><ele>132.0</ele><time>2026-04-06T06:55:30.082Z</time></trkpt><trkpt lat="45.5347401" lon="11.5444651"><ele>132.0</ele><time>2026-04-06T06:55:32.082Z</time></trkpt><trkpt lat="45.5347794" lon="11.54457"><ele>131.16666666666666</ele><time>2026-04-06T06:55:34.082Z</time></trkpt><trkpt lat="45.5348094" lon="11.5446622"><ele>130.33333333333334</ele><time>2026-04-06T06:55:36.082Z</time></trkpt><trkpt lat="45.5348427" lon="11.5447592"><ele>129.5</ele><time>2026-04-06T06:55:38.082Z</time></trkpt><trkpt lat="45.534885" lon="11.5448527"><ele>128.66666666666669</ele><time>2026-04-06T06:55:40.082Z</time></trkpt><trkpt lat="45.5349312" lon="11.5449337"><ele>127.83333333333334</ele><time>2026-04-06T06:55:42.082Z</time></trkpt><trkpt lat="45.5350073" lon="11.5450033"><ele>127.0</ele><time>2026-04-06T06:55:45.082Z</time></trkpt><trkpt lat="45.5350622" lon="11.5450558"><ele>127.00000000000001</ele><time>2026-04-06T06:55:48.082Z</time></trkpt><trkpt lat="45.5351169" lon="11.5451027"><ele>127.0</ele><time>2026-04-06T06:55:52.082Z</time></trkpt><trkpt lat="45.5351868" lon="11.5451558"><ele>127.0</ele><time>2026-04-06T06:55:56.082Z</time></trkpt><trkpt lat="45.5352335" lon="11.5452411"><ele>127.0</ele><time>2026-04-06T06:55:59.082Z</time></trkpt><trkpt lat="45.5352586" lon="11.5453422"><ele>127.00000000000001</ele><time>2026-04-06T06:56:03.082Z</time></trkpt><trkpt lat="45.5352866" lon="11.5454574"><ele>127.0</ele><time>2026-04-06T06:57:08.082Z</time></trkpt><trkpt lat="45.5352813" lon="11.5455706"><ele>126.16666666666667</ele><time>2026-04-06T06:57:11.082Z</time></trkpt><trkpt lat="45.5352562" lon="11.5457542"><ele>125.33333333333334</ele><time>2026-04-06T06:57:15.082Z</time></trkpt><trkpt lat="45.5352647" lon="11.5458626"><ele>124.5</ele><time>2026-04-06T06:57:17.082Z</time></trkpt><trkpt lat="45.535298" lon="11.5459443"><ele>123.66666666666666</ele><time>2026-04-06T06:57:19.082Z</time></trkpt><trkpt lat="45.5353449" lon="11.5460231"><ele>122.83333333333333</ele><time>2026-04-06T06:57:21.082Z</time></trkpt><trkpt lat="45.5353948" lon="11.5460943"><ele>122.0</ele><time>2026-04-06T06:57:23.082Z</time></trkpt><trkpt lat="45.5354397" lon="11.5461625"><ele>120.33333333333333</ele><time>2026-04-06T06:57:25.082Z</time></trkpt><trkpt lat="45.5354866" lon="11.5462394"><ele>118.66666666666666</ele><time>2026-04-06T06:57:27.082Z</time></trkpt><trkpt lat="45.5355415" lon="11.5463315"><ele>117.0</ele><time>2026-04-06T06:57:30.082Z</time></trkpt><trkpt lat="45.5356109" lon="11.5464251"><ele>115.33333333333334</ele><time>2026-04-06T06:57:33.082Z</time></trkpt><trkpt lat="45.535681" lon="11.5464883"><ele>113.66666666666667</ele><time>2026-04-06T06:57:35.082Z</time></trkpt><trkpt lat="45.5357724" lon="11.546568"><ele>112.0</ele><time>2026-04-06T06:57:37.082Z</time></trkpt><trkpt lat="45.5358532" lon="11.54666"><ele>112.0</ele><time>2026-04-06T06:57:39.082Z</time></trkpt><trkpt lat="45.5359319" lon="11.5467243"><ele>111.99999999999999</ele><time>2026-04-06T06:57:41.082Z</time></trkpt><trkpt lat="45.5360017" lon="11.5468199"><ele>111.99999999999999</ele><time>2026-04-06T06:57:43.082Z</time></trkpt><trkpt lat="45.5360793" lon="11.5469324"><ele>112.0</ele><time>2026-04-06T06:57:45.082Z</time></trkpt><trkpt lat="45.5361727" lon="11.5470484"><ele>112.0</ele><time>2026-04-06T06:57:47.082Z</time></trkpt><trkpt lat="45.5362579" lon="11.547156"><ele>110.0</ele><time>2026-04-06T06:57:49.082Z</time></trkpt><trkpt lat="45.53633" lon="11.5472633"><ele>107.99999999999999</ele><time>2026-04-06T06:57:51.082Z</time></trkpt><trkpt lat="45.5363747" lon="11.5473294"><ele>106.0</ele><time>2026-04-06T06:57:52.082Z</time></trkpt><trkpt lat="45.5364564" lon="11.5474237"><ele>104.0</ele><time>2026-04-06T06:57:54.082Z</time></trkpt><trkpt lat="45.5365272" lon="11.5475412"><ele>102.0</ele><time>2026-04-06T06:57:56.082Z</time></trkpt><trkpt lat="45.5366175" lon="11.5476415"><ele>102.0</ele><time>2026-04-06T06:57:58.082Z</time></trkpt><trkpt lat="45.5367172" lon="11.5477656"><ele>102.0</ele><time>2026-04-06T06:58:00.082Z</time></trkpt><trkpt lat="45.5367676" lon="11.5478454"><ele>102.0</ele><time>2026-04-06T06:58:01.082Z</time></trkpt><trkpt lat="45.5368216" lon="11.5479208"><ele>102.0</ele><time>2026-04-06T06:58:02.082Z</time></trkpt><trkpt lat="45.5368696" lon="11.5479901"><ele>102.0</ele><time>2026-04-06T06:58:03.082Z</time></trkpt><trkpt lat="45.5369286" lon="11.5480528"><ele>102.0</ele><time>2026-04-06T06:58:04.082Z</time></trkpt><trkpt lat="45.5369864" lon="11.5481204"><ele>101.0</ele><time>2026-04-06T06:58:05.082Z</time></trkpt><trkpt lat="45.5370405" lon="11.5481911"><ele>100.0</ele><time>2026-04-06T06:58:06.082Z</time></trkpt><trkpt lat="45.5370939" lon="11.5482727"><ele>99.0</ele><time>2026-04-06T06:58:07.082Z</time></trkpt><trkpt lat="45.5371533" lon="11.5483547"><ele>98.0</ele><time>2026-04-06T06:58:08.082Z</time></trkpt><trkpt lat="45.537216" lon="11.5484492"><ele>97.0</ele><time>2026-04-06T06:58:09.082Z</time></trkpt><trkpt lat="45.5372833" lon="11.5485426"><ele>96.0</ele><time>2026-04-06T06:58:10.082Z</time></trkpt><trkpt lat="45.5373457" lon="11.5486428"><ele>94.19999999999999</ele><time>2026-04-06T06:58:11.082Z</time></trkpt><trkpt lat="45.5374146" lon="11.5487407"><ele>92.39999999999999</ele><time>2026-04-06T06:58:12.082Z</time></trkpt><trkpt lat="45.5374906" lon="11.5488346"><ele>90.6</ele><time>2026-04-06T06:58:13.082Z</time></trkpt><trkpt lat="45.5375549" lon="11.5489458"><ele>88.8</ele><time>2026-04-06T06:58:14.082Z</time></trkpt><trkpt lat="45.5376225" lon="11.5490415"><ele>87.0</ele><time>2026-04-06T06:58:15.082Z</time></trkpt><trkpt lat="45.5376769" lon="11.5491472"><ele>87.0</ele><time>2026-04-06T06:58:16.082Z</time></trkpt><trkpt lat="45.5377352" lon="11.549266"><ele>87.0</ele><time>2026-04-06T06:58:17.082Z</time></trkpt><trkpt lat="45.5377903" lon="11.5493774"><ele>87.0</ele><time>2026-04-06T06:58:18.082Z</time></trkpt><trkpt lat="45.5378237" lon="11.5495033"><ele>87.0</ele><time>2026-04-06T06:58:19.082Z</time></trkpt><trkpt lat="45.5378686" lon="11.5496194"><ele>87.0</ele><time>2026-04-06T06:58:20.082Z</time></trkpt><trkpt lat="45.5379023" lon="11.5497558"><ele>85.19999999999999</ele><time>2026-04-06T06:58:21.082Z</time></trkpt><trkpt lat="45.5379388" lon="11.5498764"><ele>83.39999999999999</ele><time>2026-04-06T06:58:22.083Z</time></trkpt><trkpt lat="45.5379875" lon="11.5499915"><ele>81.6</ele><time>2026-04-06T06:58:23.082Z</time></trkpt><trkpt lat="45.5380177" lon="11.5501173"><ele>79.8</ele><time>2026-04-06T06:58:24.082Z</time></trkpt><trkpt lat="45.5380533" lon="11.5502277"><ele>78.0</ele><time>2026-04-06T06:58:25.082Z</time></trkpt><trkpt lat="45.5380718" lon="11.5503566"><ele>78.16666666666667</ele><time>2026-04-06T06:58:26.082Z</time></trkpt><trkpt lat="45.5381055" lon="11.5504695"><ele>78.33333333333333</ele><time>2026-04-06T06:58:27.082Z</time></trkpt><trkpt lat="45.53812" lon="11.5505906"><ele>78.5</ele><time>2026-04-06T06:58:28.082Z</time></trkpt><trkpt lat="45.5381418" lon="11.5506993"><ele>78.66666666666666</ele><time>2026-04-06T06:58:29.082Z</time></trkpt><trkpt lat="45.5381735" lon="11.5508031"><ele>78.83333333333333</ele><time>2026-04-06T06:58:30.082Z</time></trkpt><trkpt lat="45.5381994" lon="11.5508994"><ele>79.0</ele><time>2026-04-06T06:58:31.082Z</time></trkpt><trkpt lat="45.5382198" lon="11.5509984"><ele>79.0</ele><time>2026-04-06T06:58:32.082Z</time></trkpt><trkpt lat="45.5382476" lon="11.5511769"><ele>79.0</ele><time>2026-04-06T06:58:34.082Z</time></trkpt><trkpt lat="45.5382297" lon="11.5512713"><ele>79.0</ele><time>2026-04-06T06:58:35.082Z</time></trkpt><trkpt lat="45.5382098" lon="11.5513574"><ele>79.0</ele><time>2026-04-06T06:58:36.082Z</time></trkpt><trkpt lat="45.5381861" lon="11.5514434"><ele>79.0</ele><time>2026-04-06T06:58:37.082Z</time></trkpt><trkpt lat="45.538158" lon="11.5515302"><ele>79.0</ele><time>2026-04-06T06:58:38.082Z</time></trkpt><trkpt lat="45.5381318" lon="11.5516137"><ele>79.14285714285715</ele><time>2026-04-06T06:58:39.082Z</time></trkpt><trkpt lat="45.5380937" lon="11.5516974"><ele>79.28571428571429</ele><time>2026-04-06T06:58:40.082Z</time></trkpt><trkpt lat="45.5380618" lon="11.551777"><ele>79.42857142857143</ele><time>2026-04-06T06:58:41.082Z</time></trkpt><trkpt lat="45.5380736" lon="11.5518802"><ele>79.57142857142858</ele><time>2026-04-06T06:58:42.082Z</time></trkpt><trkpt lat="45.5380592" lon="11.5519811"><ele>79.71428571428572</ele><time>2026-04-06T06:58:43.082Z</time></trkpt><trkpt lat="45.5380567" lon="11.5520776"><ele>79.85714285714286</ele><time>2026-04-06T06:58:44.082Z</time></trkpt><trkpt lat="45.538068" lon="11.5521792"><ele>80.0</ele><time>2026-04-06T06:58:45.082Z</time></trkpt><trkpt lat="45.5380538" lon="11.5522719"><ele>80.0</ele><time>2026-04-06T06:58:46.082Z</time></trkpt><trkpt lat="45.5380545" lon="11.5523818"><ele>80.0</ele><time>2026-04-06T06:58:47.082Z</time></trkpt><trkpt lat="45.5380644" lon="11.5524922"><ele>80.0</ele><time>2026-04-06T06:58:48.082Z</time></trkpt><trkpt lat="45.5380639" lon="11.5526009"><ele>80.0</ele><time>2026-04-06T06:58:49.082Z</time></trkpt><trkpt lat="45.5380596" lon="11.5527021"><ele>80.0</ele><time>2026-04-06T06:58:50.082Z</time></trkpt><trkpt lat="45.5380306" lon="11.5527941"><ele>80.0</ele><time>2026-04-06T06:58:51.082Z</time></trkpt><trkpt lat="45.5380141" lon="11.552899"><ele>80.0</ele><time>2026-04-06T06:58:52.082Z</time></trkpt><trkpt lat="45.5379966" lon="11.553001"><ele>78.66666666666667</ele><time>2026-04-06T06:58:53.082Z</time></trkpt><trkpt lat="45.53797" lon="11.5530946"><ele>77.33333333333334</ele><time>2026-04-06T06:58:54.082Z</time></trkpt><trkpt lat="45.537925" lon="11.5531687"><ele>76.0</ele><time>2026-04-06T06:58:55.082Z</time></trkpt><trkpt lat="45.5378942" lon="11.5532498"><ele>74.66666666666667</ele><time>2026-04-06T06:58:56.082Z</time></trkpt><trkpt lat="45.5378651" lon="11.5534181"><ele>73.33333333333333</ele><time>2026-04-06T06:58:58.082Z</time></trkpt><trkpt lat="45.5378225" lon="11.5535688"><ele>72.0</ele><time>2026-04-06T06:59:00.082Z</time></trkpt><trkpt lat="45.5377694" lon="11.5537165"><ele>72.0</ele><time>2026-04-06T06:59:02.082Z</time></trkpt><trkpt lat="45.5377017" lon="11.5538488"><ele>72.0</ele><time>2026-04-06T06:59:04.082Z</time></trkpt><trkpt lat="45.537652" lon="11.5539904"><ele>72.0</ele><time>2026-04-06T06:59:06.082Z</time></trkpt><trkpt lat="45.5375852" lon="11.5540565"><ele>72.0</ele><time>2026-04-06T06:59:07.082Z</time></trkpt><trkpt lat="45.5375236" lon="11.5542025"><ele>72.0</ele><time>2026-04-06T06:59:09.082Z</time></trkpt><trkpt lat="45.5374662" lon="11.5543411"><ele>72.0</ele><time>2026-04-06T06:59:11.082Z</time></trkpt><trkpt lat="45.5374137" lon="11.5544655"><ele>72.0</ele><time>2026-04-06T06:59:13.082Z</time></trkpt><trkpt lat="45.5373331" lon="11.5545765"><ele>72.0</ele><time>2026-04-06T06:59:15.082Z</time></trkpt><trkpt lat="45.5372825" lon="11.5546319"><ele>72.0</ele><time>2026-04-06T06:59:16.082Z</time></trkpt><trkpt lat="45.5372267" lon="11.5546898"><ele>72.0</ele><time>2026-04-06T06:59:17.082Z</time></trkpt><trkpt lat="45.5371292" lon="11.5547991"><ele>70.2</ele><time>2026-04-06T06:59:19.082Z</time></trkpt><trkpt lat="45.5370426" lon="11.5548947"><ele>68.4</ele><time>2026-04-06T06:59:21.082Z</time></trkpt><trkpt lat="45.5369634" lon="11.5549785"><ele>66.6</ele><time>2026-04-06T06:59:23.082Z</time></trkpt><trkpt lat="45.5368818" lon="11.5550605"><ele>64.8</ele><time>2026-04-06T06:59:25.082Z</time></trkpt><trkpt lat="45.5367938" lon="11.5551508"><ele>63.0</ele><time>2026-04-06T06:59:27.082Z</time></trkpt><trkpt lat="45.5367196" lon="11.5552623"><ele>63.0</ele><time>2026-04-06T06:59:29.082Z</time></trkpt><trkpt lat="45.5366522" lon="11.555357"><ele>63.0</ele><time>2026-04-06T06:59:31.082Z</time></trkpt><trkpt lat="45.5365906" lon="11.5554651"><ele>63.0</ele><time>2026-04-06T06:59:33.082Z</time></trkpt><trkpt lat="45.5365314" lon="11.5555768"><ele>63.0</ele><time>2026-04-06T06:59:35.082Z</time></trkpt><trkpt lat="45.5364999" lon="11.5557232"><ele>63.0</ele><time>2026-04-06T06:59:37.082Z</time></trkpt><trkpt lat="45.5364329" lon="11.555855"><ele>62.8</ele><time>2026-04-06T06:59:39.082Z</time></trkpt><trkpt lat="45.5363801" lon="11.5559091"><ele>62.599999999999994</ele><time>2026-04-06T06:59:40.082Z</time></trkpt><trkpt lat="45.5362758" lon="11.5560042"><ele>62.400000000000006</ele><time>2026-04-06T06:59:42.082Z</time></trkpt><trkpt lat="45.5362218" lon="11.5560524"><ele>62.2</ele><time>2026-04-06T06:59:43.082Z</time></trkpt><trkpt lat="45.5361196" lon="11.5561251"><ele>62.0</ele><time>2026-04-06T06:59:45.082Z</time></trkpt><trkpt lat="45.5360186" lon="11.5561732"><ele>62.0</ele><time>2026-04-06T06:59:47.082Z</time></trkpt><trkpt lat="45.5360874" lon="11.5561804"><ele>62.0</ele><time>2026-04-06T07:01:49.082Z</time></trkpt><trkpt lat="45.5361617" lon="11.5561551"><ele>62.0</ele><time>2026-04-06T07:01:51.082Z</time></trkpt><trkpt lat="45.5362603" lon="11.556123"><ele>62.0</ele><time>2026-04-06T07:01:53.082Z</time></trkpt><trkpt lat="45.5363468" lon="11.5561008"><ele>62.0</ele><time>2026-04-06T07:01:55.082Z</time></trkpt><trkpt lat="45.5364796" lon="11.5560614"><ele>62.0</ele><time>2026-04-06T07:01:57.082Z</time></trkpt><trkpt lat="45.5365446" lon="11.5560473"><ele>62.0</ele><time>2026-04-06T07:01:58.082Z</time></trkpt><trkpt lat="45.5366195" lon="11.556018"><ele>62.0</ele><time>2026-04-06T07:01:59.082Z</time></trkpt><trkpt lat="45.5367401" lon="11.5560076"><ele>62.0</ele><time>2026-04-06T07:02:01.082Z</time></trkpt><trkpt lat="45.5368588" lon="11.556066"><ele>62.0</ele><time>2026-04-06T07:02:03.082Z</time></trkpt><trkpt lat="45.5369194" lon="11.5561048"><ele>62.0</ele><time>2026-04-06T07:02:04.082Z</time></trkpt><trkpt lat="45.5369763" lon="11.5561702"><ele>62.0</ele><time>2026-04-06T07:02:05.082Z</time></trkpt><trkpt lat="45.5370881" lon="11.5561827"><ele>62.0</ele><time>2026-04-06T07:02:07.082Z</time></trkpt><trkpt lat="45.5371564" lon="11.5561621"><ele>62.0</ele><time>2026-04-06T07:02:08.082Z</time></trkpt><trkpt lat="45.5372699" lon="11.5561242"><ele>62.0</ele><time>2026-04-06T07:02:10.082Z</time></trkpt><trkpt lat="45.5374036" lon="11.5560695"><ele>60.400000000000006</ele><time>2026-04-06T07:02:12.082Z</time></trkpt><trkpt lat="45.5375323" lon="11.5560261"><ele>58.800000000000004</ele><time>2026-04-06T07:02:14.082Z</time></trkpt><trkpt lat="45.5376" lon="11.5560046"><ele>57.2</ele><time>2026-04-06T07:02:15.082Z</time></trkpt><trkpt lat="45.5376978" lon="11.5559583"><ele>55.6</ele><time>2026-04-06T07:02:17.082Z</time></trkpt><trkpt lat="45.5378145" lon="11.5559228"><ele>54.0</ele><time>2026-04-06T07:02:19.082Z</time></trkpt><trkpt lat="45.5379331" lon="11.5558832"><ele>51.833333333333336</ele><time>2026-04-06T07:02:21.082Z</time></trkpt><trkpt lat="45.5379991" lon="11.5558563"><ele>49.666666666666664</ele><time>2026-04-06T07:02:22.082Z</time></trkpt><trkpt lat="45.5381084" lon="11.5558"><ele>47.5</ele><time>2026-04-06T07:02:24.082Z</time></trkpt><trkpt lat="45.5382174" lon="11.5557451"><ele>45.33333333333333</ele><time>2026-04-06T07:02:26.082Z</time></trkpt><trkpt lat="45.538278" lon="11.5556903"><ele>43.166666666666664</ele><time>2026-04-06T07:02:27.082Z</time></trkpt><trkpt lat="45.5383345" lon="11.5556414"><ele>41.0</ele><time>2026-04-06T07:02:28.082Z</time></trkpt><trkpt lat="45.5383899" lon="11.5555857"><ele>41.0</ele><time>2026-04-06T07:02:29.082Z</time></trkpt><trkpt lat="45.5384468" lon="11.5555283"><ele>41.0</ele><time>2026-04-06T07:02:30.082Z</time></trkpt><trkpt lat="45.5384997" lon="11.5554625"><ele>41.0</ele><time>2026-04-06T07:02:31.082Z</time></trkpt><trkpt lat="45.5385518" lon="11.5554"><ele>41.0</ele><time>2026-04-06T07:02:32.082Z</time></trkpt><trkpt lat="45.5386087" lon="11.5553397"><ele>41.0</ele><time>2026-04-06T07:02:33.082Z</time></trkpt><trkpt lat="45.5387023" lon="11.5552461"><ele>41.0</ele><time>2026-04-06T07:02:35.082Z</time></trkpt><trkpt lat="45.5387805" lon="11.5551567"><ele>40.33333333333333</ele><time>2026-04-06T07:02:37.082Z</time></trkpt><trkpt lat="45.5388474" lon="11.5551099"><ele>39.666666666666664</ele><time>2026-04-06T07:02:38.082Z</time></trkpt><trkpt lat="45.53894" lon="11.5551029"><ele>39.0</ele><time>2026-04-06T07:02:41.082Z</time></trkpt><trkpt lat="45.5388999" lon="11.5551814"><ele>38.333333333333336</ele><time>2026-04-06T07:02:46.082Z</time></trkpt><trkpt lat="45.5388307" lon="11.5552305"><ele>37.66666666666667</ele><time>2026-04-06T07:02:49.082Z</time></trkpt><trkpt lat="45.5387563" lon="11.5552835"><ele>37.0</ele><time>2026-04-06T07:02:52.082Z</time></trkpt><trkpt lat="45.5387065" lon="11.5553466"><ele>37.57142857142857</ele><time>2026-04-06T07:02:54.082Z</time></trkpt><trkpt lat="45.5386506" lon="11.5554174"><ele>38.14285714285714</ele><time>2026-04-06T07:02:56.082Z</time></trkpt><trkpt lat="45.5386053" lon="11.555484"><ele>38.71428571428571</ele><time>2026-04-06T07:02:58.082Z</time></trkpt><trkpt lat="45.5385485" lon="11.5555591"><ele>39.285714285714285</ele><time>2026-04-06T07:03:01.082Z</time></trkpt><trkpt lat="45.5384943" lon="11.5556184"><ele>39.857142857142854</ele><time>2026-04-06T07:03:03.082Z</time></trkpt><trkpt lat="45.5384432" lon="11.5556864"><ele>40.42857142857142</ele><time>2026-04-06T07:03:05.082Z</time></trkpt><trkpt lat="45.5383842" lon="11.5557577"><ele>41.0</ele><time>2026-04-06T07:03:07.082Z</time></trkpt><trkpt lat="45.5383397" lon="11.5558344"><ele>41.0</ele><time>2026-04-06T07:03:09.082Z</time></trkpt><trkpt lat="45.5382629" lon="11.555948"><ele>41.0</ele><time>2026-04-06T07:03:12.082Z</time></trkpt><trkpt lat="45.5381984" lon="11.5560203"><ele>41.0</ele><time>2026-04-06T07:03:14.082Z</time></trkpt><trkpt lat="45.5381282" lon="11.5560939"><ele>41.0</ele><time>2026-04-06T07:03:16.082Z</time></trkpt><trkpt lat="45.5380511" lon="11.5561566"><ele>41.0</ele><time>2026-04-06T07:03:18.082Z</time></trkpt><trkpt lat="45.5379723" lon="11.5562147"><ele>40.599999999999994</ele><time>2026-04-06T07:03:20.082Z</time></trkpt><trkpt lat="45.5378927" lon="11.556271"><ele>40.199999999999996</ele><time>2026-04-06T07:03:22.082Z</time></trkpt><trkpt lat="45.5377958" lon="11.5563337"><ele>39.8</ele><time>2026-04-06T07:03:24.082Z</time></trkpt><trkpt lat="45.5377106" lon="11.5563854"><ele>39.4</ele><time>2026-04-06T07:03:26.082Z</time></trkpt><trkpt lat="45.5376265" lon="11.5564417"><ele>39.0</ele><time>2026-04-06T07:03:28.082Z</time></trkpt><trkpt lat="45.5375325" lon="11.5564792"><ele>39.0</ele><time>2026-04-06T07:03:30.082Z</time></trkpt><trkpt lat="45.5374376" lon="11.5565239"><ele>39.0</ele><time>2026-04-06T07:03:32.082Z</time></trkpt><trkpt lat="45.5373405" lon="11.5565541"><ele>39.0</ele><time>2026-04-06T07:03:34.082Z</time></trkpt><trkpt lat="45.537241" lon="11.5566207"><ele>39.0</ele><time>2026-04-06T07:03:36.082Z</time></trkpt><trkpt lat="45.5371534" lon="11.5566813"><ele>39.0</ele><time>2026-04-06T07:03:38.082Z</time></trkpt><trkpt lat="45.5370639" lon="11.5567337"><ele>39.8</ele><time>2026-04-06T07:03:40.082Z</time></trkpt><trkpt lat="45.5369334" lon="11.5567935"><ele>40.599999999999994</ele><time>2026-04-06T07:03:42.082Z</time></trkpt><trkpt lat="45.536846" lon="11.5568711"><ele>41.4</ele><time>2026-04-06T07:03:44.082Z</time></trkpt><trkpt lat="45.5367701" lon="11.5569272"><ele>42.199999999999996</ele><time>2026-04-06T07:03:46.082Z</time></trkpt><trkpt lat="45.5366765" lon="11.5569912"><ele>43.0</ele><time>2026-04-06T07:03:48.082Z</time></trkpt><trkpt lat="45.5365316" lon="11.5570832"><ele>41.8</ele><time>2026-04-06T07:03:51.082Z</time></trkpt><trkpt lat="45.5364352" lon="11.5571442"><ele>40.599999999999994</ele><time>2026-04-06T07:03:53.082Z</time></trkpt><trkpt lat="45.5363442" lon="11.5571957"><ele>39.400000000000006</ele><time>2026-04-06T07:03:55.082Z</time></trkpt><trkpt lat="45.5362561" lon="11.5572564"><ele>38.2</ele><time>2026-04-06T07:03:57.083Z</time></trkpt><trkpt lat="45.5361259" lon="11.5573557"><ele>37.0</ele><time>2026-04-06T07:04:00.082Z</time></trkpt><trkpt lat="45.5360327" lon="11.5574307"><ele>37.0</ele><time>2026-04-06T07:04:02.082Z</time></trkpt><trkpt lat="45.5359425" lon="11.5575216"><ele>37.0</ele><time>2026-04-06T07:04:04.082Z</time></trkpt><trkpt lat="45.5358635" lon="11.5575976"><ele>37.0</ele><time>2026-04-06T07:04:06.082Z</time></trkpt><trkpt lat="45.5357834" lon="11.5576865"><ele>37.0</ele><time>2026-04-06T07:04:08.082Z</time></trkpt><trkpt lat="45.5357033" lon="11.5577802"><ele>37.0</ele><time>2026-04-06T07:04:10.082Z</time></trkpt><trkpt lat="45.5356344" lon="11.5578972"><ele>35.4</ele><time>2026-04-06T07:04:12.082Z</time></trkpt><trkpt lat="45.5355675" lon="11.5580225"><ele>33.800000000000004</ele><time>2026-04-06T07:04:14.082Z</time></trkpt><trkpt lat="45.5355075" lon="11.5581347"><ele>32.2</ele><time>2026-04-06T07:04:16.082Z</time></trkpt><trkpt lat="45.5354777" lon="11.5582498"><ele>30.6</ele><time>2026-04-06T07:04:18.083Z</time></trkpt><trkpt lat="45.5354318" lon="11.5583781"><ele>29.0</ele><time>2026-04-06T07:04:20.082Z</time></trkpt><trkpt lat="45.5354022" lon="11.5585053"><ele>29.799999999999997</ele><time>2026-04-06T07:04:22.082Z</time></trkpt><trkpt lat="45.5353507" lon="11.5586295"><ele>30.599999999999998</ele><time>2026-04-06T07:04:24.082Z</time></trkpt><trkpt lat="45.5353006" lon="11.5587728"><ele>31.4</ele><time>2026-04-06T07:04:26.082Z</time></trkpt><trkpt lat="45.535267" lon="11.5588989"><ele>32.199999999999996</ele><time>2026-04-06T07:04:28.082Z</time></trkpt><trkpt lat="45.5352282" lon="11.5590083"><ele>33.0</ele><time>2026-04-06T07:04:30.082Z</time></trkpt><trkpt lat="45.5351903" lon="11.5591036"><ele>33.0</ele><time>2026-04-06T07:04:32.082Z</time></trkpt><trkpt lat="45.5351382" lon="11.5591921"><ele>33.0</ele><time>2026-04-06T07:04:34.082Z</time></trkpt><trkpt lat="45.5350983" lon="11.5592665"><ele>33.0</ele><time>2026-04-06T07:04:36.083Z</time></trkpt><trkpt lat="45.5350304" lon="11.5593778"><ele>33.0</ele><time>2026-04-06T07:04:40.082Z</time></trkpt><trkpt lat="45.5349527" lon="11.5594611"><ele>33.0</ele><time>2026-04-06T07:04:43.082Z</time></trkpt><trkpt lat="45.5348964" lon="11.5595106"><ele>33.0</ele><time>2026-04-06T07:04:46.082Z</time></trkpt><trkpt lat="45.5348438" lon="11.5595852"><ele>33.166666666666664</ele><time>2026-04-06T07:04:50.082Z</time></trkpt><trkpt lat="45.5348518" lon="11.5597027"><ele>33.333333333333336</ele><time>2026-04-06T07:04:54.082Z</time></trkpt><trkpt lat="45.5347896" lon="11.5597849"><ele>33.5</ele><time>2026-04-06T07:04:58.082Z</time></trkpt><trkpt lat="45.5347085" lon="11.559863"><ele>33.66666666666667</ele><time>2026-04-06T07:05:01.082Z</time></trkpt><trkpt lat="45.5346447" lon="11.5599294"><ele>33.833333333333336</ele><time>2026-04-06T07:05:03.082Z</time></trkpt><trkpt lat="45.5345778" lon="11.5599875"><ele>34.0</ele><time>2026-04-06T07:05:05.082Z</time></trkpt><trkpt lat="45.5345052" lon="11.5600505"><ele>34.0</ele><time>2026-04-06T07:05:07.082Z</time></trkpt><trkpt lat="45.5344345" lon="11.5601178"><ele>34.0</ele><time>2026-04-06T07:05:09.082Z</time></trkpt><trkpt lat="45.5343668" lon="11.5601927"><ele>34.0</ele><time>2026-04-06T07:05:11.082Z</time></trkpt><trkpt lat="45.5343048" lon="11.5602712"><ele>34.0</ele><time>2026-04-06T07:05:13.082Z</time></trkpt><trkpt lat="45.5342338" lon="11.5603381"><ele>34.0</ele><time>2026-04-06T07:05:15.082Z</time></trkpt><trkpt lat="45.5341626" lon="11.560394"><ele>34.0</ele><time>2026-04-06T07:05:17.082Z</time></trkpt><trkpt lat="45.5341029" lon="11.5604582"><ele>34.16666666666667</ele><time>2026-04-06T07:05:19.082Z</time></trkpt><trkpt lat="45.5340391" lon="11.5605225"><ele>34.333333333333336</ele><time>2026-04-06T07:05:21.082Z</time></trkpt><trkpt lat="45.5339736" lon="11.5605893"><ele>34.5</ele><time>2026-04-06T07:05:23.082Z</time></trkpt><trkpt lat="45.5339013" lon="11.5606621"><ele>34.666666666666664</ele><time>2026-04-06T07:05:25.082Z</time></trkpt><trkpt lat="45.5338229" lon="11.5607324"><ele>34.83333333333333</ele><time>2026-04-06T07:05:27.082Z</time></trkpt><trkpt lat="45.5337415" lon="11.5608154"><ele>35.0</ele><time>2026-04-06T07:05:29.082Z</time></trkpt><trkpt lat="45.5336733" lon="11.5608879"><ele>35.0</ele><time>2026-04-06T07:05:31.082Z</time></trkpt><trkpt lat="45.5336005" lon="11.5609556"><ele>35.0</ele><time>2026-04-06T07:05:33.082Z</time></trkpt><trkpt lat="45.53354" lon="11.5610148"><ele>35.0</ele><time>2026-04-06T07:05:35.082Z</time></trkpt><trkpt lat="45.5334662" lon="11.5610909"><ele>35.0</ele><time>2026-04-06T07:05:37.082Z</time></trkpt><trkpt lat="45.5333918" lon="11.5611542"><ele>35.0</ele><time>2026-04-06T07:05:39.082Z</time></trkpt><trkpt lat="45.5333297" lon="11.5612194"><ele>35.0</ele><time>2026-04-06T07:05:41.082Z</time></trkpt><trkpt lat="45.5332537" lon="11.5612979"><ele>34.666666666666664</ele><time>2026-04-06T07:05:44.082Z</time></trkpt><trkpt lat="45.5331871" lon="11.5613561"><ele>34.33333333333333</ele><time>2026-04-06T07:05:46.082Z</time></trkpt><trkpt lat="45.5331196" lon="11.5614233"><ele>34.0</ele><time>2026-04-06T07:05:48.082Z</time></trkpt><trkpt lat="45.5330466" lon="11.5614859"><ele>33.666666666666664</ele><time>2026-04-06T07:05:50.082Z</time></trkpt><trkpt lat="45.5329814" lon="11.5615489"><ele>33.333333333333336</ele><time>2026-04-06T07:05:52.082Z</time></trkpt><trkpt lat="45.5329199" lon="11.5616045"><ele>33.0</ele><time>2026-04-06T07:05:54.082Z</time></trkpt><trkpt lat="45.5328527" lon="11.5616681"><ele>33.0</ele><time>2026-04-06T07:05:56.082Z</time></trkpt><trkpt lat="45.5327893" lon="11.5617309"><ele>33.0</ele><time>2026-04-06T07:05:58.082Z</time></trkpt><trkpt lat="45.5327137" lon="11.5617994"><ele>33.0</ele><time>2026-04-06T07:06:00.082Z</time></trkpt><trkpt lat="45.5326317" lon="11.5618573"><ele>33.0</ele><time>2026-04-06T07:06:02.082Z</time></trkpt><trkpt lat="45.5325533" lon="11.5619237"><ele>33.0</ele><time>2026-04-06T07:06:04.082Z</time></trkpt><trkpt lat="45.5324661" lon="11.5619894"><ele>33.0</ele><time>2026-04-06T07:06:06.082Z</time></trkpt><trkpt lat="45.5323849" lon="11.5620384"><ele>32.5</ele><time>2026-04-06T07:06:08.082Z</time></trkpt><trkpt lat="45.5322974" lon="11.5621017"><ele>32.0</ele><time>2026-04-06T07:06:10.082Z</time></trkpt><trkpt lat="45.5322224" lon="11.5621443"><ele>31.5</ele><time>2026-04-06T07:06:12.082Z</time></trkpt><trkpt lat="45.5321395" lon="11.5621843"><ele>31.0</ele><time>2026-04-06T07:06:14.082Z</time></trkpt><trkpt lat="45.5320571" lon="11.5622149"><ele>30.5</ele><time>2026-04-06T07:06:16.082Z</time></trkpt><trkpt lat="45.5319852" lon="11.5622491"><ele>30.0</ele><time>2026-04-06T07:06:18.082Z</time></trkpt><trkpt lat="45.5319172" lon="11.562277"><ele>30.0</ele><time>2026-04-06T07:06:20.083Z</time></trkpt><trkpt lat="45.5318437" lon="11.5623079"><ele>30.0</ele><time>2026-04-06T07:06:22.082Z</time></trkpt><trkpt lat="45.5317741" lon="11.5623412"><ele>30.0</ele><time>2026-04-06T07:06:24.082Z</time></trkpt><trkpt lat="45.5316872" lon="11.5623749"><ele>30.0</ele><time>2026-04-06T07:06:26.082Z</time></trkpt><trkpt lat="45.5316112" lon="11.5624114"><ele>30.0</ele><time>2026-04-06T07:06:28.082Z</time></trkpt><trkpt lat="45.5315108" lon="11.5624517"><ele>30.0</ele><time>2026-04-06T07:06:30.082Z</time></trkpt><trkpt lat="45.5314061" lon="11.5624917"><ele>30.0</ele><time>2026-04-06T07:06:32.082Z</time></trkpt><trkpt lat="45.5313108" lon="11.5625214"><ele>30.0</ele><time>2026-04-06T07:06:34.082Z</time></trkpt><trkpt lat="45.5312184" lon="11.5625547"><ele>30.0</ele><time>2026-04-06T07:06:36.082Z</time></trkpt><trkpt lat="45.5311361" lon="11.5625897"><ele>30.0</ele><time>2026-04-06T07:06:38.082Z</time></trkpt><trkpt lat="45.531049" lon="11.5626229"><ele>30.0</ele><time>2026-04-06T07:06:40.082Z</time></trkpt><trkpt lat="45.530975" lon="11.5626525"><ele>30.0</ele><time>2026-04-06T07:06:42.082Z</time></trkpt><trkpt lat="45.530884" lon="11.5626914"><ele>30.0</ele><time>2026-04-06T07:06:44.082Z</time></trkpt><trkpt lat="45.5307831" lon="11.5627165"><ele>30.0</ele><time>2026-04-06T07:06:46.082Z</time></trkpt><trkpt lat="45.5307023" lon="11.5627377"><ele>30.0</ele><time>2026-04-06T07:06:48.082Z</time></trkpt><trkpt lat="45.5306159" lon="11.5627561"><ele>30.0</ele><time>2026-04-06T07:06:50.082Z</time></trkpt><trkpt lat="45.5305308" lon="11.5627615"><ele>30.0</ele><time>2026-04-06T07:06:52.082Z</time></trkpt><trkpt lat="45.530433" lon="11.5627771"><ele>29.833333333333332</ele><time>2026-04-06T07:06:54.082Z</time></trkpt><trkpt lat="45.5303534" lon="11.5628016"><ele>29.666666666666664</ele><time>2026-04-06T07:06:56.082Z</time></trkpt><trkpt lat="45.5302636" lon="11.5628277"><ele>29.5</ele><time>2026-04-06T07:06:58.082Z</time></trkpt><trkpt lat="45.5301801" lon="11.5628528"><ele>29.333333333333332</ele><time>2026-04-06T07:07:00.082Z</time></trkpt><trkpt lat="45.5300998" lon="11.5628704"><ele>29.166666666666664</ele><time>2026-04-06T07:07:02.082Z</time></trkpt><trkpt lat="45.5300272" lon="11.5628795"><ele>29.0</ele><time>2026-04-06T07:07:04.082Z</time></trkpt><trkpt lat="45.5299426" lon="11.5629036"><ele>28.999999999999996</ele><time>2026-04-06T07:07:06.082Z</time></trkpt><trkpt lat="45.5298632" lon="11.5629238"><ele>29.0</ele><time>2026-04-06T07:07:08.082Z</time></trkpt><trkpt lat="45.5297831" lon="11.5629397"><ele>29.0</ele><time>2026-04-06T07:07:10.082Z</time></trkpt><trkpt lat="45.5297001" lon="11.5629446"><ele>29.0</ele><time>2026-04-06T07:07:12.083Z</time></trkpt><trkpt lat="45.5296246" lon="11.5629797"><ele>28.999999999999996</ele><time>2026-04-06T07:07:14.082Z</time></trkpt><trkpt lat="45.5295493" lon="11.5630137"><ele>29.0</ele><time>2026-04-06T07:07:16.082Z</time></trkpt><trkpt lat="45.5294741" lon="11.5630382"><ele>29.666666666666664</ele><time>2026-04-06T07:07:18.082Z</time></trkpt><trkpt lat="45.5294015" lon="11.5630647"><ele>30.333333333333332</ele><time>2026-04-06T07:07:20.082Z</time></trkpt><trkpt lat="45.5293157" lon="11.5630875"><ele>31.0</ele><time>2026-04-06T07:07:22.082Z</time></trkpt><trkpt lat="45.5292242" lon="11.5631083"><ele>31.666666666666664</ele><time>2026-04-06T07:07:24.082Z</time></trkpt><trkpt lat="45.529155" lon="11.5631322"><ele>32.333333333333336</ele><time>2026-04-06T07:07:26.082Z</time></trkpt><trkpt lat="45.5290811" lon="11.5631361"><ele>33.0</ele><time>2026-04-06T07:07:28.082Z</time></trkpt><trkpt lat="45.5289924" lon="11.5631573"><ele>33.0</ele><time>2026-04-06T07:07:30.082Z</time></trkpt><trkpt lat="45.5288974" lon="11.5631808"><ele>33.0</ele><time>2026-04-06T07:07:32.082Z</time></trkpt><trkpt lat="45.5288136" lon="11.5631973"><ele>33.0</ele><time>2026-04-06T07:07:34.082Z</time></trkpt><trkpt lat="45.528732" lon="11.5632207"><ele>33.0</ele><time>2026-04-06T07:07:36.082Z</time></trkpt><trkpt lat="45.5286502" lon="11.56325"><ele>33.0</ele><time>2026-04-06T07:07:38.082Z</time></trkpt><trkpt lat="45.528567" lon="11.5632744"><ele>33.0</ele><time>2026-04-06T07:07:40.082Z</time></trkpt><trkpt lat="45.5284894" lon="11.5632992"><ele>32.666666666666664</ele><time>2026-04-06T07:07:42.082Z</time></trkpt><trkpt lat="45.5284112" lon="11.5633283"><ele>32.333333333333336</ele><time>2026-04-06T07:07:44.082Z</time></trkpt><trkpt lat="45.5283389" lon="11.563348"><ele>32.0</ele><time>2026-04-06T07:07:46.082Z</time></trkpt><trkpt lat="45.5282689" lon="11.5633607"><ele>31.666666666666668</ele><time>2026-04-06T07:07:48.082Z</time></trkpt><trkpt lat="45.5282049" lon="11.5634037"><ele>31.333333333333336</ele><time>2026-04-06T07:07:50.082Z</time></trkpt><trkpt lat="45.5281232" lon="11.5634457"><ele>31.0</ele><time>2026-04-06T07:07:52.082Z</time></trkpt><trkpt lat="45.5280524" lon="11.5634621"><ele>31.000000000000004</ele><time>2026-04-06T07:07:54.082Z</time></trkpt><trkpt lat="45.5279762" lon="11.5634815"><ele>31.0</ele><time>2026-04-06T07:07:56.082Z</time></trkpt><trkpt lat="45.5279039" lon="11.5635024"><ele>31.0</ele><time>2026-04-06T07:07:58.082Z</time></trkpt><trkpt lat="45.5278281" lon="11.563526"><ele>31.0</ele><time>2026-04-06T07:08:00.082Z</time></trkpt><trkpt lat="45.5277529" lon="11.5635551"><ele>31.000000000000004</ele><time>2026-04-06T07:08:02.082Z</time></trkpt><trkpt lat="45.5276706" lon="11.5635836"><ele>31.0</ele><time>2026-04-06T07:08:04.082Z</time></trkpt><trkpt lat="45.5275895" lon="11.5636183"><ele>31.166666666666668</ele><time>2026-04-06T07:08:06.082Z</time></trkpt><trkpt lat="45.5275041" lon="11.5636413"><ele>31.333333333333336</ele><time>2026-04-06T07:08:08.082Z</time></trkpt><trkpt lat="45.5274206" lon="11.5636648"><ele>31.5</ele><time>2026-04-06T07:08:10.082Z</time></trkpt><trkpt lat="45.5273561" lon="11.5636987"><ele>31.666666666666664</ele><time>2026-04-06T07:08:12.082Z</time></trkpt><trkpt lat="45.527267" lon="11.5637326"><ele>31.833333333333332</ele><time>2026-04-06T07:08:14.082Z</time></trkpt><trkpt lat="45.5271892" lon="11.5637586"><ele>32.0</ele><time>2026-04-06T07:08:16.082Z</time></trkpt><trkpt lat="45.5271111" lon="11.5637856"><ele>31.999999999999996</ele><time>2026-04-06T07:08:18.082Z</time></trkpt><trkpt lat="45.5270282" lon="11.5638227"><ele>32.0</ele><time>2026-04-06T07:08:20.082Z</time></trkpt><trkpt lat="45.5269475" lon="11.5638582"><ele>32.0</ele><time>2026-04-06T07:08:22.082Z</time></trkpt><trkpt lat="45.5268773" lon="11.5638933"><ele>32.0</ele><time>2026-04-06T07:08:24.082Z</time></trkpt><trkpt lat="45.5267905" lon="11.5639188"><ele>31.999999999999996</ele><time>2026-04-06T07:08:26.082Z</time></trkpt><trkpt lat="45.5267153" lon="11.5639485"><ele>32.0</ele><time>2026-04-06T07:08:28.082Z</time></trkpt><trkpt lat="45.5266342" lon="11.5639826"><ele>32.0</ele><time>2026-04-06T07:08:30.082Z</time></trkpt><trkpt lat="45.526539" lon="11.5640222"><ele>32.0</ele><time>2026-04-06T07:08:33.082Z</time></trkpt><trkpt lat="45.5264403" lon="11.5640615"><ele>32.0</ele><time>2026-04-06T07:08:35.082Z</time></trkpt><trkpt lat="45.5263417" lon="11.5641001"><ele>32.0</ele><time>2026-04-06T07:08:37.082Z</time></trkpt><trkpt lat="45.52624" lon="11.5641335"><ele>32.0</ele><time>2026-04-06T07:08:39.082Z</time></trkpt><trkpt lat="45.5261714" lon="11.5641694"><ele>31.833333333333332</ele><time>2026-04-06T07:08:41.083Z</time></trkpt><trkpt lat="45.5260988" lon="11.5642039"><ele>31.666666666666664</ele><time>2026-04-06T07:08:43.082Z</time></trkpt><trkpt lat="45.5260197" lon="11.5642402"><ele>31.5</ele><time>2026-04-06T07:08:45.082Z</time></trkpt><trkpt lat="45.5259353" lon="11.5642703"><ele>31.333333333333336</ele><time>2026-04-06T07:08:47.082Z</time></trkpt><trkpt lat="45.5258648" lon="11.564301"><ele>31.166666666666668</ele><time>2026-04-06T07:08:49.082Z</time></trkpt><trkpt lat="45.5257891" lon="11.5643306"><ele>31.0</ele><time>2026-04-06T07:08:51.082Z</time></trkpt><trkpt lat="45.5257083" lon="11.5643605"><ele>31.000000000000004</ele><time>2026-04-06T07:08:53.082Z</time></trkpt><trkpt lat="45.525625" lon="11.5643952"><ele>31.0</ele><time>2026-04-06T07:08:55.082Z</time></trkpt><trkpt lat="45.525529" lon="11.5644323"><ele>31.0</ele><time>2026-04-06T07:08:57.082Z</time></trkpt><trkpt lat="45.5254523" lon="11.5644634"><ele>31.0</ele><time>2026-04-06T07:08:59.082Z</time></trkpt><trkpt lat="45.5253658" lon="11.5644931"><ele>31.000000000000004</ele><time>2026-04-06T07:09:01.082Z</time></trkpt><trkpt lat="45.5252738" lon="11.5645199"><ele>31.0</ele><time>2026-04-06T07:09:03.082Z</time></trkpt><trkpt lat="45.5251866" lon="11.5645429"><ele>30.666666666666668</ele><time>2026-04-06T07:09:05.082Z</time></trkpt><trkpt lat="45.5251014" lon="11.5645615"><ele>30.333333333333336</ele><time>2026-04-06T07:09:07.082Z</time></trkpt><trkpt lat="45.5250192" lon="11.5645928"><ele>30.0</ele><time>2026-04-06T07:09:09.082Z</time></trkpt><trkpt lat="45.5249497" lon="11.5646189"><ele>29.666666666666664</ele><time>2026-04-06T07:09:11.082Z</time></trkpt><trkpt lat="45.5248671" lon="11.5646514"><ele>29.333333333333332</ele><time>2026-04-06T07:09:13.082Z</time></trkpt><trkpt lat="45.5247826" lon="11.5646822"><ele>29.0</ele><time>2026-04-06T07:09:15.083Z</time></trkpt><trkpt lat="45.5246933" lon="11.5647057"><ele>28.999999999999996</ele><time>2026-04-06T07:09:17.082Z</time></trkpt><trkpt lat="45.5246057" lon="11.5647321"><ele>29.0</ele><time>2026-04-06T07:09:19.083Z</time></trkpt><trkpt lat="45.5245263" lon="11.5647585"><ele>29.0</ele><time>2026-04-06T07:09:21.082Z</time></trkpt><trkpt lat="45.5244444" lon="11.5647807"><ele>29.0</ele><time>2026-04-06T07:09:23.082Z</time></trkpt><trkpt lat="45.5243605" lon="11.5647956"><ele>28.999999999999996</ele><time>2026-04-06T07:09:25.082Z</time></trkpt><trkpt lat="45.5242775" lon="11.5648187"><ele>29.0</ele><time>2026-04-06T07:09:27.082Z</time></trkpt><trkpt lat="45.5241942" lon="11.5648491"><ele>28.999999999999996</ele><time>2026-04-06T07:09:29.082Z</time></trkpt><trkpt lat="45.5241196" lon="11.5648635"><ele>29.0</ele><time>2026-04-06T07:09:31.082Z</time></trkpt><trkpt lat="45.5240343" lon="11.5648914"><ele>29.0</ele><time>2026-04-06T07:09:33.082Z</time></trkpt><trkpt lat="45.5239508" lon="11.5649284"><ele>29.0</ele><time>2026-04-06T07:09:35.082Z</time></trkpt><trkpt lat="45.5238625" lon="11.5649598"><ele>28.999999999999996</ele><time>2026-04-06T07:09:37.082Z</time></trkpt><trkpt lat="45.5237743" lon="11.5649911"><ele>29.0</ele><time>2026-04-06T07:09:39.082Z</time></trkpt><trkpt lat="45.5236801" lon="11.5650333"><ele>28.833333333333332</ele><time>2026-04-06T07:09:41.082Z</time></trkpt><trkpt lat="45.5235926" lon="11.565074"><ele>28.666666666666664</ele><time>2026-04-06T07:09:43.082Z</time></trkpt><trkpt lat="45.5235189" lon="11.5651034"><ele>28.5</ele><time>2026-04-06T07:09:45.082Z</time></trkpt><trkpt lat="45.5234426" lon="11.5651271"><ele>28.333333333333336</ele><time>2026-04-06T07:09:47.082Z</time></trkpt><trkpt lat="45.5233617" lon="11.5651586"><ele>28.166666666666668</ele><time>2026-04-06T07:09:49.082Z</time></trkpt><trkpt lat="45.5232847" lon="11.565177"><ele>28.0</ele><time>2026-04-06T07:09:51.082Z</time></trkpt><trkpt lat="45.5232013" lon="11.5652041"><ele>28.0</ele><time>2026-04-06T07:09:53.082Z</time></trkpt><trkpt lat="45.5231085" lon="11.5652409"><ele>27.999999999999996</ele><time>2026-04-06T07:09:55.082Z</time></trkpt><trkpt lat="45.523019" lon="11.5652757"><ele>27.999999999999996</ele><time>2026-04-06T07:09:57.082Z</time></trkpt><trkpt lat="45.5229237" lon="11.5653018"><ele>28.0</ele><time>2026-04-06T07:09:59.082Z</time></trkpt><trkpt lat="45.5228419" lon="11.5653265"><ele>28.0</ele><time>2026-04-06T07:10:01.082Z</time></trkpt><trkpt lat="45.5227537" lon="11.5653658"><ele>28.000000000000004</ele><time>2026-04-06T07:10:03.082Z</time></trkpt><trkpt lat="45.5226583" lon="11.5653992"><ele>28.0</ele><time>2026-04-06T07:10:05.082Z</time></trkpt><trkpt lat="45.5225704" lon="11.5654316"><ele>28.0</ele><time>2026-04-06T07:10:07.082Z</time></trkpt><trkpt lat="45.5224912" lon="11.5654596"><ele>28.0</ele><time>2026-04-06T07:10:09.082Z</time></trkpt><trkpt lat="45.5224174" lon="11.5654881"><ele>28.000000000000004</ele><time>2026-04-06T07:10:11.082Z</time></trkpt><trkpt lat="45.5223384" lon="11.5655172"><ele>28.0</ele><time>2026-04-06T07:10:13.082Z</time></trkpt><trkpt lat="45.5222559" lon="11.5655466"><ele>28.000000000000004</ele><time>2026-04-06T07:10:15.082Z</time></trkpt><trkpt lat="45.5221584" lon="11.5655765"><ele>28.0</ele><time>2026-04-06T07:10:17.082Z</time></trkpt><trkpt lat="45.5220759" lon="11.5656021"><ele>28.0</ele><time>2026-04-06T07:10:19.082Z</time></trkpt><trkpt lat="45.5219991" lon="11.5656244"><ele>28.0</ele><time>2026-04-06T07:10:21.082Z</time></trkpt><trkpt lat="45.5219166" lon="11.5656496"><ele>28.000000000000004</ele><time>2026-04-06T07:10:23.082Z</time></trkpt><trkpt lat="45.521833" lon="11.5656778"><ele>28.0</ele><time>2026-04-06T07:10:25.082Z</time></trkpt><trkpt lat="45.5217477" lon="11.5657148"><ele>27.833333333333336</ele><time>2026-04-06T07:10:27.082Z</time></trkpt><trkpt lat="45.5216609" lon="11.5657381"><ele>27.666666666666668</ele><time>2026-04-06T07:10:29.082Z</time></trkpt><trkpt lat="45.5215756" lon="11.5657559"><ele>27.5</ele><time>2026-04-06T07:10:31.082Z</time></trkpt><trkpt lat="45.5214983" lon="11.5657778"><ele>27.333333333333336</ele><time>2026-04-06T07:10:33.082Z</time></trkpt><trkpt lat="45.5214175" lon="11.5658087"><ele>27.166666666666668</ele><time>2026-04-06T07:10:35.082Z</time></trkpt><trkpt lat="45.5213442" lon="11.5658354"><ele>27.0</ele><time>2026-04-06T07:10:37.082Z</time></trkpt><trkpt lat="45.5212653" lon="11.5658633"><ele>27.5</ele><time>2026-04-06T07:10:39.082Z</time></trkpt><trkpt lat="45.52118" lon="11.5658875"><ele>28.0</ele><time>2026-04-06T07:10:41.082Z</time></trkpt><trkpt lat="45.5211" lon="11.56591"><ele>28.5</ele><time>2026-04-06T07:10:43.082Z</time></trkpt><trkpt lat="45.5210204" lon="11.5659411"><ele>29.0</ele><time>2026-04-06T07:10:45.082Z</time></trkpt><trkpt lat="45.5209351" lon="11.5659626"><ele>29.5</ele><time>2026-04-06T07:10:47.082Z</time></trkpt><trkpt lat="45.5208479" lon="11.5659959"><ele>30.0</ele><time>2026-04-06T07:10:49.082Z</time></trkpt><trkpt lat="45.5207629" lon="11.5660281"><ele>30.0</ele><time>2026-04-06T07:10:51.082Z</time></trkpt><trkpt lat="45.5206789" lon="11.5660549"><ele>30.0</ele><time>2026-04-06T07:10:53.082Z</time></trkpt><trkpt lat="45.5205954" lon="11.5660859"><ele>30.0</ele><time>2026-04-06T07:10:55.082Z</time></trkpt><trkpt lat="45.5205129" lon="11.5661193"><ele>30.0</ele><time>2026-04-06T07:10:57.082Z</time></trkpt><trkpt lat="45.5204318" lon="11.5661482"><ele>30.0</ele><time>2026-04-06T07:10:59.082Z</time></trkpt><trkpt lat="45.5203625" lon="11.5661744"><ele>30.0</ele><time>2026-04-06T07:11:01.082Z</time></trkpt><trkpt lat="45.5202912" lon="11.566205"><ele>29.666666666666668</ele><time>2026-04-06T07:11:03.082Z</time></trkpt><trkpt lat="45.520207" lon="11.5662327"><ele>29.333333333333336</ele><time>2026-04-06T07:11:05.082Z</time></trkpt><trkpt lat="45.5201239" lon="11.5662584"><ele>29.0</ele><time>2026-04-06T07:11:07.082Z</time></trkpt><trkpt lat="45.5200287" lon="11.5662749"><ele>28.666666666666668</ele><time>2026-04-06T07:11:09.082Z</time></trkpt><trkpt lat="45.5199483" lon="11.5663021"><ele>28.333333333333336</ele><time>2026-04-06T07:11:11.082Z</time></trkpt><trkpt lat="45.5198666" lon="11.566323"><ele>28.0</ele><time>2026-04-06T07:11:13.082Z</time></trkpt><trkpt lat="45.5197915" lon="11.5663455"><ele>28.000000000000004</ele><time>2026-04-06T07:11:15.082Z</time></trkpt><trkpt lat="45.5197155" lon="11.566388"><ele>28.0</ele><time>2026-04-06T07:11:17.082Z</time></trkpt><trkpt lat="45.51963" lon="11.5664173"><ele>28.0</ele><time>2026-04-06T07:11:19.082Z</time></trkpt><trkpt lat="45.5195476" lon="11.5664447"><ele>28.0</ele><time>2026-04-06T07:11:21.082Z</time></trkpt><trkpt lat="45.5194632" lon="11.5664683"><ele>28.000000000000004</ele><time>2026-04-06T07:11:23.082Z</time></trkpt><trkpt lat="45.519375" lon="11.566496"><ele>28.0</ele><time>2026-04-06T07:11:25.082Z</time></trkpt><trkpt lat="45.5192796" lon="11.5665277"><ele>28.333333333333336</ele><time>2026-04-06T07:11:27.082Z</time></trkpt><trkpt lat="45.5191964" lon="11.5665547"><ele>28.666666666666668</ele><time>2026-04-06T07:11:29.082Z</time></trkpt><trkpt lat="45.5191179" lon="11.566579"><ele>29.0</ele><time>2026-04-06T07:11:31.082Z</time></trkpt><trkpt lat="45.5190338" lon="11.5666068"><ele>29.333333333333336</ele><time>2026-04-06T07:11:33.082Z</time></trkpt><trkpt lat="45.5189482" lon="11.5666364"><ele>29.666666666666668</ele><time>2026-04-06T07:11:35.082Z</time></trkpt><trkpt lat="45.5188591" lon="11.5666705"><ele>30.0</ele><time>2026-04-06T07:11:37.082Z</time></trkpt><trkpt lat="45.5187811" lon="11.5667013"><ele>30.166666666666668</ele><time>2026-04-06T07:11:39.082Z</time></trkpt><trkpt lat="45.518697" lon="11.5667344"><ele>30.333333333333336</ele><time>2026-04-06T07:11:41.082Z</time></trkpt><trkpt lat="45.5186178" lon="11.5667613"><ele>30.5</ele><time>2026-04-06T07:11:43.082Z</time></trkpt><trkpt lat="45.5185365" lon="11.5667895"><ele>30.666666666666668</ele><time>2026-04-06T07:11:45.082Z</time></trkpt><trkpt lat="45.5184606" lon="11.5668127"><ele>30.833333333333336</ele><time>2026-04-06T07:11:47.082Z</time></trkpt><trkpt lat="45.5183857" lon="11.5668418"><ele>31.0</ele><time>2026-04-06T07:11:49.082Z</time></trkpt><trkpt lat="45.5183166" lon="11.5668594"><ele>31.000000000000004</ele><time>2026-04-06T07:11:51.082Z</time></trkpt><trkpt lat="45.5182277" lon="11.566886"><ele>31.0</ele><time>2026-04-06T07:11:53.082Z</time></trkpt><trkpt lat="45.518141" lon="11.566914"><ele>31.0</ele><time>2026-04-06T07:11:55.082Z</time></trkpt><trkpt lat="45.5180537" lon="11.566938"><ele>31.0</ele><time>2026-04-06T07:11:57.082Z</time></trkpt><trkpt lat="45.5179738" lon="11.566952"><ele>31.000000000000004</ele><time>2026-04-06T07:11:59.082Z</time></trkpt><trkpt lat="45.5178953" lon="11.5669736"><ele>31.0</ele><time>2026-04-06T07:12:01.082Z</time></trkpt><trkpt lat="45.5178162" lon="11.5670029"><ele>30.666666666666668</ele><time>2026-04-06T07:12:03.082Z</time></trkpt><trkpt lat="45.517737" lon="11.5670262"><ele>30.333333333333336</ele><time>2026-04-06T07:12:05.082Z</time></trkpt><trkpt lat="45.5176602" lon="11.5670586"><ele>30.0</ele><time>2026-04-06T07:12:07.082Z</time></trkpt><trkpt lat="45.5175851" lon="11.5670837"><ele>29.666666666666664</ele><time>2026-04-06T07:12:09.082Z</time></trkpt><trkpt lat="45.5175048" lon="11.5671108"><ele>29.333333333333332</ele><time>2026-04-06T07:12:11.082Z</time></trkpt><trkpt lat="45.5174254" lon="11.5671405"><ele>29.0</ele><time>2026-04-06T07:12:13.082Z</time></trkpt><trkpt lat="45.5173448" lon="11.567172"><ele>28.999999999999996</ele><time>2026-04-06T07:12:15.082Z</time></trkpt><trkpt lat="45.5172646" lon="11.5672049"><ele>29.0</ele><time>2026-04-06T07:12:17.082Z</time></trkpt><trkpt lat="45.5171924" lon="11.5672291"><ele>29.0</ele><time>2026-04-06T07:12:19.082Z</time></trkpt><trkpt lat="45.5171147" lon="11.5672554"><ele>29.0</ele><time>2026-04-06T07:12:21.082Z</time></trkpt><trkpt lat="45.5170337" lon="11.5672824"><ele>28.999999999999996</ele><time>2026-04-06T07:12:23.082Z</time></trkpt><trkpt lat="45.5169603" lon="11.5673095"><ele>29.0</ele><time>2026-04-06T07:12:25.082Z</time></trkpt><trkpt lat="45.5168791" lon="11.567335"><ele>28.999999999999996</ele><time>2026-04-06T07:12:27.082Z</time></trkpt><trkpt lat="45.5167985" lon="11.5673632"><ele>29.0</ele><time>2026-04-06T07:12:29.082Z</time></trkpt><trkpt lat="45.516719" lon="11.5673897"><ele>29.0</ele><time>2026-04-06T07:12:31.082Z</time></trkpt><trkpt lat="45.5166475" lon="11.5674151"><ele>29.0</ele><time>2026-04-06T07:12:33.082Z</time></trkpt><trkpt lat="45.5165564" lon="11.5674482"><ele>28.999999999999996</ele><time>2026-04-06T07:12:35.083Z</time></trkpt><trkpt lat="45.5164725" lon="11.5674708"><ele>29.0</ele><time>2026-04-06T07:12:37.082Z</time></trkpt><trkpt lat="45.5163851" lon="11.5675022"><ele>28.999999999999996</ele><time>2026-04-06T07:12:39.082Z</time></trkpt><trkpt lat="45.5163012" lon="11.5675335"><ele>29.0</ele><time>2026-04-06T07:12:41.082Z</time></trkpt><trkpt lat="45.5162321" lon="11.5675524"><ele>29.0</ele><time>2026-04-06T07:12:42.082Z</time></trkpt><trkpt lat="45.516151" lon="11.5675799"><ele>29.0</ele><time>2026-04-06T07:12:43.082Z</time></trkpt><trkpt lat="45.5160877" lon="11.5675976"><ele>28.999999999999996</ele><time>2026-04-06T07:12:45.082Z</time></trkpt><trkpt lat="45.5159987" lon="11.5676336"><ele>29.0</ele><time>2026-04-06T07:12:47.082Z</time></trkpt><trkpt lat="45.5159349" lon="11.5676504"><ele>29.166666666666664</ele><time>2026-04-06T07:12:49.082Z</time></trkpt><trkpt lat="45.5158575" lon="11.5676764"><ele>29.333333333333332</ele><time>2026-04-06T07:12:51.082Z</time></trkpt><trkpt lat="45.5157774" lon="11.5676997"><ele>29.5</ele><time>2026-04-06T07:12:53.082Z</time></trkpt><trkpt lat="45.5156986" lon="11.5677261"><ele>29.666666666666664</ele><time>2026-04-06T07:12:55.082Z</time></trkpt><trkpt lat="45.515622" lon="11.5677515"><ele>29.833333333333332</ele><time>2026-04-06T07:12:57.082Z</time></trkpt><trkpt lat="45.5155438" lon="11.5677783"><ele>30.0</ele><time>2026-04-06T07:12:59.082Z</time></trkpt><trkpt lat="45.5154738" lon="11.5677984"><ele>30.0</ele><time>2026-04-06T07:13:01.082Z</time></trkpt><trkpt lat="45.5153871" lon="11.5678306"><ele>30.0</ele><time>2026-04-06T07:13:03.082Z</time></trkpt><trkpt lat="45.5153063" lon="11.5678614"><ele>30.0</ele><time>2026-04-06T07:13:05.082Z</time></trkpt><trkpt lat="45.5152318" lon="11.567884"><ele>30.0</ele><time>2026-04-06T07:13:07.082Z</time></trkpt><trkpt lat="45.515148" lon="11.5679105"><ele>30.0</ele><time>2026-04-06T07:13:09.082Z</time></trkpt><trkpt lat="45.5150688" lon="11.5679219"><ele>30.0</ele><time>2026-04-06T07:13:11.082Z</time></trkpt><trkpt lat="45.5149933" lon="11.5679369"><ele>30.0</ele><time>2026-04-06T07:13:13.082Z</time></trkpt><trkpt lat="45.5149117" lon="11.5679566"><ele>30.0</ele><time>2026-04-06T07:13:15.082Z</time></trkpt><trkpt lat="45.5148301" lon="11.5679848"><ele>30.0</ele><time>2026-04-06T07:13:17.082Z</time></trkpt><trkpt lat="45.514747" lon="11.5680073"><ele>30.0</ele><time>2026-04-06T07:13:19.082Z</time></trkpt><trkpt lat="45.5146678" lon="11.5680297"><ele>30.0</ele><time>2026-04-06T07:13:21.082Z</time></trkpt><trkpt lat="45.514588" lon="11.5680523"><ele>30.0</ele><time>2026-04-06T07:13:23.082Z</time></trkpt><trkpt lat="45.5144993" lon="11.5680793"><ele>29.833333333333332</ele><time>2026-04-06T07:13:26.082Z</time></trkpt><trkpt lat="45.5144201" lon="11.5681098"><ele>29.666666666666664</ele><time>2026-04-06T07:13:28.082Z</time></trkpt><trkpt lat="45.5143432" lon="11.5681371"><ele>29.5</ele><time>2026-04-06T07:13:30.082Z</time></trkpt><trkpt lat="45.5142751" lon="11.5681582"><ele>29.333333333333332</ele><time>2026-04-06T07:13:32.082Z</time></trkpt><trkpt lat="45.5141953" lon="11.5681914"><ele>29.166666666666664</ele><time>2026-04-06T07:13:34.082Z</time></trkpt><trkpt lat="45.5141048" lon="11.568228"><ele>29.0</ele><time>2026-04-06T07:13:36.082Z</time></trkpt><trkpt lat="45.5139568" lon="11.5682986"><ele>29.0</ele><time>2026-04-06T07:13:39.082Z</time></trkpt><trkpt lat="45.5138637" lon="11.5683479"><ele>29.0</ele><time>2026-04-06T07:13:41.082Z</time></trkpt><trkpt lat="45.5137575" lon="11.5683719"><ele>29.0</ele><time>2026-04-06T07:13:43.082Z</time></trkpt><trkpt lat="45.5136776" lon="11.5683998"><ele>29.0</ele><time>2026-04-06T07:13:45.082Z</time></trkpt><trkpt lat="45.5135788" lon="11.5684252"><ele>29.0</ele><time>2026-04-06T07:13:47.082Z</time></trkpt><trkpt lat="45.5135075" lon="11.5684318"><ele>28.833333333333332</ele><time>2026-04-06T07:13:49.082Z</time></trkpt><trkpt lat="45.513431" lon="11.568455"><ele>28.666666666666664</ele><time>2026-04-06T07:13:51.082Z</time></trkpt><trkpt lat="45.5133589" lon="11.5684867"><ele>28.5</ele><time>2026-04-06T07:13:53.082Z</time></trkpt><trkpt lat="45.5132793" lon="11.5685184"><ele>28.333333333333336</ele><time>2026-04-06T07:13:55.082Z</time></trkpt><trkpt lat="45.5131953" lon="11.5685506"><ele>28.166666666666668</ele><time>2026-04-06T07:13:57.082Z</time></trkpt><trkpt lat="45.513115" lon="11.5685797"><ele>28.0</ele><time>2026-04-06T07:13:59.082Z</time></trkpt><trkpt lat="45.5130322" lon="11.568623"><ele>28.000000000000004</ele><time>2026-04-06T07:14:01.082Z</time></trkpt><trkpt lat="45.5129403" lon="11.5686585"><ele>28.0</ele><time>2026-04-06T07:14:03.082Z</time></trkpt><trkpt lat="45.5128567" lon="11.5686761"><ele>28.0</ele><time>2026-04-06T07:14:05.082Z</time></trkpt><trkpt lat="45.5127703" lon="11.5687009"><ele>28.0</ele><time>2026-04-06T07:14:07.082Z</time></trkpt><trkpt lat="45.5126886" lon="11.5687285"><ele>28.000000000000004</ele><time>2026-04-06T07:14:09.082Z</time></trkpt><trkpt lat="45.5126054" lon="11.5687527"><ele>28.0</ele><time>2026-04-06T07:14:11.082Z</time></trkpt><trkpt lat="45.512521" lon="11.5687816"><ele>27.833333333333336</ele><time>2026-04-06T07:14:13.082Z</time></trkpt><trkpt lat="45.5124372" lon="11.5688045"><ele>27.666666666666668</ele><time>2026-04-06T07:14:15.082Z</time></trkpt><trkpt lat="45.512354" lon="11.5688322"><ele>27.5</ele><time>2026-04-06T07:14:17.082Z</time></trkpt><trkpt lat="45.5122763" lon="11.5688537"><ele>27.333333333333336</ele><time>2026-04-06T07:14:19.082Z</time></trkpt><trkpt lat="45.5121897" lon="11.5688707"><ele>27.166666666666668</ele><time>2026-04-06T07:14:21.082Z</time></trkpt><trkpt lat="45.5120959" lon="11.5688969"><ele>27.0</ele><time>2026-04-06T07:14:23.082Z</time></trkpt><trkpt lat="45.5120097" lon="11.5689261"><ele>27.0</ele><time>2026-04-06T07:14:25.082Z</time></trkpt><trkpt lat="45.5119246" lon="11.5689633"><ele>27.0</ele><time>2026-04-06T07:14:27.082Z</time></trkpt><trkpt lat="45.5118414" lon="11.5689904"><ele>27.0</ele><time>2026-04-06T07:14:29.082Z</time></trkpt><trkpt lat="45.511763" lon="11.5690167"><ele>27.0</ele><time>2026-04-06T07:14:31.082Z</time></trkpt><trkpt lat="45.5116841" lon="11.5690399"><ele>27.0</ele><time>2026-04-06T07:14:33.082Z</time></trkpt><trkpt lat="45.5115848" lon="11.5690655"><ele>27.0</ele><time>2026-04-06T07:14:35.082Z</time></trkpt><trkpt lat="45.5114981" lon="11.5691037"><ele>27.0</ele><time>2026-04-06T07:14:37.082Z</time></trkpt><trkpt lat="45.5114093" lon="11.56912"><ele>27.000000000000004</ele><time>2026-04-06T07:14:39.082Z</time></trkpt><trkpt lat="45.5113195" lon="11.5691549"><ele>27.000000000000004</ele><time>2026-04-06T07:14:41.082Z</time></trkpt><trkpt lat="45.511223" lon="11.5691933"><ele>27.0</ele><time>2026-04-06T07:14:43.082Z</time></trkpt><trkpt lat="45.5111303" lon="11.5692242"><ele>27.0</ele><time>2026-04-06T07:14:45.082Z</time></trkpt><trkpt lat="45.5110365" lon="11.5692531"><ele>27.200000000000003</ele><time>2026-04-06T07:14:47.082Z</time></trkpt><trkpt lat="45.5109507" lon="11.5692767"><ele>27.400000000000002</ele><time>2026-04-06T07:14:49.082Z</time></trkpt><trkpt lat="45.5108492" lon="11.5692967"><ele>27.599999999999998</ele><time>2026-04-06T07:14:51.082Z</time></trkpt><trkpt lat="45.5107497" lon="11.5693261"><ele>27.799999999999997</ele><time>2026-04-06T07:14:53.082Z</time></trkpt><trkpt lat="45.510654" lon="11.56936"><ele>28.0</ele><time>2026-04-06T07:14:55.082Z</time></trkpt><trkpt lat="45.5105588" lon="11.5693937"><ele>28.000000000000004</ele><time>2026-04-06T07:14:57.082Z</time></trkpt><trkpt lat="45.510469" lon="11.5694221"><ele>28.0</ele><time>2026-04-06T07:14:59.082Z</time></trkpt><trkpt lat="45.5103885" lon="11.5694521"><ele>28.0</ele><time>2026-04-06T07:15:01.082Z</time></trkpt><trkpt lat="45.5103076" lon="11.5694883"><ele>28.0</ele><time>2026-04-06T07:15:03.082Z</time></trkpt><trkpt lat="45.5102066" lon="11.5695084"><ele>28.000000000000004</ele><time>2026-04-06T07:15:06.082Z</time></trkpt><trkpt lat="45.5101411" lon="11.569529"><ele>28.0</ele><time>2026-04-06T07:15:08.082Z</time></trkpt><trkpt lat="45.510004" lon="11.5695686"><ele>28.0</ele><time>2026-04-06T07:15:11.082Z</time></trkpt><trkpt lat="45.5098468" lon="11.5696276"><ele>28.0</ele><time>2026-04-06T07:15:14.082Z</time></trkpt><trkpt lat="45.5097519" lon="11.5696465"><ele>28.0</ele><time>2026-04-06T07:15:16.082Z</time></trkpt><trkpt lat="45.5096548" lon="11.5696793"><ele>28.0</ele><time>2026-04-06T07:15:18.082Z</time></trkpt><trkpt lat="45.5095666" lon="11.569724"><ele>28.0</ele><time>2026-04-06T07:15:20.082Z</time></trkpt><trkpt lat="45.5094557" lon="11.5697981"><ele>27.999999999999996</ele><time>2026-04-06T07:15:23.082Z</time></trkpt><trkpt lat="45.5093932" lon="11.5698834"><ele>27.999999999999996</ele><time>2026-04-06T07:15:25.082Z</time></trkpt><trkpt lat="45.5093392" lon="11.56998"><ele>28.0</ele><time>2026-04-06T07:15:27.082Z</time></trkpt><trkpt lat="45.5092822" lon="11.5700745"><ele>28.0</ele><time>2026-04-06T07:15:29.082Z</time></trkpt><trkpt lat="45.5092069" lon="11.5701526"><ele>28.000000000000004</ele><time>2026-04-06T07:15:31.082Z</time></trkpt><trkpt lat="45.5091212" lon="11.5702"><ele>28.0</ele><time>2026-04-06T07:15:33.082Z</time></trkpt><trkpt lat="45.5090355" lon="11.5702088"><ele>28.0</ele><time>2026-04-06T07:15:35.082Z</time></trkpt><trkpt lat="45.5089472" lon="11.5702031"><ele>28.0</ele><time>2026-04-06T07:15:37.082Z</time></trkpt><trkpt lat="45.5088596" lon="11.5701926"><ele>28.000000000000004</ele><time>2026-04-06T07:15:39.082Z</time></trkpt><trkpt lat="45.5087781" lon="11.5701888"><ele>28.0</ele><time>2026-04-06T07:15:41.082Z</time></trkpt><trkpt lat="45.5086944" lon="11.5701887"><ele>28.166666666666668</ele><time>2026-04-06T07:15:43.082Z</time></trkpt><trkpt lat="45.5086116" lon="11.5701858"><ele>28.333333333333336</ele><time>2026-04-06T07:15:45.082Z</time></trkpt><trkpt lat="45.5085282" lon="11.5701891"><ele>28.5</ele><time>2026-04-06T07:15:47.082Z</time></trkpt><trkpt lat="45.5084447" lon="11.5701935"><ele>28.666666666666664</ele><time>2026-04-06T07:15:49.082Z</time></trkpt><trkpt lat="45.5083636" lon="11.5702047"><ele>28.833333333333332</ele><time>2026-04-06T07:15:51.082Z</time></trkpt><trkpt lat="45.5082819" lon="11.5702243"><ele>29.0</ele><time>2026-04-06T07:15:53.082Z</time></trkpt><trkpt lat="45.508196" lon="11.570244"><ele>29.0</ele><time>2026-04-06T07:15:55.082Z</time></trkpt><trkpt lat="45.5080702" lon="11.5702415"><ele>29.0</ele><time>2026-04-06T07:15:58.082Z</time></trkpt><trkpt lat="45.507982" lon="11.5702143"><ele>29.0</ele><time>2026-04-06T07:16:00.082Z</time></trkpt><trkpt lat="45.5079074" lon="11.5701627"><ele>29.0</ele><time>2026-04-06T07:16:02.082Z</time></trkpt><trkpt lat="45.5078109" lon="11.5701369"><ele>29.0</ele><time>2026-04-06T07:16:04.082Z</time></trkpt><trkpt lat="45.5077098" lon="11.570121"><ele>28.799999999999997</ele><time>2026-04-06T07:16:06.082Z</time></trkpt><trkpt lat="45.5076092" lon="11.5701344"><ele>28.599999999999998</ele><time>2026-04-06T07:16:08.082Z</time></trkpt><trkpt lat="45.5075335" lon="11.5701354"><ele>28.4</ele><time>2026-04-06T07:16:10.082Z</time></trkpt><trkpt lat="45.5074453" lon="11.5701341"><ele>28.2</ele><time>2026-04-06T07:16:12.082Z</time></trkpt><trkpt lat="45.5073322" lon="11.5701282"><ele>28.0</ele><time>2026-04-06T07:16:15.082Z</time></trkpt><trkpt lat="45.5072437" lon="11.5701242"><ele>28.000000000000004</ele><time>2026-04-06T07:16:17.082Z</time></trkpt><trkpt lat="45.5071752" lon="11.57013"><ele>28.0</ele><time>2026-04-06T07:16:19.082Z</time></trkpt><trkpt lat="45.5070904" lon="11.5701539"><ele>28.0</ele><time>2026-04-06T07:16:21.082Z</time></trkpt><trkpt lat="45.507012" lon="11.5701296"><ele>28.0</ele><time>2026-04-06T07:16:23.082Z</time></trkpt><trkpt lat="45.5069119" lon="11.570134"><ele>28.000000000000004</ele><time>2026-04-06T07:16:25.082Z</time></trkpt><trkpt lat="45.5068333" lon="11.5701249"><ele>28.0</ele><time>2026-04-06T07:16:27.082Z</time></trkpt><trkpt lat="45.5067422" lon="11.5701244"><ele>28.166666666666668</ele><time>2026-04-06T07:16:29.082Z</time></trkpt><trkpt lat="45.5066569" lon="11.5701244"><ele>28.333333333333336</ele><time>2026-04-06T07:16:31.082Z</time></trkpt><trkpt lat="45.5065735" lon="11.5701423"><ele>28.5</ele><time>2026-04-06T07:16:33.082Z</time></trkpt><trkpt lat="45.5064871" lon="11.5701577"><ele>28.666666666666664</ele><time>2026-04-06T07:16:35.082Z</time></trkpt><trkpt lat="45.5063988" lon="11.5701873"><ele>28.833333333333332</ele><time>2026-04-06T07:16:37.082Z</time></trkpt><trkpt lat="45.506303" lon="11.5702206"><ele>29.0</ele><time>2026-04-06T07:16:39.082Z</time></trkpt><trkpt lat="45.5062078" lon="11.5702551"><ele>29.2</ele><time>2026-04-06T07:16:41.082Z</time></trkpt><trkpt lat="45.5061262" lon="11.5702909"><ele>29.4</ele><time>2026-04-06T07:16:43.082Z</time></trkpt><trkpt lat="45.5060345" lon="11.5703096"><ele>29.6</ele><time>2026-04-06T07:16:45.082Z</time></trkpt><trkpt lat="45.5059427" lon="11.5703529"><ele>29.8</ele><time>2026-04-06T07:16:47.082Z</time></trkpt><trkpt lat="45.5058575" lon="11.570403"><ele>30.0</ele><time>2026-04-06T07:16:49.082Z</time></trkpt><trkpt lat="45.5057705" lon="11.5704673"><ele>29.666666666666668</ele><time>2026-04-06T07:16:51.082Z</time></trkpt><trkpt lat="45.5056892" lon="11.5705318"><ele>29.333333333333336</ele><time>2026-04-06T07:16:53.082Z</time></trkpt><trkpt lat="45.5056133" lon="11.5705971"><ele>29.0</ele><time>2026-04-06T07:16:55.082Z</time></trkpt><trkpt lat="45.505545" lon="11.5706746"><ele>28.666666666666668</ele><time>2026-04-06T07:16:57.082Z</time></trkpt><trkpt lat="45.505477" lon="11.570743"><ele>28.333333333333336</ele><time>2026-04-06T07:16:59.082Z</time></trkpt><trkpt lat="45.5054103" lon="11.5708116"><ele>28.0</ele><time>2026-04-06T07:17:01.082Z</time></trkpt><trkpt lat="45.5053475" lon="11.5708887"><ele>28.000000000000004</ele><time>2026-04-06T07:17:03.082Z</time></trkpt><trkpt lat="45.5052926" lon="11.5709624"><ele>28.0</ele><time>2026-04-06T07:17:05.082Z</time></trkpt><trkpt lat="45.5052369" lon="11.5710326"><ele>28.0</ele><time>2026-04-06T07:17:07.082Z</time></trkpt><trkpt lat="45.5051786" lon="11.5711133"><ele>28.0</ele><time>2026-04-06T07:17:09.082Z</time></trkpt><trkpt lat="45.5051236" lon="11.571205"><ele>28.000000000000004</ele><time>2026-04-06T07:17:11.082Z</time></trkpt><trkpt lat="45.5050729" lon="11.5712866"><ele>28.0</ele><time>2026-04-06T07:17:13.082Z</time></trkpt><trkpt lat="45.5050114" lon="11.5713883"><ele>27.833333333333336</ele><time>2026-04-06T07:17:15.082Z</time></trkpt><trkpt lat="45.5049453" lon="11.5714896"><ele>27.666666666666668</ele><time>2026-04-06T07:17:17.082Z</time></trkpt><trkpt lat="45.5048841" lon="11.5716017"><ele>27.5</ele><time>2026-04-06T07:17:19.082Z</time></trkpt><trkpt lat="45.5048185" lon="11.5716994"><ele>27.333333333333336</ele><time>2026-04-06T07:17:21.082Z</time></trkpt><trkpt lat="45.5047561" lon="11.5717922"><ele>27.166666666666668</ele><time>2026-04-06T07:17:23.082Z</time></trkpt><trkpt lat="45.5047003" lon="11.5718404"><ele>27.0</ele><time>2026-04-06T07:17:24.082Z</time></trkpt><trkpt lat="45.5046375" lon="11.5719254"><ele>27.0</ele><time>2026-04-06T07:17:26.082Z</time></trkpt><trkpt lat="45.504569" lon="11.572045"><ele>27.000000000000004</ele><time>2026-04-06T07:17:28.082Z</time></trkpt><trkpt lat="45.5045026" lon="11.5721327"><ele>27.000000000000004</ele><time>2026-04-06T07:17:30.082Z</time></trkpt><trkpt lat="45.5044432" lon="11.5722262"><ele>27.0</ele><time>2026-04-06T07:17:32.082Z</time></trkpt><trkpt lat="45.504389" lon="11.572324"><ele>27.0</ele><time>2026-04-06T07:17:34.082Z</time></trkpt><trkpt lat="45.5043175" lon="11.5724196"><ele>27.0</ele><time>2026-04-06T07:17:36.082Z</time></trkpt><trkpt lat="45.504264" lon="11.5724865"><ele>27.0</ele><time>2026-04-06T07:17:38.082Z</time></trkpt><trkpt lat="45.5042152" lon="11.572591"><ele>27.0</ele><time>2026-04-06T07:17:40.082Z</time></trkpt><trkpt lat="45.5041565" lon="11.5726613"><ele>27.0</ele><time>2026-04-06T07:17:42.082Z</time></trkpt><trkpt lat="45.5040914" lon="11.5727531"><ele>27.0</ele><time>2026-04-06T07:17:44.082Z</time></trkpt><trkpt lat="45.5040098" lon="11.5728375"><ele>27.0</ele><time>2026-04-06T07:17:46.082Z</time></trkpt><trkpt lat="45.5039285" lon="11.5729106"><ele>27.0</ele><time>2026-04-06T07:17:48.082Z</time></trkpt><trkpt lat="45.5038513" lon="11.5729842"><ele>27.0</ele><time>2026-04-06T07:17:50.082Z</time></trkpt><trkpt lat="45.5037974" lon="11.5730408"><ele>27.0</ele><time>2026-04-06T07:17:52.082Z</time></trkpt><trkpt lat="45.5037101" lon="11.5730946"><ele>27.0</ele><time>2026-04-06T07:17:54.082Z</time></trkpt><trkpt lat="45.5036351" lon="11.573148"><ele>27.0</ele><time>2026-04-06T07:17:56.082Z</time></trkpt><trkpt lat="45.5035686" lon="11.5732122"><ele>27.0</ele><time>2026-04-06T07:17:58.082Z</time></trkpt><trkpt lat="45.5035005" lon="11.5732446"><ele>27.0</ele><time>2026-04-06T07:18:00.082Z</time></trkpt><trkpt lat="45.5034197" lon="11.5732954"><ele>27.0</ele><time>2026-04-06T07:18:02.082Z</time></trkpt><trkpt lat="45.5033468" lon="11.5733571"><ele>27.0</ele><time>2026-04-06T07:18:04.082Z</time></trkpt><trkpt lat="45.5032663" lon="11.5733995"><ele>27.0</ele><time>2026-04-06T07:18:06.082Z</time></trkpt><trkpt lat="45.5031862" lon="11.5734592"><ele>27.0</ele><time>2026-04-06T07:18:08.082Z</time></trkpt><trkpt lat="45.5031176" lon="11.5735086"><ele>27.0</ele><time>2026-04-06T07:18:10.082Z</time></trkpt><trkpt lat="45.5030496" lon="11.5735765"><ele>27.0</ele><time>2026-04-06T07:18:12.082Z</time></trkpt><trkpt lat="45.502971" lon="11.5736199"><ele>27.0</ele><time>2026-04-06T07:18:14.082Z</time></trkpt><trkpt lat="45.5029044" lon="11.5736592"><ele>27.0</ele><time>2026-04-06T07:18:16.082Z</time></trkpt><trkpt lat="45.5028425" lon="11.573705"><ele>27.0</ele><time>2026-04-06T07:18:18.082Z</time></trkpt><trkpt lat="45.5027868" lon="11.5737601"><ele>27.0</ele><time>2026-04-06T07:18:20.082Z</time></trkpt><trkpt lat="45.5027352" lon="11.5738121"><ele>27.0</ele><time>2026-04-06T07:18:22.083Z</time></trkpt><trkpt lat="45.5026809" lon="11.5738796"><ele>27.0</ele><time>2026-04-06T07:18:24.082Z</time></trkpt><trkpt lat="45.5026242" lon="11.573974"><ele>26.8</ele><time>2026-04-06T07:18:26.082Z</time></trkpt><trkpt lat="45.5025684" lon="11.5740771"><ele>26.6</ele><time>2026-04-06T07:18:28.082Z</time></trkpt><trkpt lat="45.5025149" lon="11.5741891"><ele>26.400000000000002</ele><time>2026-04-06T07:18:30.082Z</time></trkpt><trkpt lat="45.5024573" lon="11.574309"><ele>26.200000000000003</ele><time>2026-04-06T07:18:32.082Z</time></trkpt><trkpt lat="45.5024036" lon="11.5744099"><ele>26.0</ele><time>2026-04-06T07:18:34.082Z</time></trkpt><trkpt lat="45.5023577" lon="11.574519"><ele>26.0</ele><time>2026-04-06T07:18:36.082Z</time></trkpt><trkpt lat="45.502313" lon="11.5746368"><ele>26.0</ele><time>2026-04-06T07:18:38.082Z</time></trkpt><trkpt lat="45.5022688" lon="11.5747498"><ele>26.0</ele><time>2026-04-06T07:18:40.082Z</time></trkpt><trkpt lat="45.5022166" lon="11.5748595"><ele>26.0</ele><time>2026-04-06T07:18:42.082Z</time></trkpt><trkpt lat="45.5021468" lon="11.5749795"><ele>26.0</ele><time>2026-04-06T07:18:44.082Z</time></trkpt><trkpt lat="45.5020934" lon="11.5750837"><ele>26.166666666666664</ele><time>2026-04-06T07:18:46.082Z</time></trkpt><trkpt lat="45.5020318" lon="11.5751952"><ele>26.333333333333332</ele><time>2026-04-06T07:18:48.082Z</time></trkpt><trkpt lat="45.5019795" lon="11.5752912"><ele>26.5</ele><time>2026-04-06T07:18:50.082Z</time></trkpt><trkpt lat="45.5019398" lon="11.575396"><ele>26.666666666666664</ele><time>2026-04-06T07:18:52.082Z</time></trkpt><trkpt lat="45.5019007" lon="11.5755006"><ele>26.833333333333332</ele><time>2026-04-06T07:18:54.082Z</time></trkpt><trkpt lat="45.5018423" lon="11.5756092"><ele>27.0</ele><time>2026-04-06T07:18:56.082Z</time></trkpt><trkpt lat="45.5017952" lon="11.5757105"><ele>27.0</ele><time>2026-04-06T07:18:58.082Z</time></trkpt><trkpt lat="45.5017645" lon="11.5757988"><ele>27.0</ele><time>2026-04-06T07:19:00.082Z</time></trkpt><trkpt lat="45.5017091" lon="11.575921"><ele>27.0</ele><time>2026-04-06T07:19:02.082Z</time></trkpt><trkpt lat="45.5016491" lon="11.5760289"><ele>27.0</ele><time>2026-04-06T07:19:04.082Z</time></trkpt><trkpt lat="45.5015927" lon="11.5761278"><ele>27.0</ele><time>2026-04-06T07:19:06.082Z</time></trkpt><trkpt lat="45.5015365" lon="11.5762321"><ele>27.0</ele><time>2026-04-06T07:19:08.082Z</time></trkpt><trkpt lat="45.5014888" lon="11.5763168"><ele>26.8</ele><time>2026-04-06T07:19:10.082Z</time></trkpt><trkpt lat="45.501433" lon="11.5764335"><ele>26.6</ele><time>2026-04-06T07:19:12.082Z</time></trkpt><trkpt lat="45.5013608" lon="11.5765537"><ele>26.400000000000002</ele><time>2026-04-06T07:19:14.082Z</time></trkpt><trkpt lat="45.5012971" lon="11.5766651"><ele>26.200000000000003</ele><time>2026-04-06T07:19:16.082Z</time></trkpt><trkpt lat="45.5012383" lon="11.5767596"><ele>26.0</ele><time>2026-04-06T07:19:18.082Z</time></trkpt><trkpt lat="45.5011876" lon="11.5768615"><ele>25.833333333333332</ele><time>2026-04-06T07:19:20.082Z</time></trkpt><trkpt lat="45.5011304" lon="11.5769686"><ele>25.666666666666664</ele><time>2026-04-06T07:19:22.082Z</time></trkpt><trkpt lat="45.5010747" lon="11.5770609"><ele>25.5</ele><time>2026-04-06T07:19:24.082Z</time></trkpt><trkpt lat="45.5010346" lon="11.5771582"><ele>25.333333333333336</ele><time>2026-04-06T07:19:26.082Z</time></trkpt><trkpt lat="45.5009646" lon="11.5772521"><ele>25.166666666666668</ele><time>2026-04-06T07:19:28.083Z</time></trkpt><trkpt lat="45.5009134" lon="11.5773593"><ele>25.0</ele><time>2026-04-06T07:19:30.082Z</time></trkpt><trkpt lat="45.5008455" lon="11.5774569"><ele>24.8</ele><time>2026-04-06T07:19:32.082Z</time></trkpt><trkpt lat="45.5007915" lon="11.5775684"><ele>24.6</ele><time>2026-04-06T07:19:34.082Z</time></trkpt><trkpt lat="45.5007327" lon="11.5776763"><ele>24.4</ele><time>2026-04-06T07:19:36.082Z</time></trkpt><trkpt lat="45.5006802" lon="11.5777802"><ele>24.2</ele><time>2026-04-06T07:19:38.082Z</time></trkpt><trkpt lat="45.5006311" lon="11.5778766"><ele>24.0</ele><time>2026-04-06T07:19:40.082Z</time></trkpt><trkpt lat="45.5005754" lon="11.5779924"><ele>24.333333333333332</ele><time>2026-04-06T07:19:42.082Z</time></trkpt><trkpt lat="45.5005252" lon="11.5780964"><ele>24.666666666666664</ele><time>2026-04-06T07:19:44.082Z</time></trkpt><trkpt lat="45.5004873" lon="11.5782063"><ele>25.0</ele><time>2026-04-06T07:19:46.082Z</time></trkpt><trkpt lat="45.5004463" lon="11.5783169"><ele>25.333333333333332</ele><time>2026-04-06T07:19:48.082Z</time></trkpt><trkpt lat="45.5004161" lon="11.5784099"><ele>25.666666666666664</ele><time>2026-04-06T07:19:50.082Z</time></trkpt><trkpt lat="45.5003651" lon="11.5785261"><ele>26.0</ele><time>2026-04-06T07:19:52.082Z</time></trkpt><trkpt lat="45.5003294" lon="11.5786315"><ele>25.999999999999996</ele><time>2026-04-06T07:19:54.082Z</time></trkpt><trkpt lat="45.5002931" lon="11.5787375"><ele>26.0</ele><time>2026-04-06T07:19:56.082Z</time></trkpt><trkpt lat="45.5002508" lon="11.5788438"><ele>26.0</ele><time>2026-04-06T07:19:58.082Z</time></trkpt><trkpt lat="45.5002052" lon="11.5789529"><ele>26.0</ele><time>2026-04-06T07:20:00.082Z</time></trkpt><trkpt lat="45.5001646" lon="11.5790588"><ele>25.999999999999996</ele><time>2026-04-06T07:20:02.082Z</time></trkpt><trkpt lat="45.5001224" lon="11.5791685"><ele>26.0</ele><time>2026-04-06T07:20:04.082Z</time></trkpt><trkpt lat="45.5000789" lon="11.5792797"><ele>25.999999999999996</ele><time>2026-04-06T07:20:06.082Z</time></trkpt><trkpt lat="45.5000355" lon="11.5793938"><ele>26.0</ele><time>2026-04-06T07:20:08.082Z</time></trkpt><trkpt lat="45.4999966" lon="11.5795034"><ele>26.0</ele><time>2026-04-06T07:20:10.082Z</time></trkpt><trkpt lat="45.499953" lon="11.5796108"><ele>26.0</ele><time>2026-04-06T07:20:12.082Z</time></trkpt><trkpt lat="45.4999116" lon="11.5797173"><ele>25.999999999999996</ele><time>2026-04-06T07:20:14.082Z</time></trkpt><trkpt lat="45.4998724" lon="11.5798218"><ele>26.0</ele><time>2026-04-06T07:20:16.082Z</time></trkpt><trkpt lat="45.4998327" lon="11.5799326"><ele>26.166666666666664</ele><time>2026-04-06T07:20:18.082Z</time></trkpt><trkpt lat="45.4997951" lon="11.5800447"><ele>26.333333333333332</ele><time>2026-04-06T07:20:20.082Z</time></trkpt><trkpt lat="45.4997537" lon="11.5801596"><ele>26.5</ele><time>2026-04-06T07:20:22.082Z</time></trkpt><trkpt lat="45.4997121" lon="11.5802566"><ele>26.666666666666664</ele><time>2026-04-06T07:20:24.082Z</time></trkpt><trkpt lat="45.4996693" lon="11.5803615"><ele>26.833333333333332</ele><time>2026-04-06T07:20:26.082Z</time></trkpt><trkpt lat="45.4996296" lon="11.5804642"><ele>27.0</ele><time>2026-04-06T07:20:28.082Z</time></trkpt><trkpt lat="45.4995926" lon="11.5805686"><ele>27.333333333333332</ele><time>2026-04-06T07:20:30.082Z</time></trkpt><trkpt lat="45.4995676" lon="11.580669"><ele>27.666666666666664</ele><time>2026-04-06T07:20:32.082Z</time></trkpt><trkpt lat="45.4995099" lon="11.5807796"><ele>28.0</ele><time>2026-04-06T07:20:34.082Z</time></trkpt><trkpt lat="45.4994677" lon="11.5808936"><ele>28.333333333333332</ele><time>2026-04-06T07:20:36.082Z</time></trkpt><trkpt lat="45.4994329" lon="11.5809886"><ele>28.666666666666664</ele><time>2026-04-06T07:20:38.082Z</time></trkpt><trkpt lat="45.4993863" lon="11.5810871"><ele>29.0</ele><time>2026-04-06T07:20:40.082Z</time></trkpt><trkpt lat="45.4993339" lon="11.5811873"><ele>29.166666666666664</ele><time>2026-04-06T07:20:42.082Z</time></trkpt><trkpt lat="45.4992863" lon="11.5812919"><ele>29.333333333333332</ele><time>2026-04-06T07:20:44.082Z</time></trkpt><trkpt lat="45.4992456" lon="11.5813998"><ele>29.5</ele><time>2026-04-06T07:20:46.082Z</time></trkpt><trkpt lat="45.4991998" lon="11.5815109"><ele>29.666666666666664</ele><time>2026-04-06T07:20:48.082Z</time></trkpt><trkpt lat="45.4991567" lon="11.5816175"><ele>29.833333333333332</ele><time>2026-04-06T07:20:50.082Z</time></trkpt><trkpt lat="45.4991218" lon="11.5817182"><ele>30.0</ele><time>2026-04-06T07:20:52.082Z</time></trkpt><trkpt lat="45.4990862" lon="11.5818271"><ele>30.0</ele><time>2026-04-06T07:20:54.082Z</time></trkpt><trkpt lat="45.4990484" lon="11.5819324"><ele>30.0</ele><time>2026-04-06T07:20:56.082Z</time></trkpt><trkpt lat="45.4990248" lon="11.5820265"><ele>30.0</ele><time>2026-04-06T07:20:58.082Z</time></trkpt><trkpt lat="45.498998" lon="11.582122"><ele>30.0</ele><time>2026-04-06T07:21:00.082Z</time></trkpt><trkpt lat="45.4989578" lon="11.5822249"><ele>30.0</ele><time>2026-04-06T07:21:02.082Z</time></trkpt><trkpt lat="45.4989182" lon="11.5823276"><ele>30.0</ele><time>2026-04-06T07:21:04.082Z</time></trkpt><trkpt lat="45.4988784" lon="11.582425"><ele>30.0</ele><time>2026-04-06T07:21:06.082Z</time></trkpt><trkpt lat="45.4988372" lon="11.5825266"><ele>30.0</ele><time>2026-04-06T07:21:08.082Z</time></trkpt><trkpt lat="45.4987972" lon="11.5826233"><ele>30.0</ele><time>2026-04-06T07:21:10.113Z</time></trkpt><trkpt lat="45.4987545" lon="11.5827227"><ele>30.0</ele><time>2026-04-06T07:21:12.082Z</time></trkpt><trkpt lat="45.498717" lon="11.5828218"><ele>30.0</ele><time>2026-04-06T07:21:14.082Z</time></trkpt><trkpt lat="45.4986631" lon="11.582929"><ele>30.0</ele><time>2026-04-06T07:21:16.082Z</time></trkpt><trkpt lat="45.4986189" lon="11.5830514"><ele>30.0</ele><time>2026-04-06T07:21:18.082Z</time></trkpt><trkpt lat="45.498567" lon="11.5831609"><ele>30.0</ele><time>2026-04-06T07:21:20.082Z</time></trkpt><trkpt lat="45.4985283" lon="11.5832592"><ele>30.0</ele><time>2026-04-06T07:21:22.082Z</time></trkpt><trkpt lat="45.4984925" lon="11.5833727"><ele>30.0</ele><time>2026-04-06T07:21:24.082Z</time></trkpt><trkpt lat="45.4984513" lon="11.5834852"><ele>30.0</ele><time>2026-04-06T07:21:26.082Z</time></trkpt><trkpt lat="45.498409" lon="11.5836005"><ele>30.0</ele><time>2026-04-06T07:21:28.082Z</time></trkpt><trkpt lat="45.4983786" lon="11.5837052"><ele>30.0</ele><time>2026-04-06T07:21:30.083Z</time></trkpt><trkpt lat="45.4983419" lon="11.5838042"><ele>30.0</ele><time>2026-04-06T07:21:32.082Z</time></trkpt><trkpt lat="45.4983025" lon="11.5839171"><ele>30.0</ele><time>2026-04-06T07:21:34.082Z</time></trkpt><trkpt lat="45.498256" lon="11.5840262"><ele>30.0</ele><time>2026-04-06T07:21:36.082Z</time></trkpt><trkpt lat="45.4982109" lon="11.5841278"><ele>30.0</ele><time>2026-04-06T07:21:38.082Z</time></trkpt><trkpt lat="45.4981714" lon="11.5842301"><ele>30.0</ele><time>2026-04-06T07:21:40.082Z</time></trkpt><trkpt lat="45.4981244" lon="11.5843354"><ele>30.0</ele><time>2026-04-06T07:21:42.082Z</time></trkpt><trkpt lat="45.4980865" lon="11.5844397"><ele>30.0</ele><time>2026-04-06T07:21:44.082Z</time></trkpt><trkpt lat="45.4980529" lon="11.5845514"><ele>30.0</ele><time>2026-04-06T07:21:46.082Z</time></trkpt><trkpt lat="45.4980102" lon="11.5846917"><ele>30.0</ele><time>2026-04-06T07:21:48.082Z</time></trkpt><trkpt lat="45.4979804" lon="11.5848089"><ele>30.0</ele><time>2026-04-06T07:21:50.082Z</time></trkpt><trkpt lat="45.4979426" lon="11.5849278"><ele>30.0</ele><time>2026-04-06T07:21:52.082Z</time></trkpt><trkpt lat="45.4979062" lon="11.5850405"><ele>30.0</ele><time>2026-04-06T07:21:54.082Z</time></trkpt><trkpt lat="45.4978849" lon="11.5851591"><ele>30.0</ele><time>2026-04-06T07:21:56.082Z</time></trkpt><trkpt lat="45.4978663" lon="11.5852602"><ele>30.0</ele><time>2026-04-06T07:21:58.082Z</time></trkpt><trkpt lat="45.497837" lon="11.5853518"><ele>30.0</ele><time>2026-04-06T07:22:00.082Z</time></trkpt><trkpt lat="45.4977844" lon="11.5854654"><ele>30.0</ele><time>2026-04-06T07:22:03.082Z</time></trkpt><trkpt lat="45.4977706" lon="11.5855696"><ele>30.0</ele><time>2026-04-06T07:22:05.082Z</time></trkpt><trkpt lat="45.4977642" lon="11.5856851"><ele>30.0</ele><time>2026-04-06T07:22:07.082Z</time></trkpt><trkpt lat="45.4977414" lon="11.5858078"><ele>30.0</ele><time>2026-04-06T07:22:09.082Z</time></trkpt><trkpt lat="45.4977138" lon="11.5859199"><ele>30.0</ele><time>2026-04-06T07:22:11.082Z</time></trkpt><trkpt lat="45.4976795" lon="11.5860342"><ele>30.0</ele><time>2026-04-06T07:22:13.082Z</time></trkpt><trkpt lat="45.4976557" lon="11.5861209"><ele>30.0</ele><time>2026-04-06T07:22:15.082Z</time></trkpt><trkpt lat="45.4976358" lon="11.5862144"><ele>30.0</ele><time>2026-04-06T07:22:18.082Z</time></trkpt><trkpt lat="45.4976388" lon="11.5863238"><ele>30.0</ele><time>2026-04-06T07:22:22.082Z</time></trkpt><trkpt lat="45.4976382" lon="11.5864364"><ele>30.0</ele><time>2026-04-06T07:22:25.082Z</time></trkpt><trkpt lat="45.497625" lon="11.5865416"><ele>30.0</ele><time>2026-04-06T07:22:29.082Z</time></trkpt><trkpt lat="45.49759" lon="11.5866646"><ele>30.0</ele><time>2026-04-06T07:22:32.082Z</time></trkpt><trkpt lat="45.4975531" lon="11.5867693"><ele>30.0</ele><time>2026-04-06T07:22:34.082Z</time></trkpt><trkpt lat="45.4975249" lon="11.5868632"><ele>30.0</ele><time>2026-04-06T07:22:36.082Z</time></trkpt><trkpt lat="45.497491" lon="11.5869754"><ele>30.0</ele><time>2026-04-06T07:22:39.082Z</time></trkpt><trkpt lat="45.4974637" lon="11.5870621"><ele>30.0</ele><time>2026-04-06T07:22:42.082Z</time></trkpt><trkpt lat="45.4974166" lon="11.5871386"><ele>30.0</ele><time>2026-04-06T07:22:46.082Z</time></trkpt><trkpt lat="45.4973834" lon="11.5872239"><ele>30.0</ele><time>2026-04-06T07:22:48.082Z</time></trkpt><trkpt lat="45.4973635" lon="11.5873257"><ele>30.0</ele><time>2026-04-06T07:22:50.082Z</time></trkpt><trkpt lat="45.4973283" lon="11.5874397"><ele>29.6</ele><time>2026-04-06T07:22:52.082Z</time></trkpt><trkpt lat="45.4973079" lon="11.5875674"><ele>29.2</ele><time>2026-04-06T07:22:54.082Z</time></trkpt><trkpt lat="45.4972825" lon="11.5876777"><ele>28.799999999999997</ele><time>2026-04-06T07:22:56.082Z</time></trkpt><trkpt lat="45.4972395" lon="11.587811"><ele>28.4</ele><time>2026-04-06T07:22:58.082Z</time></trkpt><trkpt lat="45.4971852" lon="11.5879414"><ele>28.0</ele><time>2026-04-06T07:23:00.082Z</time></trkpt><trkpt lat="45.4971402" lon="11.5880637"><ele>27.666666666666668</ele><time>2026-04-06T07:23:02.082Z</time></trkpt><trkpt lat="45.4971004" lon="11.5881785"><ele>27.333333333333336</ele><time>2026-04-06T07:23:04.082Z</time></trkpt><trkpt lat="45.4970528" lon="11.5882537"><ele>27.0</ele><time>2026-04-06T07:23:06.082Z</time></trkpt><trkpt lat="45.497002" lon="11.5883271"><ele>26.666666666666664</ele><time>2026-04-06T07:23:08.082Z</time></trkpt><trkpt lat="45.4969521" lon="11.5884289"><ele>26.333333333333332</ele><time>2026-04-06T07:23:10.082Z</time></trkpt><trkpt lat="45.4969142" lon="11.5885246"><ele>26.0</ele><time>2026-04-06T07:23:12.082Z</time></trkpt><trkpt lat="45.496872" lon="11.5886158"><ele>26.833333333333332</ele><time>2026-04-06T07:23:14.082Z</time></trkpt><trkpt lat="45.4968365" lon="11.588694"><ele>27.666666666666664</ele><time>2026-04-06T07:23:16.082Z</time></trkpt><trkpt lat="45.4967786" lon="11.5888377"><ele>28.5</ele><time>2026-04-06T07:23:19.082Z</time></trkpt><trkpt lat="45.4967202" lon="11.5889564"><ele>29.333333333333336</ele><time>2026-04-06T07:23:21.082Z</time></trkpt><trkpt lat="45.4966926" lon="11.5890381"><ele>30.166666666666668</ele><time>2026-04-06T07:23:23.082Z</time></trkpt><trkpt lat="45.4966475" lon="11.5891403"><ele>31.0</ele><time>2026-04-06T07:23:25.082Z</time></trkpt><trkpt lat="45.4965974" lon="11.5892299"><ele>31.000000000000004</ele><time>2026-04-06T07:23:27.082Z</time></trkpt><trkpt lat="45.4965527" lon="11.5893271"><ele>31.0</ele><time>2026-04-06T07:23:29.082Z</time></trkpt><trkpt lat="45.4964994" lon="11.5894076"><ele>31.0</ele><time>2026-04-06T07:23:31.083Z</time></trkpt><trkpt lat="45.4964237" lon="11.5895235"><ele>31.0</ele><time>2026-04-06T07:23:34.082Z</time></trkpt><trkpt lat="45.4963622" lon="11.5896018"><ele>31.000000000000004</ele><time>2026-04-06T07:23:36.082Z</time></trkpt><trkpt lat="45.4962998" lon="11.5896666"><ele>31.0</ele><time>2026-04-06T07:23:38.082Z</time></trkpt><trkpt lat="45.4962247" lon="11.5897408"><ele>31.0</ele><time>2026-04-06T07:23:40.082Z</time></trkpt><trkpt lat="45.4961511" lon="11.5898136"><ele>31.0</ele><time>2026-04-06T07:23:42.082Z</time></trkpt><trkpt lat="45.4960715" lon="11.5898816"><ele>31.0</ele><time>2026-04-06T07:23:44.082Z</time></trkpt><trkpt lat="45.4959934" lon="11.5899517"><ele>31.0</ele><time>2026-04-06T07:23:46.082Z</time></trkpt><trkpt lat="45.4959077" lon="11.5900169"><ele>31.0</ele><time>2026-04-06T07:23:48.082Z</time></trkpt><trkpt lat="45.4958205" lon="11.5900803"><ele>31.0</ele><time>2026-04-06T07:23:50.082Z</time></trkpt><trkpt lat="45.4957346" lon="11.5901314"><ele>31.0</ele><time>2026-04-06T07:23:52.082Z</time></trkpt><trkpt lat="45.4956359" lon="11.5901624"><ele>31.0</ele><time>2026-04-06T07:23:54.082Z</time></trkpt><trkpt lat="45.4955443" lon="11.5901839"><ele>31.0</ele><time>2026-04-06T07:23:56.082Z</time></trkpt><trkpt lat="45.4954592" lon="11.5902039"><ele>31.0</ele><time>2026-04-06T07:23:58.082Z</time></trkpt><trkpt lat="45.4953762" lon="11.5902232"><ele>31.200000000000003</ele><time>2026-04-06T07:24:00.082Z</time></trkpt><trkpt lat="45.4952922" lon="11.5902439"><ele>31.400000000000002</ele><time>2026-04-06T07:24:02.082Z</time></trkpt><trkpt lat="45.4952118" lon="11.5902544"><ele>31.6</ele><time>2026-04-06T07:24:04.082Z</time></trkpt><trkpt lat="45.4951008" lon="11.5902828"><ele>31.8</ele><time>2026-04-06T07:24:07.082Z</time></trkpt><trkpt lat="45.4949953" lon="11.590297"><ele>32.0</ele><time>2026-04-06T07:24:09.082Z</time></trkpt><trkpt lat="45.4949079" lon="11.5903225"><ele>31.200000000000003</ele><time>2026-04-06T07:24:11.082Z</time></trkpt><trkpt lat="45.4948023" lon="11.5903494"><ele>30.400000000000002</ele><time>2026-04-06T07:24:13.082Z</time></trkpt><trkpt lat="45.4947128" lon="11.5903753"><ele>29.599999999999998</ele><time>2026-04-06T07:24:15.082Z</time></trkpt><trkpt lat="45.4946223" lon="11.5904183"><ele>28.799999999999997</ele><time>2026-04-06T07:24:17.082Z</time></trkpt><trkpt lat="45.4945349" lon="11.5904586"><ele>28.0</ele><time>2026-04-06T07:24:19.082Z</time></trkpt><trkpt lat="45.4944351" lon="11.5904942"><ele>27.833333333333336</ele><time>2026-04-06T07:24:21.082Z</time></trkpt><trkpt lat="45.4943618" lon="11.5905512"><ele>27.666666666666668</ele><time>2026-04-06T07:24:23.082Z</time></trkpt><trkpt lat="45.4942855" lon="11.5906122"><ele>27.5</ele><time>2026-04-06T07:24:25.082Z</time></trkpt><trkpt lat="45.4942071" lon="11.5906734"><ele>27.333333333333336</ele><time>2026-04-06T07:24:27.082Z</time></trkpt><trkpt lat="45.494136" lon="11.5907345"><ele>27.166666666666668</ele><time>2026-04-06T07:24:29.082Z</time></trkpt><trkpt lat="45.4940534" lon="11.5907942"><ele>27.0</ele><time>2026-04-06T07:24:31.082Z</time></trkpt><trkpt lat="45.4939781" lon="11.5908598"><ele>27.0</ele><time>2026-04-06T07:24:33.082Z</time></trkpt><trkpt lat="45.4939052" lon="11.5909435"><ele>27.0</ele><time>2026-04-06T07:24:35.082Z</time></trkpt><trkpt lat="45.4938269" lon="11.5910236"><ele>27.0</ele><time>2026-04-06T07:24:37.082Z</time></trkpt><trkpt lat="45.4937629" lon="11.5910951"><ele>27.0</ele><time>2026-04-06T07:24:39.082Z</time></trkpt><trkpt lat="45.4937024" lon="11.5911849"><ele>27.0</ele><time>2026-04-06T07:24:41.082Z</time></trkpt><trkpt lat="45.4936457" lon="11.5912626"><ele>27.0</ele><time>2026-04-06T07:24:43.082Z</time></trkpt><trkpt lat="45.4935955" lon="11.5913456"><ele>27.0</ele><time>2026-04-06T07:24:45.082Z</time></trkpt><trkpt lat="45.49355" lon="11.5914333"><ele>27.000000000000004</ele><time>2026-04-06T07:24:47.082Z</time></trkpt><trkpt lat="45.4934827" lon="11.5915445"><ele>27.000000000000004</ele><time>2026-04-06T07:24:49.083Z</time></trkpt><trkpt lat="45.4934257" lon="11.5916456"><ele>27.0</ele><time>2026-04-06T07:24:51.082Z</time></trkpt><trkpt lat="45.4933567" lon="11.5917549"><ele>27.0</ele><time>2026-04-06T07:24:53.082Z</time></trkpt><trkpt lat="45.4932786" lon="11.5918578"><ele>27.0</ele><time>2026-04-06T07:24:55.082Z</time></trkpt><trkpt lat="45.4932036" lon="11.5919588"><ele>27.000000000000004</ele><time>2026-04-06T07:24:57.082Z</time></trkpt><trkpt lat="45.4931413" lon="11.592063"><ele>27.000000000000004</ele><time>2026-04-06T07:24:59.082Z</time></trkpt><trkpt lat="45.4930833" lon="11.5921507"><ele>27.0</ele><time>2026-04-06T07:25:01.082Z</time></trkpt><trkpt lat="45.4930262" lon="11.5922531"><ele>27.0</ele><time>2026-04-06T07:25:03.082Z</time></trkpt><trkpt lat="45.4929311" lon="11.5924098"><ele>27.0</ele><time>2026-04-06T07:25:06.082Z</time></trkpt><trkpt lat="45.4928635" lon="11.5925192"><ele>27.000000000000004</ele><time>2026-04-06T07:25:08.082Z</time></trkpt><trkpt lat="45.4928001" lon="11.5926352"><ele>27.000000000000004</ele><time>2026-04-06T07:25:10.082Z</time></trkpt><trkpt lat="45.4927106" lon="11.5927404"><ele>27.0</ele><time>2026-04-06T07:25:12.082Z</time></trkpt><trkpt lat="45.4926413" lon="11.5928584"><ele>27.0</ele><time>2026-04-06T07:25:14.082Z</time></trkpt><trkpt lat="45.4925962" lon="11.5929482"><ele>27.0</ele><time>2026-04-06T07:25:16.082Z</time></trkpt><trkpt lat="45.4925419" lon="11.5930466"><ele>27.000000000000004</ele><time>2026-04-06T07:25:18.082Z</time></trkpt><trkpt lat="45.4924728" lon="11.5931456"><ele>27.000000000000004</ele><time>2026-04-06T07:25:20.082Z</time></trkpt><trkpt lat="45.4924137" lon="11.5932493"><ele>27.0</ele><time>2026-04-06T07:25:22.082Z</time></trkpt><trkpt lat="45.4923325" lon="11.5933565"><ele>27.0</ele><time>2026-04-06T07:25:24.082Z</time></trkpt><trkpt lat="45.492273" lon="11.5934608"><ele>27.0</ele><time>2026-04-06T07:25:26.082Z</time></trkpt><trkpt lat="45.492202" lon="11.5935618"><ele>27.000000000000004</ele><time>2026-04-06T07:25:28.082Z</time></trkpt><trkpt lat="45.4921355" lon="11.5936773"><ele>27.000000000000004</ele><time>2026-04-06T07:25:30.082Z</time></trkpt><trkpt lat="45.4920598" lon="11.5937869"><ele>27.0</ele><time>2026-04-06T07:25:32.082Z</time></trkpt><trkpt lat="45.4920057" lon="11.5938884"><ele>27.0</ele><time>2026-04-06T07:25:34.082Z</time></trkpt><trkpt lat="45.4919385" lon="11.5939926"><ele>27.6</ele><time>2026-04-06T07:25:36.082Z</time></trkpt><trkpt lat="45.4918654" lon="11.5940912"><ele>28.200000000000003</ele><time>2026-04-06T07:25:38.082Z</time></trkpt><trkpt lat="45.4918045" lon="11.5941897"><ele>28.8</ele><time>2026-04-06T07:25:40.082Z</time></trkpt><trkpt lat="45.4917357" lon="11.5942779"><ele>29.4</ele><time>2026-04-06T07:25:42.082Z</time></trkpt><trkpt lat="45.4916709" lon="11.5943825"><ele>30.0</ele><time>2026-04-06T07:25:44.082Z</time></trkpt><trkpt lat="45.4916106" lon="11.5944884"><ele>29.5</ele><time>2026-04-06T07:25:46.082Z</time></trkpt><trkpt lat="45.4915383" lon="11.5945865"><ele>29.0</ele><time>2026-04-06T07:25:48.082Z</time></trkpt><trkpt lat="45.4914762" lon="11.5946852"><ele>28.5</ele><time>2026-04-06T07:25:50.082Z</time></trkpt><trkpt lat="45.4914366" lon="11.5947916"><ele>28.0</ele><time>2026-04-06T07:25:52.082Z</time></trkpt><trkpt lat="45.4913755" lon="11.5948717"><ele>27.5</ele><time>2026-04-06T07:25:54.082Z</time></trkpt><trkpt lat="45.4913214" lon="11.5949679"><ele>27.0</ele><time>2026-04-06T07:25:56.082Z</time></trkpt><trkpt lat="45.4912611" lon="11.5950526"><ele>27.6</ele><time>2026-04-06T07:25:58.082Z</time></trkpt><trkpt lat="45.4911892" lon="11.5951512"><ele>28.200000000000003</ele><time>2026-04-06T07:26:00.082Z</time></trkpt><trkpt lat="45.4911264" lon="11.5952569"><ele>28.8</ele><time>2026-04-06T07:26:02.082Z</time></trkpt><trkpt lat="45.4910695" lon="11.5953085"><ele>29.4</ele><time>2026-04-06T07:26:03.082Z</time></trkpt><trkpt lat="45.4910025" lon="11.5954152"><ele>30.0</ele><time>2026-04-06T07:26:05.082Z</time></trkpt><trkpt lat="45.49092" lon="11.5955257"><ele>30.0</ele><time>2026-04-06T07:26:07.082Z</time></trkpt><trkpt lat="45.4908047" lon="11.5957031"><ele>30.0</ele><time>2026-04-06T07:26:10.082Z</time></trkpt><trkpt lat="45.4907095" lon="11.5958764"><ele>30.0</ele><time>2026-04-06T07:26:13.082Z</time></trkpt><trkpt lat="45.4906451" lon="11.5959964"><ele>30.0</ele><time>2026-04-06T07:26:15.082Z</time></trkpt><trkpt lat="45.4905825" lon="11.5961172"><ele>30.0</ele><time>2026-04-06T07:26:17.082Z</time></trkpt><trkpt lat="45.4905194" lon="11.596228"><ele>30.0</ele><time>2026-04-06T07:26:19.082Z</time></trkpt><trkpt lat="45.4904427" lon="11.5963423"><ele>30.0</ele><time>2026-04-06T07:26:21.082Z</time></trkpt><trkpt lat="45.4903773" lon="11.5964471"><ele>30.0</ele><time>2026-04-06T07:26:23.082Z</time></trkpt><trkpt lat="45.4903037" lon="11.5965622"><ele>30.0</ele><time>2026-04-06T07:26:25.082Z</time></trkpt><trkpt lat="45.4902373" lon="11.5966775"><ele>30.0</ele><time>2026-04-06T07:26:27.082Z</time></trkpt><trkpt lat="45.4901534" lon="11.5967883"><ele>30.0</ele><time>2026-04-06T07:26:29.082Z</time></trkpt><trkpt lat="45.490076" lon="11.5968997"><ele>30.0</ele><time>2026-04-06T07:26:31.082Z</time></trkpt><trkpt lat="45.489956" lon="11.5970788"><ele>30.0</ele><time>2026-04-06T07:26:34.082Z</time></trkpt><trkpt lat="45.4898991" lon="11.5971921"><ele>29.6</ele><time>2026-04-06T07:26:36.082Z</time></trkpt><trkpt lat="45.4898233" lon="11.5973006"><ele>29.2</ele><time>2026-04-06T07:26:38.082Z</time></trkpt><trkpt lat="45.4897463" lon="11.5973999"><ele>28.799999999999997</ele><time>2026-04-06T07:26:40.082Z</time></trkpt><trkpt lat="45.4896975" lon="11.5974888"><ele>28.4</ele><time>2026-04-06T07:26:42.082Z</time></trkpt><trkpt lat="45.4896403" lon="11.5975928"><ele>28.0</ele><time>2026-04-06T07:26:44.082Z</time></trkpt><trkpt lat="45.4895782" lon="11.5976823"><ele>28.0</ele><time>2026-04-06T07:26:46.082Z</time></trkpt><trkpt lat="45.4895128" lon="11.5977899"><ele>27.999999999999996</ele><time>2026-04-06T07:26:48.082Z</time></trkpt><trkpt lat="45.4894524" lon="11.5979019"><ele>27.999999999999996</ele><time>2026-04-06T07:26:50.082Z</time></trkpt><trkpt lat="45.48938" lon="11.5979925"><ele>28.0</ele><time>2026-04-06T07:26:52.082Z</time></trkpt><trkpt lat="45.4893282" lon="11.5980921"><ele>28.0</ele><time>2026-04-06T07:26:54.082Z</time></trkpt><trkpt lat="45.4892643" lon="11.5981957"><ele>27.599999999999998</ele><time>2026-04-06T07:26:56.082Z</time></trkpt><trkpt lat="45.4891966" lon="11.5982965"><ele>27.199999999999996</ele><time>2026-04-06T07:26:58.082Z</time></trkpt><trkpt lat="45.4891153" lon="11.5984514"><ele>26.8</ele><time>2026-04-06T07:27:01.082Z</time></trkpt><trkpt lat="45.4890416" lon="11.5985386"><ele>26.4</ele><time>2026-04-06T07:27:03.082Z</time></trkpt><trkpt lat="45.4889805" lon="11.5986444"><ele>26.0</ele><time>2026-04-06T07:27:05.082Z</time></trkpt><trkpt lat="45.4889176" lon="11.5987465"><ele>25.6</ele><time>2026-04-06T07:27:07.082Z</time></trkpt><trkpt lat="45.4888397" lon="11.5988468"><ele>25.200000000000003</ele><time>2026-04-06T07:27:09.082Z</time></trkpt><trkpt lat="45.48877" lon="11.5989531"><ele>24.799999999999997</ele><time>2026-04-06T07:27:11.082Z</time></trkpt><trkpt lat="45.4887117" lon="11.5990579"><ele>24.4</ele><time>2026-04-06T07:27:13.082Z</time></trkpt><trkpt lat="45.4886176" lon="11.5992189"><ele>24.0</ele><time>2026-04-06T07:27:16.082Z</time></trkpt><trkpt lat="45.4885517" lon="11.5993228"><ele>24.4</ele><time>2026-04-06T07:27:18.082Z</time></trkpt><trkpt lat="45.4884816" lon="11.599424"><ele>24.799999999999997</ele><time>2026-04-06T07:27:20.082Z</time></trkpt><trkpt lat="45.4884128" lon="11.5995233"><ele>25.200000000000003</ele><time>2026-04-06T07:27:22.082Z</time></trkpt><trkpt lat="45.4883261" lon="11.5996664"><ele>25.6</ele><time>2026-04-06T07:27:25.082Z</time></trkpt><trkpt lat="45.4882602" lon="11.5997574"><ele>26.0</ele><time>2026-04-06T07:27:27.082Z</time></trkpt><trkpt lat="45.4881633" lon="11.5999017"><ele>26.0</ele><time>2026-04-06T07:27:30.082Z</time></trkpt><trkpt lat="45.4880994" lon="11.6000013"><ele>26.0</ele><time>2026-04-06T07:27:32.082Z</time></trkpt><trkpt lat="45.4880425" lon="11.6000845"><ele>26.0</ele><time>2026-04-06T07:27:34.082Z</time></trkpt><trkpt lat="45.4879761" lon="11.6001767"><ele>26.0</ele><time>2026-04-06T07:27:36.082Z</time></trkpt><trkpt lat="45.4878753" lon="11.600309"><ele>26.0</ele><time>2026-04-06T07:27:39.082Z</time></trkpt><trkpt lat="45.4878058" lon="11.600379"><ele>27.0</ele><time>2026-04-06T07:27:41.082Z</time></trkpt><trkpt lat="45.4876697" lon="11.600461"><ele>28.0</ele><time>2026-04-06T07:27:44.082Z</time></trkpt><trkpt lat="45.4875869" lon="11.6004963"><ele>29.0</ele><time>2026-04-06T07:27:46.082Z</time></trkpt><trkpt lat="45.487513" lon="11.6005299"><ele>30.0</ele><time>2026-04-06T07:27:48.082Z</time></trkpt><trkpt lat="45.4874253" lon="11.6005762"><ele>31.0</ele><time>2026-04-06T07:27:50.082Z</time></trkpt><trkpt lat="45.4873254" lon="11.6006237"><ele>31.0</ele><time>2026-04-06T07:27:52.082Z</time></trkpt><trkpt lat="45.4872324" lon="11.600643"><ele>31.0</ele><time>2026-04-06T07:27:54.082Z</time></trkpt><trkpt lat="45.4870857" lon="11.6006729"><ele>31.0</ele><time>2026-04-06T07:27:57.082Z</time></trkpt><trkpt lat="45.4869938" lon="11.6006996"><ele>31.0</ele><time>2026-04-06T07:27:59.082Z</time></trkpt><trkpt lat="45.486849" lon="11.6007528"><ele>30.6</ele><time>2026-04-06T07:28:02.082Z</time></trkpt><trkpt lat="45.4867558" lon="11.6007749"><ele>30.200000000000003</ele><time>2026-04-06T07:28:04.082Z</time></trkpt><trkpt lat="45.486646" lon="11.60079"><ele>29.799999999999997</ele><time>2026-04-06T07:28:06.082Z</time></trkpt><trkpt lat="45.4865732" lon="11.6007985"><ele>29.4</ele><time>2026-04-06T07:28:08.082Z</time></trkpt><trkpt lat="45.4864788" lon="11.6008086"><ele>29.0</ele><time>2026-04-06T07:28:10.082Z</time></trkpt><trkpt lat="45.4863919" lon="11.6008163"><ele>28.999999999999996</ele><time>2026-04-06T07:28:12.082Z</time></trkpt><trkpt lat="45.4863044" lon="11.6008352"><ele>29.0</ele><time>2026-04-06T07:28:14.082Z</time></trkpt><trkpt lat="45.486211" lon="11.6008534"><ele>29.0</ele><time>2026-04-06T07:28:16.082Z</time></trkpt><trkpt lat="45.4861157" lon="11.6008801"><ele>29.0</ele><time>2026-04-06T07:28:18.082Z</time></trkpt><trkpt lat="45.4860199" lon="11.6009017"><ele>28.999999999999996</ele><time>2026-04-06T07:28:20.082Z</time></trkpt><trkpt lat="45.4859518" lon="11.6009033"><ele>29.0</ele><time>2026-04-06T07:28:22.082Z</time></trkpt><trkpt lat="45.4858641" lon="11.6009248"><ele>28.799999999999997</ele><time>2026-04-06T07:28:24.088Z</time></trkpt><trkpt lat="45.4857821" lon="11.6009576"><ele>28.599999999999998</ele><time>2026-04-06T07:28:26.085Z</time></trkpt><trkpt lat="45.4856928" lon="11.6009809"><ele>28.4</ele><time>2026-04-06T07:28:28.086Z</time></trkpt><trkpt lat="45.4855922" lon="11.6010014"><ele>28.2</ele><time>2026-04-06T07:28:30.084Z</time></trkpt><trkpt lat="45.4854992" lon="11.6010184"><ele>28.0</ele><time>2026-04-06T07:28:32.085Z</time></trkpt><trkpt lat="45.4854031" lon="11.6010319"><ele>27.599999999999998</ele><time>2026-04-06T07:28:34.122Z</time></trkpt><trkpt lat="45.4853154" lon="11.6010503"><ele>27.199999999999996</ele><time>2026-04-06T07:28:36.085Z</time></trkpt><trkpt lat="45.4852212" lon="11.6010681"><ele>26.8</ele><time>2026-04-06T07:28:38.084Z</time></trkpt><trkpt lat="45.4851258" lon="11.6010875"><ele>26.4</ele><time>2026-04-06T07:28:40.084Z</time></trkpt><trkpt lat="45.4850321" lon="11.6011047"><ele>26.0</ele><time>2026-04-06T07:28:42.084Z</time></trkpt><trkpt lat="45.484937" lon="11.6011295"><ele>25.999999999999996</ele><time>2026-04-06T07:28:44.084Z</time></trkpt><trkpt lat="45.4848588" lon="11.6011448"><ele>26.0</ele><time>2026-04-06T07:28:46.084Z</time></trkpt><trkpt lat="45.484766" lon="11.6011604"><ele>26.0</ele><time>2026-04-06T07:28:48.084Z</time></trkpt><trkpt lat="45.484689" lon="11.6011753"><ele>26.0</ele><time>2026-04-06T07:28:50.084Z</time></trkpt><trkpt lat="45.4846095" lon="11.6011982"><ele>25.999999999999996</ele><time>2026-04-06T07:28:52.085Z</time></trkpt><trkpt lat="45.4845326" lon="11.6012212"><ele>26.0</ele><time>2026-04-06T07:28:54.084Z</time></trkpt><trkpt lat="45.4844532" lon="11.6012413"><ele>25.666666666666664</ele><time>2026-04-06T07:28:55.985Z</time></trkpt><trkpt lat="45.484367" lon="11.6012835"><ele>25.333333333333332</ele><time>2026-04-06T07:28:58.046Z</time></trkpt><trkpt lat="45.4842888" lon="11.6013205"><ele>25.0</ele><time>2026-04-06T07:29:00.125Z</time></trkpt><trkpt lat="45.4842043" lon="11.6013789"><ele>24.666666666666664</ele><time>2026-04-06T07:29:03.084Z</time></trkpt><trkpt lat="45.4841459" lon="11.6014246"><ele>24.333333333333332</ele><time>2026-04-06T07:29:05.084Z</time></trkpt><trkpt lat="45.4840814" lon="11.6014636"><ele>24.0</ele><time>2026-04-06T07:29:08.084Z</time></trkpt><trkpt lat="45.4840071" lon="11.60141"><ele>24.0</ele><time>2026-04-06T07:29:12.104Z</time></trkpt><trkpt lat="45.4839637" lon="11.6013366"><ele>24.0</ele><time>2026-04-06T07:29:15.092Z</time></trkpt><trkpt lat="45.4838857" lon="11.6013351"><ele>24.0</ele><time>2026-04-06T07:29:19.084Z</time></trkpt><trkpt lat="45.4837945" lon="11.6013758"><ele>24.0</ele><time>2026-04-06T07:29:22.084Z</time></trkpt><trkpt lat="45.4837164" lon="11.6014105"><ele>24.0</ele><time>2026-04-06T07:29:24.084Z</time></trkpt><trkpt lat="45.4836402" lon="11.6014559"><ele>24.0</ele><time>2026-04-06T07:29:26.086Z</time></trkpt><trkpt lat="45.4835632" lon="11.6015012"><ele>24.6</ele><time>2026-04-06T07:29:28.117Z</time></trkpt><trkpt lat="45.4834553" lon="11.6015455"><ele>25.2</ele><time>2026-04-06T07:29:31.084Z</time></trkpt><trkpt lat="45.4833757" lon="11.6015796"><ele>25.800000000000004</ele><time>2026-04-06T07:29:33.084Z</time></trkpt><trkpt lat="45.4832945" lon="11.6016251"><ele>26.400000000000002</ele><time>2026-04-06T07:29:35.088Z</time></trkpt><trkpt lat="45.4832076" lon="11.6016751"><ele>27.0</ele><time>2026-04-06T07:29:37.084Z</time></trkpt><trkpt lat="45.4831214" lon="11.6017398"><ele>27.0</ele><time>2026-04-06T07:29:39.084Z</time></trkpt><trkpt lat="45.4830477" lon="11.6018069"><ele>27.0</ele><time>2026-04-06T07:29:41.084Z</time></trkpt><trkpt lat="45.4829848" lon="11.6018652"><ele>27.0</ele><time>2026-04-06T07:29:43.085Z</time></trkpt><trkpt lat="45.482906" lon="11.6019322"><ele>27.0</ele><time>2026-04-06T07:29:45.084Z</time></trkpt><trkpt lat="45.4828132" lon="11.6020095"><ele>27.0</ele><time>2026-04-06T07:29:47.084Z</time></trkpt><trkpt lat="45.4827476" lon="11.6020788"><ele>27.0</ele><time>2026-04-06T07:29:49.084Z</time></trkpt><trkpt lat="45.4826721" lon="11.6021634"><ele>26.666666666666668</ele><time>2026-04-06T07:29:51.084Z</time></trkpt><trkpt lat="45.4826002" lon="11.6022516"><ele>26.333333333333336</ele><time>2026-04-06T07:29:53.084Z</time></trkpt><trkpt lat="45.4825405" lon="11.6023272"><ele>26.0</ele><time>2026-04-06T07:29:55.084Z</time></trkpt><trkpt lat="45.4824864" lon="11.6024042"><ele>25.666666666666668</ele><time>2026-04-06T07:29:57.084Z</time></trkpt><trkpt lat="45.4824258" lon="11.6024889"><ele>25.333333333333336</ele><time>2026-04-06T07:29:59.084Z</time></trkpt><trkpt lat="45.4823556" lon="11.602578"><ele>25.0</ele><time>2026-04-06T07:30:01.084Z</time></trkpt><trkpt lat="45.4823084" lon="11.6026758"><ele>25.000000000000004</ele><time>2026-04-06T07:30:03.084Z</time></trkpt><trkpt lat="45.4822546" lon="11.6027678"><ele>25.0</ele><time>2026-04-06T07:30:05.084Z</time></trkpt><trkpt lat="45.4821995" lon="11.602861"><ele>25.0</ele><time>2026-04-06T07:30:07.084Z</time></trkpt><trkpt lat="45.4821476" lon="11.6029441"><ele>25.0</ele><time>2026-04-06T07:30:09.084Z</time></trkpt><trkpt lat="45.4820855" lon="11.6030345"><ele>25.000000000000004</ele><time>2026-04-06T07:30:11.084Z</time></trkpt><trkpt lat="45.4820236" lon="11.6031226"><ele>25.0</ele><time>2026-04-06T07:30:13.084Z</time></trkpt><trkpt lat="45.4819663" lon="11.6032056"><ele>25.000000000000004</ele><time>2026-04-06T07:30:15.084Z</time></trkpt><trkpt lat="45.4819071" lon="11.6032896"><ele>25.0</ele><time>2026-04-06T07:30:17.084Z</time></trkpt><trkpt lat="45.4818474" lon="11.6033653"><ele>25.0</ele><time>2026-04-06T07:30:19.084Z</time></trkpt><trkpt lat="45.4817867" lon="11.6034491"><ele>25.0</ele><time>2026-04-06T07:30:21.084Z</time></trkpt><trkpt lat="45.4817248" lon="11.6035232"><ele>25.000000000000004</ele><time>2026-04-06T07:30:23.084Z</time></trkpt><trkpt lat="45.4816587" lon="11.6035934"><ele>25.0</ele><time>2026-04-06T07:30:25.085Z</time></trkpt><trkpt lat="45.4815952" lon="11.6036667"><ele>25.000000000000004</ele><time>2026-04-06T07:30:27.084Z</time></trkpt><trkpt lat="45.48151" lon="11.6037815"><ele>25.0</ele><time>2026-04-06T07:30:30.084Z</time></trkpt><trkpt lat="45.4814547" lon="11.6038625"><ele>25.0</ele><time>2026-04-06T07:30:32.084Z</time></trkpt><trkpt lat="45.4814024" lon="11.6039498"><ele>25.0</ele><time>2026-04-06T07:30:34.084Z</time></trkpt><trkpt lat="45.4813501" lon="11.6040336"><ele>25.000000000000004</ele><time>2026-04-06T07:30:36.084Z</time></trkpt><trkpt lat="45.4812883" lon="11.6041134"><ele>25.0</ele><time>2026-04-06T07:30:38.084Z</time></trkpt><trkpt lat="45.4812222" lon="11.604196"><ele>25.333333333333336</ele><time>2026-04-06T07:30:40.084Z</time></trkpt><trkpt lat="45.4811623" lon="11.6042798"><ele>25.666666666666668</ele><time>2026-04-06T07:30:42.084Z</time></trkpt><trkpt lat="45.4811056" lon="11.6043548"><ele>26.0</ele><time>2026-04-06T07:30:44.084Z</time></trkpt><trkpt lat="45.4810485" lon="11.6044045"><ele>26.333333333333336</ele><time>2026-04-06T07:30:46.084Z</time></trkpt><trkpt lat="45.4809835" lon="11.6044745"><ele>26.666666666666668</ele><time>2026-04-06T07:30:48.094Z</time></trkpt><trkpt lat="45.4809382" lon="11.6045493"><ele>27.0</ele><time>2026-04-06T07:30:50.084Z</time></trkpt><trkpt lat="45.4808791" lon="11.6046248"><ele>27.0</ele><time>2026-04-06T07:30:52.082Z</time></trkpt><trkpt lat="45.4808249" lon="11.6047066"><ele>27.0</ele><time>2026-04-06T07:30:54.109Z</time></trkpt><trkpt lat="45.4807657" lon="11.6047811"><ele>27.0</ele><time>2026-04-06T07:30:56.084Z</time></trkpt><trkpt lat="45.4807052" lon="11.6048556"><ele>27.0</ele><time>2026-04-06T07:30:58.084Z</time></trkpt><trkpt lat="45.4806217" lon="11.6049436"><ele>27.0</ele><time>2026-04-06T07:31:01.084Z</time></trkpt><trkpt lat="45.4805664" lon="11.6050123"><ele>27.0</ele><time>2026-04-06T07:31:03.112Z</time></trkpt><trkpt lat="45.480522" lon="11.6050824"><ele>27.0</ele><time>2026-04-06T07:31:05.084Z</time></trkpt><trkpt lat="45.4804723" lon="11.6051517"><ele>27.0</ele><time>2026-04-06T07:31:07.084Z</time></trkpt><trkpt lat="45.480422" lon="11.6052196"><ele>27.0</ele><time>2026-04-06T07:31:09.087Z</time></trkpt><trkpt lat="45.4803729" lon="11.6052844"><ele>27.0</ele><time>2026-04-06T07:31:11.084Z</time></trkpt><trkpt lat="45.4803225" lon="11.605347"><ele>27.0</ele><time>2026-04-06T07:31:12.925Z</time></trkpt><trkpt lat="45.4802713" lon="11.605421"><ele>27.0</ele><time>2026-04-06T07:31:15.084Z</time></trkpt><trkpt lat="45.4802252" lon="11.6054906"><ele>27.0</ele><time>2026-04-06T07:31:17.093Z</time></trkpt><trkpt lat="45.4801651" lon="11.6055778"><ele>27.142857142857142</ele><time>2026-04-06T07:31:20.084Z</time></trkpt><trkpt lat="45.4801155" lon="11.6056382"><ele>27.285714285714285</ele><time>2026-04-06T07:31:22.113Z</time></trkpt><trkpt lat="45.4800667" lon="11.6056958"><ele>27.42857142857143</ele><time>2026-04-06T07:31:24.084Z</time></trkpt><trkpt lat="45.4799872" lon="11.6057753"><ele>27.57142857142857</ele><time>2026-04-06T07:31:27.095Z</time></trkpt><trkpt lat="45.4799318" lon="11.6058326"><ele>27.714285714285715</ele><time>2026-04-06T07:31:29.084Z</time></trkpt><trkpt lat="45.4798759" lon="11.6058911"><ele>27.857142857142858</ele><time>2026-04-06T07:31:31.084Z</time></trkpt><trkpt lat="45.4798198" lon="11.6059524"><ele>28.0</ele><time>2026-04-06T07:31:33.086Z</time></trkpt><trkpt lat="45.4797613" lon="11.6060086"><ele>28.0</ele><time>2026-04-06T07:31:35.084Z</time></trkpt><trkpt lat="45.4797059" lon="11.6060606"><ele>28.0</ele><time>2026-04-06T07:31:37.084Z</time></trkpt><trkpt lat="45.479653" lon="11.6061151"><ele>28.0</ele><time>2026-04-06T07:31:39.084Z</time></trkpt><trkpt lat="45.4795863" lon="11.6061766"><ele>28.0</ele><time>2026-04-06T07:31:42.084Z</time></trkpt><trkpt lat="45.4795128" lon="11.606252"><ele>28.0</ele><time>2026-04-06T07:31:45.084Z</time></trkpt><trkpt lat="45.4794506" lon="11.6062963"><ele>28.0</ele><time>2026-04-06T07:31:47.084Z</time></trkpt><trkpt lat="45.4793871" lon="11.606355"><ele>28.0</ele><time>2026-04-06T07:31:49.047Z</time></trkpt><trkpt lat="45.4793329" lon="11.6064149"><ele>28.666666666666668</ele><time>2026-04-06T07:31:51.084Z</time></trkpt><trkpt lat="45.4792706" lon="11.6064777"><ele>29.333333333333336</ele><time>2026-04-06T07:31:53.116Z</time></trkpt><trkpt lat="45.4792078" lon="11.6065288"><ele>30.0</ele><time>2026-04-06T07:31:55.084Z</time></trkpt><trkpt lat="45.4791417" lon="11.6065832"><ele>30.666666666666664</ele><time>2026-04-06T07:31:57.102Z</time></trkpt><trkpt lat="45.4790738" lon="11.6066284"><ele>31.333333333333332</ele><time>2026-04-06T07:31:59.084Z</time></trkpt><trkpt lat="45.4789989" lon="11.606665"><ele>32.0</ele><time>2026-04-06T07:32:01.084Z</time></trkpt><trkpt lat="45.478923" lon="11.6067124"><ele>31.999999999999996</ele><time>2026-04-06T07:32:03.084Z</time></trkpt><trkpt lat="45.47885" lon="11.6067637"><ele>32.0</ele><time>2026-04-06T07:32:05.113Z</time></trkpt><trkpt lat="45.4787875" lon="11.606814"><ele>32.0</ele><time>2026-04-06T07:32:06.958Z</time></trkpt><trkpt lat="45.4787225" lon="11.6068708"><ele>32.0</ele><time>2026-04-06T07:32:09.084Z</time></trkpt><trkpt lat="45.4786572" lon="11.6069311"><ele>31.999999999999996</ele><time>2026-04-06T07:32:11.102Z</time></trkpt><trkpt lat="45.4785749" lon="11.6070087"><ele>32.0</ele><time>2026-04-06T07:32:14.084Z</time></trkpt><trkpt lat="45.4785172" lon="11.6070847"><ele>31.666666666666664</ele><time>2026-04-06T07:32:17.084Z</time></trkpt><trkpt lat="45.4784458" lon="11.6071471"><ele>31.333333333333332</ele><time>2026-04-06T07:32:20.084Z</time></trkpt><trkpt lat="45.4783897" lon="11.6071915"><ele>31.0</ele><time>2026-04-06T07:32:22.084Z</time></trkpt><trkpt lat="45.4783313" lon="11.607245"><ele>30.666666666666664</ele><time>2026-04-06T07:32:24.084Z</time></trkpt><trkpt lat="45.4782572" lon="11.6073202"><ele>30.333333333333332</ele><time>2026-04-06T07:32:27.084Z</time></trkpt><trkpt lat="45.4781708" lon="11.6073174"><ele>30.0</ele><time>2026-04-06T07:32:30.084Z</time></trkpt><trkpt lat="45.478105" lon="11.6072296"><ele>30.0</ele><time>2026-04-06T07:32:33.084Z</time></trkpt><trkpt lat="45.4780658" lon="11.6071559"><ele>30.0</ele><time>2026-04-06T07:32:35.084Z</time></trkpt><trkpt lat="45.4780256" lon="11.6070773"><ele>30.0</ele><time>2026-04-06T07:32:37.084Z</time></trkpt><trkpt lat="45.4779899" lon="11.6070017"><ele>30.0</ele><time>2026-04-06T07:32:39.084Z</time></trkpt><trkpt lat="45.477934" lon="11.6068919"><ele>30.0</ele><time>2026-04-06T07:32:42.084Z</time></trkpt><trkpt lat="45.4778982" lon="11.6068151"><ele>30.0</ele><time>2026-04-06T07:32:44.084Z</time></trkpt><trkpt lat="45.477847" lon="11.6067171"><ele>30.0</ele><time>2026-04-06T07:32:47.084Z</time></trkpt><trkpt lat="45.477796" lon="11.606639"><ele>30.5</ele><time>2026-04-06T07:32:50.085Z</time></trkpt><trkpt lat="45.4777419" lon="11.6065517"><ele>31.0</ele><time>2026-04-06T07:32:54.084Z</time></trkpt><trkpt lat="45.4776884" lon="11.6064675"><ele>31.5</ele><time>2026-04-06T07:32:57.084Z</time></trkpt><trkpt lat="45.4776265" lon="11.6063785"><ele>32.0</ele><time>2026-04-06T07:33:00.084Z</time></trkpt><trkpt lat="45.477562" lon="11.6062908"><ele>32.5</ele><time>2026-04-06T07:33:03.084Z</time></trkpt><trkpt lat="45.4774969" lon="11.6062364"><ele>33.0</ele><time>2026-04-06T07:33:06.084Z</time></trkpt><trkpt lat="45.4774425" lon="11.6061904"><ele>33.42857142857143</ele><time>2026-04-06T07:33:09.084Z</time></trkpt><trkpt lat="45.4773791" lon="11.6061345"><ele>33.85714285714286</ele><time>2026-04-06T07:33:13.084Z</time></trkpt><trkpt lat="45.4773093" lon="11.6060708"><ele>34.28571428571429</ele><time>2026-04-06T07:33:17.084Z</time></trkpt><trkpt lat="45.4772497" lon="11.6060083"><ele>34.714285714285715</ele><time>2026-04-06T07:33:21.084Z</time></trkpt><trkpt lat="45.4772059" lon="11.6059381"><ele>35.142857142857146</ele><time>2026-04-06T07:33:24.084Z</time></trkpt><trkpt lat="45.4771584" lon="11.605852"><ele>35.57142857142858</ele><time>2026-04-06T07:33:28.084Z</time></trkpt><trkpt lat="45.4771111" lon="11.6057877"><ele>36.0</ele><time>2026-04-06T07:33:31.084Z</time></trkpt><trkpt lat="45.4770657" lon="11.6057002"><ele>37.666666666666664</ele><time>2026-04-06T07:33:35.084Z</time></trkpt><trkpt lat="45.4770092" lon="11.6056214"><ele>39.333333333333336</ele><time>2026-04-06T07:33:39.084Z</time></trkpt><trkpt lat="45.47695" lon="11.6055538"><ele>41.0</ele><time>2026-04-06T07:33:43.084Z</time></trkpt><trkpt lat="45.4769" lon="11.605475"><ele>42.66666666666667</ele><time>2026-04-06T07:33:47.084Z</time></trkpt><trkpt lat="45.4768521" lon="11.6053822"><ele>44.333333333333336</ele><time>2026-04-06T07:33:51.084Z</time></trkpt><trkpt lat="45.4768127" lon="11.6053024"><ele>46.0</ele><time>2026-04-06T07:33:55.084Z</time></trkpt><trkpt lat="45.4767532" lon="11.6052209"><ele>47.285714285714285</ele><time>2026-04-06T07:33:59.084Z</time></trkpt><trkpt lat="45.4766945" lon="11.6051389"><ele>48.57142857142857</ele><time>2026-04-06T07:34:03.084Z</time></trkpt><trkpt lat="45.4766282" lon="11.6050735"><ele>49.857142857142854</ele><time>2026-04-06T07:34:07.084Z</time></trkpt><trkpt lat="45.4765633" lon="11.6050722"><ele>51.14285714285714</ele><time>2026-04-06T07:34:10.084Z</time></trkpt><trkpt lat="45.4765057" lon="11.6051207"><ele>52.42857142857143</ele><time>2026-04-06T07:34:14.084Z</time></trkpt><trkpt lat="45.4764488" lon="11.6051712"><ele>53.71428571428571</ele><time>2026-04-06T07:34:17.084Z</time></trkpt><trkpt lat="45.4763819" lon="11.605205"><ele>55.0</ele><time>2026-04-06T07:34:20.084Z</time></trkpt><trkpt lat="45.4763076" lon="11.6052615"><ele>55.166666666666664</ele><time>2026-04-06T07:34:23.084Z</time></trkpt><trkpt lat="45.4762398" lon="11.605314"><ele>55.33333333333333</ele><time>2026-04-06T07:34:26.085Z</time></trkpt><trkpt lat="45.4761641" lon="11.6053592"><ele>55.5</ele><time>2026-04-06T07:34:29.084Z</time></trkpt><trkpt lat="45.4760871" lon="11.6053997"><ele>55.66666666666667</ele><time>2026-04-06T07:34:33.084Z</time></trkpt><trkpt lat="45.4760084" lon="11.6054314"><ele>55.833333333333336</ele><time>2026-04-06T07:34:37.084Z</time></trkpt><trkpt lat="45.4759417" lon="11.6054778"><ele>56.0</ele><time>2026-04-06T07:34:41.084Z</time></trkpt><trkpt lat="45.4758752" lon="11.6055256"><ele>56.0</ele><time>2026-04-06T07:34:45.085Z</time></trkpt><trkpt lat="45.4758165" lon="11.6055583"><ele>56.0</ele><time>2026-04-06T07:34:48.084Z</time></trkpt><trkpt lat="45.4757546" lon="11.605604"><ele>56.0</ele><time>2026-04-06T07:34:52.084Z</time></trkpt><trkpt lat="45.4756772" lon="11.6056231"><ele>56.0</ele><time>2026-04-06T07:34:57.084Z</time></trkpt><trkpt lat="45.4756119" lon="11.6056011"><ele>56.0</ele><time>2026-04-06T07:35:00.084Z</time></trkpt><trkpt lat="45.4755484" lon="11.6055698"><ele>56.0</ele><time>2026-04-06T07:35:03.084Z</time></trkpt><trkpt lat="45.4754786" lon="11.6055276"><ele>56.0</ele><time>2026-04-06T07:35:06.084Z</time></trkpt><trkpt lat="45.475396" lon="11.6054879"><ele>57.333333333333336</ele><time>2026-04-06T07:35:10.098Z</time></trkpt><trkpt lat="45.4753303" lon="11.605469"><ele>58.66666666666667</ele><time>2026-04-06T07:35:13.084Z</time></trkpt><trkpt lat="45.4752507" lon="11.6054495"><ele>60.0</ele><time>2026-04-06T07:35:17.078Z</time></trkpt><trkpt lat="45.4751864" lon="11.6054185"><ele>61.33333333333333</ele><time>2026-04-06T07:35:21.084Z</time></trkpt><trkpt lat="45.4751194" lon="11.6053905"><ele>62.666666666666664</ele><time>2026-04-06T07:35:24.118Z</time></trkpt><trkpt lat="45.4750355" lon="11.6053541"><ele>64.0</ele><time>2026-04-06T07:35:27.084Z</time></trkpt><trkpt lat="45.4749483" lon="11.6053268"><ele>65.33333333333333</ele><time>2026-04-06T07:35:30.084Z</time></trkpt><trkpt lat="45.4748783" lon="11.6053031"><ele>66.66666666666666</ele><time>2026-04-06T07:35:33.084Z</time></trkpt><trkpt lat="45.474799" lon="11.6052686"><ele>68.0</ele><time>2026-04-06T07:35:36.02Z</time></trkpt><trkpt lat="45.4747357" lon="11.6052436"><ele>69.33333333333333</ele><time>2026-04-06T07:35:38.018Z</time></trkpt><trkpt lat="45.4746688" lon="11.6052195"><ele>70.66666666666667</ele><time>2026-04-06T07:35:40.084Z</time></trkpt><trkpt lat="45.4745778" lon="11.6051862"><ele>72.0</ele><time>2026-04-06T07:35:43.084Z</time></trkpt><trkpt lat="45.4744855" lon="11.605157"><ele>72.14285714285715</ele><time>2026-04-06T07:35:46.084Z</time></trkpt><trkpt lat="45.4744128" lon="11.605133"><ele>72.28571428571429</ele><time>2026-04-06T07:35:48.084Z</time></trkpt><trkpt lat="45.47433" lon="11.6051064"><ele>72.42857142857143</ele><time>2026-04-06T07:35:51.084Z</time></trkpt><trkpt lat="45.4742599" lon="11.6050853"><ele>72.57142857142858</ele><time>2026-04-06T07:35:53.084Z</time></trkpt><trkpt lat="45.4741922" lon="11.60506"><ele>72.71428571428572</ele><time>2026-04-06T07:35:55.059Z</time></trkpt><trkpt lat="45.4741253" lon="11.6050294"><ele>72.85714285714286</ele><time>2026-04-06T07:35:57.146Z</time></trkpt><trkpt lat="45.474059" lon="11.6049823"><ele>73.0</ele><time>2026-04-06T07:35:59.084Z</time></trkpt><trkpt lat="45.4740041" lon="11.604892"><ele>73.0</ele><time>2026-04-06T07:36:01.063Z</time></trkpt><trkpt lat="45.4739517" lon="11.6047633"><ele>73.0</ele><time>2026-04-06T07:36:03.084Z</time></trkpt><trkpt lat="45.4739075" lon="11.6046294"><ele>73.0</ele><time>2026-04-06T07:36:05.084Z</time></trkpt><trkpt lat="45.4738775" lon="11.604505"><ele>73.0</ele><time>2026-04-06T07:36:07.084Z</time></trkpt><trkpt lat="45.4738397" lon="11.6044009"><ele>73.0</ele><time>2026-04-06T07:36:09.084Z</time></trkpt><trkpt lat="45.473798" lon="11.6043076"><ele>70.83333333333333</ele><time>2026-04-06T07:36:11.084Z</time></trkpt><trkpt lat="45.4737442" lon="11.6041706"><ele>68.66666666666666</ele><time>2026-04-06T07:36:13.084Z</time></trkpt><trkpt lat="45.4737012" lon="11.6040137"><ele>66.5</ele><time>2026-04-06T07:36:15.084Z</time></trkpt><trkpt lat="45.4736812" lon="11.603926"><ele>64.33333333333333</ele><time>2026-04-06T07:36:16.084Z</time></trkpt><trkpt lat="45.4736723" lon="11.6038209"><ele>62.166666666666664</ele><time>2026-04-06T07:36:17.084Z</time></trkpt><trkpt lat="45.4736497" lon="11.603713"><ele>60.0</ele><time>2026-04-06T07:36:18.084Z</time></trkpt><trkpt lat="45.4736356" lon="11.6036086"><ele>60.0</ele><time>2026-04-06T07:36:19.084Z</time></trkpt><trkpt lat="45.4736361" lon="11.6035049"><ele>60.0</ele><time>2026-04-06T07:36:20.084Z</time></trkpt><trkpt lat="45.4736331" lon="11.6034065"><ele>60.0</ele><time>2026-04-06T07:36:21.084Z</time></trkpt><trkpt lat="45.4736288" lon="11.6033082"><ele>60.0</ele><time>2026-04-06T07:36:22.084Z</time></trkpt><trkpt lat="45.4736425" lon="11.6031938"><ele>60.0</ele><time>2026-04-06T07:36:23.084Z</time></trkpt><trkpt lat="45.473628" lon="11.6030505"><ele>60.0</ele><time>2026-04-06T07:36:25.084Z</time></trkpt><trkpt lat="45.4735735" lon="11.6029378"><ele>60.0</ele><time>2026-04-06T07:36:27.084Z</time></trkpt><trkpt lat="45.4735311" lon="11.6028565"><ele>60.0</ele><time>2026-04-06T07:36:29.084Z</time></trkpt><trkpt lat="45.4734829" lon="11.6027929"><ele>60.0</ele><time>2026-04-06T07:36:32.084Z</time></trkpt><trkpt lat="45.4734269" lon="11.6027334"><ele>60.0</ele><time>2026-04-06T07:36:35.085Z</time></trkpt><trkpt lat="45.4733755" lon="11.6026748"><ele>60.0</ele><time>2026-04-06T07:36:38.084Z</time></trkpt><trkpt lat="45.4732977" lon="11.6025948"><ele>60.0</ele><time>2026-04-06T07:36:41.084Z</time></trkpt><trkpt lat="45.4732601" lon="11.6024714"><ele>62.333333333333336</ele><time>2026-04-06T07:36:44.084Z</time></trkpt><trkpt lat="45.4732391" lon="11.6023396"><ele>64.66666666666667</ele><time>2026-04-06T07:36:47.084Z</time></trkpt><trkpt lat="45.4732571" lon="11.6022476"><ele>67.0</ele><time>2026-04-06T07:36:50.084Z</time></trkpt><trkpt lat="45.4732507" lon="11.6020978"><ele>69.33333333333334</ele><time>2026-04-06T07:36:52.084Z</time></trkpt><trkpt lat="45.4732377" lon="11.6020076"><ele>71.66666666666667</ele><time>2026-04-06T07:36:53.084Z</time></trkpt><trkpt lat="45.4732321" lon="11.6018606"><ele>74.0</ele><time>2026-04-06T07:36:55.084Z</time></trkpt><trkpt lat="45.4732401" lon="11.6017249"><ele>74.66666666666667</ele><time>2026-04-06T07:36:57.084Z</time></trkpt><trkpt lat="45.4732661" lon="11.6016022"><ele>75.33333333333334</ele><time>2026-04-06T07:36:59.084Z</time></trkpt><trkpt lat="45.4733041" lon="11.6014938"><ele>76.0</ele><time>2026-04-06T07:37:01.084Z</time></trkpt><trkpt lat="45.4733577" lon="11.6014266"><ele>76.66666666666667</ele><time>2026-04-06T07:37:03.084Z</time></trkpt><trkpt lat="45.4734112" lon="11.6013663"><ele>77.33333333333333</ele><time>2026-04-06T07:37:06.084Z</time></trkpt><trkpt lat="45.4734454" lon="11.6012545"><ele>78.0</ele><time>2026-04-06T07:37:11.084Z</time></trkpt><trkpt lat="45.4734311" lon="11.6011619"><ele>78.5</ele><time>2026-04-06T07:37:14.084Z</time></trkpt><trkpt lat="45.4734512" lon="11.6010765"><ele>79.0</ele><time>2026-04-06T07:37:16.084Z</time></trkpt><trkpt lat="45.4734652" lon="11.6009614"><ele>79.5</ele><time>2026-04-06T07:37:19.084Z</time></trkpt><trkpt lat="45.4734696" lon="11.6008538"><ele>80.0</ele><time>2026-04-06T07:37:22.084Z</time></trkpt><trkpt lat="45.4734862" lon="11.6007396"><ele>80.5</ele><time>2026-04-06T07:37:25.084Z</time></trkpt><trkpt lat="45.4735135" lon="11.6006344"><ele>81.0</ele><time>2026-04-06T07:37:28.084Z</time></trkpt><trkpt lat="45.4735323" lon="11.600537"><ele>81.0</ele><time>2026-04-06T07:37:31.084Z</time></trkpt><trkpt lat="45.473533" lon="11.600422"><ele>81.0</ele><time>2026-04-06T07:37:35.084Z</time></trkpt><trkpt lat="45.4735284" lon="11.6003064"><ele>81.0</ele><time>2026-04-06T07:37:38.084Z</time></trkpt><trkpt lat="45.4734994" lon="11.6002171"><ele>81.0</ele><time>2026-04-06T07:37:41.02Z</time></trkpt><trkpt lat="45.4734428" lon="11.6001587"><ele>81.0</ele><time>2026-04-06T07:37:43.084Z</time></trkpt><trkpt lat="45.4733831" lon="11.6000868"><ele>81.0</ele><time>2026-04-06T07:37:46.084Z</time></trkpt><trkpt lat="45.4733378" lon="11.6000224"><ele>81.0</ele><time>2026-04-06T07:37:48.084Z</time></trkpt><trkpt lat="45.4732871" lon="11.5999659"><ele>84.0</ele><time>2026-04-06T07:37:50.084Z</time></trkpt><trkpt lat="45.4732161" lon="11.5998947"><ele>87.0</ele><time>2026-04-06T07:37:53.084Z</time></trkpt><trkpt lat="45.4731462" lon="11.5998365"><ele>90.0</ele><time>2026-04-06T07:37:56.084Z</time></trkpt><trkpt lat="45.4730748" lon="11.5998147"><ele>93.0</ele><time>2026-04-06T07:37:59.084Z</time></trkpt><trkpt lat="45.4729912" lon="11.5998069"><ele>96.0</ele><time>2026-04-06T07:38:02.084Z</time></trkpt><trkpt lat="45.4729138" lon="11.599816"><ele>99.0</ele><time>2026-04-06T07:38:05.125Z</time></trkpt><trkpt lat="45.4728535" lon="11.5998563"><ele>99.0</ele><time>2026-04-06T07:38:08.084Z</time></trkpt><trkpt lat="45.4727907" lon="11.5999102"><ele>99.0</ele><time>2026-04-06T07:38:11.084Z</time></trkpt><trkpt lat="45.4726994" lon="11.5999782"><ele>99.0</ele><time>2026-04-06T07:38:14.084Z</time></trkpt><trkpt lat="45.4726242" lon="11.6000356"><ele>99.0</ele><time>2026-04-06T07:38:17.084Z</time></trkpt><trkpt lat="45.472554" lon="11.6000935"><ele>99.0</ele><time>2026-04-06T07:38:20.085Z</time></trkpt><trkpt lat="45.4724861" lon="11.6001507"><ele>99.0</ele><time>2026-04-06T07:38:23.084Z</time></trkpt><trkpt lat="45.4724242" lon="11.6002154"><ele>99.0</ele><time>2026-04-06T07:38:25.196Z</time></trkpt><trkpt lat="45.4723642" lon="11.6002596"><ele>99.0</ele><time>2026-04-06T07:38:27.137Z</time></trkpt><trkpt lat="45.4723044" lon="11.6003075"><ele>99.0</ele><time>2026-04-06T07:38:29.099Z</time></trkpt><trkpt lat="45.4722262" lon="11.6003707"><ele>99.0</ele><time>2026-04-06T07:38:32.093Z</time></trkpt><trkpt lat="45.4721529" lon="11.6004146"><ele>99.0</ele><time>2026-04-06T07:38:34.776Z</time></trkpt><trkpt lat="45.4720918" lon="11.6004455"><ele>99.0</ele><time>2026-04-06T07:38:37.056Z</time></trkpt><trkpt lat="45.4720126" lon="11.6004644"><ele>96.57142857142857</ele><time>2026-04-06T07:38:40.1Z</time></trkpt><trkpt lat="45.4719446" lon="11.6004522"><ele>94.14285714285714</ele><time>2026-04-06T07:38:45.099Z</time></trkpt><trkpt lat="45.4718787" lon="11.6004064"><ele>91.71428571428571</ele><time>2026-04-06T07:38:47.223Z</time></trkpt><trkpt lat="45.4718234" lon="11.600358"><ele>89.28571428571428</ele><time>2026-04-06T07:38:50.084Z</time></trkpt><trkpt lat="45.4717575" lon="11.6002981"><ele>86.85714285714286</ele><time>2026-04-06T07:38:52.999Z</time></trkpt><trkpt lat="45.4716932" lon="11.6002531"><ele>84.42857142857142</ele><time>2026-04-06T07:38:56.084Z</time></trkpt><trkpt lat="45.4716357" lon="11.6002051"><ele>82.0</ele><time>2026-04-06T07:38:59.084Z</time></trkpt><trkpt lat="45.4716988" lon="11.6001647"><ele>82.0</ele><time>2026-04-06T07:39:04.084Z</time></trkpt><trkpt lat="45.4717619" lon="11.6002106"><ele>82.0</ele><time>2026-04-06T07:39:07.108Z</time></trkpt><trkpt lat="45.4718231" lon="11.6002676"><ele>82.0</ele><time>2026-04-06T07:39:10.084Z</time></trkpt><trkpt lat="45.471893" lon="11.6003169"><ele>82.0</ele><time>2026-04-06T07:39:13.084Z</time></trkpt><trkpt lat="45.4719773" lon="11.6003209"><ele>82.0</ele><time>2026-04-06T07:39:16.084Z</time></trkpt><trkpt lat="45.4720453" lon="11.6002948"><ele>82.0</ele><time>2026-04-06T07:39:19.084Z</time></trkpt><trkpt lat="45.4721194" lon="11.6002283"><ele>84.83333333333333</ele><time>2026-04-06T07:39:22.084Z</time></trkpt><trkpt lat="45.4721833" lon="11.6001707"><ele>87.66666666666666</ele><time>2026-04-06T07:39:25.084Z</time></trkpt><trkpt lat="45.4722347" lon="11.6000832"><ele>90.5</ele><time>2026-04-06T07:39:28.1Z</time></trkpt><trkpt lat="45.4722759" lon="11.599992"><ele>93.33333333333333</ele><time>2026-04-06T07:39:31.08Z</time></trkpt><trkpt lat="45.4723173" lon="11.5999119"><ele>96.16666666666667</ele><time>2026-04-06T07:39:34.084Z</time></trkpt><trkpt lat="45.47237" lon="11.5998224"><ele>99.0</ele><time>2026-04-06T07:39:37.095Z</time></trkpt><trkpt lat="45.4724305" lon="11.5997493"><ele>99.0</ele><time>2026-04-06T07:39:40.084Z</time></trkpt><trkpt lat="45.4724857" lon="11.5996754"><ele>99.0</ele><time>2026-04-06T07:39:43.084Z</time></trkpt><trkpt lat="45.4725297" lon="11.5996094"><ele>99.0</ele><time>2026-04-06T07:39:46.084Z</time></trkpt><trkpt lat="45.4726013" lon="11.5995395"><ele>99.0</ele><time>2026-04-06T07:39:49.084Z</time></trkpt><trkpt lat="45.4726747" lon="11.5994687"><ele>99.0</ele><time>2026-04-06T07:39:52.084Z</time></trkpt><trkpt lat="45.4727378" lon="11.5994038"><ele>99.0</ele><time>2026-04-06T07:39:55.082Z</time></trkpt><trkpt lat="45.4728015" lon="11.5993343"><ele>103.0</ele><time>2026-04-06T07:39:58.078Z</time></trkpt><trkpt lat="45.4728671" lon="11.5992718"><ele>107.0</ele><time>2026-04-06T07:40:01.115Z</time></trkpt><trkpt lat="45.4729284" lon="11.5992224"><ele>111.0</ele><time>2026-04-06T07:40:04.084Z</time></trkpt><trkpt lat="45.4729811" lon="11.5991681"><ele>115.0</ele><time>2026-04-06T07:40:07.084Z</time></trkpt><trkpt lat="45.4730504" lon="11.5991038"><ele>119.0</ele><time>2026-04-06T07:40:11.084Z</time></trkpt><trkpt lat="45.4731201" lon="11.5990493"><ele>123.0</ele><time>2026-04-06T07:40:15.084Z</time></trkpt><trkpt lat="45.473185" lon="11.5990372"><ele>127.0</ele><time>2026-04-06T07:40:18.075Z</time></trkpt><trkpt lat="45.4732652" lon="11.5990531"><ele>127.0</ele><time>2026-04-06T07:40:21.084Z</time></trkpt><trkpt lat="45.4733432" lon="11.5990848"><ele>127.0</ele><time>2026-04-06T07:40:24.084Z</time></trkpt><trkpt lat="45.4734015" lon="11.5991284"><ele>127.0</ele><time>2026-04-06T07:40:27.084Z</time></trkpt><trkpt lat="45.4734581" lon="11.5991738"><ele>127.0</ele><time>2026-04-06T07:40:30.122Z</time></trkpt><trkpt lat="45.4735283" lon="11.5991749"><ele>127.0</ele><time>2026-04-06T07:40:33.11Z</time></trkpt><trkpt lat="45.4735918" lon="11.5991569"><ele>127.0</ele><time>2026-04-06T07:40:35.084Z</time></trkpt><trkpt lat="45.4736935" lon="11.5991474"><ele>127.0</ele><time>2026-04-06T07:40:38.129Z</time></trkpt><trkpt lat="45.4737808" lon="11.5991627"><ele>130.83333333333334</ele><time>2026-04-06T07:40:41.003Z</time></trkpt><trkpt lat="45.4738598" lon="11.5991931"><ele>134.66666666666669</ele><time>2026-04-06T07:40:43.997Z</time></trkpt><trkpt lat="45.473933" lon="11.5992305"><ele>138.5</ele><time>2026-04-06T07:40:47.092Z</time></trkpt><trkpt lat="45.4739987" lon="11.5992721"><ele>142.33333333333334</ele><time>2026-04-06T07:40:49.117Z</time></trkpt><trkpt lat="45.4740663" lon="11.5993207"><ele>146.16666666666666</ele><time>2026-04-06T07:40:52.111Z</time></trkpt><trkpt lat="45.474153" lon="11.5993846"><ele>150.0</ele><time>2026-04-06T07:40:55.099Z</time></trkpt><trkpt lat="45.4742138" lon="11.599435"><ele>150.0</ele><time>2026-04-06T07:40:57.084Z</time></trkpt><trkpt lat="45.4742712" lon="11.5994895"><ele>150.0</ele><time>2026-04-06T07:40:59.084Z</time></trkpt><trkpt lat="45.4743213" lon="11.5995475"><ele>150.0</ele><time>2026-04-06T07:41:01.084Z</time></trkpt><trkpt lat="45.4743838" lon="11.5996356"><ele>150.0</ele><time>2026-04-06T07:41:04.084Z</time></trkpt><trkpt lat="45.4744258" lon="11.5997429"><ele>150.0</ele><time>2026-04-06T07:41:07.085Z</time></trkpt><trkpt lat="45.4744481" lon="11.5998395"><ele>150.0</ele><time>2026-04-06T07:41:08.994Z</time></trkpt><trkpt lat="45.4744545" lon="11.5999475"><ele>146.7142857142857</ele><time>2026-04-06T07:41:12.084Z</time></trkpt><trkpt lat="45.474456" lon="11.6000544"><ele>143.42857142857142</ele><time>2026-04-06T07:41:15.084Z</time></trkpt><trkpt lat="45.4744741" lon="11.600194"><ele>140.14285714285714</ele><time>2026-04-06T07:41:17.818Z</time></trkpt><trkpt lat="45.4744851" lon="11.6002885"><ele>136.85714285714283</ele><time>2026-04-06T07:41:20.084Z</time></trkpt><trkpt lat="45.4744963" lon="11.600383"><ele>133.57142857142856</ele><time>2026-04-06T07:41:22Z</time></trkpt><trkpt lat="45.4745187" lon="11.6004849"><ele>130.28571428571428</ele><time>2026-04-06T07:41:24.084Z</time></trkpt><trkpt lat="45.4745371" lon="11.6005719"><ele>127.0</ele><time>2026-04-06T07:41:26.084Z</time></trkpt><trkpt lat="45.474554" lon="11.6006607"><ele>127.83333333333334</ele><time>2026-04-06T07:41:28.085Z</time></trkpt><trkpt lat="45.4745765" lon="11.6007449"><ele>128.66666666666669</ele><time>2026-04-06T07:41:30.084Z</time></trkpt><trkpt lat="45.4746113" lon="11.6008292"><ele>129.5</ele><time>2026-04-06T07:41:32.084Z</time></trkpt><trkpt lat="45.4746634" lon="11.6009419"><ele>130.33333333333334</ele><time>2026-04-06T07:41:35.077Z</time></trkpt><trkpt lat="45.4747002" lon="11.60102"><ele>131.16666666666666</ele><time>2026-04-06T07:41:37.084Z</time></trkpt><trkpt lat="45.4747467" lon="11.601126"><ele>132.0</ele><time>2026-04-06T07:41:40.076Z</time></trkpt><trkpt lat="45.4747949" lon="11.6012228"><ele>132.0</ele><time>2026-04-06T07:41:43.024Z</time></trkpt><trkpt lat="45.4748511" lon="11.6013209"><ele>132.0</ele><time>2026-04-06T07:41:46.042Z</time></trkpt><trkpt lat="45.4749213" lon="11.6013745"><ele>132.0</ele><time>2026-04-06T07:41:49.115Z</time></trkpt><trkpt lat="45.4749919" lon="11.6013366"><ele>132.0</ele><time>2026-04-06T07:41:52.102Z</time></trkpt><trkpt lat="45.4750164" lon="11.6012455"><ele>132.0</ele><time>2026-04-06T07:41:55.09Z</time></trkpt><trkpt lat="45.4750718" lon="11.6011781"><ele>132.0</ele><time>2026-04-06T07:41:59.084Z</time></trkpt><trkpt lat="45.4749921" lon="11.6011756"><ele>134.5</ele><time>2026-04-06T07:42:09.084Z</time></trkpt><trkpt lat="45.4749139" lon="11.6011327"><ele>137.0</ele><time>2026-04-06T07:42:11.084Z</time></trkpt><trkpt lat="45.4748441" lon="11.6010536"><ele>139.5</ele><time>2026-04-06T07:42:13.084Z</time></trkpt><trkpt lat="45.4748202" lon="11.6009433"><ele>142.0</ele><time>2026-04-06T07:42:15.084Z</time></trkpt><trkpt lat="45.474796" lon="11.6008406"><ele>144.5</ele><time>2026-04-06T07:42:17.084Z</time></trkpt><trkpt lat="45.4747608" lon="11.600704"><ele>147.0</ele><time>2026-04-06T07:42:19.084Z</time></trkpt><trkpt lat="45.4747298" lon="11.6005785"><ele>147.0</ele><time>2026-04-06T07:42:21.084Z</time></trkpt><trkpt lat="45.4746984" lon="11.6004359"><ele>147.0</ele><time>2026-04-06T07:42:23.084Z</time></trkpt><trkpt lat="45.4746996" lon="11.6003248"><ele>147.0</ele><time>2026-04-06T07:42:25.084Z</time></trkpt><trkpt lat="45.474695" lon="11.6001993"><ele>147.0</ele><time>2026-04-06T07:42:28.084Z</time></trkpt><trkpt lat="45.4747287" lon="11.600108"><ele>147.0</ele><time>2026-04-06T07:42:31.084Z</time></trkpt><trkpt lat="45.4747694" lon="11.5999945"><ele>147.0</ele><time>2026-04-06T07:42:33.084Z</time></trkpt><trkpt lat="45.4747857" lon="11.5998661"><ele>147.5</ele><time>2026-04-06T07:42:35.084Z</time></trkpt><trkpt lat="45.4747911" lon="11.5997474"><ele>148.0</ele><time>2026-04-06T07:42:37.084Z</time></trkpt><trkpt lat="45.4747874" lon="11.5996329"><ele>148.5</ele><time>2026-04-06T07:42:39.084Z</time></trkpt><trkpt lat="45.4747613" lon="11.5995378"><ele>149.0</ele><time>2026-04-06T07:42:41.084Z</time></trkpt><trkpt lat="45.4746971" lon="11.5994544"><ele>149.5</ele><time>2026-04-06T07:42:44.019Z</time></trkpt><trkpt lat="45.4746377" lon="11.599364"><ele>150.0</ele><time>2026-04-06T07:42:47.085Z</time></trkpt><trkpt lat="45.4745954" lon="11.5992967"><ele>150.0</ele><time>2026-04-06T07:42:49.084Z</time></trkpt><trkpt lat="45.4745408" lon="11.5992009"><ele>150.0</ele><time>2026-04-06T07:42:52.084Z</time></trkpt><trkpt lat="45.4744795" lon="11.5991084"><ele>150.0</ele><time>2026-04-06T07:42:55.084Z</time></trkpt><trkpt lat="45.4744304" lon="11.5990074"><ele>150.0</ele><time>2026-04-06T07:42:58.062Z</time></trkpt><trkpt lat="45.4743879" lon="11.5989204"><ele>150.0</ele><time>2026-04-06T07:43:01.084Z</time></trkpt><trkpt lat="45.4743506" lon="11.5988222"><ele>150.0</ele><time>2026-04-06T07:43:04.084Z</time></trkpt><trkpt lat="45.4742943" lon="11.5987439"><ele>155.5</ele><time>2026-04-06T07:43:07.084Z</time></trkpt><trkpt lat="45.4742554" lon="11.5986546"><ele>161.0</ele><time>2026-04-06T07:43:10.084Z</time></trkpt><trkpt lat="45.4741917" lon="11.5985801"><ele>166.5</ele><time>2026-04-06T07:43:13.084Z</time></trkpt><trkpt lat="45.474132" lon="11.5985497"><ele>172.0</ele><time>2026-04-06T07:43:15.084Z</time></trkpt><trkpt lat="45.4740686" lon="11.5985054"><ele>177.5</ele><time>2026-04-06T07:43:18.118Z</time></trkpt><trkpt lat="45.4739906" lon="11.5984441"><ele>183.0</ele><time>2026-04-06T07:43:21.092Z</time></trkpt><trkpt lat="45.4739255" lon="11.5983915"><ele>183.0</ele><time>2026-04-06T07:43:24.084Z</time></trkpt><trkpt lat="45.4738521" lon="11.5983462"><ele>183.0</ele><time>2026-04-06T07:43:27.021Z</time></trkpt><trkpt lat="45.4737748" lon="11.5983128"><ele>183.0</ele><time>2026-04-06T07:43:30.084Z</time></trkpt><trkpt lat="45.473707" lon="11.5982685"><ele>183.0</ele><time>2026-04-06T07:43:33.017Z</time></trkpt><trkpt lat="45.4736507" lon="11.5982076"><ele>183.0</ele><time>2026-04-06T07:43:36.091Z</time></trkpt><trkpt lat="45.4735884" lon="11.5981234"><ele>183.0</ele><time>2026-04-06T07:43:40.084Z</time></trkpt><trkpt lat="45.473534" lon="11.59805"><ele>180.5</ele><time>2026-04-06T07:43:43.084Z</time></trkpt><trkpt lat="45.4734764" lon="11.5979797"><ele>178.0</ele><time>2026-04-06T07:43:46.084Z</time></trkpt><trkpt lat="45.4734171" lon="11.5979197"><ele>175.5</ele><time>2026-04-06T07:43:49.084Z</time></trkpt><trkpt lat="45.4733458" lon="11.5978771"><ele>173.0</ele><time>2026-04-06T07:43:52.084Z</time></trkpt><trkpt lat="45.4732671" lon="11.59786"><ele>170.5</ele><time>2026-04-06T07:43:55.084Z</time></trkpt><trkpt lat="45.4731901" lon="11.5978625"><ele>168.0</ele><time>2026-04-06T07:43:58.084Z</time></trkpt><trkpt lat="45.4731066" lon="11.5978748"><ele>168.0</ele><time>2026-04-06T07:44:01.084Z</time></trkpt><trkpt lat="45.4730155" lon="11.5978729"><ele>168.0</ele><time>2026-04-06T07:44:04.084Z</time></trkpt><trkpt lat="45.4729552" lon="11.5979091"><ele>168.0</ele><time>2026-04-06T07:44:06.084Z</time></trkpt><trkpt lat="45.4729043" lon="11.5979621"><ele>168.0</ele><time>2026-04-06T07:44:08.084Z</time></trkpt><trkpt lat="45.4728332" lon="11.5980058"><ele>168.0</ele><time>2026-04-06T07:44:11.084Z</time></trkpt><trkpt lat="45.4727594" lon="11.5980569"><ele>168.0</ele><time>2026-04-06T07:44:14.084Z</time></trkpt><trkpt lat="45.4726956" lon="11.5980915"><ele>168.0</ele><time>2026-04-06T07:44:16.084Z</time></trkpt><trkpt lat="45.4726135" lon="11.598127"><ele>167.5</ele><time>2026-04-06T07:44:19.084Z</time></trkpt><trkpt lat="45.472542" lon="11.5981201"><ele>167.0</ele><time>2026-04-06T07:44:23.084Z</time></trkpt><trkpt lat="45.4725972" lon="11.5980763"><ele>166.5</ele><time>2026-04-06T07:44:29.084Z</time></trkpt><trkpt lat="45.4726696" lon="11.5980497"><ele>166.0</ele><time>2026-04-06T07:44:32.084Z</time></trkpt><trkpt lat="45.4727477" lon="11.5979905"><ele>165.5</ele><time>2026-04-06T07:44:35.084Z</time></trkpt><trkpt lat="45.4728252" lon="11.5979334"><ele>165.0</ele><time>2026-04-06T07:44:38.084Z</time></trkpt><trkpt lat="45.4729055" lon="11.5978602"><ele>170.85714285714286</ele><time>2026-04-06T07:44:41.084Z</time></trkpt><trkpt lat="45.4729794" lon="11.5977999"><ele>176.71428571428572</ele><time>2026-04-06T07:44:44.001Z</time></trkpt><trkpt lat="45.4730459" lon="11.5977641"><ele>182.57142857142856</ele><time>2026-04-06T07:44:46.084Z</time></trkpt><trkpt lat="45.4731244" lon="11.5977355"><ele>188.42857142857144</ele><time>2026-04-06T07:44:49.086Z</time></trkpt><trkpt lat="45.4731862" lon="11.5977139"><ele>194.28571428571428</ele><time>2026-04-06T07:44:51.778Z</time></trkpt><trkpt lat="45.4732523" lon="11.5976903"><ele>200.14285714285714</ele><time>2026-04-06T07:44:54.059Z</time></trkpt><trkpt lat="45.4733162" lon="11.5976634"><ele>206.0</ele><time>2026-04-06T07:44:56.116Z</time></trkpt><trkpt lat="45.4734002" lon="11.5976081"><ele>206.00000000000003</ele><time>2026-04-06T07:44:59.085Z</time></trkpt><trkpt lat="45.4734771" lon="11.5976144"><ele>206.0</ele><time>2026-04-06T07:45:02.084Z</time></trkpt><trkpt lat="45.4735435" lon="11.5976196"><ele>206.0</ele><time>2026-04-06T07:45:05.084Z</time></trkpt><trkpt lat="45.4736139" lon="11.5976508"><ele>206.0</ele><time>2026-04-06T07:45:08.084Z</time></trkpt><trkpt lat="45.4736689" lon="11.5977011"><ele>206.00000000000003</ele><time>2026-04-06T07:45:10.084Z</time></trkpt><trkpt lat="45.4737273" lon="11.5977755"><ele>206.0</ele><time>2026-04-06T07:45:12.11Z</time></trkpt><trkpt lat="45.4737995" lon="11.5978656"><ele>202.16666666666669</ele><time>2026-04-06T07:45:14.084Z</time></trkpt><trkpt lat="45.4738838" lon="11.5979372"><ele>198.33333333333334</ele><time>2026-04-06T07:45:16.084Z</time></trkpt><trkpt lat="45.4739647" lon="11.5979883"><ele>194.5</ele><time>2026-04-06T07:45:19.084Z</time></trkpt><trkpt lat="45.4740394" lon="11.5980036"><ele>190.66666666666669</ele><time>2026-04-06T07:45:23.085Z</time></trkpt><trkpt lat="45.4741223" lon="11.5980544"><ele>186.83333333333334</ele><time>2026-04-06T07:45:26.084Z</time></trkpt><trkpt lat="45.4742083" lon="11.5980811"><ele>183.0</ele><time>2026-04-06T07:45:29.084Z</time></trkpt><trkpt lat="45.4742953" lon="11.598089"><ele>183.0</ele><time>2026-04-06T07:45:32.084Z</time></trkpt><trkpt lat="45.4743587" lon="11.5980785"><ele>183.0</ele><time>2026-04-06T07:45:34.084Z</time></trkpt><trkpt lat="45.4744364" lon="11.5980888"><ele>183.0</ele><time>2026-04-06T07:45:37.062Z</time></trkpt><trkpt lat="45.4745162" lon="11.5981267"><ele>183.0</ele><time>2026-04-06T07:45:40.019Z</time></trkpt><trkpt lat="45.4745685" lon="11.5981848"><ele>183.0</ele><time>2026-04-06T07:45:42.086Z</time></trkpt><trkpt lat="45.4746173" lon="11.5982444"><ele>183.0</ele><time>2026-04-06T07:45:44.117Z</time></trkpt><trkpt lat="45.4746955" lon="11.5983315"><ele>183.16666666666666</ele><time>2026-04-06T07:45:47.058Z</time></trkpt><trkpt lat="45.4747526" lon="11.5984021"><ele>183.33333333333334</ele><time>2026-04-06T07:45:49.084Z</time></trkpt><trkpt lat="45.474813" lon="11.5985004"><ele>183.5</ele><time>2026-04-06T07:45:52.084Z</time></trkpt><trkpt lat="45.4748761" lon="11.5985901"><ele>183.66666666666669</ele><time>2026-04-06T07:45:55.015Z</time></trkpt><trkpt lat="45.4749463" lon="11.5986662"><ele>183.83333333333334</ele><time>2026-04-06T07:45:58.1Z</time></trkpt><trkpt lat="45.4750097" lon="11.5987407"><ele>184.0</ele><time>2026-04-06T07:46:01.099Z</time></trkpt><trkpt lat="45.4750761" lon="11.5988077"><ele>184.0</ele><time>2026-04-06T07:46:04.085Z</time></trkpt><trkpt lat="45.475139" lon="11.5988824"><ele>184.0</ele><time>2026-04-06T07:46:07.084Z</time></trkpt><trkpt lat="45.4752065" lon="11.5989653"><ele>184.0</ele><time>2026-04-06T07:46:10.112Z</time></trkpt><trkpt lat="45.4752704" lon="11.5990066"><ele>184.0</ele><time>2026-04-06T07:46:12.084Z</time></trkpt><trkpt lat="45.4753323" lon="11.5990263"><ele>184.0</ele><time>2026-04-06T07:46:14.084Z</time></trkpt><trkpt lat="45.4754137" lon="11.5990015"><ele>184.0</ele><time>2026-04-06T07:46:17.137Z</time></trkpt><trkpt lat="45.4754674" lon="11.5989498"><ele>184.42857142857144</ele><time>2026-04-06T07:46:19.137Z</time></trkpt><trkpt lat="45.4755129" lon="11.598887"><ele>184.85714285714283</ele><time>2026-04-06T07:46:21.147Z</time></trkpt><trkpt lat="45.4755505" lon="11.59878"><ele>185.28571428571428</ele><time>2026-04-06T07:46:24.092Z</time></trkpt><trkpt lat="45.4755852" lon="11.5986668"><ele>185.71428571428572</ele><time>2026-04-06T07:46:27.092Z</time></trkpt><trkpt lat="45.4755958" lon="11.5985749"><ele>186.14285714285717</ele><time>2026-04-06T07:46:29.114Z</time></trkpt><trkpt lat="45.4755569" lon="11.5984967"><ele>186.57142857142856</ele><time>2026-04-06T07:46:32.052Z</time></trkpt><trkpt lat="45.4754927" lon="11.5985499"><ele>187.0</ele><time>2026-04-06T07:46:35.092Z</time></trkpt><trkpt lat="45.4754447" lon="11.598624"><ele>186.57142857142856</ele><time>2026-04-06T07:46:37.092Z</time></trkpt><trkpt lat="45.4753847" lon="11.5987003"><ele>186.14285714285717</ele><time>2026-04-06T07:46:40.079Z</time></trkpt><trkpt lat="45.4753088" lon="11.5987037"><ele>185.71428571428572</ele><time>2026-04-06T07:46:42.092Z</time></trkpt><trkpt lat="45.4752546" lon="11.5986552"><ele>185.28571428571428</ele><time>2026-04-06T07:46:44.092Z</time></trkpt><trkpt lat="45.4752258" lon="11.5985679"><ele>184.85714285714283</ele><time>2026-04-06T07:46:46.121Z</time></trkpt><trkpt lat="45.4752367" lon="11.5984507"><ele>184.42857142857144</ele><time>2026-04-06T07:46:49.109Z</time></trkpt><trkpt lat="45.4752939" lon="11.5983846"><ele>184.0</ele><time>2026-04-06T07:46:51.092Z</time></trkpt><trkpt lat="45.4753691" lon="11.5983436"><ele>187.83333333333334</ele><time>2026-04-06T07:46:54.092Z</time></trkpt><trkpt lat="45.4754304" lon="11.5982989"><ele>191.66666666666669</ele><time>2026-04-06T07:46:57.092Z</time></trkpt><trkpt lat="45.4754928" lon="11.5982195"><ele>195.5</ele><time>2026-04-06T07:47:00.123Z</time></trkpt><trkpt lat="45.4755482" lon="11.5981627"><ele>199.33333333333334</ele><time>2026-04-06T07:47:03.112Z</time></trkpt><trkpt lat="45.4756022" lon="11.5980804"><ele>203.16666666666666</ele><time>2026-04-06T07:47:06.092Z</time></trkpt><trkpt lat="45.4756596" lon="11.5980027"><ele>207.0</ele><time>2026-04-06T07:47:09.092Z</time></trkpt><trkpt lat="45.4757146" lon="11.5979385"><ele>207.2857142857143</ele><time>2026-04-06T07:47:12.092Z</time></trkpt><trkpt lat="45.4757736" lon="11.5978768"><ele>207.57142857142858</ele><time>2026-04-06T07:47:15.092Z</time></trkpt><trkpt lat="45.4758346" lon="11.5978178"><ele>207.85714285714286</ele><time>2026-04-06T07:47:18.092Z</time></trkpt><trkpt lat="45.4758982" lon="11.5977645"><ele>208.14285714285717</ele><time>2026-04-06T07:47:20.94Z</time></trkpt><trkpt lat="45.4759754" lon="11.5977299"><ele>208.42857142857142</ele><time>2026-04-06T07:47:24.168Z</time></trkpt><trkpt lat="45.4760509" lon="11.5977056"><ele>208.71428571428572</ele><time>2026-04-06T07:47:27.092Z</time></trkpt><trkpt lat="45.4760808" lon="11.5976235"><ele>209.0</ele><time>2026-04-06T07:47:30.092Z</time></trkpt><trkpt lat="45.4760329" lon="11.597565"><ele>212.14285714285714</ele><time>2026-04-06T07:47:33.092Z</time></trkpt><trkpt lat="45.475969" lon="11.5975493"><ele>215.28571428571428</ele><time>2026-04-06T07:47:35.998Z</time></trkpt><trkpt lat="45.4759129" lon="11.5974969"><ele>218.42857142857144</ele><time>2026-04-06T07:47:39.122Z</time></trkpt><trkpt lat="45.4758495" lon="11.5975029"><ele>221.57142857142856</ele><time>2026-04-06T07:47:43.084Z</time></trkpt><trkpt lat="45.4759256" lon="11.5975094"><ele>224.71428571428572</ele><time>2026-04-06T07:47:48.085Z</time></trkpt><trkpt lat="45.4760008" lon="11.5974795"><ele>227.85714285714286</ele><time>2026-04-06T07:47:51.092Z</time></trkpt><trkpt lat="45.4760832" lon="11.5974612"><ele>231.0</ele><time>2026-04-06T07:47:55Z</time></trkpt><trkpt lat="45.4761475" lon="11.5974169"><ele>231.0</ele><time>2026-04-06T07:48:03.092Z</time></trkpt><trkpt lat="45.476076" lon="11.5974581"><ele>231.0</ele><time>2026-04-06T07:50:42.092Z</time></trkpt><trkpt lat="45.476003" lon="11.5974844"><ele>231.0</ele><time>2026-04-06T07:50:44.116Z</time></trkpt><trkpt lat="45.4759084" lon="11.5975161"><ele>231.0</ele><time>2026-04-06T07:50:45.084Z</time></trkpt><trkpt lat="45.4759791" lon="11.5974458"><ele>231.0</ele><time>2026-04-06T07:55:10.084Z</time></trkpt><trkpt lat="45.4760677" lon="11.5974063"><ele>231.0</ele><time>2026-04-06T07:55:13.084Z</time></trkpt><trkpt lat="45.4761498" lon="11.5974174"><ele>231.0</ele><time>2026-04-06T07:55:17.084Z</time></trkpt><trkpt lat="45.4762105" lon="11.597377"><ele>231.0</ele><time>2026-04-06T07:55:20.084Z</time></trkpt><trkpt lat="45.4762815" lon="11.5972808"><ele>231.0</ele><time>2026-04-06T07:55:23.084Z</time></trkpt><trkpt lat="45.4763481" lon="11.5972163"><ele>231.0</ele><time>2026-04-06T07:55:26.084Z</time></trkpt><trkpt lat="45.4763357" lon="11.5971235"><ele>231.0</ele><time>2026-04-06T07:55:29.084Z</time></trkpt><trkpt lat="45.4763734" lon="11.597031"><ele>231.0</ele><time>2026-04-06T07:55:32.084Z</time></trkpt><trkpt lat="45.4764373" lon="11.5969684"><ele>232.16666666666666</ele><time>2026-04-06T07:55:36.092Z</time></trkpt><trkpt lat="45.4764689" lon="11.596885"><ele>233.33333333333331</ele><time>2026-04-06T07:55:40.042Z</time></trkpt><trkpt lat="45.4764756" lon="11.5967931"><ele>234.5</ele><time>2026-04-06T07:55:44.092Z</time></trkpt><trkpt lat="45.4765301" lon="11.5967166"><ele>235.66666666666666</ele><time>2026-04-06T07:55:56.085Z</time></trkpt><trkpt lat="45.4766242" lon="11.5966899"><ele>236.83333333333331</ele><time>2026-04-06T07:55:59.084Z</time></trkpt><trkpt lat="45.4767374" lon="11.5966511"><ele>238.0</ele><time>2026-04-06T07:56:01.084Z</time></trkpt><trkpt lat="45.4766693" lon="11.5966369"><ele>238.0</ele><time>2026-04-06T07:56:03.092Z</time></trkpt><trkpt lat="45.4767246" lon="11.5965876"><ele>238.0</ele><time>2026-04-06T07:56:05.092Z</time></trkpt><trkpt lat="45.4767869" lon="11.5965473"><ele>238.0</ele><time>2026-04-06T07:56:07.084Z</time></trkpt><trkpt lat="45.4768465" lon="11.5965069"><ele>238.0</ele><time>2026-04-06T07:56:10.133Z</time></trkpt><trkpt lat="45.4769249" lon="11.5964495"><ele>238.0</ele><time>2026-04-06T07:56:12.084Z</time></trkpt><trkpt lat="45.4769862" lon="11.596418"><ele>238.0</ele><time>2026-04-06T07:56:14.146Z</time></trkpt><trkpt lat="45.4770446" lon="11.5963466"><ele>238.0</ele><time>2026-04-06T07:56:16.084Z</time></trkpt><trkpt lat="45.4770451" lon="11.596246"><ele>237.16666666666666</ele><time>2026-04-06T07:56:19.096Z</time></trkpt><trkpt lat="45.4770302" lon="11.5961347"><ele>236.33333333333331</ele><time>2026-04-06T07:56:21.084Z</time></trkpt><trkpt lat="45.4769933" lon="11.5960324"><ele>235.5</ele><time>2026-04-06T07:56:24.106Z</time></trkpt><trkpt lat="45.476956" lon="11.5959516"><ele>234.66666666666669</ele><time>2026-04-06T07:56:25.084Z</time></trkpt><trkpt lat="45.4769008" lon="11.5958799"><ele>233.83333333333334</ele><time>2026-04-06T07:56:27.094Z</time></trkpt><trkpt lat="45.4769106" lon="11.5957351"><ele>233.0</ele><time>2026-04-06T07:56:29.084Z</time></trkpt><trkpt lat="45.4769663" lon="11.5956696"><ele>233.0</ele><time>2026-04-06T07:56:31.084Z</time></trkpt><trkpt lat="45.4770177" lon="11.5955883"><ele>233.0</ele><time>2026-04-06T07:56:33.084Z</time></trkpt><trkpt lat="45.4770706" lon="11.5955349"><ele>233.0</ele><time>2026-04-06T07:56:36.084Z</time></trkpt><trkpt lat="45.4771247" lon="11.5953483"><ele>233.0</ele><time>2026-04-06T07:56:38.084Z</time></trkpt><trkpt lat="45.477133" lon="11.5952159"><ele>233.0</ele><time>2026-04-06T07:56:39.084Z</time></trkpt><trkpt lat="45.4771357" lon="11.5950992"><ele>231.16666666666669</ele><time>2026-04-06T07:56:40.084Z</time></trkpt><trkpt lat="45.477138" lon="11.5950017"><ele>229.33333333333334</ele><time>2026-04-06T07:56:41.084Z</time></trkpt><trkpt lat="45.4771657" lon="11.5948493"><ele>227.5</ele><time>2026-04-06T07:56:43.084Z</time></trkpt><trkpt lat="45.477208" lon="11.5947349"><ele>225.66666666666669</ele><time>2026-04-06T07:56:45.084Z</time></trkpt><trkpt lat="45.4772479" lon="11.5946608"><ele>223.83333333333334</ele><time>2026-04-06T07:56:47.084Z</time></trkpt><trkpt lat="45.4772895" lon="11.5945832"><ele>222.0</ele><time>2026-04-06T07:56:49.084Z</time></trkpt><trkpt lat="45.4773108" lon="11.5944778"><ele>222.0</ele><time>2026-04-06T07:56:53.084Z</time></trkpt><trkpt lat="45.4773595" lon="11.5943842"><ele>222.0</ele><time>2026-04-06T07:56:57.084Z</time></trkpt><trkpt lat="45.4774207" lon="11.5942955"><ele>222.0</ele><time>2026-04-06T07:57:00.084Z</time></trkpt><trkpt lat="45.4774681" lon="11.5942349"><ele>222.0</ele><time>2026-04-06T07:57:02.084Z</time></trkpt><trkpt lat="45.4775172" lon="11.5941729"><ele>222.0</ele><time>2026-04-06T07:57:04.084Z</time></trkpt><trkpt lat="45.4775808" lon="11.5941083"><ele>222.0</ele><time>2026-04-06T07:57:07.084Z</time></trkpt><trkpt lat="45.4776449" lon="11.5941028"><ele>222.0</ele><time>2026-04-06T07:57:10.084Z</time></trkpt><trkpt lat="45.4777197" lon="11.5940844"><ele>222.0</ele><time>2026-04-06T07:57:14.084Z</time></trkpt><trkpt lat="45.4777851" lon="11.5940552"><ele>222.0</ele><time>2026-04-06T07:57:21.084Z</time></trkpt><trkpt lat="45.4778173" lon="11.5939649"><ele>222.0</ele><time>2026-04-06T07:57:26.085Z</time></trkpt><trkpt lat="45.4778699" lon="11.5939127"><ele>222.0</ele><time>2026-04-06T07:57:29.084Z</time></trkpt><trkpt lat="45.4779196" lon="11.5938515"><ele>222.0</ele><time>2026-04-06T07:57:32.084Z</time></trkpt><trkpt lat="45.4779167" lon="11.5937445"><ele>222.0</ele><time>2026-04-06T07:57:36.084Z</time></trkpt><trkpt lat="45.4779227" lon="11.5936489"><ele>222.0</ele><time>2026-04-06T07:57:40.084Z</time></trkpt><trkpt lat="45.4778834" lon="11.5935556"><ele>222.5</ele><time>2026-04-06T07:57:44.084Z</time></trkpt><trkpt lat="45.4778039" lon="11.5935712"><ele>223.0</ele><time>2026-04-06T07:57:53.084Z</time></trkpt><trkpt lat="45.4777211" lon="11.5935046"><ele>223.5</ele><time>2026-04-06T07:57:57.084Z</time></trkpt><trkpt lat="45.47772" lon="11.5934038"><ele>224.0</ele><time>2026-04-06T07:58:00.084Z</time></trkpt><trkpt lat="45.4777247" lon="11.593295"><ele>224.5</ele><time>2026-04-06T07:58:04.084Z</time></trkpt><trkpt lat="45.4777457" lon="11.5931974"><ele>225.0</ele><time>2026-04-06T07:58:08.084Z</time></trkpt><trkpt lat="45.4777611" lon="11.5930994"><ele>225.00000000000003</ele><time>2026-04-06T07:58:12.084Z</time></trkpt><trkpt lat="45.4777751" lon="11.5929958"><ele>225.0</ele><time>2026-04-06T07:58:16.084Z</time></trkpt><trkpt lat="45.4777794" lon="11.5928941"><ele>225.00000000000003</ele><time>2026-04-06T07:58:21.084Z</time></trkpt><trkpt lat="45.4777769" lon="11.5927904"><ele>225.00000000000003</ele><time>2026-04-06T07:58:24.084Z</time></trkpt><trkpt lat="45.477752" lon="11.5926776"><ele>225.0</ele><time>2026-04-06T07:58:28.084Z</time></trkpt><trkpt lat="45.477739" lon="11.5925807"><ele>225.00000000000003</ele><time>2026-04-06T07:58:32.084Z</time></trkpt><trkpt lat="45.477721" lon="11.5924768"><ele>225.00000000000003</ele><time>2026-04-06T07:58:36.084Z</time></trkpt><trkpt lat="45.4777328" lon="11.5923706"><ele>226.14285714285717</ele><time>2026-04-06T07:58:40.084Z</time></trkpt><trkpt lat="45.4777615" lon="11.5922794"><ele>227.28571428571428</ele><time>2026-04-06T07:58:44.084Z</time></trkpt><trkpt lat="45.4777843" lon="11.592183"><ele>228.42857142857144</ele><time>2026-04-06T07:58:48.084Z</time></trkpt><trkpt lat="45.4777837" lon="11.5920859"><ele>229.57142857142858</ele><time>2026-04-06T07:58:51.084Z</time></trkpt><trkpt lat="45.4778134" lon="11.5919763"><ele>230.71428571428572</ele><time>2026-04-06T07:58:55.084Z</time></trkpt><trkpt lat="45.4778294" lon="11.5918819"><ele>231.85714285714286</ele><time>2026-04-06T07:58:58.084Z</time></trkpt><trkpt lat="45.4778327" lon="11.5917859"><ele>233.0</ele><time>2026-04-06T07:59:01.084Z</time></trkpt><trkpt lat="45.4778305" lon="11.5916785"><ele>232.83333333333334</ele><time>2026-04-06T07:59:04.084Z</time></trkpt><trkpt lat="45.4778512" lon="11.5915846"><ele>232.66666666666669</ele><time>2026-04-06T07:59:08.085Z</time></trkpt><trkpt lat="45.4778933" lon="11.5914912"><ele>232.5</ele><time>2026-04-06T08:00:21.084Z</time></trkpt><trkpt lat="45.4779345" lon="11.5913869"><ele>232.33333333333331</ele><time>2026-04-06T08:00:24.084Z</time></trkpt><trkpt lat="45.4779546" lon="11.591244"><ele>232.16666666666666</ele><time>2026-04-06T08:00:26.084Z</time></trkpt><trkpt lat="45.4779826" lon="11.5910888"><ele>232.0</ele><time>2026-04-06T08:00:28.084Z</time></trkpt><trkpt lat="45.477954" lon="11.5909435"><ele>232.00000000000003</ele><time>2026-04-06T08:00:30.084Z</time></trkpt><trkpt lat="45.4779561" lon="11.5908526"><ele>232.0</ele><time>2026-04-06T08:00:32.084Z</time></trkpt><trkpt lat="45.4779484" lon="11.5907472"><ele>232.00000000000003</ele><time>2026-04-06T08:00:35.084Z</time></trkpt><trkpt lat="45.4779516" lon="11.5906403"><ele>232.00000000000003</ele><time>2026-04-06T08:00:38.084Z</time></trkpt><trkpt lat="45.4779584" lon="11.5905495"><ele>232.0</ele><time>2026-04-06T08:00:40.084Z</time></trkpt><trkpt lat="45.477976" lon="11.5904583"><ele>232.00000000000003</ele><time>2026-04-06T08:00:42.084Z</time></trkpt><trkpt lat="45.4779926" lon="11.5903408"><ele>232.00000000000003</ele><time>2026-04-06T08:00:45.084Z</time></trkpt><trkpt lat="45.4779946" lon="11.59025"><ele>232.99999999999997</ele><time>2026-04-06T08:00:47.084Z</time></trkpt><trkpt lat="45.4779825" lon="11.5901569"><ele>234.0</ele><time>2026-04-06T08:00:49.084Z</time></trkpt><trkpt lat="45.4780036" lon="11.5900592"><ele>235.0</ele><time>2026-04-06T08:00:51.084Z</time></trkpt><trkpt lat="45.4780307" lon="11.5899763"><ele>236.0</ele><time>2026-04-06T08:00:54.084Z</time></trkpt><trkpt lat="45.4780686" lon="11.5898604"><ele>236.99999999999997</ele><time>2026-04-06T08:00:56.084Z</time></trkpt><trkpt lat="45.4780949" lon="11.5897716"><ele>238.0</ele><time>2026-04-06T08:00:59.005Z</time></trkpt><trkpt lat="45.4781174" lon="11.5896431"><ele>237.99999999999997</ele><time>2026-04-06T08:01:01.084Z</time></trkpt><trkpt lat="45.4781315" lon="11.5895419"><ele>238.0</ele><time>2026-04-06T08:01:02.98Z</time></trkpt><trkpt lat="45.4781417" lon="11.5894471"><ele>238.0</ele><time>2026-04-06T08:01:05.084Z</time></trkpt><trkpt lat="45.4781476" lon="11.5893439"><ele>238.0</ele><time>2026-04-06T08:01:07.091Z</time></trkpt><trkpt lat="45.4781882" lon="11.5892294"><ele>237.99999999999997</ele><time>2026-04-06T08:01:10.084Z</time></trkpt><trkpt lat="45.4782669" lon="11.5891607"><ele>238.0</ele><time>2026-04-06T08:01:13.084Z</time></trkpt><trkpt lat="45.478333" lon="11.5890768"><ele>238.83333333333331</ele><time>2026-04-06T08:01:16.084Z</time></trkpt><trkpt lat="45.4783718" lon="11.5890008"><ele>239.66666666666666</ele><time>2026-04-06T08:01:18.084Z</time></trkpt><trkpt lat="45.478413" lon="11.588924"><ele>240.5</ele><time>2026-04-06T08:01:20.084Z</time></trkpt><trkpt lat="45.478468" lon="11.5888198"><ele>241.33333333333331</ele><time>2026-04-06T08:01:23.084Z</time></trkpt><trkpt lat="45.4785215" lon="11.5887196"><ele>242.16666666666666</ele><time>2026-04-06T08:01:26.084Z</time></trkpt><trkpt lat="45.4785946" lon="11.5886402"><ele>243.0</ele><time>2026-04-06T08:01:29.084Z</time></trkpt><trkpt lat="45.4786597" lon="11.5885587"><ele>242.5</ele><time>2026-04-06T08:01:32.116Z</time></trkpt><trkpt lat="45.4786979" lon="11.5884873"><ele>242.0</ele><time>2026-04-06T08:01:33.991Z</time></trkpt><trkpt lat="45.4787368" lon="11.5883853"><ele>241.5</ele><time>2026-04-06T08:01:36.084Z</time></trkpt><trkpt lat="45.4787963" lon="11.5882584"><ele>241.0</ele><time>2026-04-06T08:01:38.084Z</time></trkpt><trkpt lat="45.4788327" lon="11.5881664"><ele>240.5</ele><time>2026-04-06T08:01:39.084Z</time></trkpt><trkpt lat="45.4788568" lon="11.588049"><ele>240.0</ele><time>2026-04-06T08:01:40.084Z</time></trkpt><trkpt lat="45.4789515" lon="11.5879103"><ele>239.83333333333334</ele><time>2026-04-06T08:01:41.084Z</time></trkpt><trkpt lat="45.4789948" lon="11.587793"><ele>239.66666666666669</ele><time>2026-04-06T08:01:42.084Z</time></trkpt><trkpt lat="45.4790199" lon="11.5876877"><ele>239.5</ele><time>2026-04-06T08:01:43.084Z</time></trkpt><trkpt lat="45.4790543" lon="11.587597"><ele>239.33333333333334</ele><time>2026-04-06T08:01:44.084Z</time></trkpt><trkpt lat="45.4790449" lon="11.5874387"><ele>239.16666666666669</ele><time>2026-04-06T08:01:46.084Z</time></trkpt><trkpt lat="45.4790141" lon="11.5873263"><ele>239.0</ele><time>2026-04-06T08:01:48.084Z</time></trkpt><trkpt lat="45.4789781" lon="11.5872358"><ele>239.00000000000003</ele><time>2026-04-06T08:01:50.084Z</time></trkpt><trkpt lat="45.4789414" lon="11.5871506"><ele>239.0</ele><time>2026-04-06T08:01:53.084Z</time></trkpt><trkpt lat="45.4789039" lon="11.5870425"><ele>239.0</ele><time>2026-04-06T08:01:56.088Z</time></trkpt><trkpt lat="45.4788274" lon="11.5870207"><ele>239.0</ele><time>2026-04-06T08:01:58.12Z</time></trkpt><trkpt lat="45.4787449" lon="11.5870425"><ele>239.00000000000003</ele><time>2026-04-06T08:02:01.061Z</time></trkpt><trkpt lat="45.4786733" lon="11.5871213"><ele>239.0</ele><time>2026-04-06T08:02:04.095Z</time></trkpt><trkpt lat="45.4786018" lon="11.5871673"><ele>240.66666666666669</ele><time>2026-04-06T08:02:06.993Z</time></trkpt><trkpt lat="45.4785319" lon="11.5872039"><ele>242.33333333333334</ele><time>2026-04-06T08:02:10.046Z</time></trkpt><trkpt lat="45.4784645" lon="11.5872529"><ele>244.0</ele><time>2026-04-06T08:02:13.084Z</time></trkpt><trkpt lat="45.4784209" lon="11.5873407"><ele>245.66666666666669</ele><time>2026-04-06T08:02:16.084Z</time></trkpt><trkpt lat="45.4783731" lon="11.5874175"><ele>247.33333333333334</ele><time>2026-04-06T08:02:19.084Z</time></trkpt><trkpt lat="45.478314" lon="11.5875045"><ele>249.0</ele><time>2026-04-06T08:02:22.048Z</time></trkpt><trkpt lat="45.4782687" lon="11.5876043"><ele>249.0</ele><time>2026-04-06T08:02:25.026Z</time></trkpt><trkpt lat="45.4782312" lon="11.5877053"><ele>249.0</ele><time>2026-04-06T08:02:28.117Z</time></trkpt><trkpt lat="45.4781894" lon="11.5877939"><ele>249.0</ele><time>2026-04-06T08:02:31.104Z</time></trkpt><trkpt lat="45.4781328" lon="11.5878595"><ele>249.0</ele><time>2026-04-06T08:02:34.092Z</time></trkpt><trkpt lat="45.4780691" lon="11.587941"><ele>249.0</ele><time>2026-04-06T08:02:38.084Z</time></trkpt><trkpt lat="45.477993" lon="11.5879491"><ele>249.0</ele><time>2026-04-06T08:02:41.084Z</time></trkpt><trkpt lat="45.4779212" lon="11.5879001"><ele>250.5</ele><time>2026-04-06T08:02:45.043Z</time></trkpt><trkpt lat="45.4778518" lon="11.5878413"><ele>252.0</ele><time>2026-04-06T08:02:49.084Z</time></trkpt><trkpt lat="45.4777948" lon="11.587796"><ele>253.5</ele><time>2026-04-06T08:02:52.084Z</time></trkpt><trkpt lat="45.4777268" lon="11.5877648"><ele>255.0</ele><time>2026-04-06T08:02:55.086Z</time></trkpt><trkpt lat="45.47765" lon="11.5877667"><ele>256.5</ele><time>2026-04-06T08:02:58.084Z</time></trkpt><trkpt lat="45.4775643" lon="11.58776"><ele>258.0</ele><time>2026-04-06T08:03:01.084Z</time></trkpt><trkpt lat="45.4774897" lon="11.5877554"><ele>257.99999999999994</ele><time>2026-04-06T08:03:05.084Z</time></trkpt><trkpt lat="45.4774266" lon="11.5877699"><ele>258.0</ele><time>2026-04-06T08:03:08.046Z</time></trkpt><trkpt lat="45.4773534" lon="11.5877955"><ele>258.0</ele><time>2026-04-06T08:03:11.1Z</time></trkpt><trkpt lat="45.47729" lon="11.5878265"><ele>258.0</ele><time>2026-04-06T08:03:14.088Z</time></trkpt><trkpt lat="45.4772253" lon="11.5878737"><ele>258.0</ele><time>2026-04-06T08:03:17.08Z</time></trkpt><trkpt lat="45.4771461" lon="11.5878805"><ele>257.99999999999994</ele><time>2026-04-06T08:03:20.084Z</time></trkpt><trkpt lat="45.4770633" lon="11.5879074"><ele>258.0</ele><time>2026-04-06T08:03:23.084Z</time></trkpt><trkpt lat="45.4769958" lon="11.5879198"><ele>259.5</ele><time>2026-04-06T08:03:26.084Z</time></trkpt><trkpt lat="45.4769275" lon="11.5879269"><ele>261.0</ele><time>2026-04-06T08:03:29.084Z</time></trkpt><trkpt lat="45.4768415" lon="11.5879254"><ele>262.5</ele><time>2026-04-06T08:03:32.084Z</time></trkpt><trkpt lat="45.4767645" lon="11.5879097"><ele>264.0</ele><time>2026-04-06T08:03:35.106Z</time></trkpt><trkpt lat="45.4766968" lon="11.5878852"><ele>265.5</ele><time>2026-04-06T08:03:38.109Z</time></trkpt><trkpt lat="45.4766206" lon="11.5878689"><ele>267.0</ele><time>2026-04-06T08:03:41.459Z</time></trkpt><trkpt lat="45.476541" lon="11.5878727"><ele>267.00000000000006</ele><time>2026-04-06T08:03:45.084Z</time></trkpt><trkpt lat="45.4764804" lon="11.5879071"><ele>267.0</ele><time>2026-04-06T08:03:48.084Z</time></trkpt><trkpt lat="45.4764173" lon="11.5879411"><ele>267.0</ele><time>2026-04-06T08:03:51.102Z</time></trkpt><trkpt lat="45.4763377" lon="11.5879749"><ele>267.0</ele><time>2026-04-06T08:03:55.084Z</time></trkpt><trkpt lat="45.4762562" lon="11.5880045"><ele>267.0</ele><time>2026-04-06T08:03:59.054Z</time></trkpt><trkpt lat="45.4761905" lon="11.5880105"><ele>267.00000000000006</ele><time>2026-04-06T08:04:02.084Z</time></trkpt><trkpt lat="45.4761117" lon="11.5880046"><ele>267.0</ele><time>2026-04-06T08:04:06.084Z</time></trkpt><trkpt lat="45.4760416" lon="11.5880361"><ele>268.28571428571433</ele><time>2026-04-06T08:04:10.002Z</time></trkpt><trkpt lat="45.4759785" lon="11.5880655"><ele>269.57142857142856</ele><time>2026-04-06T08:04:13.078Z</time></trkpt><trkpt lat="45.4759012" lon="11.5880978"><ele>270.8571428571429</ele><time>2026-04-06T08:04:17.084Z</time></trkpt><trkpt lat="45.4758285" lon="11.5881255"><ele>272.14285714285717</ele><time>2026-04-06T08:04:21.091Z</time></trkpt><trkpt lat="45.4758014" lon="11.5880413"><ele>273.42857142857144</ele><time>2026-04-06T08:04:28.084Z</time></trkpt><trkpt lat="45.4757679" lon="11.587947"><ele>274.7142857142857</ele><time>2026-04-06T08:04:39.098Z</time></trkpt><trkpt lat="45.4757383" lon="11.5878487"><ele>276.0</ele><time>2026-04-06T08:04:42.204Z</time></trkpt><trkpt lat="45.4757058" lon="11.5877253"><ele>277.5</ele><time>2026-04-06T08:04:45.084Z</time></trkpt><trkpt lat="45.4756903" lon="11.5876366"><ele>279.0</ele><time>2026-04-06T08:04:47.184Z</time></trkpt><trkpt lat="45.475684" lon="11.5875291"><ele>280.5</ele><time>2026-04-06T08:04:49.063Z</time></trkpt><trkpt lat="45.4757115" lon="11.5874122"><ele>282.0</ele><time>2026-04-06T08:04:51.088Z</time></trkpt><trkpt lat="45.4757733" lon="11.5873057"><ele>283.5</ele><time>2026-04-06T08:04:53.084Z</time></trkpt><trkpt lat="45.4758184" lon="11.5872166"><ele>285.0</ele><time>2026-04-06T08:04:55.084Z</time></trkpt><trkpt lat="45.4758654" lon="11.5871381"><ele>285.0</ele><time>2026-04-06T08:04:57.103Z</time></trkpt><trkpt lat="45.4759156" lon="11.5870597"><ele>285.0</ele><time>2026-04-06T08:04:59.134Z</time></trkpt><trkpt lat="45.475956" lon="11.5869782"><ele>285.0</ele><time>2026-04-06T08:05:01.084Z</time></trkpt><trkpt lat="45.4760065" lon="11.5868978"><ele>285.0</ele><time>2026-04-06T08:05:03.084Z</time></trkpt><trkpt lat="45.4760639" lon="11.5868229"><ele>285.0</ele><time>2026-04-06T08:05:05.11Z</time></trkpt><trkpt lat="45.476125" lon="11.5867513"><ele>285.0</ele><time>2026-04-06T08:05:07.141Z</time></trkpt><trkpt lat="45.4761874" lon="11.5866753"><ele>283.85714285714283</ele><time>2026-04-06T08:05:09.084Z</time></trkpt><trkpt lat="45.4762405" lon="11.5866005"><ele>282.7142857142857</ele><time>2026-04-06T08:05:11.085Z</time></trkpt><trkpt lat="45.4762833" lon="11.5865091"><ele>281.57142857142856</ele><time>2026-04-06T08:05:13.117Z</time></trkpt><trkpt lat="45.4763109" lon="11.5864174"><ele>280.42857142857144</ele><time>2026-04-06T08:05:15.084Z</time></trkpt><trkpt lat="45.4763414" lon="11.5863206"><ele>279.2857142857143</ele><time>2026-04-06T08:05:17.084Z</time></trkpt><trkpt lat="45.4763644" lon="11.5862235"><ele>278.1428571428571</ele><time>2026-04-06T08:05:19.092Z</time></trkpt><trkpt lat="45.4763741" lon="11.5861287"><ele>277.0</ele><time>2026-04-06T08:05:21.084Z</time></trkpt><trkpt lat="45.4763883" lon="11.5860367"><ele>277.0</ele><time>2026-04-06T08:05:23.084Z</time></trkpt><trkpt lat="45.4764247" lon="11.5859172"><ele>277.0</ele><time>2026-04-06T08:05:26.084Z</time></trkpt><trkpt lat="45.4764436" lon="11.5858249"><ele>277.0</ele><time>2026-04-06T08:05:28.085Z</time></trkpt><trkpt lat="45.476459" lon="11.5857137"><ele>277.0</ele><time>2026-04-06T08:05:31.084Z</time></trkpt><trkpt lat="45.4764733" lon="11.5856025"><ele>277.0</ele><time>2026-04-06T08:05:34.084Z</time></trkpt><trkpt lat="45.4764985" lon="11.5855131"><ele>277.0</ele><time>2026-04-06T08:05:36.085Z</time></trkpt><trkpt lat="45.4765463" lon="11.5854097"><ele>277.5</ele><time>2026-04-06T08:05:39.084Z</time></trkpt><trkpt lat="45.4765572" lon="11.5852783"><ele>278.0</ele><time>2026-04-06T08:05:42.084Z</time></trkpt><trkpt lat="45.4765757" lon="11.5851567"><ele>278.5</ele><time>2026-04-06T08:05:45.084Z</time></trkpt><trkpt lat="45.4765799" lon="11.5850314"><ele>279.0</ele><time>2026-04-06T08:05:48.084Z</time></trkpt><trkpt lat="45.4765936" lon="11.584912"><ele>279.5</ele><time>2026-04-06T08:05:51.084Z</time></trkpt><trkpt lat="45.4765761" lon="11.5847983"><ele>280.0</ele><time>2026-04-06T08:05:54.085Z</time></trkpt><trkpt lat="45.4765411" lon="11.5847008"><ele>280.0</ele><time>2026-04-06T08:05:57.084Z</time></trkpt><trkpt lat="45.4765129" lon="11.5845849"><ele>280.0</ele><time>2026-04-06T08:06:00.084Z</time></trkpt><trkpt lat="45.4764937" lon="11.5844924"><ele>280.0</ele><time>2026-04-06T08:06:02.084Z</time></trkpt><trkpt lat="45.4764714" lon="11.5844082"><ele>280.0</ele><time>2026-04-06T08:06:04.084Z</time></trkpt><trkpt lat="45.4764609" lon="11.584283"><ele>280.0</ele><time>2026-04-06T08:06:07.084Z</time></trkpt><trkpt lat="45.4764658" lon="11.5841605"><ele>280.0</ele><time>2026-04-06T08:06:10.084Z</time></trkpt><trkpt lat="45.476452" lon="11.5840625"><ele>280.0</ele><time>2026-04-06T08:06:12.084Z</time></trkpt><trkpt lat="45.4764316" lon="11.5839547"><ele>280.0</ele><time>2026-04-06T08:06:14.084Z</time></trkpt><trkpt lat="45.4764239" lon="11.5838569"><ele>280.0</ele><time>2026-04-06T08:06:16.084Z</time></trkpt><trkpt lat="45.4764063" lon="11.5837538"><ele>280.0</ele><time>2026-04-06T08:06:18.084Z</time></trkpt><trkpt lat="45.4763918" lon="11.5836609"><ele>280.0</ele><time>2026-04-06T08:06:20.084Z</time></trkpt><trkpt lat="45.4763933" lon="11.5835663"><ele>280.0</ele><time>2026-04-06T08:06:22.084Z</time></trkpt><trkpt lat="45.4764066" lon="11.5834288"><ele>280.0</ele><time>2026-04-06T08:06:25.084Z</time></trkpt><trkpt lat="45.4764266" lon="11.5833332"><ele>280.0</ele><time>2026-04-06T08:06:27.084Z</time></trkpt><trkpt lat="45.4764368" lon="11.5832385"><ele>280.0</ele><time>2026-04-06T08:06:29.084Z</time></trkpt><trkpt lat="45.4764438" lon="11.5831419"><ele>280.0</ele><time>2026-04-06T08:06:31.084Z</time></trkpt><trkpt lat="45.4764339" lon="11.583043"><ele>280.0</ele><time>2026-04-06T08:06:33.084Z</time></trkpt><trkpt lat="45.4764384" lon="11.5829459"><ele>280.0</ele><time>2026-04-06T08:06:35.084Z</time></trkpt><trkpt lat="45.4764386" lon="11.5828557"><ele>280.0</ele><time>2026-04-06T08:06:37.084Z</time></trkpt><trkpt lat="45.4764325" lon="11.5827635"><ele>280.57142857142856</ele><time>2026-04-06T08:06:39.084Z</time></trkpt><trkpt lat="45.4764294" lon="11.5826657"><ele>281.1428571428571</ele><time>2026-04-06T08:06:41.084Z</time></trkpt><trkpt lat="45.4764484" lon="11.582573"><ele>281.7142857142857</ele><time>2026-04-06T08:06:43.084Z</time></trkpt><trkpt lat="45.4764533" lon="11.582483"><ele>282.2857142857143</ele><time>2026-04-06T08:06:45.084Z</time></trkpt><trkpt lat="45.4764614" lon="11.5823591"><ele>282.85714285714283</ele><time>2026-04-06T08:06:48.084Z</time></trkpt><trkpt lat="45.4764639" lon="11.5822671"><ele>283.42857142857144</ele><time>2026-04-06T08:06:50.084Z</time></trkpt><trkpt lat="45.4764537" lon="11.5821639"><ele>284.0</ele><time>2026-04-06T08:06:52.084Z</time></trkpt><trkpt lat="45.4764476" lon="11.5820351"><ele>283.85714285714283</ele><time>2026-04-06T08:06:55.084Z</time></trkpt><trkpt lat="45.4764502" lon="11.5819363"><ele>283.71428571428567</ele><time>2026-04-06T08:06:57.084Z</time></trkpt><trkpt lat="45.4764696" lon="11.5818134"><ele>283.57142857142856</ele><time>2026-04-06T08:07:00.084Z</time></trkpt><trkpt lat="45.4764722" lon="11.5817079"><ele>283.42857142857144</ele><time>2026-04-06T08:07:02.084Z</time></trkpt><trkpt lat="45.4764665" lon="11.5816146"><ele>283.28571428571433</ele><time>2026-04-06T08:07:04.084Z</time></trkpt><trkpt lat="45.4764651" lon="11.581524"><ele>283.14285714285717</ele><time>2026-04-06T08:07:06.084Z</time></trkpt><trkpt lat="45.4764593" lon="11.5814248"><ele>283.0</ele><time>2026-04-06T08:07:08.084Z</time></trkpt><trkpt lat="45.4764512" lon="11.5813323"><ele>283.0</ele><time>2026-04-06T08:07:10.084Z</time></trkpt><trkpt lat="45.4764625" lon="11.5812029"><ele>283.0</ele><time>2026-04-06T08:07:13.084Z</time></trkpt><trkpt lat="45.4764726" lon="11.5811069"><ele>283.0</ele><time>2026-04-06T08:07:15.084Z</time></trkpt><trkpt lat="45.4764867" lon="11.5809827"><ele>283.0</ele><time>2026-04-06T08:07:18.084Z</time></trkpt><trkpt lat="45.4764746" lon="11.5808911"><ele>283.0</ele><time>2026-04-06T08:07:20.084Z</time></trkpt><trkpt lat="45.4764564" lon="11.5807997"><ele>283.0</ele><time>2026-04-06T08:07:22.084Z</time></trkpt><trkpt lat="45.4764075" lon="11.580707"><ele>283.2</ele><time>2026-04-06T08:07:24.084Z</time></trkpt><trkpt lat="45.4763404" lon="11.5806368"><ele>283.4</ele><time>2026-04-06T08:07:26.084Z</time></trkpt><trkpt lat="45.4762774" lon="11.5805592"><ele>283.59999999999997</ele><time>2026-04-06T08:07:28.084Z</time></trkpt><trkpt lat="45.476215" lon="11.5804435"><ele>283.8</ele><time>2026-04-06T08:07:30.084Z</time></trkpt><trkpt lat="45.4761912" lon="11.580286"><ele>284.0</ele><time>2026-04-06T08:07:32.084Z</time></trkpt><trkpt lat="45.4762071" lon="11.5801069"><ele>283.83333333333337</ele><time>2026-04-06T08:07:34.084Z</time></trkpt><trkpt lat="45.4762079" lon="11.5800084"><ele>283.6666666666667</ele><time>2026-04-06T08:07:35.084Z</time></trkpt><trkpt lat="45.4762064" lon="11.5799016"><ele>283.5</ele><time>2026-04-06T08:07:36.084Z</time></trkpt><trkpt lat="45.4762525" lon="11.5797756"><ele>283.3333333333333</ele><time>2026-04-06T08:07:37.084Z</time></trkpt><trkpt lat="45.4762761" lon="11.5796663"><ele>283.16666666666663</ele><time>2026-04-06T08:07:38.084Z</time></trkpt><trkpt lat="45.476298" lon="11.5795369"><ele>283.0</ele><time>2026-04-06T08:07:39.084Z</time></trkpt><trkpt lat="45.4763336" lon="11.5794033"><ele>281.0</ele><time>2026-04-06T08:07:40.084Z</time></trkpt><trkpt lat="45.4763353" lon="11.579257"><ele>279.0</ele><time>2026-04-06T08:07:41.084Z</time></trkpt><trkpt lat="45.4763058" lon="11.5791086"><ele>277.0</ele><time>2026-04-06T08:07:42.084Z</time></trkpt><trkpt lat="45.4762743" lon="11.5789785"><ele>275.0</ele><time>2026-04-06T08:07:43.084Z</time></trkpt><trkpt lat="45.4762261" lon="11.5788623"><ele>273.0</ele><time>2026-04-06T08:07:44.084Z</time></trkpt><trkpt lat="45.4761724" lon="11.5787421"><ele>273.6666666666667</ele><time>2026-04-06T08:07:45.084Z</time></trkpt><trkpt lat="45.4761261" lon="11.5786267"><ele>274.3333333333333</ele><time>2026-04-06T08:07:46.084Z</time></trkpt><trkpt lat="45.4760727" lon="11.5785185"><ele>275.0</ele><time>2026-04-06T08:07:47.084Z</time></trkpt><trkpt lat="45.4760245" lon="11.5784208"><ele>275.66666666666663</ele><time>2026-04-06T08:07:48.084Z</time></trkpt><trkpt lat="45.475965" lon="11.5783343"><ele>276.3333333333333</ele><time>2026-04-06T08:07:49.084Z</time></trkpt><trkpt lat="45.4759132" lon="11.5782804"><ele>277.0</ele><time>2026-04-06T08:07:50.084Z</time></trkpt><trkpt lat="45.475817" lon="11.5782392"><ele>277.0</ele><time>2026-04-06T08:07:52.084Z</time></trkpt><trkpt lat="45.4757521" lon="11.5782206"><ele>277.0</ele><time>2026-04-06T08:07:54.084Z</time></trkpt><trkpt lat="45.4756801" lon="11.5782461"><ele>277.0</ele><time>2026-04-06T08:07:57.084Z</time></trkpt><trkpt lat="45.4755958" lon="11.5782532"><ele>277.0</ele><time>2026-04-06T08:08:00.084Z</time></trkpt><trkpt lat="45.4755124" lon="11.5782743"><ele>277.0</ele><time>2026-04-06T08:08:03.084Z</time></trkpt><trkpt lat="45.4754224" lon="11.5782822"><ele>277.0</ele><time>2026-04-06T08:08:06.084Z</time></trkpt><trkpt lat="45.4753574" lon="11.5782919"><ele>276.8333333333333</ele><time>2026-04-06T08:08:08.084Z</time></trkpt><trkpt lat="45.4752615" lon="11.5782938"><ele>276.66666666666663</ele><time>2026-04-06T08:08:11.084Z</time></trkpt><trkpt lat="45.475174" lon="11.5782916"><ele>276.5</ele><time>2026-04-06T08:08:14.084Z</time></trkpt><trkpt lat="45.4751064" lon="11.5782569"><ele>276.3333333333333</ele><time>2026-04-06T08:08:16.084Z</time></trkpt><trkpt lat="45.4750255" lon="11.5782157"><ele>276.1666666666667</ele><time>2026-04-06T08:08:18.084Z</time></trkpt><trkpt lat="45.474941" lon="11.5781466"><ele>276.0</ele><time>2026-04-06T08:08:20.084Z</time></trkpt><trkpt lat="45.4748795" lon="11.5780629"><ele>276.0</ele><time>2026-04-06T08:08:22.084Z</time></trkpt><trkpt lat="45.4748187" lon="11.5780049"><ele>276.0</ele><time>2026-04-06T08:08:23.084Z</time></trkpt><trkpt lat="45.4747593" lon="11.57794"><ele>276.0</ele><time>2026-04-06T08:08:24.084Z</time></trkpt><trkpt lat="45.4746491" lon="11.5778502"><ele>276.0</ele><time>2026-04-06T08:08:26.084Z</time></trkpt><trkpt lat="45.4745875" lon="11.5778152"><ele>276.0</ele><time>2026-04-06T08:08:27.084Z</time></trkpt><trkpt lat="45.4745169" lon="11.5777864"><ele>276.0</ele><time>2026-04-06T08:08:28.084Z</time></trkpt><trkpt lat="45.4744529" lon="11.5777594"><ele>274.8333333333333</ele><time>2026-04-06T08:08:29.084Z</time></trkpt><trkpt lat="45.4743306" lon="11.5776859"><ele>273.6666666666667</ele><time>2026-04-06T08:08:31.084Z</time></trkpt><trkpt lat="45.4742632" lon="11.5776496"><ele>272.5</ele><time>2026-04-06T08:08:32.084Z</time></trkpt><trkpt lat="45.4741863" lon="11.5775984"><ele>271.33333333333337</ele><time>2026-04-06T08:08:33.084Z</time></trkpt><trkpt lat="45.4741151" lon="11.5775577"><ele>270.1666666666667</ele><time>2026-04-06T08:08:34.084Z</time></trkpt><trkpt lat="45.4740523" lon="11.5775122"><ele>269.0</ele><time>2026-04-06T08:08:35.084Z</time></trkpt><trkpt lat="45.4739929" lon="11.5774572"><ele>269.0</ele><time>2026-04-06T08:08:36.084Z</time></trkpt><trkpt lat="45.4739605" lon="11.5773783"><ele>269.0</ele><time>2026-04-06T08:08:37.085Z</time></trkpt><trkpt lat="45.4739393" lon="11.5772803"><ele>269.0</ele><time>2026-04-06T08:08:38.084Z</time></trkpt><trkpt lat="45.4739291" lon="11.577157"><ele>269.0</ele><time>2026-04-06T08:08:39.084Z</time></trkpt><trkpt lat="45.4739322" lon="11.5770352"><ele>269.0</ele><time>2026-04-06T08:08:40.084Z</time></trkpt><trkpt lat="45.4739519" lon="11.5769177"><ele>269.0</ele><time>2026-04-06T08:08:41.084Z</time></trkpt><trkpt lat="45.4739743" lon="11.5767912"><ele>267.5</ele><time>2026-04-06T08:08:42.084Z</time></trkpt><trkpt lat="45.4740043" lon="11.5766775"><ele>266.0</ele><time>2026-04-06T08:08:43.084Z</time></trkpt><trkpt lat="45.4740589" lon="11.5765716"><ele>264.5</ele><time>2026-04-06T08:08:44.084Z</time></trkpt><trkpt lat="45.4741182" lon="11.5764893"><ele>263.0</ele><time>2026-04-06T08:08:45.084Z</time></trkpt><trkpt lat="45.4741578" lon="11.5763955"><ele>261.5</ele><time>2026-04-06T08:08:46.084Z</time></trkpt><trkpt lat="45.4742072" lon="11.5763176"><ele>260.0</ele><time>2026-04-06T08:08:47.084Z</time></trkpt><trkpt lat="45.474249" lon="11.5762326"><ele>257.83333333333337</ele><time>2026-04-06T08:08:48.084Z</time></trkpt><trkpt lat="45.474286" lon="11.5761525"><ele>255.66666666666669</ele><time>2026-04-06T08:08:49.085Z</time></trkpt><trkpt lat="45.4743581" lon="11.5760044"><ele>253.5</ele><time>2026-04-06T08:08:51.084Z</time></trkpt><trkpt lat="45.4744304" lon="11.5759114"><ele>251.33333333333331</ele><time>2026-04-06T08:08:53.084Z</time></trkpt><trkpt lat="45.4744831" lon="11.5758127"><ele>249.16666666666666</ele><time>2026-04-06T08:08:55.084Z</time></trkpt><trkpt lat="45.4745196" lon="11.5757319"><ele>247.0</ele><time>2026-04-06T08:08:57.084Z</time></trkpt><trkpt lat="45.4745533" lon="11.5756407"><ele>246.99999999999997</ele><time>2026-04-06T08:08:59.084Z</time></trkpt><trkpt lat="45.4745859" lon="11.5755484"><ele>247.0</ele><time>2026-04-06T08:09:01.084Z</time></trkpt><trkpt lat="45.4746061" lon="11.575441"><ele>247.0</ele><time>2026-04-06T08:09:03.084Z</time></trkpt><trkpt lat="45.4746064" lon="11.5753002"><ele>247.0</ele><time>2026-04-06T08:09:05.084Z</time></trkpt><trkpt lat="45.4745756" lon="11.5751874"><ele>246.99999999999997</ele><time>2026-04-06T08:09:07.084Z</time></trkpt><trkpt lat="45.4745436" lon="11.5750654"><ele>247.0</ele><time>2026-04-06T08:09:09.084Z</time></trkpt><trkpt lat="45.4745108" lon="11.5749618"><ele>247.49999999999997</ele><time>2026-04-06T08:09:11.085Z</time></trkpt><trkpt lat="45.474472" lon="11.5748682"><ele>248.0</ele><time>2026-04-06T08:09:13.084Z</time></trkpt><trkpt lat="45.4744331" lon="11.5747734"><ele>248.5</ele><time>2026-04-06T08:09:15.084Z</time></trkpt><trkpt lat="45.4743932" lon="11.5746836"><ele>249.0</ele><time>2026-04-06T08:09:17.084Z</time></trkpt><trkpt lat="45.4743593" lon="11.574594"><ele>249.49999999999997</ele><time>2026-04-06T08:09:19.084Z</time></trkpt><trkpt lat="45.4743254" lon="11.5745027"><ele>250.0</ele><time>2026-04-06T08:09:21.084Z</time></trkpt><trkpt lat="45.4742737" lon="11.5743961"><ele>251.33333333333331</ele><time>2026-04-06T08:09:24.084Z</time></trkpt><trkpt lat="45.4742237" lon="11.5742991"><ele>252.66666666666666</ele><time>2026-04-06T08:09:27.084Z</time></trkpt><trkpt lat="45.4741973" lon="11.5742103"><ele>254.0</ele><time>2026-04-06T08:09:30.084Z</time></trkpt><trkpt lat="45.474178" lon="11.5741037"><ele>255.33333333333331</ele><time>2026-04-06T08:09:33.084Z</time></trkpt><trkpt lat="45.4741413" lon="11.5739891"><ele>256.6666666666667</ele><time>2026-04-06T08:09:36.084Z</time></trkpt><trkpt lat="45.4740968" lon="11.5738728"><ele>258.0</ele><time>2026-04-06T08:09:39.084Z</time></trkpt><trkpt lat="45.4740622" lon="11.5737508"><ele>259.0</ele><time>2026-04-06T08:09:42.084Z</time></trkpt><trkpt lat="45.4740049" lon="11.5736469"><ele>260.0</ele><time>2026-04-06T08:09:45.084Z</time></trkpt><trkpt lat="45.4739313" lon="11.5736322"><ele>261.0</ele><time>2026-04-06T08:09:47.084Z</time></trkpt><trkpt lat="45.4738551" lon="11.5736492"><ele>262.0</ele><time>2026-04-06T08:09:49.084Z</time></trkpt><trkpt lat="45.4737788" lon="11.5736431"><ele>263.0</ele><time>2026-04-06T08:09:51.084Z</time></trkpt><trkpt lat="45.4737071" lon="11.5736072"><ele>264.0</ele><time>2026-04-06T08:09:53.084Z</time></trkpt><trkpt lat="45.4736357" lon="11.5735681"><ele>264.57142857142856</ele><time>2026-04-06T08:09:55.084Z</time></trkpt><trkpt lat="45.47358" lon="11.5735253"><ele>265.14285714285717</ele><time>2026-04-06T08:09:57.084Z</time></trkpt><trkpt lat="45.4735252" lon="11.5734651"><ele>265.7142857142857</ele><time>2026-04-06T08:09:59.084Z</time></trkpt><trkpt lat="45.4734621" lon="11.5733713"><ele>266.2857142857143</ele><time>2026-04-06T08:10:02.084Z</time></trkpt><trkpt lat="45.473422" lon="11.5732979"><ele>266.85714285714283</ele><time>2026-04-06T08:10:04.084Z</time></trkpt><trkpt lat="45.4733677" lon="11.5732084"><ele>267.42857142857144</ele><time>2026-04-06T08:10:07.084Z</time></trkpt><trkpt lat="45.4733232" lon="11.5731447"><ele>268.0</ele><time>2026-04-06T08:10:09.084Z</time></trkpt><trkpt lat="45.4732834" lon="11.5730564"><ele>268.0</ele><time>2026-04-06T08:10:12.084Z</time></trkpt><trkpt lat="45.4732625" lon="11.5729309"><ele>268.0</ele><time>2026-04-06T08:10:15.084Z</time></trkpt><trkpt lat="45.4732218" lon="11.5728374"><ele>268.0</ele><time>2026-04-06T08:10:17.084Z</time></trkpt><trkpt lat="45.4731429" lon="11.5727707"><ele>268.0</ele><time>2026-04-06T08:10:19.084Z</time></trkpt><trkpt lat="45.4730773" lon="11.5727176"><ele>268.0</ele><time>2026-04-06T08:10:21.083Z</time></trkpt><trkpt lat="45.4730162" lon="11.5726801"><ele>268.0</ele><time>2026-04-06T08:10:22.084Z</time></trkpt><trkpt lat="45.4729411" lon="11.5725978"><ele>267.0</ele><time>2026-04-06T08:10:24.084Z</time></trkpt><trkpt lat="45.4728507" lon="11.5725205"><ele>266.0</ele><time>2026-04-06T08:10:26.084Z</time></trkpt><trkpt lat="45.4727786" lon="11.5724968"><ele>265.0</ele><time>2026-04-06T08:10:27.084Z</time></trkpt><trkpt lat="45.4726475" lon="11.5724932"><ele>264.0</ele><time>2026-04-06T08:10:29.084Z</time></trkpt><trkpt lat="45.4725791" lon="11.5725328"><ele>263.0</ele><time>2026-04-06T08:10:31.084Z</time></trkpt><trkpt lat="45.4724844" lon="11.5725448"><ele>263.0</ele><time>2026-04-06T08:10:33.084Z</time></trkpt><trkpt lat="45.472401" lon="11.5725742"><ele>263.0</ele><time>2026-04-06T08:10:37.084Z</time></trkpt><trkpt lat="45.472319" lon="11.572575"><ele>263.0</ele><time>2026-04-06T08:10:40.084Z</time></trkpt><trkpt lat="45.4722398" lon="11.5725625"><ele>263.0</ele><time>2026-04-06T08:10:42.084Z</time></trkpt><trkpt lat="45.4721745" lon="11.5725449"><ele>263.0</ele><time>2026-04-06T08:10:44.084Z</time></trkpt><trkpt lat="45.4721022" lon="11.572512"><ele>263.0</ele><time>2026-04-06T08:10:47.084Z</time></trkpt><trkpt lat="45.4720215" lon="11.5724937"><ele>263.57142857142856</ele><time>2026-04-06T08:10:50.084Z</time></trkpt><trkpt lat="45.4719556" lon="11.5724655"><ele>264.1428571428571</ele><time>2026-04-06T08:10:53.084Z</time></trkpt><trkpt lat="45.471896" lon="11.5724244"><ele>264.7142857142857</ele><time>2026-04-06T08:10:55.084Z</time></trkpt><trkpt lat="45.4718407" lon="11.5723518"><ele>265.2857142857143</ele><time>2026-04-06T08:10:59.084Z</time></trkpt><trkpt lat="45.47177" lon="11.5722826"><ele>265.8571428571429</ele><time>2026-04-06T08:11:02.084Z</time></trkpt><trkpt lat="45.4717227" lon="11.5722026"><ele>266.42857142857144</ele><time>2026-04-06T08:11:06.084Z</time></trkpt><trkpt lat="45.4716778" lon="11.5721323"><ele>267.0</ele><time>2026-04-06T08:11:10.084Z</time></trkpt><trkpt lat="45.4716369" lon="11.5720174"><ele>267.0</ele><time>2026-04-06T08:11:14.084Z</time></trkpt><trkpt lat="45.4716146" lon="11.5719308"><ele>267.0</ele><time>2026-04-06T08:11:16.084Z</time></trkpt><trkpt lat="45.4715946" lon="11.57183"><ele>267.0</ele><time>2026-04-06T08:11:19.084Z</time></trkpt><trkpt lat="45.4716218" lon="11.571707"><ele>267.0</ele><time>2026-04-06T08:11:22.084Z</time></trkpt><trkpt lat="45.471648" lon="11.5716167"><ele>267.0</ele><time>2026-04-06T08:11:23.084Z</time></trkpt><trkpt lat="45.4716771" lon="11.5715342"><ele>267.0</ele><time>2026-04-06T08:11:24.084Z</time></trkpt><trkpt lat="45.4717224" lon="11.5713988"><ele>267.0</ele><time>2026-04-06T08:11:26.084Z</time></trkpt><trkpt lat="45.4717588" lon="11.5712768"><ele>267.0</ele><time>2026-04-06T08:11:28.084Z</time></trkpt><trkpt lat="45.4717913" lon="11.5711618"><ele>267.0</ele><time>2026-04-06T08:11:30.084Z</time></trkpt><trkpt lat="45.471811" lon="11.5710471"><ele>267.0</ele><time>2026-04-06T08:11:32.084Z</time></trkpt><trkpt lat="45.4718154" lon="11.5709131"><ele>267.0</ele><time>2026-04-06T08:11:34.084Z</time></trkpt><trkpt lat="45.471804" lon="11.5707922"><ele>267.0</ele><time>2026-04-06T08:11:36.084Z</time></trkpt><trkpt lat="45.4717984" lon="11.5706796"><ele>267.1666666666667</ele><time>2026-04-06T08:11:38.084Z</time></trkpt><trkpt lat="45.4717827" lon="11.5705728"><ele>267.3333333333333</ele><time>2026-04-06T08:11:40.084Z</time></trkpt><trkpt lat="45.4717534" lon="11.5704472"><ele>267.5</ele><time>2026-04-06T08:11:43.084Z</time></trkpt><trkpt lat="45.4717301" lon="11.5703346"><ele>267.66666666666663</ele><time>2026-04-06T08:11:46.084Z</time></trkpt><trkpt lat="45.4717001" lon="11.5702426"><ele>267.8333333333333</ele><time>2026-04-06T08:11:48.084Z</time></trkpt><trkpt lat="45.4716467" lon="11.5701669"><ele>268.0</ele><time>2026-04-06T08:11:53.084Z</time></trkpt><trkpt lat="45.4715915" lon="11.5700577"><ele>267.66666666666663</ele><time>2026-04-06T08:11:56.084Z</time></trkpt><trkpt lat="45.4715362" lon="11.5699547"><ele>267.3333333333333</ele><time>2026-04-06T08:11:59.04Z</time></trkpt><trkpt lat="45.4714826" lon="11.5698675"><ele>267.0</ele><time>2026-04-06T08:12:00.084Z</time></trkpt><trkpt lat="45.4714416" lon="11.5697754"><ele>266.6666666666667</ele><time>2026-04-06T08:12:02.177Z</time></trkpt><trkpt lat="45.4713986" lon="11.5697033"><ele>266.33333333333337</ele><time>2026-04-06T08:12:04.084Z</time></trkpt><trkpt lat="45.471358" lon="11.5696088"><ele>266.0</ele><time>2026-04-06T08:12:07.084Z</time></trkpt><trkpt lat="45.4713484" lon="11.5695098"><ele>266.85714285714283</ele><time>2026-04-06T08:12:11.084Z</time></trkpt><trkpt lat="45.4713712" lon="11.5694242"><ele>267.7142857142857</ele><time>2026-04-06T08:12:14.084Z</time></trkpt><trkpt lat="45.4713999" lon="11.5693221"><ele>268.57142857142856</ele><time>2026-04-06T08:12:17.084Z</time></trkpt><trkpt lat="45.4714526" lon="11.5692666"><ele>269.42857142857144</ele><time>2026-04-06T08:12:20.084Z</time></trkpt><trkpt lat="45.4715323" lon="11.5692384"><ele>270.2857142857143</ele><time>2026-04-06T08:12:24.085Z</time></trkpt><trkpt lat="45.4715968" lon="11.5692022"><ele>271.1428571428571</ele><time>2026-04-06T08:12:28.084Z</time></trkpt><trkpt lat="45.4716625" lon="11.5691448"><ele>272.0</ele><time>2026-04-06T08:12:32.084Z</time></trkpt><trkpt lat="45.4717161" lon="11.569087"><ele>272.0</ele><time>2026-04-06T08:12:36.084Z</time></trkpt><trkpt lat="45.47179" lon="11.5690472"><ele>272.0</ele><time>2026-04-06T08:12:40.084Z</time></trkpt><trkpt lat="45.4718569" lon="11.5690247"><ele>272.0</ele><time>2026-04-06T08:12:44.084Z</time></trkpt><trkpt lat="45.4718995" lon="11.5689279"><ele>272.0</ele><time>2026-04-06T08:12:49.085Z</time></trkpt><trkpt lat="45.47191" lon="11.5688229"><ele>272.0</ele><time>2026-04-06T08:12:53.084Z</time></trkpt><trkpt lat="45.4718779" lon="11.5687436"><ele>272.0</ele><time>2026-04-06T08:12:56.084Z</time></trkpt><trkpt lat="45.4718332" lon="11.5686379"><ele>272.5</ele><time>2026-04-06T08:13:00.084Z</time></trkpt><trkpt lat="45.4717821" lon="11.5685332"><ele>273.0</ele><time>2026-04-06T08:13:03.084Z</time></trkpt><trkpt lat="45.4717408" lon="11.568465"><ele>273.5</ele><time>2026-04-06T08:13:05.084Z</time></trkpt><trkpt lat="45.471683" lon="11.5683806"><ele>274.0</ele><time>2026-04-06T08:13:08.084Z</time></trkpt><trkpt lat="45.4716313" lon="11.5683139"><ele>274.5</ele><time>2026-04-06T08:13:10.084Z</time></trkpt><trkpt lat="45.4715738" lon="11.5682343"><ele>275.0</ele><time>2026-04-06T08:13:12.084Z</time></trkpt><trkpt lat="45.4715036" lon="11.5681574"><ele>275.0</ele><time>2026-04-06T08:13:14.084Z</time></trkpt><trkpt lat="45.471433" lon="11.5680887"><ele>275.0</ele><time>2026-04-06T08:13:17.084Z</time></trkpt><trkpt lat="45.4713972" lon="11.5679955"><ele>275.0</ele><time>2026-04-06T08:13:20.084Z</time></trkpt><trkpt lat="45.4713803" lon="11.5678702"><ele>275.0</ele><time>2026-04-06T08:13:23.084Z</time></trkpt><trkpt lat="45.4713864" lon="11.5677093"><ele>275.0</ele><time>2026-04-06T08:13:26.138Z</time></trkpt><trkpt lat="45.4714016" lon="11.5676176"><ele>275.0</ele><time>2026-04-06T08:13:28.049Z</time></trkpt><trkpt lat="45.4714248" lon="11.5674475"><ele>275.0</ele><time>2026-04-06T08:13:30.084Z</time></trkpt><trkpt lat="45.4714429" lon="11.5673437"><ele>275.0</ele><time>2026-04-06T08:13:33.084Z</time></trkpt><trkpt lat="45.4714403" lon="11.56725"><ele>275.0</ele><time>2026-04-06T08:13:35.084Z</time></trkpt><trkpt lat="45.4714595" lon="11.5671311"><ele>275.0</ele><time>2026-04-06T08:13:37.084Z</time></trkpt><trkpt lat="45.4714997" lon="11.5670229"><ele>275.0</ele><time>2026-04-06T08:13:39.084Z</time></trkpt><trkpt lat="45.4715717" lon="11.566981"><ele>275.0</ele><time>2026-04-06T08:13:40.084Z</time></trkpt><trkpt lat="45.4716034" lon="11.566898"><ele>275.6666666666667</ele><time>2026-04-06T08:13:42.084Z</time></trkpt><trkpt lat="45.4715786" lon="11.566794"><ele>276.33333333333337</ele><time>2026-04-06T08:13:44.084Z</time></trkpt><trkpt lat="45.471554" lon="11.5666986"><ele>277.0</ele><time>2026-04-06T08:13:46.084Z</time></trkpt><trkpt lat="45.4715002" lon="11.566618"><ele>277.6666666666667</ele><time>2026-04-06T08:13:51.084Z</time></trkpt><trkpt lat="45.4714305" lon="11.5665646"><ele>278.3333333333333</ele><time>2026-04-06T08:13:53.084Z</time></trkpt><trkpt lat="45.4713469" lon="11.5665527"><ele>279.0</ele><time>2026-04-06T08:13:55.084Z</time></trkpt><trkpt lat="45.4712462" lon="11.5665412"><ele>281.1666666666667</ele><time>2026-04-06T08:13:58.084Z</time></trkpt><trkpt lat="45.4711666" lon="11.5665335"><ele>283.3333333333333</ele><time>2026-04-06T08:14:00.084Z</time></trkpt><trkpt lat="45.4710597" lon="11.5665124"><ele>285.5</ele><time>2026-04-06T08:14:02.084Z</time></trkpt><trkpt lat="45.4709723" lon="11.566504"><ele>287.66666666666663</ele><time>2026-04-06T08:14:04.084Z</time></trkpt><trkpt lat="45.4708958" lon="11.5665182"><ele>289.8333333333333</ele><time>2026-04-06T08:14:06.084Z</time></trkpt><trkpt lat="45.4708297" lon="11.5665427"><ele>292.0</ele><time>2026-04-06T08:14:08.084Z</time></trkpt><trkpt lat="45.4707674" lon="11.5665742"><ele>292.0</ele><time>2026-04-06T08:14:10.084Z</time></trkpt><trkpt lat="45.4706846" lon="11.5666072"><ele>292.0</ele><time>2026-04-06T08:14:12.992Z</time></trkpt><trkpt lat="45.4706259" lon="11.5666478"><ele>292.0</ele><time>2026-04-06T08:14:16.086Z</time></trkpt><trkpt lat="45.4705612" lon="11.566628"><ele>292.0</ele><time>2026-04-06T08:14:18.084Z</time></trkpt><trkpt lat="45.4704748" lon="11.5666096"><ele>292.0</ele><time>2026-04-06T08:14:22.084Z</time></trkpt><trkpt lat="45.4704058" lon="11.5666817"><ele>292.0</ele><time>2026-04-06T08:14:25.084Z</time></trkpt><trkpt lat="45.470339" lon="11.5667164"><ele>291.0</ele><time>2026-04-06T08:14:27.084Z</time></trkpt><trkpt lat="45.4702351" lon="11.5667666"><ele>290.0</ele><time>2026-04-06T08:14:30.084Z</time></trkpt><trkpt lat="45.470146" lon="11.5667999"><ele>289.0</ele><time>2026-04-06T08:14:33.084Z</time></trkpt><trkpt lat="45.4700766" lon="11.5668269"><ele>288.0</ele><time>2026-04-06T08:14:36.084Z</time></trkpt><trkpt lat="45.4700037" lon="11.5668762"><ele>287.0</ele><time>2026-04-06T08:14:38.084Z</time></trkpt><trkpt lat="45.4699234" lon="11.5669242"><ele>286.0</ele><time>2026-04-06T08:14:41.084Z</time></trkpt><trkpt lat="45.4698308" lon="11.5669784"><ele>286.0</ele><time>2026-04-06T08:14:44.086Z</time></trkpt><trkpt lat="45.4697662" lon="11.5670164"><ele>286.0</ele><time>2026-04-06T08:14:46.085Z</time></trkpt><trkpt lat="45.4696912" lon="11.5669782"><ele>286.0</ele><time>2026-04-06T08:14:48.084Z</time></trkpt><trkpt lat="45.4696351" lon="11.5669182"><ele>286.0</ele><time>2026-04-06T08:14:50.088Z</time></trkpt><trkpt lat="45.4695334" lon="11.5667998"><ele>286.0</ele><time>2026-04-06T08:14:53.088Z</time></trkpt><trkpt lat="45.4694867" lon="11.5667258"><ele>286.0</ele><time>2026-04-06T08:14:54.086Z</time></trkpt><trkpt lat="45.4694322" lon="11.5666499"><ele>286.66666666666663</ele><time>2026-04-06T08:14:56.086Z</time></trkpt><trkpt lat="45.4693631" lon="11.5666081"><ele>287.3333333333333</ele><time>2026-04-06T08:14:57.084Z</time></trkpt><trkpt lat="45.4693064" lon="11.5665467"><ele>288.0</ele><time>2026-04-06T08:14:59.084Z</time></trkpt><trkpt lat="45.4692572" lon="11.5664587"><ele>288.6666666666667</ele><time>2026-04-06T08:15:02.084Z</time></trkpt><trkpt lat="45.4692111" lon="11.5663949"><ele>289.33333333333337</ele><time>2026-04-06T08:15:04.084Z</time></trkpt><trkpt lat="45.4691407" lon="11.5663161"><ele>290.0</ele><time>2026-04-06T08:15:07.084Z</time></trkpt><trkpt lat="45.469062" lon="11.5662982"><ele>290.0</ele><time>2026-04-06T08:15:10.084Z</time></trkpt><trkpt lat="45.4690045" lon="11.5662581"><ele>290.0</ele><time>2026-04-06T08:15:12.084Z</time></trkpt><trkpt lat="45.468941" lon="11.5662231"><ele>290.0</ele><time>2026-04-06T08:15:14.084Z</time></trkpt><trkpt lat="45.4688728" lon="11.5662135"><ele>290.0</ele><time>2026-04-06T08:15:16.084Z</time></trkpt><trkpt lat="45.4688034" lon="11.5662091"><ele>290.0</ele><time>2026-04-06T08:15:18.084Z</time></trkpt><trkpt lat="45.4687359" lon="11.5662102"><ele>290.0</ele><time>2026-04-06T08:15:20.084Z</time></trkpt><trkpt lat="45.4686537" lon="11.5662074"><ele>290.0</ele><time>2026-04-06T08:15:22.084Z</time></trkpt><trkpt lat="45.468577" lon="11.5662224"><ele>290.83333333333337</ele><time>2026-04-06T08:15:24.084Z</time></trkpt><trkpt lat="45.4685042" lon="11.5662139"><ele>291.6666666666667</ele><time>2026-04-06T08:15:26.084Z</time></trkpt><trkpt lat="45.4684245" lon="11.5661575"><ele>292.5</ele><time>2026-04-06T08:15:28.084Z</time></trkpt><trkpt lat="45.4683622" lon="11.5660983"><ele>293.3333333333333</ele><time>2026-04-06T08:15:30.084Z</time></trkpt><trkpt lat="45.4682981" lon="11.565981"><ele>294.16666666666663</ele><time>2026-04-06T08:15:33.084Z</time></trkpt><trkpt lat="45.4682405" lon="11.5658994"><ele>295.0</ele><time>2026-04-06T08:15:35.145Z</time></trkpt><trkpt lat="45.4681925" lon="11.5658397"><ele>293.0</ele><time>2026-04-06T08:15:36.084Z</time></trkpt><trkpt lat="45.4681177" lon="11.5657586"><ele>291.0</ele><time>2026-04-06T08:15:38.084Z</time></trkpt><trkpt lat="45.468064" lon="11.5656941"><ele>289.0</ele><time>2026-04-06T08:15:40.084Z</time></trkpt><trkpt lat="45.4680019" lon="11.5655862"><ele>287.0</ele><time>2026-04-06T08:15:42.084Z</time></trkpt><trkpt lat="45.4679181" lon="11.5654556"><ele>285.0</ele><time>2026-04-06T08:15:44.084Z</time></trkpt><trkpt lat="45.4678634" lon="11.565345"><ele>284.85714285714283</ele><time>2026-04-06T08:15:46.084Z</time></trkpt><trkpt lat="45.4678203" lon="11.5652666"><ele>284.7142857142857</ele><time>2026-04-06T08:15:49.084Z</time></trkpt><trkpt lat="45.4677753" lon="11.5652012"><ele>284.57142857142856</ele><time>2026-04-06T08:15:52.084Z</time></trkpt><trkpt lat="45.4677371" lon="11.5651284"><ele>284.42857142857144</ele><time>2026-04-06T08:15:55.084Z</time></trkpt><trkpt lat="45.4676879" lon="11.5650521"><ele>284.2857142857143</ele><time>2026-04-06T08:15:59.085Z</time></trkpt><trkpt lat="45.4676117" lon="11.5650371"><ele>284.1428571428571</ele><time>2026-04-06T08:16:03.084Z</time></trkpt><trkpt lat="45.4675298" lon="11.5650697"><ele>284.0</ele><time>2026-04-06T08:16:07.084Z</time></trkpt><trkpt lat="45.4674557" lon="11.5651079"><ele>284.0</ele><time>2026-04-06T08:16:12.084Z</time></trkpt><trkpt lat="45.467404" lon="11.5651765"><ele>284.0</ele><time>2026-04-06T08:16:15.084Z</time></trkpt><trkpt lat="45.4673423" lon="11.5652343"><ele>284.0</ele><time>2026-04-06T08:16:18.084Z</time></trkpt><trkpt lat="45.4672899" lon="11.565304"><ele>284.0</ele><time>2026-04-06T08:16:20.084Z</time></trkpt><trkpt lat="45.4672499" lon="11.565387"><ele>284.0</ele><time>2026-04-06T08:16:22.084Z</time></trkpt><trkpt lat="45.4672023" lon="11.5654674"><ele>284.0</ele><time>2026-04-06T08:16:24.085Z</time></trkpt><trkpt lat="45.4671715" lon="11.565556"><ele>284.0</ele><time>2026-04-06T08:16:26.033Z</time></trkpt><trkpt lat="45.4671299" lon="11.5656884"><ele>285.1666666666667</ele><time>2026-04-06T08:16:28.084Z</time></trkpt><trkpt lat="45.4671077" lon="11.5658024"><ele>286.33333333333337</ele><time>2026-04-06T08:16:30.084Z</time></trkpt><trkpt lat="45.4670879" lon="11.5659103"><ele>287.5</ele><time>2026-04-06T08:16:33.085Z</time></trkpt><trkpt lat="45.4670609" lon="11.5660153"><ele>288.6666666666667</ele><time>2026-04-06T08:16:36.084Z</time></trkpt><trkpt lat="45.4670453" lon="11.566116"><ele>289.8333333333333</ele><time>2026-04-06T08:16:39.084Z</time></trkpt><trkpt lat="45.4670131" lon="11.5662198"><ele>291.0</ele><time>2026-04-06T08:16:43.084Z</time></trkpt><trkpt lat="45.4669835" lon="11.5663225"><ele>291.0</ele><time>2026-04-06T08:16:47.084Z</time></trkpt><trkpt lat="45.466968" lon="11.5664339"><ele>291.0</ele><time>2026-04-06T08:16:51.084Z</time></trkpt><trkpt lat="45.4669584" lon="11.5665404"><ele>291.0</ele><time>2026-04-06T08:16:55.084Z</time></trkpt><trkpt lat="45.4669802" lon="11.5666265"><ele>291.0</ele><time>2026-04-06T08:16:58.084Z</time></trkpt><trkpt lat="45.4669295" lon="11.5665583"><ele>291.0</ele><time>2026-04-06T08:17:06.084Z</time></trkpt><trkpt lat="45.4669073" lon="11.5664685"><ele>291.0</ele><time>2026-04-06T08:17:08.084Z</time></trkpt><trkpt lat="45.4668958" lon="11.5663523"><ele>291.0</ele><time>2026-04-06T08:17:11.084Z</time></trkpt><trkpt lat="45.4668872" lon="11.5662378"><ele>292.0</ele><time>2026-04-06T08:17:14.085Z</time></trkpt><trkpt lat="45.4668656" lon="11.5661136"><ele>293.0</ele><time>2026-04-06T08:17:18.084Z</time></trkpt><trkpt lat="45.4668275" lon="11.5660179"><ele>294.0</ele><time>2026-04-06T08:17:21.084Z</time></trkpt><trkpt lat="45.4668106" lon="11.5659182"><ele>295.0</ele><time>2026-04-06T08:17:25.084Z</time></trkpt><trkpt lat="45.4667996" lon="11.5658234"><ele>296.0</ele><time>2026-04-06T08:17:28.084Z</time></trkpt><trkpt lat="45.4667818" lon="11.5657353"><ele>297.0</ele><time>2026-04-06T08:17:31.084Z</time></trkpt><trkpt lat="45.4667402" lon="11.5656435"><ele>298.0</ele><time>2026-04-06T08:17:34.084Z</time></trkpt><trkpt lat="45.4666989" lon="11.5655292"><ele>298.0</ele><time>2026-04-06T08:17:37.084Z</time></trkpt><trkpt lat="45.4666637" lon="11.5654278"><ele>298.0</ele><time>2026-04-06T08:17:40.084Z</time></trkpt><trkpt lat="45.466628" lon="11.5653292"><ele>298.0</ele><time>2026-04-06T08:17:44.084Z</time></trkpt><trkpt lat="45.4665921" lon="11.565246"><ele>298.0</ele><time>2026-04-06T08:17:47.084Z</time></trkpt><trkpt lat="45.4665897" lon="11.5651344"><ele>298.0</ele><time>2026-04-06T08:17:52.084Z</time></trkpt><trkpt lat="45.4665556" lon="11.5650305"><ele>298.0</ele><time>2026-04-06T08:17:55.084Z</time></trkpt><trkpt lat="45.4665164" lon="11.5649326"><ele>298.0</ele><time>2026-04-06T08:17:59.084Z</time></trkpt><trkpt lat="45.4664797" lon="11.564851"><ele>298.0</ele><time>2026-04-06T08:18:03.084Z</time></trkpt><trkpt lat="45.4664349" lon="11.5647621"><ele>298.0</ele><time>2026-04-06T08:18:07.084Z</time></trkpt><trkpt lat="45.4663784" lon="11.5646936"><ele>298.0</ele><time>2026-04-06T08:18:11.084Z</time></trkpt><trkpt lat="45.4663324" lon="11.5646256"><ele>298.0</ele><time>2026-04-06T08:18:15.084Z</time></trkpt><trkpt lat="45.4662738" lon="11.564542"><ele>298.0</ele><time>2026-04-06T08:18:19.084Z</time></trkpt><trkpt lat="45.4662499" lon="11.5644564"><ele>298.0</ele><time>2026-04-06T08:18:23.084Z</time></trkpt><trkpt lat="45.4662096" lon="11.5643658"><ele>299.7142857142857</ele><time>2026-04-06T08:18:25.046Z</time></trkpt><trkpt lat="45.4661883" lon="11.5642685"><ele>301.4285714285714</ele><time>2026-04-06T08:18:31.084Z</time></trkpt><trkpt lat="45.466153" lon="11.5641876"><ele>303.1428571428571</ele><time>2026-04-06T08:18:36.087Z</time></trkpt><trkpt lat="45.4661166" lon="11.5640971"><ele>304.85714285714283</ele><time>2026-04-06T08:18:40.084Z</time></trkpt><trkpt lat="45.4661046" lon="11.5640038"><ele>306.57142857142856</ele><time>2026-04-06T08:18:43.084Z</time></trkpt><trkpt lat="45.4661008" lon="11.5639069"><ele>308.2857142857143</ele><time>2026-04-06T08:18:46.084Z</time></trkpt><trkpt lat="45.4661066" lon="11.5637973"><ele>310.0</ele><time>2026-04-06T08:18:51.084Z</time></trkpt><trkpt lat="45.4661128" lon="11.5637024"><ele>309.3333333333333</ele><time>2026-04-06T08:18:55.088Z</time></trkpt><trkpt lat="45.4660898" lon="11.5635966"><ele>308.66666666666663</ele><time>2026-04-06T08:18:59.084Z</time></trkpt><trkpt lat="45.4660767" lon="11.5634949"><ele>308.0</ele><time>2026-04-06T08:19:04.084Z</time></trkpt><trkpt lat="45.4660151" lon="11.5634456"><ele>307.3333333333333</ele><time>2026-04-06T08:19:10.084Z</time></trkpt><trkpt lat="45.4659499" lon="11.5635323"><ele>306.6666666666667</ele><time>2026-04-06T08:19:13.108Z</time></trkpt><trkpt lat="45.465878" lon="11.5635847"><ele>306.0</ele><time>2026-04-06T08:19:15.084Z</time></trkpt><trkpt lat="45.4657944" lon="11.5636057"><ele>306.0</ele><time>2026-04-06T08:19:17.084Z</time></trkpt><trkpt lat="45.4657129" lon="11.5636275"><ele>306.0</ele><time>2026-04-06T08:19:19.084Z</time></trkpt><trkpt lat="45.4656086" lon="11.563647"><ele>306.0</ele><time>2026-04-06T08:19:21.084Z</time></trkpt><trkpt lat="45.465514" lon="11.5636463"><ele>306.0</ele><time>2026-04-06T08:19:23.084Z</time></trkpt><trkpt lat="45.4654249" lon="11.5635878"><ele>306.0</ele><time>2026-04-06T08:19:25.084Z</time></trkpt><trkpt lat="45.4653282" lon="11.5635047"><ele>306.3333333333333</ele><time>2026-04-06T08:19:27.084Z</time></trkpt><trkpt lat="45.4652349" lon="11.5634266"><ele>306.6666666666667</ele><time>2026-04-06T08:19:29.084Z</time></trkpt><trkpt lat="45.4651597" lon="11.5633925"><ele>307.0</ele><time>2026-04-06T08:19:31.084Z</time></trkpt><trkpt lat="45.4650767" lon="11.5633818"><ele>307.33333333333337</ele><time>2026-04-06T08:19:35.084Z</time></trkpt><trkpt lat="45.465012" lon="11.5634011"><ele>307.6666666666667</ele><time>2026-04-06T08:19:38.084Z</time></trkpt><trkpt lat="45.4649406" lon="11.5634302"><ele>308.0</ele><time>2026-04-06T08:19:41.084Z</time></trkpt><trkpt lat="45.464869" lon="11.5634512"><ele>308.0</ele><time>2026-04-06T08:19:44.084Z</time></trkpt><trkpt lat="45.4647979" lon="11.563466"><ele>308.0</ele><time>2026-04-06T08:19:48.101Z</time></trkpt><trkpt lat="45.4647168" lon="11.5634772"><ele>308.0</ele><time>2026-04-06T08:19:52.084Z</time></trkpt><trkpt lat="45.464657" lon="11.5635156"><ele>308.0</ele><time>2026-04-06T08:19:55.084Z</time></trkpt><trkpt lat="45.4646071" lon="11.5635802"><ele>308.0</ele><time>2026-04-06T08:19:58.084Z</time></trkpt><trkpt lat="45.4645789" lon="11.563666"><ele>308.0</ele><time>2026-04-06T08:20:01.108Z</time></trkpt><trkpt lat="45.4645467" lon="11.5637459"><ele>308.0</ele><time>2026-04-06T08:20:03.986Z</time></trkpt><trkpt lat="45.4645147" lon="11.5638462"><ele>309.1666666666667</ele><time>2026-04-06T08:20:07.11Z</time></trkpt><trkpt lat="45.4644633" lon="11.5639404"><ele>310.33333333333337</ele><time>2026-04-06T08:20:10.098Z</time></trkpt><trkpt lat="45.4643973" lon="11.5640273"><ele>311.5</ele><time>2026-04-06T08:20:13.029Z</time></trkpt><trkpt lat="45.4643165" lon="11.5640833"><ele>312.6666666666667</ele><time>2026-04-06T08:20:16.084Z</time></trkpt><trkpt lat="45.4642262" lon="11.5641107"><ele>313.8333333333333</ele><time>2026-04-06T08:20:19.084Z</time></trkpt><trkpt lat="45.4641602" lon="11.5641028"><ele>315.0</ele><time>2026-04-06T08:20:21.145Z</time></trkpt><trkpt lat="45.4640758" lon="11.5640823"><ele>315.0</ele><time>2026-04-06T08:20:23.946Z</time></trkpt><trkpt lat="45.4639803" lon="11.5640871"><ele>315.0</ele><time>2026-04-06T08:20:27.084Z</time></trkpt><trkpt lat="45.4639155" lon="11.5640852"><ele>315.0</ele><time>2026-04-06T08:20:29.099Z</time></trkpt><trkpt lat="45.4638269" lon="11.564113"><ele>315.0</ele><time>2026-04-06T08:20:32.087Z</time></trkpt><trkpt lat="45.4637637" lon="11.5641322"><ele>315.0</ele><time>2026-04-06T08:20:34.084Z</time></trkpt><trkpt lat="45.4636774" lon="11.5641723"><ele>315.0</ele><time>2026-04-06T08:20:37.126Z</time></trkpt><trkpt lat="45.4636154" lon="11.5642153"><ele>314.3333333333333</ele><time>2026-04-06T08:20:40.007Z</time></trkpt><trkpt lat="45.4635447" lon="11.5642802"><ele>313.6666666666667</ele><time>2026-04-06T08:20:43.084Z</time></trkpt><trkpt lat="45.4634821" lon="11.5643348"><ele>313.0</ele><time>2026-04-06T08:20:46.084Z</time></trkpt><trkpt lat="45.4634192" lon="11.564387"><ele>312.33333333333337</ele><time>2026-04-06T08:20:49.13Z</time></trkpt><trkpt lat="45.463352" lon="11.5644358"><ele>311.6666666666667</ele><time>2026-04-06T08:20:52.084Z</time></trkpt><trkpt lat="45.46328" lon="11.5644608"><ele>311.0</ele><time>2026-04-06T08:20:55.085Z</time></trkpt><trkpt lat="45.4632073" lon="11.5644744"><ele>311.0</ele><time>2026-04-06T08:20:58.084Z</time></trkpt><trkpt lat="45.4631402" lon="11.5645193"><ele>311.0</ele><time>2026-04-06T08:21:02.084Z</time></trkpt><trkpt lat="45.4630985" lon="11.5645982"><ele>311.0</ele><time>2026-04-06T08:21:05.084Z</time></trkpt><trkpt lat="45.4630655" lon="11.5646852"><ele>311.0</ele><time>2026-04-06T08:21:08.084Z</time></trkpt><trkpt lat="45.4630223" lon="11.5647565"><ele>311.0</ele><time>2026-04-06T08:21:11.084Z</time></trkpt><trkpt lat="45.4629708" lon="11.5648157"><ele>311.0</ele><time>2026-04-06T08:21:14.084Z</time></trkpt><trkpt lat="45.4629124" lon="11.5648867"><ele>311.0</ele><time>2026-04-06T08:21:17.084Z</time></trkpt><trkpt lat="45.4628549" lon="11.5649533"><ele>313.33333333333337</ele><time>2026-04-06T08:21:20.084Z</time></trkpt><trkpt lat="45.4627907" lon="11.5650117"><ele>315.6666666666667</ele><time>2026-04-06T08:21:23.129Z</time></trkpt><trkpt lat="45.4627236" lon="11.5650392"><ele>318.0</ele><time>2026-04-06T08:21:26.102Z</time></trkpt><trkpt lat="45.4626498" lon="11.5650664"><ele>320.3333333333333</ele><time>2026-04-06T08:21:29.09Z</time></trkpt><trkpt lat="45.4625823" lon="11.5650915"><ele>322.66666666666663</ele><time>2026-04-06T08:21:32.051Z</time></trkpt><trkpt lat="45.4625019" lon="11.5651118"><ele>325.0</ele><time>2026-04-06T08:21:35.084Z</time></trkpt><trkpt lat="45.462415" lon="11.5651445"><ele>325.0</ele><time>2026-04-06T08:21:38.106Z</time></trkpt><trkpt lat="45.4623442" lon="11.5651679"><ele>325.0</ele><time>2026-04-06T08:21:41.084Z</time></trkpt><trkpt lat="45.4622737" lon="11.5651917"><ele>325.0</ele><time>2026-04-06T08:21:44.084Z</time></trkpt><trkpt lat="45.4621978" lon="11.5651995"><ele>325.0</ele><time>2026-04-06T08:21:47.084Z</time></trkpt><trkpt lat="45.4621323" lon="11.5651867"><ele>325.0</ele><time>2026-04-06T08:21:50.003Z</time></trkpt><trkpt lat="45.4620525" lon="11.5651609"><ele>325.0</ele><time>2026-04-06T08:21:53.084Z</time></trkpt><trkpt lat="45.4619773" lon="11.5651541"><ele>325.0</ele><time>2026-04-06T08:21:56.084Z</time></trkpt><trkpt lat="45.4618992" lon="11.5651644"><ele>325.2857142857143</ele><time>2026-04-06T08:21:59.084Z</time></trkpt><trkpt lat="45.4618214" lon="11.5651706"><ele>325.5714285714286</ele><time>2026-04-06T08:22:02.084Z</time></trkpt><trkpt lat="45.4617572" lon="11.5651769"><ele>325.8571428571429</ele><time>2026-04-06T08:22:06.084Z</time></trkpt><trkpt lat="45.4617106" lon="11.5651037"><ele>326.1428571428571</ele><time>2026-04-06T08:22:57.084Z</time></trkpt><trkpt lat="45.4616531" lon="11.5650265"><ele>326.42857142857144</ele><time>2026-04-06T08:23:00.084Z</time></trkpt><trkpt lat="45.4616007" lon="11.5649767"><ele>326.7142857142857</ele><time>2026-04-06T08:23:02.084Z</time></trkpt><trkpt lat="45.4615385" lon="11.5649287"><ele>327.0</ele><time>2026-04-06T08:23:04.084Z</time></trkpt><trkpt lat="45.4614736" lon="11.5648765"><ele>327.0</ele><time>2026-04-06T08:23:06.084Z</time></trkpt><trkpt lat="45.4614095" lon="11.5648197"><ele>327.0</ele><time>2026-04-06T08:23:08.099Z</time></trkpt><trkpt lat="45.461341" lon="11.5647518"><ele>327.0</ele><time>2026-04-06T08:23:10.084Z</time></trkpt><trkpt lat="45.4612621" lon="11.5646832"><ele>327.0</ele><time>2026-04-06T08:23:12.084Z</time></trkpt><trkpt lat="45.4611945" lon="11.5646277"><ele>327.0</ele><time>2026-04-06T08:23:14.085Z</time></trkpt><trkpt lat="45.4611151" lon="11.5645687"><ele>327.0</ele><time>2026-04-06T08:23:16.084Z</time></trkpt><trkpt lat="45.4609896" lon="11.5644532"><ele>326.40000000000003</ele><time>2026-04-06T08:23:19.084Z</time></trkpt><trkpt lat="45.4609023" lon="11.5643806"><ele>325.8</ele><time>2026-04-06T08:23:21.084Z</time></trkpt><trkpt lat="45.4608191" lon="11.5643159"><ele>325.2</ele><time>2026-04-06T08:23:23.084Z</time></trkpt><trkpt lat="45.4607295" lon="11.5642499"><ele>324.6</ele><time>2026-04-06T08:23:25.084Z</time></trkpt><trkpt lat="45.4606462" lon="11.5641733"><ele>324.0</ele><time>2026-04-06T08:23:27.084Z</time></trkpt><trkpt lat="45.4605634" lon="11.5640766"><ele>324.0</ele><time>2026-04-06T08:23:29.084Z</time></trkpt><trkpt lat="45.4604551" lon="11.5640023"><ele>324.0</ele><time>2026-04-06T08:23:31.084Z</time></trkpt><trkpt lat="45.4603676" lon="11.564031"><ele>324.0</ele><time>2026-04-06T08:23:33.084Z</time></trkpt><trkpt lat="45.4603054" lon="11.564099"><ele>324.0</ele><time>2026-04-06T08:23:35.084Z</time></trkpt><trkpt lat="45.4602415" lon="11.5641678"><ele>324.0</ele><time>2026-04-06T08:23:37.084Z</time></trkpt><trkpt lat="45.4601565" lon="11.5642383"><ele>325.6</ele><time>2026-04-06T08:23:39.085Z</time></trkpt><trkpt lat="45.4600885" lon="11.5643379"><ele>327.2</ele><time>2026-04-06T08:23:41.084Z</time></trkpt><trkpt lat="45.4599987" lon="11.564413"><ele>328.8</ele><time>2026-04-06T08:23:43.084Z</time></trkpt><trkpt lat="45.4599244" lon="11.5644322"><ele>330.40000000000003</ele><time>2026-04-06T08:23:45.084Z</time></trkpt><trkpt lat="45.459824" lon="11.5644468"><ele>332.0</ele><time>2026-04-06T08:23:47.084Z</time></trkpt><trkpt lat="45.4597406" lon="11.5643781"><ele>332.0</ele><time>2026-04-06T08:23:49.084Z</time></trkpt><trkpt lat="45.4597144" lon="11.5642379"><ele>332.0</ele><time>2026-04-06T08:23:51.084Z</time></trkpt><trkpt lat="45.4597218" lon="11.5640857"><ele>332.0</ele><time>2026-04-06T08:23:53.084Z</time></trkpt><trkpt lat="45.4597146" lon="11.5639523"><ele>332.0</ele><time>2026-04-06T08:23:55.084Z</time></trkpt><trkpt lat="45.4596675" lon="11.5638142"><ele>332.0</ele><time>2026-04-06T08:23:57.084Z</time></trkpt><trkpt lat="45.4596002" lon="11.5637065"><ele>331.83333333333337</ele><time>2026-04-06T08:23:59.084Z</time></trkpt><trkpt lat="45.4595439" lon="11.5636583"><ele>331.6666666666667</ele><time>2026-04-06T08:24:00.084Z</time></trkpt><trkpt lat="45.4594893" lon="11.563609"><ele>331.5</ele><time>2026-04-06T08:24:01.084Z</time></trkpt><trkpt lat="45.4593767" lon="11.5635305"><ele>331.3333333333333</ele><time>2026-04-06T08:24:03.084Z</time></trkpt><trkpt lat="45.4592757" lon="11.5635101"><ele>331.16666666666663</ele><time>2026-04-06T08:24:05.084Z</time></trkpt><trkpt lat="45.4591976" lon="11.5634967"><ele>331.0</ele><time>2026-04-06T08:24:07.084Z</time></trkpt><trkpt lat="45.4591182" lon="11.5635024"><ele>331.0</ele><time>2026-04-06T08:24:09.084Z</time></trkpt><trkpt lat="45.4590471" lon="11.5635193"><ele>331.0</ele><time>2026-04-06T08:24:11.084Z</time></trkpt><trkpt lat="45.4589484" lon="11.5635431"><ele>331.0</ele><time>2026-04-06T08:24:13.084Z</time></trkpt><trkpt lat="45.4588357" lon="11.5636149"><ele>331.0</ele><time>2026-04-06T08:24:15.084Z</time></trkpt><trkpt lat="45.4587689" lon="11.5636489"><ele>331.0</ele><time>2026-04-06T08:24:16.084Z</time></trkpt><trkpt lat="45.4587035" lon="11.5637036"><ele>331.0</ele><time>2026-04-06T08:24:17.084Z</time></trkpt><trkpt lat="45.4586347" lon="11.5637707"><ele>329.6</ele><time>2026-04-06T08:24:18.084Z</time></trkpt><trkpt lat="45.4585629" lon="11.5638381"><ele>328.20000000000005</ele><time>2026-04-06T08:24:19.084Z</time></trkpt><trkpt lat="45.4584868" lon="11.5639181"><ele>326.79999999999995</ele><time>2026-04-06T08:24:20.084Z</time></trkpt><trkpt lat="45.4584265" lon="11.564019"><ele>325.4</ele><time>2026-04-06T08:24:21.084Z</time></trkpt><trkpt lat="45.4583574" lon="11.5641151"><ele>324.0</ele><time>2026-04-06T08:24:22.084Z</time></trkpt><trkpt lat="45.4582925" lon="11.5642223"><ele>324.0</ele><time>2026-04-06T08:24:23.084Z</time></trkpt><trkpt lat="45.4582278" lon="11.5643253"><ele>324.0</ele><time>2026-04-06T08:24:24.084Z</time></trkpt><trkpt lat="45.4581641" lon="11.5644109"><ele>324.0</ele><time>2026-04-06T08:24:25.084Z</time></trkpt><trkpt lat="45.4581157" lon="11.5645087"><ele>324.0</ele><time>2026-04-06T08:24:26.084Z</time></trkpt><trkpt lat="45.458058" lon="11.5645987"><ele>324.0</ele><time>2026-04-06T08:24:27.084Z</time></trkpt><trkpt lat="45.4579833" lon="11.5646911"><ele>323.0</ele><time>2026-04-06T08:24:28.084Z</time></trkpt><trkpt lat="45.4579089" lon="11.5647635"><ele>322.0</ele><time>2026-04-06T08:24:29.084Z</time></trkpt><trkpt lat="45.4578219" lon="11.5648371"><ele>321.0</ele><time>2026-04-06T08:24:30.084Z</time></trkpt><trkpt lat="45.4577344" lon="11.5648938"><ele>320.0</ele><time>2026-04-06T08:24:31.084Z</time></trkpt><trkpt lat="45.4576632" lon="11.5649641"><ele>319.0</ele><time>2026-04-06T08:24:32.084Z</time></trkpt><trkpt lat="45.457588" lon="11.5650396"><ele>319.0</ele><time>2026-04-06T08:24:33.084Z</time></trkpt><trkpt lat="45.4575331" lon="11.5651247"><ele>319.0</ele><time>2026-04-06T08:24:34.084Z</time></trkpt><trkpt lat="45.4574444" lon="11.565185"><ele>319.0</ele><time>2026-04-06T08:24:35.084Z</time></trkpt><trkpt lat="45.4573862" lon="11.5652384"><ele>319.0</ele><time>2026-04-06T08:24:36.084Z</time></trkpt><trkpt lat="45.457318" lon="11.5652857"><ele>319.0</ele><time>2026-04-06T08:24:37.084Z</time></trkpt><trkpt lat="45.4572563" lon="11.5653286"><ele>319.0</ele><time>2026-04-06T08:24:38.084Z</time></trkpt><trkpt lat="45.4571949" lon="11.5653734"><ele>315.5</ele><time>2026-04-06T08:24:39.084Z</time></trkpt><trkpt lat="45.4571245" lon="11.565413"><ele>312.0</ele><time>2026-04-06T08:24:40.085Z</time></trkpt><trkpt lat="45.4570566" lon="11.5654169"><ele>308.5</ele><time>2026-04-06T08:24:41.084Z</time></trkpt><trkpt lat="45.4569466" lon="11.5654166"><ele>305.0</ele><time>2026-04-06T08:24:43.084Z</time></trkpt><trkpt lat="45.4568484" lon="11.5654144"><ele>301.5</ele><time>2026-04-06T08:24:45.084Z</time></trkpt><trkpt lat="45.4567641" lon="11.5654054"><ele>298.0</ele><time>2026-04-06T08:24:47.084Z</time></trkpt><trkpt lat="45.4566829" lon="11.5653879"><ele>302.1428571428571</ele><time>2026-04-06T08:24:50.084Z</time></trkpt><trkpt lat="45.4566039" lon="11.5653588"><ele>306.2857142857143</ele><time>2026-04-06T08:24:53.084Z</time></trkpt><trkpt lat="45.4565358" lon="11.5653148"><ele>310.42857142857144</ele><time>2026-04-06T08:24:56.084Z</time></trkpt><trkpt lat="45.4564758" lon="11.5652735"><ele>314.57142857142856</ele><time>2026-04-06T08:24:59.084Z</time></trkpt><trkpt lat="45.4564234" lon="11.5652103"><ele>318.7142857142857</ele><time>2026-04-06T08:25:02.084Z</time></trkpt><trkpt lat="45.4563793" lon="11.5651337"><ele>322.85714285714283</ele><time>2026-04-06T08:25:05.084Z</time></trkpt><trkpt lat="45.4563403" lon="11.5650364"><ele>327.0</ele><time>2026-04-06T08:25:08.084Z</time></trkpt><trkpt lat="45.4563004" lon="11.5649559"><ele>327.1428571428571</ele><time>2026-04-06T08:25:11.084Z</time></trkpt><trkpt lat="45.4562466" lon="11.5648805"><ele>327.2857142857143</ele><time>2026-04-06T08:25:14.084Z</time></trkpt><trkpt lat="45.4561802" lon="11.5648589"><ele>327.42857142857144</ele><time>2026-04-06T08:25:17.084Z</time></trkpt><trkpt lat="45.4561105" lon="11.5648741"><ele>327.57142857142856</ele><time>2026-04-06T08:25:20.084Z</time></trkpt><trkpt lat="45.4560343" lon="11.5649044"><ele>327.7142857142857</ele><time>2026-04-06T08:25:23.085Z</time></trkpt><trkpt lat="45.4559672" lon="11.5649115"><ele>327.85714285714283</ele><time>2026-04-06T08:25:26.084Z</time></trkpt><trkpt lat="45.4559027" lon="11.5648892"><ele>328.0</ele><time>2026-04-06T08:25:29.084Z</time></trkpt><trkpt lat="45.4558347" lon="11.564861"><ele>327.99999999999994</ele><time>2026-04-06T08:25:32.084Z</time></trkpt><trkpt lat="45.45577" lon="11.56484"><ele>328.0</ele><time>2026-04-06T08:25:35.084Z</time></trkpt><trkpt lat="45.4557003" lon="11.5648105"><ele>328.0</ele><time>2026-04-06T08:25:38.084Z</time></trkpt><trkpt lat="45.4556304" lon="11.5647843"><ele>328.0</ele><time>2026-04-06T08:25:41.084Z</time></trkpt><trkpt lat="45.4555605" lon="11.5647662"><ele>328.0</ele><time>2026-04-06T08:25:44.084Z</time></trkpt><trkpt lat="45.4554853" lon="11.564765"><ele>327.99999999999994</ele><time>2026-04-06T08:25:48.084Z</time></trkpt><trkpt lat="45.4554324" lon="11.5648372"><ele>328.0</ele><time>2026-04-06T08:25:52.084Z</time></trkpt><trkpt lat="45.4553918" lon="11.564929"><ele>329.8333333333333</ele><time>2026-04-06T08:25:56.084Z</time></trkpt><trkpt lat="45.4553476" lon="11.565025"><ele>331.66666666666663</ele><time>2026-04-06T08:25:59.084Z</time></trkpt><trkpt lat="45.4553297" lon="11.5651209"><ele>333.5</ele><time>2026-04-06T08:26:02.084Z</time></trkpt><trkpt lat="45.4553331" lon="11.5652164"><ele>335.3333333333333</ele><time>2026-04-06T08:26:06.084Z</time></trkpt><trkpt lat="45.4553148" lon="11.5653254"><ele>337.1666666666667</ele><time>2026-04-06T08:26:09.084Z</time></trkpt><trkpt lat="45.4552985" lon="11.5654417"><ele>339.0</ele><time>2026-04-06T08:26:12.084Z</time></trkpt><trkpt lat="45.4552902" lon="11.5655652"><ele>339.0</ele><time>2026-04-06T08:26:15.084Z</time></trkpt><trkpt lat="45.4552518" lon="11.5656725"><ele>339.0</ele><time>2026-04-06T08:26:18.084Z</time></trkpt><trkpt lat="45.4551981" lon="11.5657665"><ele>339.0</ele><time>2026-04-06T08:26:21.084Z</time></trkpt><trkpt lat="45.4551336" lon="11.5658462"><ele>339.0</ele><time>2026-04-06T08:26:24.084Z</time></trkpt><trkpt lat="45.4550723" lon="11.5659191"><ele>339.0</ele><time>2026-04-06T08:26:27.084Z</time></trkpt><trkpt lat="45.4550159" lon="11.5659697"><ele>339.0</ele><time>2026-04-06T08:26:29.084Z</time></trkpt><trkpt lat="45.4549563" lon="11.5660213"><ele>339.0</ele><time>2026-04-06T08:26:31.084Z</time></trkpt><trkpt lat="45.4548981" lon="11.5660881"><ele>339.0</ele><time>2026-04-06T08:26:33.084Z</time></trkpt><trkpt lat="45.4548174" lon="11.566174"><ele>339.0</ele><time>2026-04-06T08:26:35.084Z</time></trkpt><trkpt lat="45.4547378" lon="11.5662704"><ele>339.0</ele><time>2026-04-06T08:26:37.084Z</time></trkpt><trkpt lat="45.4546765" lon="11.566311"><ele>339.0</ele><time>2026-04-06T08:26:38.084Z</time></trkpt><trkpt lat="45.4546183" lon="11.566371"><ele>339.0</ele><time>2026-04-06T08:26:39.084Z</time></trkpt><trkpt lat="45.4545539" lon="11.5664261"><ele>339.5</ele><time>2026-04-06T08:26:40.084Z</time></trkpt><trkpt lat="45.4544972" lon="11.5664865"><ele>340.0</ele><time>2026-04-06T08:26:41.084Z</time></trkpt><trkpt lat="45.4544349" lon="11.5665637"><ele>340.5</ele><time>2026-04-06T08:26:42.084Z</time></trkpt><trkpt lat="45.4543343" lon="11.5666702"><ele>341.0</ele><time>2026-04-06T08:26:44.084Z</time></trkpt><trkpt lat="45.4542663" lon="11.5667567"><ele>341.5</ele><time>2026-04-06T08:26:45.085Z</time></trkpt><trkpt lat="45.4542067" lon="11.5668191"><ele>342.0</ele><time>2026-04-06T08:26:46.084Z</time></trkpt><trkpt lat="45.4541027" lon="11.5669392"><ele>341.40000000000003</ele><time>2026-04-06T08:26:48.084Z</time></trkpt><trkpt lat="45.4540102" lon="11.5670542"><ele>340.8</ele><time>2026-04-06T08:26:50.084Z</time></trkpt><trkpt lat="45.453929" lon="11.5671543"><ele>340.2</ele><time>2026-04-06T08:26:52.084Z</time></trkpt><trkpt lat="45.4538568" lon="11.5672168"><ele>339.6</ele><time>2026-04-06T08:26:54.084Z</time></trkpt><trkpt lat="45.4537996" lon="11.5672642"><ele>339.0</ele><time>2026-04-06T08:26:57.084Z</time></trkpt><trkpt lat="45.4537261" lon="11.5673222"><ele>339.0</ele><time>2026-04-06T08:27:00.084Z</time></trkpt><trkpt lat="45.4536608" lon="11.5673688"><ele>339.0</ele><time>2026-04-06T08:27:03.084Z</time></trkpt><trkpt lat="45.4535915" lon="11.5674042"><ele>339.0</ele><time>2026-04-06T08:27:06.084Z</time></trkpt><trkpt lat="45.4535088" lon="11.5674344"><ele>339.0</ele><time>2026-04-06T08:27:10.084Z</time></trkpt><trkpt lat="45.4534524" lon="11.5674765"><ele>339.0</ele><time>2026-04-06T08:27:13.084Z</time></trkpt><trkpt lat="45.4533806" lon="11.5674633"><ele>339.0</ele><time>2026-04-06T08:27:17.084Z</time></trkpt><trkpt lat="45.4533915" lon="11.5673617"><ele>339.0</ele><time>2026-04-06T08:27:22.084Z</time></trkpt><trkpt lat="45.4534278" lon="11.5672697"><ele>339.0</ele><time>2026-04-06T08:27:26.084Z</time></trkpt><trkpt lat="45.4534714" lon="11.5672041"><ele>339.0</ele><time>2026-04-06T08:27:29.084Z</time></trkpt><trkpt lat="45.4535106" lon="11.5671332"><ele>339.0</ele><time>2026-04-06T08:27:32.084Z</time></trkpt><trkpt lat="45.4535333" lon="11.5670456"><ele>339.0</ele><time>2026-04-06T08:27:35.084Z</time></trkpt><trkpt lat="45.4535467" lon="11.5669565"><ele>339.0</ele><time>2026-04-06T08:27:38.084Z</time></trkpt><trkpt lat="45.4535747" lon="11.5668702"><ele>339.0</ele><time>2026-04-06T08:27:41.084Z</time></trkpt><trkpt lat="45.4536118" lon="11.5667859"><ele>339.0</ele><time>2026-04-06T08:27:44.084Z</time></trkpt><trkpt lat="45.4536589" lon="11.5666931"><ele>339.5</ele><time>2026-04-06T08:27:47.084Z</time></trkpt><trkpt lat="45.4537079" lon="11.5666144"><ele>340.0</ele><time>2026-04-06T08:27:50.084Z</time></trkpt><trkpt lat="45.4537492" lon="11.5665345"><ele>340.5</ele><time>2026-04-06T08:27:53.084Z</time></trkpt><trkpt lat="45.4537924" lon="11.5664332"><ele>341.0</ele><time>2026-04-06T08:27:57.084Z</time></trkpt><trkpt lat="45.4538431" lon="11.5663663"><ele>341.5</ele><time>2026-04-06T08:28:00.084Z</time></trkpt><trkpt lat="45.4538938" lon="11.5662886"><ele>342.0</ele><time>2026-04-06T08:28:03.084Z</time></trkpt><trkpt lat="45.4539487" lon="11.5661962"><ele>344.5</ele><time>2026-04-06T08:28:06.084Z</time></trkpt><trkpt lat="45.4539943" lon="11.5661106"><ele>347.0</ele><time>2026-04-06T08:28:09.084Z</time></trkpt><trkpt lat="45.4540385" lon="11.5660337"><ele>349.5</ele><time>2026-04-06T08:28:12.093Z</time></trkpt><trkpt lat="45.4540884" lon="11.5659477"><ele>352.0</ele><time>2026-04-06T08:28:16.1Z</time></trkpt><trkpt lat="45.454139" lon="11.5658916"><ele>354.5</ele><time>2026-04-06T08:28:19.084Z</time></trkpt><trkpt lat="45.4541821" lon="11.5657888"><ele>357.0</ele><time>2026-04-06T08:28:23.084Z</time></trkpt><trkpt lat="45.4542368" lon="11.5657075"><ele>357.0</ele><time>2026-04-06T08:28:27.084Z</time></trkpt><trkpt lat="45.4542827" lon="11.5656406"><ele>357.0</ele><time>2026-04-06T08:28:32.084Z</time></trkpt><trkpt lat="45.4543226" lon="11.565563"><ele>357.0</ele><time>2026-04-06T08:28:35.084Z</time></trkpt><trkpt lat="45.4543807" lon="11.5654798"><ele>357.0</ele><time>2026-04-06T08:28:38.084Z</time></trkpt><trkpt lat="45.4544255" lon="11.5653935"><ele>357.0</ele><time>2026-04-06T08:28:41.084Z</time></trkpt><trkpt lat="45.4544577" lon="11.5653072"><ele>357.0</ele><time>2026-04-06T08:28:44.084Z</time></trkpt><trkpt lat="45.4544982" lon="11.5652021"><ele>357.0</ele><time>2026-04-06T08:28:48.084Z</time></trkpt><trkpt lat="45.4545216" lon="11.5651171"><ele>358.3333333333333</ele><time>2026-04-06T08:28:50.084Z</time></trkpt><trkpt lat="45.4545175" lon="11.5650201"><ele>359.6666666666667</ele><time>2026-04-06T08:28:53.084Z</time></trkpt><trkpt lat="45.4545301" lon="11.5648969"><ele>361.0</ele><time>2026-04-06T08:28:57.084Z</time></trkpt><trkpt lat="45.4545499" lon="11.5647863"><ele>362.33333333333337</ele><time>2026-04-06T08:29:01.102Z</time></trkpt><trkpt lat="45.4545772" lon="11.5646868"><ele>363.6666666666667</ele><time>2026-04-06T08:29:04.089Z</time></trkpt><trkpt lat="45.4546016" lon="11.5645598"><ele>365.0</ele><time>2026-04-06T08:29:07.084Z</time></trkpt><trkpt lat="45.4546012" lon="11.5644674"><ele>365.33333333333337</ele><time>2026-04-06T08:29:09.109Z</time></trkpt><trkpt lat="45.454604" lon="11.5643629"><ele>365.6666666666667</ele><time>2026-04-06T08:29:11.085Z</time></trkpt><trkpt lat="45.4546016" lon="11.5642618"><ele>366.0</ele><time>2026-04-06T08:29:14.021Z</time></trkpt><trkpt lat="45.4545561" lon="11.5641504"><ele>366.3333333333333</ele><time>2026-04-06T08:29:17.084Z</time></trkpt><trkpt lat="45.454515" lon="11.5640482"><ele>366.66666666666663</ele><time>2026-04-06T08:29:20.084Z</time></trkpt><trkpt lat="45.4545013" lon="11.5639427"><ele>367.0</ele><time>2026-04-06T08:29:23.084Z</time></trkpt><trkpt lat="45.4545041" lon="11.5638453"><ele>367.0</ele><time>2026-04-06T08:29:27.084Z</time></trkpt><trkpt lat="45.4544432" lon="11.5637945"><ele>367.0</ele><time>2026-04-06T08:29:31.084Z</time></trkpt><trkpt lat="45.4543702" lon="11.5637527"><ele>367.0</ele><time>2026-04-06T08:29:35.084Z</time></trkpt><trkpt lat="45.4543074" lon="11.5638169"><ele>367.0</ele><time>2026-04-06T08:29:39.084Z</time></trkpt><trkpt lat="45.454283" lon="11.5639127"><ele>367.0</ele><time>2026-04-06T08:29:42.084Z</time></trkpt><trkpt lat="45.4542599" lon="11.5640164"><ele>367.0</ele><time>2026-04-06T08:29:46.084Z</time></trkpt><trkpt lat="45.4542492" lon="11.5641147"><ele>367.0</ele><time>2026-04-06T08:29:50.084Z</time></trkpt><trkpt lat="45.4542437" lon="11.5642196"><ele>367.0</ele><time>2026-04-06T08:29:54.084Z</time></trkpt><trkpt lat="45.454229" lon="11.5643171"><ele>367.0</ele><time>2026-04-06T08:29:58.084Z</time></trkpt><trkpt lat="45.454221" lon="11.5644064"><ele>367.0</ele><time>2026-04-06T08:30:02.084Z</time></trkpt><trkpt lat="45.4542026" lon="11.5645099"><ele>367.0</ele><time>2026-04-06T08:30:06.084Z</time></trkpt><trkpt lat="45.454191" lon="11.5645986"><ele>367.0</ele><time>2026-04-06T08:30:10.084Z</time></trkpt><trkpt lat="45.4541722" lon="11.5647018"><ele>367.0</ele><time>2026-04-06T08:30:14.084Z</time></trkpt><trkpt lat="45.4541174" lon="11.5647722"><ele>367.0</ele><time>2026-04-06T08:30:17.084Z</time></trkpt><trkpt lat="45.4540481" lon="11.5648224"><ele>366.85714285714283</ele><time>2026-04-06T08:30:21.084Z</time></trkpt><trkpt lat="45.4539811" lon="11.5648581"><ele>366.7142857142857</ele><time>2026-04-06T08:30:24.084Z</time></trkpt><trkpt lat="45.4539108" lon="11.5648771"><ele>366.57142857142856</ele><time>2026-04-06T08:30:28.084Z</time></trkpt><trkpt lat="45.4538387" lon="11.5648752"><ele>366.42857142857144</ele><time>2026-04-06T08:30:31.084Z</time></trkpt><trkpt lat="45.4537674" lon="11.5648302"><ele>366.28571428571433</ele><time>2026-04-06T08:30:35.084Z</time></trkpt><trkpt lat="45.4537363" lon="11.5647507"><ele>366.14285714285717</ele><time>2026-04-06T08:30:39.084Z</time></trkpt><trkpt lat="45.453691" lon="11.5646637"><ele>366.0</ele><time>2026-04-06T08:30:43.162Z</time></trkpt><trkpt lat="45.4536107" lon="11.5646302"><ele>366.0</ele><time>2026-04-06T08:30:46.084Z</time></trkpt><trkpt lat="45.4535372" lon="11.5646189"><ele>366.0</ele><time>2026-04-06T08:30:48.084Z</time></trkpt><trkpt lat="45.45346" lon="11.5645899"><ele>366.0</ele><time>2026-04-06T08:30:50.092Z</time></trkpt><trkpt lat="45.4533797" lon="11.5645397"><ele>366.0</ele><time>2026-04-06T08:30:52.084Z</time></trkpt><trkpt lat="45.4533102" lon="11.5645208"><ele>366.0</ele><time>2026-04-06T08:30:54.1Z</time></trkpt><trkpt lat="45.4532296" lon="11.5645116"><ele>366.0</ele><time>2026-04-06T08:30:56.084Z</time></trkpt><trkpt lat="45.4531514" lon="11.5645219"><ele>368.3333333333333</ele><time>2026-04-06T08:30:58.003Z</time></trkpt><trkpt lat="45.4530604" lon="11.5645091"><ele>370.6666666666667</ele><time>2026-04-06T08:31:00.128Z</time></trkpt><trkpt lat="45.4529877" lon="11.5644753"><ele>373.0</ele><time>2026-04-06T08:31:02.084Z</time></trkpt><trkpt lat="45.4529121" lon="11.5644265"><ele>375.33333333333337</ele><time>2026-04-06T08:31:05.084Z</time></trkpt><trkpt lat="45.4528561" lon="11.5643518"><ele>377.6666666666667</ele><time>2026-04-06T08:31:08.084Z</time></trkpt><trkpt lat="45.4527902" lon="11.5642881"><ele>380.0</ele><time>2026-04-06T08:31:11.084Z</time></trkpt><trkpt lat="45.4527278" lon="11.5642503"><ele>380.0</ele><time>2026-04-06T08:31:13.084Z</time></trkpt><trkpt lat="45.4526637" lon="11.5642417"><ele>380.0</ele><time>2026-04-06T08:31:15.084Z</time></trkpt><trkpt lat="45.4525633" lon="11.5642432"><ele>380.0</ele><time>2026-04-06T08:31:18.084Z</time></trkpt><trkpt lat="45.4524976" lon="11.5642699"><ele>380.0</ele><time>2026-04-06T08:31:20.121Z</time></trkpt><trkpt lat="45.4524267" lon="11.5643171"><ele>380.0</ele><time>2026-04-06T08:31:23.08Z</time></trkpt><trkpt lat="45.4523502" lon="11.5643661"><ele>380.0</ele><time>2026-04-06T08:31:27.084Z</time></trkpt><trkpt lat="45.4522848" lon="11.5644184"><ele>380.0</ele><time>2026-04-06T08:31:30.019Z</time></trkpt><trkpt lat="45.4522296" lon="11.5644956"><ele>380.0</ele><time>2026-04-06T08:31:32.084Z</time></trkpt><trkpt lat="45.4521868" lon="11.5645867"><ele>380.0</ele><time>2026-04-06T08:31:34.084Z</time></trkpt><trkpt lat="45.4521394" lon="11.5647076"><ele>380.0</ele><time>2026-04-06T08:31:36.084Z</time></trkpt><trkpt lat="45.4520872" lon="11.5648216"><ele>380.0</ele><time>2026-04-06T08:31:38.972Z</time></trkpt><trkpt lat="45.4520179" lon="11.5648887"><ele>380.0</ele><time>2026-04-06T08:31:41.084Z</time></trkpt><trkpt lat="45.4519638" lon="11.5649589"><ele>378.33333333333337</ele><time>2026-04-06T08:31:43.084Z</time></trkpt><trkpt lat="45.4519271" lon="11.5650361"><ele>376.6666666666667</ele><time>2026-04-06T08:31:45.011Z</time></trkpt><trkpt lat="45.4519031" lon="11.5652019"><ele>375.0</ele><time>2026-04-06T08:31:47.084Z</time></trkpt><trkpt lat="45.4518816" lon="11.5653008"><ele>373.3333333333333</ele><time>2026-04-06T08:31:48.084Z</time></trkpt><trkpt lat="45.4518563" lon="11.5653931"><ele>371.66666666666663</ele><time>2026-04-06T08:31:49.084Z</time></trkpt><trkpt lat="45.4518325" lon="11.5654835"><ele>370.0</ele><time>2026-04-06T08:31:50.084Z</time></trkpt><trkpt lat="45.4518166" lon="11.5655708"><ele>369.57142857142856</ele><time>2026-04-06T08:31:51.084Z</time></trkpt><trkpt lat="45.4518061" lon="11.5656819"><ele>369.1428571428571</ele><time>2026-04-06T08:31:53.084Z</time></trkpt><trkpt lat="45.4517792" lon="11.5657771"><ele>368.71428571428567</ele><time>2026-04-06T08:31:58.084Z</time></trkpt><trkpt lat="45.4517137" lon="11.5658167"><ele>368.2857142857143</ele><time>2026-04-06T08:32:03.032Z</time></trkpt><trkpt lat="45.4516571" lon="11.5657693"><ele>367.8571428571429</ele><time>2026-04-06T08:32:06.084Z</time></trkpt><trkpt lat="45.4515754" lon="11.5657709"><ele>367.4285714285714</ele><time>2026-04-06T08:32:10.084Z</time></trkpt><trkpt lat="45.4515043" lon="11.5657985"><ele>367.0</ele><time>2026-04-06T08:32:13.084Z</time></trkpt><trkpt lat="45.4514147" lon="11.5657902"><ele>367.0</ele><time>2026-04-06T08:32:16.085Z</time></trkpt><trkpt lat="45.4513465" lon="11.5657712"><ele>367.0</ele><time>2026-04-06T08:32:19.084Z</time></trkpt><trkpt lat="45.4512776" lon="11.5657603"><ele>367.0</ele><time>2026-04-06T08:32:23.084Z</time></trkpt><trkpt lat="45.4512149" lon="11.565741"><ele>367.0</ele><time>2026-04-06T08:32:26.084Z</time></trkpt><trkpt lat="45.4511323" lon="11.5657475"><ele>367.0</ele><time>2026-04-06T08:32:30.084Z</time></trkpt><trkpt lat="45.4510641" lon="11.565736"><ele>367.0</ele><time>2026-04-06T08:32:33.055Z</time></trkpt><trkpt lat="45.4509997" lon="11.5657057"><ele>367.0</ele><time>2026-04-06T08:32:38.129Z</time></trkpt><trkpt lat="45.4509325" lon="11.5656816"><ele>369.0</ele><time>2026-04-06T08:32:42.084Z</time></trkpt><trkpt lat="45.4508647" lon="11.5656422"><ele>371.0</ele><time>2026-04-06T08:32:45.084Z</time></trkpt><trkpt lat="45.4508056" lon="11.5655944"><ele>373.0</ele><time>2026-04-06T08:32:48.084Z</time></trkpt><trkpt lat="45.4507524" lon="11.5655322"><ele>375.0</ele><time>2026-04-06T08:32:51.159Z</time></trkpt><trkpt lat="45.4506943" lon="11.565492"><ele>377.0</ele><time>2026-04-06T08:32:54.099Z</time></trkpt><trkpt lat="45.4506379" lon="11.5654355"><ele>379.0</ele><time>2026-04-06T08:32:57.086Z</time></trkpt><trkpt lat="45.4505874" lon="11.5653553"><ele>381.0</ele><time>2026-04-06T08:33:00.127Z</time></trkpt><trkpt lat="45.4505447" lon="11.5652621"><ele>381.0</ele><time>2026-04-06T08:33:03.084Z</time></trkpt><trkpt lat="45.4505007" lon="11.5651677"><ele>381.0</ele><time>2026-04-06T08:33:06.084Z</time></trkpt><trkpt lat="45.4504609" lon="11.5650844"><ele>381.0</ele><time>2026-04-06T08:33:09.084Z</time></trkpt><trkpt lat="45.4504216" lon="11.5650055"><ele>381.0</ele><time>2026-04-06T08:34:29.084Z</time></trkpt><trkpt lat="45.4503947" lon="11.5649212"><ele>381.0</ele><time>2026-04-06T08:34:36.13Z</time></trkpt><trkpt lat="45.4503488" lon="11.5648279"><ele>381.0</ele><time>2026-04-06T08:45:33.082Z</time></trkpt><trkpt lat="45.4503585" lon="11.5647385"><ele>381.0</ele><time>2026-04-06T08:45:36.082Z</time></trkpt><trkpt lat="45.4503699" lon="11.5646341"><ele>381.4285714285714</ele><time>2026-04-06T08:45:40.082Z</time></trkpt><trkpt lat="45.4503813" lon="11.5645299"><ele>381.8571428571429</ele><time>2026-04-06T08:45:44.083Z</time></trkpt><trkpt lat="45.4503933" lon="11.5644405"><ele>382.2857142857143</ele><time>2026-04-06T08:45:48.082Z</time></trkpt><trkpt lat="45.4503671" lon="11.5643502"><ele>382.71428571428567</ele><time>2026-04-06T08:45:52.082Z</time></trkpt><trkpt lat="45.4503072" lon="11.5642847"><ele>383.1428571428571</ele><time>2026-04-06T08:45:57.082Z</time></trkpt><trkpt lat="45.4502444" lon="11.5642111"><ele>383.57142857142856</ele><time>2026-04-06T08:46:00.082Z</time></trkpt><trkpt lat="45.4501806" lon="11.5641376"><ele>384.0</ele><time>2026-04-06T08:46:03.082Z</time></trkpt><trkpt lat="45.450112" lon="11.5640674"><ele>385.8333333333333</ele><time>2026-04-06T08:46:06.082Z</time></trkpt><trkpt lat="45.4500277" lon="11.5639937"><ele>387.66666666666663</ele><time>2026-04-06T08:46:09.082Z</time></trkpt><trkpt lat="45.4499713" lon="11.5639289"><ele>389.5</ele><time>2026-04-06T08:46:12.082Z</time></trkpt><trkpt lat="45.449911" lon="11.5638699"><ele>391.3333333333333</ele><time>2026-04-06T08:46:15.082Z</time></trkpt><trkpt lat="45.4498491" lon="11.5638311"><ele>393.16666666666663</ele><time>2026-04-06T08:46:18.082Z</time></trkpt><trkpt lat="45.449792" lon="11.5637651"><ele>395.0</ele><time>2026-04-06T08:46:21.082Z</time></trkpt><trkpt lat="45.4497473" lon="11.5636961"><ele>395.3333333333333</ele><time>2026-04-06T08:46:24.082Z</time></trkpt><trkpt lat="45.4496857" lon="11.5636454"><ele>395.66666666666663</ele><time>2026-04-06T08:46:27.237Z</time></trkpt><trkpt lat="45.4496051" lon="11.5635924"><ele>396.0</ele><time>2026-04-06T08:46:31.105Z</time></trkpt><trkpt lat="45.4495379" lon="11.5635662"><ele>396.33333333333337</ele><time>2026-04-06T08:46:33.082Z</time></trkpt><trkpt lat="45.4494771" lon="11.5635148"><ele>396.6666666666667</ele><time>2026-04-06T08:46:36.082Z</time></trkpt><trkpt lat="45.4494096" lon="11.5634536"><ele>397.0</ele><time>2026-04-06T08:46:39.082Z</time></trkpt><trkpt lat="45.449341" lon="11.563393"><ele>397.50000000000006</ele><time>2026-04-06T08:46:43.082Z</time></trkpt><trkpt lat="45.449277" lon="11.5633471"><ele>398.0</ele><time>2026-04-06T08:46:46.082Z</time></trkpt><trkpt lat="45.4492032" lon="11.563291"><ele>398.5</ele><time>2026-04-06T08:46:49.082Z</time></trkpt><trkpt lat="45.449131" lon="11.5632358"><ele>399.0</ele><time>2026-04-06T08:46:52.082Z</time></trkpt><trkpt lat="45.4490637" lon="11.5631893"><ele>399.50000000000006</ele><time>2026-04-06T08:46:55.082Z</time></trkpt><trkpt lat="45.4489927" lon="11.5631463"><ele>400.0</ele><time>2026-04-06T08:46:58.082Z</time></trkpt><trkpt lat="45.4489144" lon="11.5631529"><ele>400.00000000000006</ele><time>2026-04-06T08:47:01.082Z</time></trkpt><trkpt lat="45.4488359" lon="11.563164"><ele>400.0</ele><time>2026-04-06T08:47:04.082Z</time></trkpt><trkpt lat="45.4487665" lon="11.5631646"><ele>400.0</ele><time>2026-04-06T08:47:07.082Z</time></trkpt><trkpt lat="45.4487011" lon="11.5631669"><ele>400.0</ele><time>2026-04-06T08:47:10.082Z</time></trkpt><trkpt lat="45.4486314" lon="11.5631584"><ele>400.0</ele><time>2026-04-06T08:47:13.082Z</time></trkpt><trkpt lat="45.4485552" lon="11.5631555"><ele>400.00000000000006</ele><time>2026-04-06T08:47:17.082Z</time></trkpt><trkpt lat="45.4484794" lon="11.5631697"><ele>400.0</ele><time>2026-04-06T08:47:35.082Z</time></trkpt><trkpt lat="45.4483945" lon="11.5631521"><ele>400.00000000000006</ele><time>2026-04-06T08:47:39.082Z</time></trkpt><trkpt lat="45.4483235" lon="11.5631684"><ele>400.0</ele><time>2026-04-06T08:47:42.082Z</time></trkpt><trkpt lat="45.4482523" lon="11.5632126"><ele>400.0</ele><time>2026-04-06T08:47:46.083Z</time></trkpt><trkpt lat="45.4481855" lon="11.563274"><ele>400.0</ele><time>2026-04-06T08:47:50.082Z</time></trkpt><trkpt lat="45.4481289" lon="11.5633294"><ele>400.0</ele><time>2026-04-06T08:47:54.082Z</time></trkpt><trkpt lat="45.4480728" lon="11.5633903"><ele>400.00000000000006</ele><time>2026-04-06T08:47:58.082Z</time></trkpt><trkpt lat="45.4480186" lon="11.5634543"><ele>400.0</ele><time>2026-04-06T08:48:02.082Z</time></trkpt><trkpt lat="45.4479772" lon="11.5635244"><ele>399.42857142857144</ele><time>2026-04-06T08:48:06.082Z</time></trkpt><trkpt lat="45.4479189" lon="11.563592"><ele>398.8571428571429</ele><time>2026-04-06T08:48:10.082Z</time></trkpt><trkpt lat="45.4478638" lon="11.5636776"><ele>398.28571428571433</ele><time>2026-04-06T08:48:14.082Z</time></trkpt><trkpt lat="45.4478126" lon="11.5637463"><ele>397.7142857142857</ele><time>2026-04-06T08:48:18.082Z</time></trkpt><trkpt lat="45.4477593" lon="11.5638137"><ele>397.1428571428571</ele><time>2026-04-06T08:48:22.082Z</time></trkpt><trkpt lat="45.4476845" lon="11.5638318"><ele>396.5714285714286</ele><time>2026-04-06T08:48:26.082Z</time></trkpt><trkpt lat="45.4476193" lon="11.5638527"><ele>396.0</ele><time>2026-04-06T08:48:29.082Z</time></trkpt><trkpt lat="45.447551" lon="11.5638621"><ele>396.0</ele><time>2026-04-06T08:48:33.082Z</time></trkpt><trkpt lat="45.4474864" lon="11.5638639"><ele>396.0</ele><time>2026-04-06T08:48:36.082Z</time></trkpt><trkpt lat="45.4474214" lon="11.5638431"><ele>396.0</ele><time>2026-04-06T08:48:39.082Z</time></trkpt><trkpt lat="45.4473575" lon="11.5638118"><ele>396.0</ele><time>2026-04-06T08:48:42.082Z</time></trkpt><trkpt lat="45.4472845" lon="11.5637777"><ele>396.0</ele><time>2026-04-06T08:48:45.082Z</time></trkpt><trkpt lat="45.4472229" lon="11.5637143"><ele>396.0</ele><time>2026-04-06T08:48:47.982Z</time></trkpt><trkpt lat="45.4471486" lon="11.563676"><ele>396.0</ele><time>2026-04-06T08:48:50.901Z</time></trkpt><trkpt lat="45.4470754" lon="11.5636443"><ele>396.1666666666667</ele><time>2026-04-06T08:48:54.082Z</time></trkpt><trkpt lat="45.4470103" lon="11.5636153"><ele>396.33333333333337</ele><time>2026-04-06T08:48:56.984Z</time></trkpt><trkpt lat="45.4469552" lon="11.5635487"><ele>396.5</ele><time>2026-04-06T08:49:00.082Z</time></trkpt><trkpt lat="45.4469499" lon="11.5634481"><ele>396.6666666666667</ele><time>2026-04-06T08:49:05.082Z</time></trkpt><trkpt lat="45.4469483" lon="11.5635464"><ele>396.83333333333337</ele><time>2026-04-06T08:50:36.064Z</time></trkpt><trkpt lat="45.4469085" lon="11.5636449"><ele>397.0</ele><time>2026-04-06T08:50:40.11Z</time></trkpt><trkpt lat="45.4468314" lon="11.5637178"><ele>396.7142857142857</ele><time>2026-04-06T08:50:43.128Z</time></trkpt><trkpt lat="45.4467698" lon="11.5637733"><ele>396.42857142857144</ele><time>2026-04-06T08:50:45.082Z</time></trkpt><trkpt lat="45.4466949" lon="11.5638605"><ele>396.1428571428571</ele><time>2026-04-06T08:50:48.082Z</time></trkpt><trkpt lat="45.4466461" lon="11.5639192"><ele>395.8571428571429</ele><time>2026-04-06T08:50:50.094Z</time></trkpt><trkpt lat="45.4465933" lon="11.5639787"><ele>395.5714285714286</ele><time>2026-04-06T08:50:52.019Z</time></trkpt><trkpt lat="45.446538" lon="11.5640426"><ele>395.2857142857143</ele><time>2026-04-06T08:50:54.082Z</time></trkpt><trkpt lat="45.4464936" lon="11.5641083"><ele>395.0</ele><time>2026-04-06T08:50:56.082Z</time></trkpt><trkpt lat="45.4464518" lon="11.5642208"><ele>394.99999999999994</ele><time>2026-04-06T08:50:59.082Z</time></trkpt><trkpt lat="45.4464225" lon="11.5643367"><ele>395.0</ele><time>2026-04-06T08:51:02.082Z</time></trkpt><trkpt lat="45.4463919" lon="11.5644173"><ele>395.0</ele><time>2026-04-06T08:51:04.082Z</time></trkpt><trkpt lat="45.446343" lon="11.5644745"><ele>395.0</ele><time>2026-04-06T08:51:06.082Z</time></trkpt><trkpt lat="45.4462681" lon="11.5645496"><ele>394.99999999999994</ele><time>2026-04-06T08:51:09.096Z</time></trkpt><trkpt lat="45.4462144" lon="11.5646244"><ele>395.0</ele><time>2026-04-06T08:51:11.126Z</time></trkpt><trkpt lat="45.4461093" lon="11.5647083"><ele>394.57142857142856</ele><time>2026-04-06T08:51:13.082Z</time></trkpt><trkpt lat="45.4460567" lon="11.5647631"><ele>394.14285714285717</ele><time>2026-04-06T08:51:14.082Z</time></trkpt><trkpt lat="45.4460086" lon="11.5648291"><ele>393.7142857142857</ele><time>2026-04-06T08:51:15.082Z</time></trkpt><trkpt lat="45.4459587" lon="11.5648977"><ele>393.2857142857143</ele><time>2026-04-06T08:51:16.082Z</time></trkpt><trkpt lat="45.4459038" lon="11.5649631"><ele>392.8571428571429</ele><time>2026-04-06T08:51:17.082Z</time></trkpt><trkpt lat="45.4458572" lon="11.565024"><ele>392.42857142857144</ele><time>2026-04-06T08:51:18.082Z</time></trkpt><trkpt lat="45.4457981" lon="11.5651096"><ele>392.0</ele><time>2026-04-06T08:51:19.082Z</time></trkpt><trkpt lat="45.4457502" lon="11.5651871"><ele>392.0</ele><time>2026-04-06T08:51:20.082Z</time></trkpt><trkpt lat="45.4456549" lon="11.5653111"><ele>392.0</ele><time>2026-04-06T08:51:22.082Z</time></trkpt><trkpt lat="45.4455963" lon="11.5654075"><ele>392.0</ele><time>2026-04-06T08:51:24.082Z</time></trkpt><trkpt lat="45.4455452" lon="11.5655573"><ele>392.0</ele><time>2026-04-06T08:51:26.082Z</time></trkpt><trkpt lat="45.4455565" lon="11.5656466"><ele>392.0</ele><time>2026-04-06T08:51:27.083Z</time></trkpt><trkpt lat="45.4455799" lon="11.5658316"><ele>391.2857142857143</ele><time>2026-04-06T08:51:29.082Z</time></trkpt><trkpt lat="45.4455821" lon="11.5659236"><ele>390.57142857142856</ele><time>2026-04-06T08:51:30.082Z</time></trkpt><trkpt lat="45.445559" lon="11.566008"><ele>389.8571428571429</ele><time>2026-04-06T08:51:31.082Z</time></trkpt><trkpt lat="45.4455096" lon="11.5660836"><ele>389.1428571428571</ele><time>2026-04-06T08:51:32.082Z</time></trkpt><trkpt lat="45.4454528" lon="11.566146"><ele>388.42857142857144</ele><time>2026-04-06T08:51:33.083Z</time></trkpt><trkpt lat="45.4453872" lon="11.566159"><ele>387.7142857142857</ele><time>2026-04-06T08:51:34.082Z</time></trkpt><trkpt lat="45.4453169" lon="11.5661871"><ele>387.0</ele><time>2026-04-06T08:51:35.082Z</time></trkpt><trkpt lat="45.4452581" lon="11.5662271"><ele>383.0</ele><time>2026-04-06T08:51:36.082Z</time></trkpt><trkpt lat="45.4451891" lon="11.5662561"><ele>379.0</ele><time>2026-04-06T08:51:37.082Z</time></trkpt><trkpt lat="45.4450779" lon="11.5662838"><ele>375.0</ele><time>2026-04-06T08:51:39.082Z</time></trkpt><trkpt lat="45.4449881" lon="11.5663141"><ele>371.0</ele><time>2026-04-06T08:51:41.082Z</time></trkpt><trkpt lat="45.4449141" lon="11.5663763"><ele>367.0</ele><time>2026-04-06T08:51:43.082Z</time></trkpt><trkpt lat="45.4448924" lon="11.5664973"><ele>367.0</ele><time>2026-04-06T08:51:45.082Z</time></trkpt><trkpt lat="45.4448938" lon="11.5666425"><ele>367.0</ele><time>2026-04-06T08:51:47.082Z</time></trkpt><trkpt lat="45.4449076" lon="11.5667719"><ele>367.0</ele><time>2026-04-06T08:51:49.082Z</time></trkpt><trkpt lat="45.4449028" lon="11.5669081"><ele>367.0</ele><time>2026-04-06T08:51:51.082Z</time></trkpt><trkpt lat="45.4448885" lon="11.5670666"><ele>367.0</ele><time>2026-04-06T08:51:53.082Z</time></trkpt><trkpt lat="45.4448715" lon="11.5672255"><ele>365.16666666666663</ele><time>2026-04-06T08:51:55.082Z</time></trkpt><trkpt lat="45.4448495" lon="11.5673775"><ele>363.3333333333333</ele><time>2026-04-06T08:51:57.082Z</time></trkpt><trkpt lat="45.4448303" lon="11.5674815"><ele>361.5</ele><time>2026-04-06T08:51:59.082Z</time></trkpt><trkpt lat="45.4448143" lon="11.5676051"><ele>359.6666666666667</ele><time>2026-04-06T08:52:02.082Z</time></trkpt><trkpt lat="45.444788" lon="11.5677141"><ele>357.83333333333337</ele><time>2026-04-06T08:52:04.083Z</time></trkpt><trkpt lat="45.4447548" lon="11.5678369"><ele>356.0</ele><time>2026-04-06T08:52:08.111Z</time></trkpt><trkpt lat="45.4446722" lon="11.5678422"><ele>354.6666666666667</ele><time>2026-04-06T08:52:11.082Z</time></trkpt><trkpt lat="45.4446062" lon="11.567769"><ele>353.33333333333337</ele><time>2026-04-06T08:52:14.082Z</time></trkpt><trkpt lat="45.4445575" lon="11.5676656"><ele>352.0</ele><time>2026-04-06T08:52:17.082Z</time></trkpt><trkpt lat="45.4445257" lon="11.5675503"><ele>350.6666666666667</ele><time>2026-04-06T08:52:20.082Z</time></trkpt><trkpt lat="45.4445001" lon="11.5674655"><ele>349.3333333333333</ele><time>2026-04-06T08:52:22.082Z</time></trkpt><trkpt lat="45.4444725" lon="11.5673812"><ele>348.0</ele><time>2026-04-06T08:52:24.082Z</time></trkpt><trkpt lat="45.4444503" lon="11.5672967"><ele>348.0</ele><time>2026-04-06T08:52:26.082Z</time></trkpt><trkpt lat="45.4444205" lon="11.5672074"><ele>348.0</ele><time>2026-04-06T08:52:28.082Z</time></trkpt><trkpt lat="45.4443892" lon="11.5671048"><ele>348.0</ele><time>2026-04-06T08:52:30.082Z</time></trkpt><trkpt lat="45.4443639" lon="11.5670088"><ele>348.0</ele><time>2026-04-06T08:52:32.082Z</time></trkpt><trkpt lat="45.4443335" lon="11.566917"><ele>348.0</ele><time>2026-04-06T08:52:34.082Z</time></trkpt><trkpt lat="45.4443002" lon="11.5668123"><ele>348.0</ele><time>2026-04-06T08:52:36.082Z</time></trkpt><trkpt lat="45.4442721" lon="11.5666659"><ele>348.42857142857144</ele><time>2026-04-06T08:52:38.082Z</time></trkpt><trkpt lat="45.4442654" lon="11.566569"><ele>348.8571428571429</ele><time>2026-04-06T08:52:39.082Z</time></trkpt><trkpt lat="45.4442623" lon="11.56647"><ele>349.28571428571433</ele><time>2026-04-06T08:52:40.082Z</time></trkpt><trkpt lat="45.4442693" lon="11.5663722"><ele>349.7142857142857</ele><time>2026-04-06T08:52:41.082Z</time></trkpt><trkpt lat="45.4442936" lon="11.5662695"><ele>350.14285714285717</ele><time>2026-04-06T08:52:42.082Z</time></trkpt><trkpt lat="45.4443222" lon="11.566164"><ele>350.5714285714286</ele><time>2026-04-06T08:52:43.082Z</time></trkpt><trkpt lat="45.4443415" lon="11.5660723"><ele>351.0</ele><time>2026-04-06T08:52:44.082Z</time></trkpt><trkpt lat="45.4443568" lon="11.5659848"><ele>351.6666666666667</ele><time>2026-04-06T08:52:45.082Z</time></trkpt><trkpt lat="45.4443705" lon="11.5658353"><ele>352.3333333333333</ele><time>2026-04-06T08:52:47.082Z</time></trkpt><trkpt lat="45.4443386" lon="11.5657303"><ele>353.0</ele><time>2026-04-06T08:52:49.082Z</time></trkpt><trkpt lat="45.4443138" lon="11.5656366"><ele>353.66666666666663</ele><time>2026-04-06T08:52:51.082Z</time></trkpt><trkpt lat="45.4442946" lon="11.5655403"><ele>354.3333333333333</ele><time>2026-04-06T08:52:53.082Z</time></trkpt><trkpt lat="45.4442184" lon="11.5654645"><ele>355.0</ele><time>2026-04-06T08:52:56.082Z</time></trkpt><trkpt lat="45.4441538" lon="11.5654349"><ele>355.0</ele><time>2026-04-06T08:52:58.082Z</time></trkpt><trkpt lat="45.4440958" lon="11.5653743"><ele>355.0</ele><time>2026-04-06T08:53:01.082Z</time></trkpt><trkpt lat="45.4440085" lon="11.5653147"><ele>355.0</ele><time>2026-04-06T08:53:04.082Z</time></trkpt><trkpt lat="45.4439329" lon="11.5652659"><ele>355.0</ele><time>2026-04-06T08:53:07.082Z</time></trkpt><trkpt lat="45.4438757" lon="11.5652168"><ele>355.0</ele><time>2026-04-06T08:53:09.082Z</time></trkpt><trkpt lat="45.4438136" lon="11.5651705"><ele>355.0</ele><time>2026-04-06T08:53:12.082Z</time></trkpt><trkpt lat="45.4437439" lon="11.5651703"><ele>353.16666666666663</ele><time>2026-04-06T08:53:14.082Z</time></trkpt><trkpt lat="45.4436718" lon="11.5651805"><ele>351.3333333333333</ele><time>2026-04-06T08:53:16.091Z</time></trkpt><trkpt lat="45.4435891" lon="11.5651715"><ele>349.5</ele><time>2026-04-06T08:53:18.065Z</time></trkpt><trkpt lat="45.4435008" lon="11.5651761"><ele>347.6666666666667</ele><time>2026-04-06T08:53:20.083Z</time></trkpt><trkpt lat="45.4434186" lon="11.5651662"><ele>345.83333333333337</ele><time>2026-04-06T08:53:22.082Z</time></trkpt><trkpt lat="45.4433322" lon="11.5651681"><ele>344.0</ele><time>2026-04-06T08:53:24.082Z</time></trkpt><trkpt lat="45.443251" lon="11.5651773"><ele>344.0</ele><time>2026-04-06T08:53:26.129Z</time></trkpt><trkpt lat="45.4431675" lon="11.5651966"><ele>344.0</ele><time>2026-04-06T08:53:28.086Z</time></trkpt><trkpt lat="45.4430806" lon="11.5652109"><ele>344.0</ele><time>2026-04-06T08:53:30.082Z</time></trkpt><trkpt lat="45.4429496" lon="11.5651072"><ele>344.0</ele><time>2026-04-06T08:53:32.082Z</time></trkpt><trkpt lat="45.4428921" lon="11.5650159"><ele>344.0</ele><time>2026-04-06T08:53:34.082Z</time></trkpt><trkpt lat="45.4428433" lon="11.5649154"><ele>345.5714285714286</ele><time>2026-04-06T08:53:36.082Z</time></trkpt><trkpt lat="45.4428182" lon="11.5648316"><ele>347.14285714285717</ele><time>2026-04-06T08:53:38.082Z</time></trkpt><trkpt lat="45.4427728" lon="11.5647041"><ele>348.7142857142857</ele><time>2026-04-06T08:53:42.082Z</time></trkpt><trkpt lat="45.4427579" lon="11.5645944"><ele>350.28571428571433</ele><time>2026-04-06T08:53:44.082Z</time></trkpt><trkpt lat="45.4427408" lon="11.5645019"><ele>351.8571428571429</ele><time>2026-04-06T08:53:46.11Z</time></trkpt><trkpt lat="45.4427277" lon="11.5644062"><ele>353.42857142857144</ele><time>2026-04-06T08:53:48.082Z</time></trkpt><trkpt lat="45.4427164" lon="11.5643174"><ele>355.0</ele><time>2026-04-06T08:53:50.098Z</time></trkpt><trkpt lat="45.4427006" lon="11.5642059"><ele>355.16666666666663</ele><time>2026-04-06T08:53:53.082Z</time></trkpt><trkpt lat="45.442687" lon="11.5641018"><ele>355.3333333333333</ele><time>2026-04-06T08:53:56.082Z</time></trkpt><trkpt lat="45.4426727" lon="11.5639961"><ele>355.5</ele><time>2026-04-06T08:53:59.082Z</time></trkpt><trkpt lat="45.4426568" lon="11.5638756"><ele>355.6666666666667</ele><time>2026-04-06T08:54:02.082Z</time></trkpt><trkpt lat="45.4426733" lon="11.5637484"><ele>355.83333333333337</ele><time>2026-04-06T08:54:05.082Z</time></trkpt><trkpt lat="45.442673" lon="11.5636291"><ele>356.0</ele><time>2026-04-06T08:54:08.101Z</time></trkpt><trkpt lat="45.4426745" lon="11.5635181"><ele>355.5</ele><time>2026-04-06T08:54:11.088Z</time></trkpt><trkpt lat="45.4427001" lon="11.5634281"><ele>355.0</ele><time>2026-04-06T08:54:14.082Z</time></trkpt><trkpt lat="45.4427222" lon="11.5633172"><ele>354.5</ele><time>2026-04-06T08:54:17.02Z</time></trkpt><trkpt lat="45.4427275" lon="11.5632257"><ele>354.0</ele><time>2026-04-06T08:54:19.096Z</time></trkpt><trkpt lat="45.4427533" lon="11.5631053"><ele>353.5</ele><time>2026-04-06T08:54:22.084Z</time></trkpt><trkpt lat="45.4427653" lon="11.5629785"><ele>353.0</ele><time>2026-04-06T08:54:26.082Z</time></trkpt><trkpt lat="45.4427755" lon="11.5628663"><ele>354.25</ele><time>2026-04-06T08:54:29.082Z</time></trkpt><trkpt lat="45.4428011" lon="11.562763"><ele>355.5</ele><time>2026-04-06T08:54:32.082Z</time></trkpt><trkpt lat="45.4428276" lon="11.5626693"><ele>356.75</ele><time>2026-04-06T08:54:35.143Z</time></trkpt><trkpt lat="45.4428748" lon="11.5625884"><ele>358.0</ele><time>2026-04-06T08:54:38.098Z</time></trkpt><trkpt lat="45.4431423" lon="11.5625862"><ele>358.0</ele><time>2026-04-06T08:54:41.087Z</time></trkpt><trkpt lat="45.4432168" lon="11.5625612"><ele>358.0</ele><time>2026-04-06T08:54:42.082Z</time></trkpt><trkpt lat="45.4432741" lon="11.5624628"><ele>358.0</ele><time>2026-04-06T08:54:45.034Z</time></trkpt><trkpt lat="45.4433337" lon="11.5623882"><ele>358.0</ele><time>2026-04-06T08:54:48.082Z</time></trkpt><trkpt lat="45.4433934" lon="11.5623084"><ele>358.0</ele><time>2026-04-06T08:54:51.058Z</time></trkpt><trkpt lat="45.4434584" lon="11.5622523"><ele>358.0</ele><time>2026-04-06T08:54:53.082Z</time></trkpt><trkpt lat="45.4435385" lon="11.5622208"><ele>358.0</ele><time>2026-04-06T08:54:55.082Z</time></trkpt><trkpt lat="45.4436011" lon="11.5621938"><ele>358.0</ele><time>2026-04-06T08:54:57.101Z</time></trkpt><trkpt lat="45.4436764" lon="11.562169"><ele>358.0</ele><time>2026-04-06T08:54:59.082Z</time></trkpt><trkpt lat="45.443763" lon="11.562161"><ele>358.0</ele><time>2026-04-06T08:55:01.082Z</time></trkpt><trkpt lat="45.4438607" lon="11.5621871"><ele>358.0</ele><time>2026-04-06T08:55:04.082Z</time></trkpt><trkpt lat="45.4439322" lon="11.5622133"><ele>358.0</ele><time>2026-04-06T08:55:06.082Z</time></trkpt><trkpt lat="45.4440011" lon="11.562248"><ele>358.7142857142857</ele><time>2026-04-06T08:55:08.082Z</time></trkpt><trkpt lat="45.4440755" lon="11.5622655"><ele>359.42857142857144</ele><time>2026-04-06T08:55:10.082Z</time></trkpt><trkpt lat="45.4441518" lon="11.5622673"><ele>360.1428571428571</ele><time>2026-04-06T08:55:12.082Z</time></trkpt><trkpt lat="45.4442201" lon="11.5622624"><ele>360.8571428571429</ele><time>2026-04-06T08:55:14.086Z</time></trkpt><trkpt lat="45.4442927" lon="11.5622473"><ele>361.57142857142856</ele><time>2026-04-06T08:55:16.114Z</time></trkpt><trkpt lat="45.4443651" lon="11.5622409"><ele>362.2857142857143</ele><time>2026-04-06T08:55:18.082Z</time></trkpt><trkpt lat="45.4444304" lon="11.5622513"><ele>363.0</ele><time>2026-04-06T08:55:20.071Z</time></trkpt><trkpt lat="45.444511" lon="11.5622845"><ele>363.0</ele><time>2026-04-06T08:55:22.084Z</time></trkpt><trkpt lat="45.4445897" lon="11.5623391"><ele>363.0</ele><time>2026-04-06T08:55:23.082Z</time></trkpt><trkpt lat="45.4446844" lon="11.5623632"><ele>363.0</ele><time>2026-04-06T08:55:25.082Z</time></trkpt><trkpt lat="45.4447448" lon="11.5623373"><ele>363.0</ele><time>2026-04-06T08:55:27.082Z</time></trkpt><trkpt lat="45.4448234" lon="11.562243"><ele>363.0</ele><time>2026-04-06T08:55:29.082Z</time></trkpt><trkpt lat="45.444867" lon="11.5621484"><ele>363.0</ele><time>2026-04-06T08:55:31.082Z</time></trkpt><trkpt lat="45.4449386" lon="11.5620871"><ele>361.8333333333333</ele><time>2026-04-06T08:55:34.082Z</time></trkpt><trkpt lat="45.4450132" lon="11.5619869"><ele>360.6666666666667</ele><time>2026-04-06T08:55:36.082Z</time></trkpt><trkpt lat="45.4450857" lon="11.5619204"><ele>359.5</ele><time>2026-04-06T08:55:38.082Z</time></trkpt><trkpt lat="45.4451621" lon="11.5618794"><ele>358.33333333333337</ele><time>2026-04-06T08:55:40.097Z</time></trkpt><trkpt lat="45.4452274" lon="11.5618673"><ele>357.1666666666667</ele><time>2026-04-06T08:55:42.052Z</time></trkpt><trkpt lat="45.4453117" lon="11.5618169"><ele>356.0</ele><time>2026-04-06T08:55:45.083Z</time></trkpt><trkpt lat="45.4453937" lon="11.5617425"><ele>357.6</ele><time>2026-04-06T08:55:48.105Z</time></trkpt><trkpt lat="45.4454669" lon="11.5616866"><ele>359.20000000000005</ele><time>2026-04-06T08:55:50.082Z</time></trkpt><trkpt lat="45.4455803" lon="11.5616129"><ele>360.79999999999995</ele><time>2026-04-06T08:55:52.082Z</time></trkpt><trkpt lat="45.4456427" lon="11.5615601"><ele>362.4</ele><time>2026-04-06T08:55:53.082Z</time></trkpt><trkpt lat="45.4457393" lon="11.5615295"><ele>364.0</ele><time>2026-04-06T08:55:55.082Z</time></trkpt><trkpt lat="45.4458394" lon="11.5614768"><ele>364.0</ele><time>2026-04-06T08:55:57.082Z</time></trkpt><trkpt lat="45.4459224" lon="11.5614265"><ele>364.0</ele><time>2026-04-06T08:55:58.082Z</time></trkpt><trkpt lat="45.4459971" lon="11.5614198"><ele>364.0</ele><time>2026-04-06T08:55:59.082Z</time></trkpt><trkpt lat="45.4460958" lon="11.5613353"><ele>364.0</ele><time>2026-04-06T08:56:01.082Z</time></trkpt><trkpt lat="45.4461971" lon="11.5612661"><ele>364.0</ele><time>2026-04-06T08:56:03.082Z</time></trkpt><trkpt lat="45.4462732" lon="11.5611988"><ele>363.8333333333333</ele><time>2026-04-06T08:56:05.082Z</time></trkpt><trkpt lat="45.4463179" lon="11.5611077"><ele>363.66666666666663</ele><time>2026-04-06T08:56:07.082Z</time></trkpt><trkpt lat="45.4463725" lon="11.5610339"><ele>363.5</ele><time>2026-04-06T08:56:09.082Z</time></trkpt><trkpt lat="45.4464235" lon="11.5609467"><ele>363.3333333333333</ele><time>2026-04-06T08:56:11.082Z</time></trkpt><trkpt lat="45.4464805" lon="11.5608593"><ele>363.1666666666667</ele><time>2026-04-06T08:56:13.082Z</time></trkpt><trkpt lat="45.4465507" lon="11.5607701"><ele>363.0</ele><time>2026-04-06T08:56:15.083Z</time></trkpt><trkpt lat="45.4466242" lon="11.5606616"><ele>363.0</ele><time>2026-04-06T08:56:17.082Z</time></trkpt><trkpt lat="45.4467126" lon="11.5605582"><ele>363.0</ele><time>2026-04-06T08:56:19.082Z</time></trkpt><trkpt lat="45.4467931" lon="11.5604799"><ele>363.0</ele><time>2026-04-06T08:56:21.082Z</time></trkpt><trkpt lat="45.4468626" lon="11.5603902"><ele>363.0</ele><time>2026-04-06T08:56:23.082Z</time></trkpt><trkpt lat="45.4469076" lon="11.5602792"><ele>363.0</ele><time>2026-04-06T08:56:25.082Z</time></trkpt><trkpt lat="45.4469601" lon="11.5602243"><ele>362.71428571428567</ele><time>2026-04-06T08:56:27.082Z</time></trkpt><trkpt lat="45.4470242" lon="11.5601772"><ele>362.42857142857144</ele><time>2026-04-06T08:56:29.082Z</time></trkpt><trkpt lat="45.4470936" lon="11.5601592"><ele>362.1428571428571</ele><time>2026-04-06T08:56:31.979Z</time></trkpt><trkpt lat="45.447161" lon="11.5601627"><ele>361.85714285714283</ele><time>2026-04-06T08:56:34.097Z</time></trkpt><trkpt lat="45.4472307" lon="11.5601786"><ele>361.57142857142856</ele><time>2026-04-06T08:56:37.086Z</time></trkpt><trkpt lat="45.4473055" lon="11.5601765"><ele>361.2857142857143</ele><time>2026-04-06T08:56:40.099Z</time></trkpt><trkpt lat="45.4473894" lon="11.5601643"><ele>361.0</ele><time>2026-04-06T08:56:43.082Z</time></trkpt><trkpt lat="45.4474681" lon="11.5601497"><ele>361.0</ele><time>2026-04-06T08:56:46.082Z</time></trkpt><trkpt lat="45.4475453" lon="11.5601197"><ele>361.0</ele><time>2026-04-06T08:56:49.099Z</time></trkpt><trkpt lat="45.4476425" lon="11.5600766"><ele>361.0</ele><time>2026-04-06T08:56:51.082Z</time></trkpt><trkpt lat="45.4477182" lon="11.560055"><ele>361.0</ele><time>2026-04-06T08:56:53.032Z</time></trkpt><trkpt lat="45.4477965" lon="11.5600261"><ele>361.0</ele><time>2026-04-06T08:56:55.082Z</time></trkpt><trkpt lat="45.4478551" lon="11.5599846"><ele>361.0</ele><time>2026-04-06T08:56:57.086Z</time></trkpt><trkpt lat="45.4479496" lon="11.5599092"><ele>362.42857142857144</ele><time>2026-04-06T08:56:59.086Z</time></trkpt><trkpt lat="45.4480165" lon="11.5598707"><ele>363.85714285714283</ele><time>2026-04-06T08:57:00.083Z</time></trkpt><trkpt lat="45.4480807" lon="11.559838"><ele>365.2857142857143</ele><time>2026-04-06T08:57:01.085Z</time></trkpt><trkpt lat="45.4481354" lon="11.5597888"><ele>366.7142857142857</ele><time>2026-04-06T08:57:02.085Z</time></trkpt><trkpt lat="45.4482151" lon="11.5597161"><ele>368.1428571428571</ele><time>2026-04-06T08:57:04.085Z</time></trkpt><trkpt lat="45.4482725" lon="11.5596492"><ele>369.57142857142856</ele><time>2026-04-06T08:57:06.085Z</time></trkpt><trkpt lat="45.448348" lon="11.559646"><ele>371.0</ele><time>2026-04-06T08:57:08.085Z</time></trkpt><trkpt lat="45.4483917" lon="11.5595707"><ele>368.0</ele><time>2026-04-06T08:57:10.085Z</time></trkpt><trkpt lat="45.4484346" lon="11.5594682"><ele>365.0</ele><time>2026-04-06T08:57:12.085Z</time></trkpt><trkpt lat="45.4484192" lon="11.5593414"><ele>362.0</ele><time>2026-04-06T08:57:15.12Z</time></trkpt><trkpt lat="45.4484459" lon="11.559182"><ele>359.0</ele><time>2026-04-06T08:57:17.085Z</time></trkpt><trkpt lat="45.4484482" lon="11.5590858"><ele>356.0</ele><time>2026-04-06T08:57:18.085Z</time></trkpt><trkpt lat="45.4484059" lon="11.5589356"><ele>356.0</ele><time>2026-04-06T08:57:20.085Z</time></trkpt><trkpt lat="45.4483348" lon="11.5588089"><ele>356.0</ele><time>2026-04-06T08:57:22.085Z</time></trkpt><trkpt lat="45.4482552" lon="11.5586925"><ele>356.0</ele><time>2026-04-06T08:57:24.085Z</time></trkpt><trkpt lat="45.4481921" lon="11.558584"><ele>356.0</ele><time>2026-04-06T08:57:26.085Z</time></trkpt><trkpt lat="45.4481417" lon="11.5584764"><ele>356.0</ele><time>2026-04-06T08:57:28.085Z</time></trkpt><trkpt lat="45.4480817" lon="11.5584202"><ele>356.0</ele><time>2026-04-06T08:57:30.085Z</time></trkpt><trkpt lat="45.4480187" lon="11.558464"><ele>356.0</ele><time>2026-04-06T08:57:32.085Z</time></trkpt><trkpt lat="45.4479988" lon="11.5585863"><ele>356.0</ele><time>2026-04-06T08:57:34.085Z</time></trkpt><trkpt lat="45.4480151" lon="11.5587053"><ele>356.0</ele><time>2026-04-06T08:57:36.085Z</time></trkpt><trkpt lat="45.4480265" lon="11.5587949"><ele>356.0</ele><time>2026-04-06T08:57:38.085Z</time></trkpt><trkpt lat="45.4480375" lon="11.5588991"><ele>356.0</ele><time>2026-04-06T08:57:40.163Z</time></trkpt><trkpt lat="45.4480824" lon="11.5589923"><ele>356.0</ele><time>2026-04-06T08:57:42.085Z</time></trkpt><trkpt lat="45.4481185" lon="11.5590875"><ele>356.0</ele><time>2026-04-06T08:57:43.995Z</time></trkpt><trkpt lat="45.4481253" lon="11.5591966"><ele>356.0</ele><time>2026-04-06T08:57:46.076Z</time></trkpt><trkpt lat="45.4480817" lon="11.5592821"><ele>356.0</ele><time>2026-04-06T08:57:48.039Z</time></trkpt><trkpt lat="45.4479826" lon="11.5593024"><ele>356.0</ele><time>2026-04-06T08:57:50.085Z</time></trkpt><trkpt lat="45.4478954" lon="11.5592302"><ele>356.0</ele><time>2026-04-06T08:57:52.085Z</time></trkpt><trkpt lat="45.4478349" lon="11.5590883"><ele>352.8</ele><time>2026-04-06T08:57:54.085Z</time></trkpt><trkpt lat="45.4477911" lon="11.5589589"><ele>349.6</ele><time>2026-04-06T08:57:56.085Z</time></trkpt><trkpt lat="45.4477766" lon="11.5588334"><ele>346.4</ele><time>2026-04-06T08:57:58.085Z</time></trkpt><trkpt lat="45.4477661" lon="11.5586962"><ele>343.2</ele><time>2026-04-06T08:58:00.085Z</time></trkpt><trkpt lat="45.4477377" lon="11.5585761"><ele>340.0</ele><time>2026-04-06T08:58:02.085Z</time></trkpt><trkpt lat="45.4476974" lon="11.5584439"><ele>338.6</ele><time>2026-04-06T08:58:04.085Z</time></trkpt><trkpt lat="45.4476557" lon="11.5583081"><ele>337.2</ele><time>2026-04-06T08:58:06.085Z</time></trkpt><trkpt lat="45.447619" lon="11.5581702"><ele>335.79999999999995</ele><time>2026-04-06T08:58:08.085Z</time></trkpt><trkpt lat="45.4476112" lon="11.5580166"><ele>334.4</ele><time>2026-04-06T08:58:10.085Z</time></trkpt><trkpt lat="45.4476243" lon="11.5578604"><ele>333.0</ele><time>2026-04-06T08:58:12.085Z</time></trkpt><trkpt lat="45.4476205" lon="11.5577472"><ele>332.8333333333333</ele><time>2026-04-06T08:58:14.085Z</time></trkpt><trkpt lat="45.4476359" lon="11.5576598"><ele>332.6666666666667</ele><time>2026-04-06T08:58:17.085Z</time></trkpt><trkpt lat="45.4476585" lon="11.5575556"><ele>332.5</ele><time>2026-04-06T08:59:13.085Z</time></trkpt><trkpt lat="45.4476692" lon="11.5574643"><ele>332.33333333333337</ele><time>2026-04-06T08:59:17.086Z</time></trkpt><trkpt lat="45.4476402" lon="11.557349"><ele>332.1666666666667</ele><time>2026-04-06T08:59:20.085Z</time></trkpt><trkpt lat="45.4475962" lon="11.5572235"><ele>332.0</ele><time>2026-04-06T08:59:23.085Z</time></trkpt><trkpt lat="45.4475646" lon="11.5571298"><ele>331.83333333333337</ele><time>2026-04-06T08:59:25.085Z</time></trkpt><trkpt lat="45.4475344" lon="11.5570339"><ele>331.6666666666667</ele><time>2026-04-06T08:59:27.085Z</time></trkpt><trkpt lat="45.4474842" lon="11.556917"><ele>331.5</ele><time>2026-04-06T08:59:30.085Z</time></trkpt><trkpt lat="45.4474528" lon="11.5568284"><ele>331.3333333333333</ele><time>2026-04-06T08:59:32.085Z</time></trkpt><trkpt lat="45.4474134" lon="11.5567422"><ele>331.16666666666663</ele><time>2026-04-06T08:59:34.086Z</time></trkpt><trkpt lat="45.4473659" lon="11.5566492"><ele>331.0</ele><time>2026-04-06T08:59:36.085Z</time></trkpt><trkpt lat="45.4473268" lon="11.5565514"><ele>331.0</ele><time>2026-04-06T08:59:38.085Z</time></trkpt><trkpt lat="45.4472877" lon="11.5564631"><ele>331.0</ele><time>2026-04-06T08:59:40.085Z</time></trkpt><trkpt lat="45.447243" lon="11.5563802"><ele>331.0</ele><time>2026-04-06T08:59:42.085Z</time></trkpt><trkpt lat="45.4471981" lon="11.5562763"><ele>331.0</ele><time>2026-04-06T08:59:44.085Z</time></trkpt><trkpt lat="45.4471572" lon="11.5561752"><ele>331.0</ele><time>2026-04-06T08:59:46.085Z</time></trkpt><trkpt lat="45.4471195" lon="11.5560717"><ele>331.0</ele><time>2026-04-06T08:59:48.085Z</time></trkpt><trkpt lat="45.4470685" lon="11.555962"><ele>333.6</ele><time>2026-04-06T08:59:50.085Z</time></trkpt><trkpt lat="45.4470274" lon="11.5558561"><ele>336.20000000000005</ele><time>2026-04-06T08:59:52.085Z</time></trkpt><trkpt lat="45.4469724" lon="11.555754"><ele>338.79999999999995</ele><time>2026-04-06T08:59:54.085Z</time></trkpt><trkpt lat="45.4469257" lon="11.5556348"><ele>341.4</ele><time>2026-04-06T08:59:56.085Z</time></trkpt><trkpt lat="45.4468996" lon="11.5554819"><ele>344.0</ele><time>2026-04-06T08:59:58.085Z</time></trkpt><trkpt lat="45.4469107" lon="11.5553383"><ele>345.0</ele><time>2026-04-06T09:00:00.085Z</time></trkpt><trkpt lat="45.4469466" lon="11.5551896"><ele>346.0</ele><time>2026-04-06T09:00:02.085Z</time></trkpt><trkpt lat="45.4469839" lon="11.5550781"><ele>347.0</ele><time>2026-04-06T09:00:04.085Z</time></trkpt><trkpt lat="45.4470094" lon="11.5549639"><ele>348.0</ele><time>2026-04-06T09:00:06.085Z</time></trkpt><trkpt lat="45.4470419" lon="11.5548707"><ele>349.0</ele><time>2026-04-06T09:00:08.085Z</time></trkpt><trkpt lat="45.4470803" lon="11.5547803"><ele>350.0</ele><time>2026-04-06T09:00:12.085Z</time></trkpt><trkpt lat="45.4471375" lon="11.5546897"><ele>349.1666666666667</ele><time>2026-04-06T09:00:16.085Z</time></trkpt><trkpt lat="45.4471988" lon="11.5546131"><ele>348.33333333333337</ele><time>2026-04-06T09:00:19.085Z</time></trkpt><trkpt lat="45.4472539" lon="11.5545234"><ele>347.5</ele><time>2026-04-06T09:00:22.085Z</time></trkpt><trkpt lat="45.4473002" lon="11.5544406"><ele>346.6666666666667</ele><time>2026-04-06T09:00:25.085Z</time></trkpt><trkpt lat="45.4473499" lon="11.5543801"><ele>345.8333333333333</ele><time>2026-04-06T09:00:27.085Z</time></trkpt><trkpt lat="45.4474036" lon="11.5542895"><ele>345.0</ele><time>2026-04-06T09:00:30.085Z</time></trkpt><trkpt lat="45.4474433" lon="11.5542135"><ele>345.0</ele><time>2026-04-06T09:00:33.085Z</time></trkpt><trkpt lat="45.4475001" lon="11.5541476"><ele>345.0</ele><time>2026-04-06T09:00:36.085Z</time></trkpt><trkpt lat="45.4475403" lon="11.5540752"><ele>345.0</ele><time>2026-04-06T09:00:39.085Z</time></trkpt><trkpt lat="45.4475788" lon="11.5539821"><ele>345.0</ele><time>2026-04-06T09:00:42.085Z</time></trkpt><trkpt lat="45.4476026" lon="11.5538932"><ele>345.0</ele><time>2026-04-06T09:00:44.085Z</time></trkpt><trkpt lat="45.4476265" lon="11.5538016"><ele>345.0</ele><time>2026-04-06T09:00:45.996Z</time></trkpt><trkpt lat="45.4476272" lon="11.5537079"><ele>345.0</ele><time>2026-04-06T09:00:48.098Z</time></trkpt><trkpt lat="45.4476255" lon="11.553607"><ele>345.1666666666667</ele><time>2026-04-06T09:00:51.075Z</time></trkpt><trkpt lat="45.4475906" lon="11.5535222"><ele>345.3333333333333</ele><time>2026-04-06T09:00:54.085Z</time></trkpt><trkpt lat="45.4475241" lon="11.5534665"><ele>345.5</ele><time>2026-04-06T09:00:57.127Z</time></trkpt><trkpt lat="45.4474606" lon="11.553445"><ele>345.66666666666663</ele><time>2026-04-06T09:00:59.113Z</time></trkpt><trkpt lat="45.4473858" lon="11.5533965"><ele>345.8333333333333</ele><time>2026-04-06T09:01:01.085Z</time></trkpt><trkpt lat="45.4473179" lon="11.5533421"><ele>346.0</ele><time>2026-04-06T09:01:03.085Z</time></trkpt><trkpt lat="45.447251" lon="11.5532647"><ele>346.0</ele><time>2026-04-06T09:01:05.085Z</time></trkpt><trkpt lat="45.4471792" lon="11.5532294"><ele>346.0</ele><time>2026-04-06T09:01:07.085Z</time></trkpt><trkpt lat="45.4470832" lon="11.553169"><ele>346.0</ele><time>2026-04-06T09:01:09.085Z</time></trkpt><trkpt lat="45.447023" lon="11.5531109"><ele>346.0</ele><time>2026-04-06T09:01:10.085Z</time></trkpt><trkpt lat="45.4469595" lon="11.5530621"><ele>346.0</ele><time>2026-04-06T09:01:11.085Z</time></trkpt><trkpt lat="45.4468849" lon="11.5530107"><ele>346.0</ele><time>2026-04-06T09:01:12.085Z</time></trkpt><trkpt lat="45.4468272" lon="11.552939"><ele>346.66666666666663</ele><time>2026-04-06T09:01:13.085Z</time></trkpt><trkpt lat="45.4467715" lon="11.5528608"><ele>347.3333333333333</ele><time>2026-04-06T09:01:14.085Z</time></trkpt><trkpt lat="45.4467243" lon="11.5527866"><ele>348.0</ele><time>2026-04-06T09:01:15.085Z</time></trkpt><trkpt lat="45.4466732" lon="11.5527012"><ele>348.6666666666667</ele><time>2026-04-06T09:01:16.085Z</time></trkpt><trkpt lat="45.4466288" lon="11.5526174"><ele>349.33333333333337</ele><time>2026-04-06T09:01:17.085Z</time></trkpt><trkpt lat="45.4465497" lon="11.5525029"><ele>350.0</ele><time>2026-04-06T09:01:19.085Z</time></trkpt><trkpt lat="45.4464924" lon="11.5524234"><ele>350.0</ele><time>2026-04-06T09:01:21.085Z</time></trkpt><trkpt lat="45.4464356" lon="11.5523807"><ele>350.0</ele><time>2026-04-06T09:01:24.085Z</time></trkpt><trkpt lat="45.4463789" lon="11.5523214"><ele>350.0</ele><time>2026-04-06T09:01:26.085Z</time></trkpt><trkpt lat="45.4463089" lon="11.5522672"><ele>350.0</ele><time>2026-04-06T09:01:29.085Z</time></trkpt><trkpt lat="45.4462554" lon="11.552193"><ele>350.0</ele><time>2026-04-06T09:01:32.085Z</time></trkpt><trkpt lat="45.4462118" lon="11.5521112"><ele>350.0</ele><time>2026-04-06T09:01:35.085Z</time></trkpt><trkpt lat="45.4461608" lon="11.5520281"><ele>350.0</ele><time>2026-04-06T09:01:39.085Z</time></trkpt><trkpt lat="45.4460876" lon="11.5519494"><ele>350.6666666666667</ele><time>2026-04-06T09:02:48.085Z</time></trkpt><trkpt lat="45.4460482" lon="11.5518688"><ele>351.33333333333337</ele><time>2026-04-06T09:04:34.085Z</time></trkpt><trkpt lat="45.446013" lon="11.5517871"><ele>352.0</ele><time>2026-04-06T09:04:37.085Z</time></trkpt><trkpt lat="45.4459739" lon="11.5517132"><ele>352.6666666666667</ele><time>2026-04-06T09:04:39.086Z</time></trkpt><trkpt lat="45.445923" lon="11.5515874"><ele>353.3333333333333</ele><time>2026-04-06T09:04:41.085Z</time></trkpt><trkpt lat="45.4458623" lon="11.5514614"><ele>354.0</ele><time>2026-04-06T09:04:43.085Z</time></trkpt><trkpt lat="45.4458221" lon="11.5513805"><ele>354.0</ele><time>2026-04-06T09:04:44.085Z</time></trkpt><trkpt lat="45.4457749" lon="11.551227"><ele>354.0</ele><time>2026-04-06T09:04:46.085Z</time></trkpt><trkpt lat="45.4457396" lon="11.5510871"><ele>354.0</ele><time>2026-04-06T09:04:48.085Z</time></trkpt><trkpt lat="45.445707" lon="11.5509509"><ele>354.0</ele><time>2026-04-06T09:04:50.085Z</time></trkpt><trkpt lat="45.4456584" lon="11.5508514"><ele>354.0</ele><time>2026-04-06T09:04:52.085Z</time></trkpt><trkpt lat="45.4456123" lon="11.5507775"><ele>353.5</ele><time>2026-04-06T09:04:54.085Z</time></trkpt><trkpt lat="45.4455422" lon="11.5507425"><ele>353.0</ele><time>2026-04-06T09:04:56.085Z</time></trkpt><trkpt lat="45.4454632" lon="11.5507234"><ele>352.5</ele><time>2026-04-06T09:04:58.082Z</time></trkpt><trkpt lat="45.4453917" lon="11.5507058"><ele>352.0</ele><time>2026-04-06T09:05:00.083Z</time></trkpt><trkpt lat="45.4453139" lon="11.5506892"><ele>351.5</ele><time>2026-04-06T09:05:02.084Z</time></trkpt><trkpt lat="45.4452414" lon="11.5506502"><ele>351.0</ele><time>2026-04-06T09:05:04.083Z</time></trkpt><trkpt lat="45.4451702" lon="11.5505874"><ele>351.0</ele><time>2026-04-06T09:05:06.083Z</time></trkpt><trkpt lat="45.4451191" lon="11.550479"><ele>351.0</ele><time>2026-04-06T09:05:08.083Z</time></trkpt><trkpt lat="45.4450979" lon="11.5503311"><ele>351.0</ele><time>2026-04-06T09:05:10.083Z</time></trkpt><trkpt lat="45.4451095" lon="11.5501846"><ele>351.0</ele><time>2026-04-06T09:05:12.083Z</time></trkpt><trkpt lat="45.4451267" lon="11.5500608"><ele>351.0</ele><time>2026-04-06T09:05:14.083Z</time></trkpt><trkpt lat="45.4451615" lon="11.5499528"><ele>350.7142857142857</ele><time>2026-04-06T09:05:16.083Z</time></trkpt><trkpt lat="45.4451997" lon="11.5498478"><ele>350.42857142857144</ele><time>2026-04-06T09:05:18.083Z</time></trkpt><trkpt lat="45.4452178" lon="11.5497532"><ele>350.1428571428571</ele><time>2026-04-06T09:05:20.083Z</time></trkpt><trkpt lat="45.4452407" lon="11.5496663"><ele>349.8571428571429</ele><time>2026-04-06T09:05:22.083Z</time></trkpt><trkpt lat="45.4452623" lon="11.5495744"><ele>349.57142857142856</ele><time>2026-04-06T09:05:24.083Z</time></trkpt><trkpt lat="45.4452844" lon="11.5494795"><ele>349.2857142857143</ele><time>2026-04-06T09:05:26.083Z</time></trkpt><trkpt lat="45.4453044" lon="11.5493804"><ele>349.0</ele><time>2026-04-06T09:05:28.083Z</time></trkpt><trkpt lat="45.4453333" lon="11.5492887"><ele>349.8333333333333</ele><time>2026-04-06T09:05:30.083Z</time></trkpt><trkpt lat="45.4453569" lon="11.5492035"><ele>350.66666666666663</ele><time>2026-04-06T09:05:32.083Z</time></trkpt><trkpt lat="45.4453732" lon="11.5490779"><ele>351.5</ele><time>2026-04-06T09:05:35.083Z</time></trkpt><trkpt lat="45.4453828" lon="11.5489357"><ele>352.3333333333333</ele><time>2026-04-06T09:05:38.083Z</time></trkpt><trkpt lat="45.4453696" lon="11.5488163"><ele>353.1666666666667</ele><time>2026-04-06T09:05:41.083Z</time></trkpt><trkpt lat="45.4453658" lon="11.5486969"><ele>354.0</ele><time>2026-04-06T09:05:44.083Z</time></trkpt><trkpt lat="45.4454274" lon="11.5486201"><ele>355.2</ele><time>2026-04-06T09:05:47.083Z</time></trkpt><trkpt lat="45.4454881" lon="11.5485192"><ele>356.4</ele><time>2026-04-06T09:05:50.083Z</time></trkpt><trkpt lat="45.4455383" lon="11.5484164"><ele>357.6</ele><time>2026-04-06T09:05:52.083Z</time></trkpt><trkpt lat="45.4456189" lon="11.5483122"><ele>358.8</ele><time>2026-04-06T09:05:54.083Z</time></trkpt><trkpt lat="45.44571" lon="11.5482337"><ele>360.0</ele><time>2026-04-06T09:05:56.083Z</time></trkpt><trkpt lat="45.4457741" lon="11.5481627"><ele>360.0</ele><time>2026-04-06T09:05:58.083Z</time></trkpt><trkpt lat="45.4458176" lon="11.5480864"><ele>360.0</ele><time>2026-04-06T09:06:00.083Z</time></trkpt><trkpt lat="45.4458831" lon="11.5480411"><ele>360.0</ele><time>2026-04-06T09:06:02.083Z</time></trkpt><trkpt lat="45.4459375" lon="11.547992"><ele>360.0</ele><time>2026-04-06T09:06:04.083Z</time></trkpt><trkpt lat="45.446008" lon="11.54794"><ele>360.0</ele><time>2026-04-06T09:06:07.083Z</time></trkpt><trkpt lat="45.4460662" lon="11.5478899"><ele>360.0</ele><time>2026-04-06T09:06:09.083Z</time></trkpt><trkpt lat="45.4461269" lon="11.5478513"><ele>360.0</ele><time>2026-04-06T09:06:12.084Z</time></trkpt><trkpt lat="45.4462112" lon="11.5478353"><ele>361.5</ele><time>2026-04-06T09:06:16.108Z</time></trkpt><trkpt lat="45.4462922" lon="11.5478125"><ele>363.0</ele><time>2026-04-06T09:06:19.095Z</time></trkpt><trkpt lat="45.4463842" lon="11.5477701"><ele>364.5</ele><time>2026-04-06T09:06:22.107Z</time></trkpt><trkpt lat="45.4464442" lon="11.5477167"><ele>366.0</ele><time>2026-04-06T09:06:24.095Z</time></trkpt><trkpt lat="45.4465097" lon="11.547666"><ele>367.5</ele><time>2026-04-06T09:06:26.083Z</time></trkpt><trkpt lat="45.446587" lon="11.5476466"><ele>369.0</ele><time>2026-04-06T09:06:28.083Z</time></trkpt><trkpt lat="45.4466533" lon="11.5476167"><ele>369.0</ele><time>2026-04-06T09:06:30.083Z</time></trkpt><trkpt lat="45.4467278" lon="11.5475616"><ele>369.0</ele><time>2026-04-06T09:06:33.083Z</time></trkpt><trkpt lat="45.4467964" lon="11.5474955"><ele>369.0</ele><time>2026-04-06T09:06:36.083Z</time></trkpt><trkpt lat="45.4468693" lon="11.5473924"><ele>369.0</ele><time>2026-04-06T09:06:39.154Z</time></trkpt><trkpt lat="45.4469271" lon="11.5472944"><ele>369.0</ele><time>2026-04-06T09:06:41.083Z</time></trkpt><trkpt lat="45.4469945" lon="11.5471769"><ele>369.0</ele><time>2026-04-06T09:06:43.083Z</time></trkpt><trkpt lat="45.4470793" lon="11.5470671"><ele>369.0</ele><time>2026-04-06T09:06:45.083Z</time></trkpt><trkpt lat="45.447121" lon="11.5469786"><ele>369.0</ele><time>2026-04-06T09:06:47.083Z</time></trkpt><trkpt lat="45.4471652" lon="11.5468781"><ele>369.0</ele><time>2026-04-06T09:06:49.083Z</time></trkpt><trkpt lat="45.4472103" lon="11.5467905"><ele>369.0</ele><time>2026-04-06T09:06:51.083Z</time></trkpt><trkpt lat="45.4472716" lon="11.5467159"><ele>369.0</ele><time>2026-04-06T09:06:53.083Z</time></trkpt><trkpt lat="45.4473206" lon="11.5466521"><ele>368.2</ele><time>2026-04-06T09:06:55.083Z</time></trkpt><trkpt lat="45.4473764" lon="11.5465753"><ele>367.4</ele><time>2026-04-06T09:06:57.083Z</time></trkpt><trkpt lat="45.4474396" lon="11.5465047"><ele>366.6</ele><time>2026-04-06T09:07:00.083Z</time></trkpt><trkpt lat="45.4475277" lon="11.5463778"><ele>365.8</ele><time>2026-04-06T09:07:03.083Z</time></trkpt><trkpt lat="45.4475928" lon="11.5462877"><ele>365.0</ele><time>2026-04-06T09:07:06.069Z</time></trkpt><trkpt lat="45.4476696" lon="11.5461956"><ele>363.4</ele><time>2026-04-06T09:07:08.133Z</time></trkpt><trkpt lat="45.4477469" lon="11.5461049"><ele>361.8</ele><time>2026-04-06T09:07:09.083Z</time></trkpt><trkpt lat="45.4478168" lon="11.5460159"><ele>360.20000000000005</ele><time>2026-04-06T09:07:10.083Z</time></trkpt><trkpt lat="45.4478846" lon="11.5459383"><ele>358.6</ele><time>2026-04-06T09:07:11.083Z</time></trkpt><trkpt lat="45.4479515" lon="11.5458853"><ele>357.0</ele><time>2026-04-06T09:07:12.083Z</time></trkpt><trkpt lat="45.4480604" lon="11.5457631"><ele>357.0</ele><time>2026-04-06T09:07:14.083Z</time></trkpt><trkpt lat="45.4481397" lon="11.5456718"><ele>357.0</ele><time>2026-04-06T09:07:16.083Z</time></trkpt><trkpt lat="45.4482258" lon="11.5456017"><ele>357.0</ele><time>2026-04-06T09:07:18.083Z</time></trkpt><trkpt lat="45.4482701" lon="11.5455243"><ele>357.0</ele><time>2026-04-06T09:07:21.083Z</time></trkpt><trkpt lat="45.4482214" lon="11.5454327"><ele>357.0</ele><time>2026-04-06T09:07:25.083Z</time></trkpt><trkpt lat="45.4481444" lon="11.5454221"><ele>357.0</ele><time>2026-04-06T09:07:27.083Z</time></trkpt><trkpt lat="45.4480591" lon="11.5454121"><ele>357.0</ele><time>2026-04-06T09:07:29.083Z</time></trkpt><trkpt lat="45.4479962" lon="11.5453947"><ele>357.0</ele><time>2026-04-06T09:07:31.083Z</time></trkpt><trkpt lat="45.4479096" lon="11.5453066"><ele>357.0</ele><time>2026-04-06T09:07:34.083Z</time></trkpt><trkpt lat="45.4478498" lon="11.5452467"><ele>357.0</ele><time>2026-04-06T09:07:36.083Z</time></trkpt><trkpt lat="45.447798" lon="11.5451865"><ele>357.0</ele><time>2026-04-06T09:07:38.083Z</time></trkpt><trkpt lat="45.4477315" lon="11.545128"><ele>357.0</ele><time>2026-04-06T09:07:41.083Z</time></trkpt><trkpt lat="45.4476762" lon="11.5450779"><ele>358.5</ele><time>2026-04-06T09:07:44.083Z</time></trkpt><trkpt lat="45.4476126" lon="11.5450579"><ele>360.0</ele><time>2026-04-06T09:07:47.083Z</time></trkpt><trkpt lat="45.4475487" lon="11.5450429"><ele>361.5</ele><time>2026-04-06T09:07:51.083Z</time></trkpt><trkpt lat="45.4474605" lon="11.5450486"><ele>363.0</ele><time>2026-04-06T09:07:54.083Z</time></trkpt><trkpt lat="45.4473703" lon="11.5450494"><ele>364.5</ele><time>2026-04-06T09:07:58.083Z</time></trkpt><trkpt lat="45.4472813" lon="11.5450329"><ele>366.0</ele><time>2026-04-06T09:08:01.127Z</time></trkpt><trkpt lat="45.4472036" lon="11.5450075"><ele>366.0</ele><time>2026-04-06T09:08:04.083Z</time></trkpt><trkpt lat="45.447132" lon="11.5449871"><ele>366.0</ele><time>2026-04-06T09:08:07.108Z</time></trkpt><trkpt lat="45.4470626" lon="11.5449771"><ele>366.0</ele><time>2026-04-06T09:08:10.095Z</time></trkpt><trkpt lat="45.4469902" lon="11.5449688"><ele>366.0</ele><time>2026-04-06T09:08:13.083Z</time></trkpt><trkpt lat="45.4469113" lon="11.5449658"><ele>366.0</ele><time>2026-04-06T09:08:16.083Z</time></trkpt><trkpt lat="45.4468295" lon="11.5449808"><ele>366.0</ele><time>2026-04-06T09:08:19.002Z</time></trkpt><trkpt lat="45.446755" lon="11.5450059"><ele>367.5</ele><time>2026-04-06T09:08:22.083Z</time></trkpt><trkpt lat="45.4466769" lon="11.5450421"><ele>369.0</ele><time>2026-04-06T09:08:25.083Z</time></trkpt><trkpt lat="45.4466147" lon="11.5450617"><ele>370.5</ele><time>2026-04-06T09:08:27.083Z</time></trkpt><trkpt lat="45.4465372" lon="11.5450542"><ele>372.0</ele><time>2026-04-06T09:08:32.083Z</time></trkpt><trkpt lat="45.4464734" lon="11.5450824"><ele>373.5</ele><time>2026-04-06T09:09:01.083Z</time></trkpt><trkpt lat="45.4464057" lon="11.545114"><ele>375.0</ele><time>2026-04-06T09:09:16.083Z</time></trkpt><trkpt lat="45.4463089" lon="11.5450986"><ele>375.5</ele><time>2026-04-06T09:09:18.083Z</time></trkpt><trkpt lat="45.4462331" lon="11.5450925"><ele>376.0</ele><time>2026-04-06T09:09:20.083Z</time></trkpt><trkpt lat="45.4461682" lon="11.5450903"><ele>376.5</ele><time>2026-04-06T09:09:23.083Z</time></trkpt><trkpt lat="45.446083" lon="11.5450789"><ele>377.0</ele><time>2026-04-06T09:09:26.083Z</time></trkpt><trkpt lat="45.4460043" lon="11.5451032"><ele>377.5</ele><time>2026-04-06T09:09:29.083Z</time></trkpt><trkpt lat="45.4459418" lon="11.5451202"><ele>378.0</ele><time>2026-04-06T09:09:32.083Z</time></trkpt><trkpt lat="45.4458516" lon="11.5451216"><ele>378.0</ele><time>2026-04-06T09:09:36.083Z</time></trkpt><trkpt lat="45.4457864" lon="11.5451071"><ele>378.0</ele><time>2026-04-06T09:09:38.083Z</time></trkpt><trkpt lat="45.4457216" lon="11.5451004"><ele>378.0</ele><time>2026-04-06T09:09:40.083Z</time></trkpt><trkpt lat="45.4456534" lon="11.545098"><ele>378.0</ele><time>2026-04-06T09:09:42.083Z</time></trkpt><trkpt lat="45.445561" lon="11.5450801"><ele>378.0</ele><time>2026-04-06T09:09:45.083Z</time></trkpt><trkpt lat="45.4454905" lon="11.5450351"><ele>378.0</ele><time>2026-04-06T09:09:47.083Z</time></trkpt><trkpt lat="45.4454211" lon="11.5449695"><ele>379.6666666666667</ele><time>2026-04-06T09:09:49.083Z</time></trkpt><trkpt lat="45.445353" lon="11.544909"><ele>381.33333333333337</ele><time>2026-04-06T09:09:51.083Z</time></trkpt><trkpt lat="45.4452837" lon="11.5448582"><ele>383.0</ele><time>2026-04-06T09:09:53.084Z</time></trkpt><trkpt lat="45.4452141" lon="11.5448306"><ele>384.6666666666667</ele><time>2026-04-06T09:09:55.083Z</time></trkpt><trkpt lat="45.4451407" lon="11.5448381"><ele>386.33333333333337</ele><time>2026-04-06T09:09:57.083Z</time></trkpt><trkpt lat="45.4450743" lon="11.5448473"><ele>388.0</ele><time>2026-04-06T09:09:59.083Z</time></trkpt><trkpt lat="45.4449917" lon="11.5448859"><ele>388.00000000000006</ele><time>2026-04-06T09:10:02.083Z</time></trkpt><trkpt lat="45.4449153" lon="11.5449396"><ele>388.0</ele><time>2026-04-06T09:10:05.083Z</time></trkpt><trkpt lat="45.4448549" lon="11.5449761"><ele>388.0</ele><time>2026-04-06T09:10:07.099Z</time></trkpt><trkpt lat="45.4447979" lon="11.5450263"><ele>388.0</ele><time>2026-04-06T09:10:10.12Z</time></trkpt><trkpt lat="45.4447382" lon="11.5450808"><ele>388.00000000000006</ele><time>2026-04-06T09:10:13.097Z</time></trkpt><trkpt lat="45.4446757" lon="11.545149"><ele>388.0</ele><time>2026-04-06T09:10:18.098Z</time></trkpt><trkpt lat="45.4446795" lon="11.5450309"><ele>388.00000000000006</ele><time>2026-04-06T09:10:27.083Z</time></trkpt><trkpt lat="45.4447361" lon="11.5449418"><ele>388.0</ele><time>2026-04-06T09:10:30.083Z</time></trkpt><trkpt lat="45.4447726" lon="11.544824"><ele>388.0</ele><time>2026-04-06T09:10:33.083Z</time></trkpt><trkpt lat="45.4448362" lon="11.5447534"><ele>388.0</ele><time>2026-04-06T09:10:36.083Z</time></trkpt><trkpt lat="45.4448861" lon="11.5446611"><ele>388.00000000000006</ele><time>2026-04-06T09:10:40.084Z</time></trkpt><trkpt lat="45.4449472" lon="11.5445907"><ele>388.0</ele><time>2026-04-06T09:10:44.083Z</time></trkpt><trkpt lat="45.4449877" lon="11.5445122"><ele>389.1666666666667</ele><time>2026-04-06T09:10:47.083Z</time></trkpt><trkpt lat="45.4450171" lon="11.5444187"><ele>390.33333333333337</ele><time>2026-04-06T09:10:51.083Z</time></trkpt><trkpt lat="45.4450612" lon="11.5443254"><ele>391.5</ele><time>2026-04-06T09:10:55.083Z</time></trkpt><trkpt lat="45.4450855" lon="11.5442172"><ele>392.66666666666663</ele><time>2026-04-06T09:10:59.086Z</time></trkpt><trkpt lat="45.4451073" lon="11.5441248"><ele>393.8333333333333</ele><time>2026-04-06T09:11:02.084Z</time></trkpt><trkpt lat="45.4451451" lon="11.5440213"><ele>395.0</ele><time>2026-04-06T09:11:05.083Z</time></trkpt><trkpt lat="45.4452028" lon="11.5439311"><ele>395.0</ele><time>2026-04-06T09:11:08.103Z</time></trkpt><trkpt lat="45.4452419" lon="11.54386"><ele>395.0</ele><time>2026-04-06T09:11:10.046Z</time></trkpt><trkpt lat="45.4452962" lon="11.5437669"><ele>395.0</ele><time>2026-04-06T09:11:12.083Z</time></trkpt><trkpt lat="45.4453552" lon="11.5437171"><ele>395.0</ele><time>2026-04-06T09:11:14.119Z</time></trkpt><trkpt lat="45.4454139" lon="11.543668"><ele>395.0</ele><time>2026-04-06T09:11:16.083Z</time></trkpt><trkpt lat="45.4454757" lon="11.5435838"><ele>395.0</ele><time>2026-04-06T09:11:19.083Z</time></trkpt><trkpt lat="45.4454968" lon="11.5434871"><ele>395.0</ele><time>2026-04-06T09:11:21.083Z</time></trkpt><trkpt lat="45.4454714" lon="11.5433941"><ele>395.85714285714283</ele><time>2026-04-06T09:11:23.022Z</time></trkpt><trkpt lat="45.4454463" lon="11.5433048"><ele>396.7142857142857</ele><time>2026-04-06T09:11:25.083Z</time></trkpt><trkpt lat="45.4454167" lon="11.5432232"><ele>397.57142857142856</ele><time>2026-04-06T09:11:27.083Z</time></trkpt><trkpt lat="45.4453774" lon="11.5431515"><ele>398.42857142857144</ele><time>2026-04-06T09:11:29.084Z</time></trkpt><trkpt lat="45.4453152" lon="11.5430813"><ele>399.28571428571433</ele><time>2026-04-06T09:11:31.123Z</time></trkpt><trkpt lat="45.4452573" lon="11.542997"><ele>400.14285714285717</ele><time>2026-04-06T09:11:33.083Z</time></trkpt><trkpt lat="45.4452262" lon="11.5428938"><ele>401.0</ele><time>2026-04-06T09:11:35.083Z</time></trkpt><trkpt lat="45.4452312" lon="11.5427799"><ele>401.16666666666663</ele><time>2026-04-06T09:11:37.091Z</time></trkpt><trkpt lat="45.4452581" lon="11.5426609"><ele>401.3333333333333</ele><time>2026-04-06T09:11:39.083Z</time></trkpt><trkpt lat="45.4452865" lon="11.5425541"><ele>401.5</ele><time>2026-04-06T09:11:41.018Z</time></trkpt><trkpt lat="45.4453305" lon="11.5424382"><ele>401.66666666666663</ele><time>2026-04-06T09:11:43.083Z</time></trkpt><trkpt lat="45.4453633" lon="11.542338"><ele>401.8333333333333</ele><time>2026-04-06T09:11:45.101Z</time></trkpt><trkpt lat="45.4454072" lon="11.5422343"><ele>402.0</ele><time>2026-04-06T09:11:47.083Z</time></trkpt><trkpt lat="45.4454352" lon="11.5421492"><ele>402.0</ele><time>2026-04-06T09:11:49.083Z</time></trkpt><trkpt lat="45.4454599" lon="11.5420497"><ele>402.0</ele><time>2026-04-06T09:11:51.083Z</time></trkpt><trkpt lat="45.4454896" lon="11.5419461"><ele>402.0</ele><time>2026-04-06T09:11:53.105Z</time></trkpt><trkpt lat="45.4455151" lon="11.5418322"><ele>402.0</ele><time>2026-04-06T09:11:55.083Z</time></trkpt><trkpt lat="45.4455352" lon="11.5417271"><ele>402.0</ele><time>2026-04-06T09:11:57.083Z</time></trkpt><trkpt lat="45.4455465" lon="11.5416127"><ele>402.0</ele><time>2026-04-06T09:11:59.083Z</time></trkpt><trkpt lat="45.4455522" lon="11.5414673"><ele>399.3333333333333</ele><time>2026-04-06T09:12:02.021Z</time></trkpt><trkpt lat="45.4455589" lon="11.5413725"><ele>396.66666666666663</ele><time>2026-04-06T09:12:03.823Z</time></trkpt><trkpt lat="45.4455511" lon="11.5412609"><ele>394.0</ele><time>2026-04-06T09:12:06.083Z</time></trkpt><trkpt lat="45.4455418" lon="11.5411695"><ele>391.3333333333333</ele><time>2026-04-06T09:12:08.083Z</time></trkpt><trkpt lat="45.4455463" lon="11.5410176"><ele>388.66666666666663</ele><time>2026-04-06T09:12:10.083Z</time></trkpt><trkpt lat="45.4455706" lon="11.540916"><ele>386.0</ele><time>2026-04-06T09:12:11.083Z</time></trkpt><trkpt lat="45.4456175" lon="11.5407472"><ele>385.99999999999994</ele><time>2026-04-06T09:12:13.083Z</time></trkpt><trkpt lat="45.4456691" lon="11.5405893"><ele>386.0</ele><time>2026-04-06T09:12:15.083Z</time></trkpt><trkpt lat="45.4457077" lon="11.5404995"><ele>386.0</ele><time>2026-04-06T09:12:16.084Z</time></trkpt><trkpt lat="45.4457574" lon="11.5403944"><ele>386.0</ele><time>2026-04-06T09:12:17.083Z</time></trkpt><trkpt lat="45.4458183" lon="11.540307"><ele>385.99999999999994</ele><time>2026-04-06T09:12:18.083Z</time></trkpt><trkpt lat="45.4458725" lon="11.5402346"><ele>386.0</ele><time>2026-04-06T09:12:19.083Z</time></trkpt><trkpt lat="45.445918" lon="11.5401634"><ele>385.8</ele><time>2026-04-06T09:12:20.083Z</time></trkpt><trkpt lat="45.445977" lon="11.5400323"><ele>385.6</ele><time>2026-04-06T09:12:22.084Z</time></trkpt><trkpt lat="45.4460419" lon="11.5399459"><ele>385.4</ele><time>2026-04-06T09:12:24.083Z</time></trkpt><trkpt lat="45.4461085" lon="11.5398368"><ele>385.2</ele><time>2026-04-06T09:12:26.083Z</time></trkpt><trkpt lat="45.4461985" lon="11.5397118"><ele>385.0</ele><time>2026-04-06T09:12:28.083Z</time></trkpt><trkpt lat="45.4462935" lon="11.5396407"><ele>383.50000000000006</ele><time>2026-04-06T09:12:30.083Z</time></trkpt><trkpt lat="45.4464154" lon="11.539605"><ele>382.0</ele><time>2026-04-06T09:12:32.083Z</time></trkpt><trkpt lat="45.4464816" lon="11.5396"><ele>380.5</ele><time>2026-04-06T09:12:34.083Z</time></trkpt><trkpt lat="45.4465362" lon="11.5395425"><ele>379.0</ele><time>2026-04-06T09:12:39.083Z</time></trkpt><trkpt lat="45.4466024" lon="11.539499"><ele>377.5</ele><time>2026-04-06T09:12:43.083Z</time></trkpt><trkpt lat="45.4465889" lon="11.5394088"><ele>376.0</ele><time>2026-04-06T09:12:47.083Z</time></trkpt><trkpt lat="45.4465053" lon="11.5394081"><ele>375.8333333333333</ele><time>2026-04-06T09:12:52.083Z</time></trkpt><trkpt lat="45.4464418" lon="11.5394131"><ele>375.66666666666663</ele><time>2026-04-06T09:12:57.083Z</time></trkpt><trkpt lat="45.4463575" lon="11.5394302"><ele>375.5</ele><time>2026-04-06T09:13:03.083Z</time></trkpt><trkpt lat="45.4462927" lon="11.5393888"><ele>375.3333333333333</ele><time>2026-04-06T09:13:05.083Z</time></trkpt><trkpt lat="45.4462213" lon="11.5393613"><ele>375.1666666666667</ele><time>2026-04-06T09:13:07.083Z</time></trkpt><trkpt lat="45.4461158" lon="11.5393636"><ele>375.0</ele><time>2026-04-06T09:13:10.083Z</time></trkpt><trkpt lat="45.4460338" lon="11.539346"><ele>375.2857142857143</ele><time>2026-04-06T09:13:12.083Z</time></trkpt><trkpt lat="45.4459598" lon="11.5393363"><ele>375.57142857142856</ele><time>2026-04-06T09:13:14.083Z</time></trkpt><trkpt lat="45.4458952" lon="11.5393644"><ele>375.85714285714283</ele><time>2026-04-06T09:13:16.083Z</time></trkpt><trkpt lat="45.445829" lon="11.5393983"><ele>376.1428571428571</ele><time>2026-04-06T09:13:18.083Z</time></trkpt><trkpt lat="45.4457694" lon="11.5394348"><ele>376.42857142857144</ele><time>2026-04-06T09:13:20.083Z</time></trkpt><trkpt lat="45.445706" lon="11.539485"><ele>376.71428571428567</ele><time>2026-04-06T09:13:23.083Z</time></trkpt><trkpt lat="45.4456234" lon="11.5394985"><ele>377.0</ele><time>2026-04-06T09:13:26.084Z</time></trkpt><trkpt lat="45.4454755" lon="11.5395186"><ele>375.1428571428571</ele><time>2026-04-06T09:13:28.083Z</time></trkpt><trkpt lat="45.4453937" lon="11.539526"><ele>373.2857142857143</ele><time>2026-04-06T09:13:29.083Z</time></trkpt><trkpt lat="45.4453249" lon="11.539535"><ele>371.42857142857144</ele><time>2026-04-06T09:13:30.083Z</time></trkpt><trkpt lat="45.445244" lon="11.5395323"><ele>369.57142857142856</ele><time>2026-04-06T09:13:31.083Z</time></trkpt><trkpt lat="45.4451754" lon="11.5395225"><ele>367.7142857142857</ele><time>2026-04-06T09:13:32.083Z</time></trkpt><trkpt lat="45.4451004" lon="11.5395206"><ele>365.85714285714283</ele><time>2026-04-06T09:13:33.083Z</time></trkpt><trkpt lat="45.4450343" lon="11.5395101"><ele>364.0</ele><time>2026-04-06T09:13:34.083Z</time></trkpt><trkpt lat="45.4448937" lon="11.5394833"><ele>364.0</ele><time>2026-04-06T09:13:36.083Z</time></trkpt><trkpt lat="45.4448247" lon="11.5394986"><ele>364.0</ele><time>2026-04-06T09:13:37.083Z</time></trkpt><trkpt lat="45.4446317" lon="11.5394989"><ele>364.0</ele><time>2026-04-06T09:13:40.083Z</time></trkpt><trkpt lat="45.444553" lon="11.5395025"><ele>364.0</ele><time>2026-04-06T09:13:41.083Z</time></trkpt><trkpt lat="45.4444779" lon="11.5395181"><ele>364.0</ele><time>2026-04-06T09:13:42.083Z</time></trkpt><trkpt lat="45.4444087" lon="11.5395513"><ele>365.4</ele><time>2026-04-06T09:13:44.083Z</time></trkpt><trkpt lat="45.4443149" lon="11.539567"><ele>366.79999999999995</ele><time>2026-04-06T09:13:46.083Z</time></trkpt><trkpt lat="45.4442302" lon="11.5395184"><ele>368.20000000000005</ele><time>2026-04-06T09:13:48.084Z</time></trkpt><trkpt lat="45.4441684" lon="11.5394442"><ele>369.6</ele><time>2026-04-06T09:13:50.083Z</time></trkpt><trkpt lat="45.4441111" lon="11.5393003"><ele>371.0</ele><time>2026-04-06T09:13:52.083Z</time></trkpt><trkpt lat="45.4440222" lon="11.5391953"><ele>368.5</ele><time>2026-04-06T09:13:54.083Z</time></trkpt><trkpt lat="45.4439429" lon="11.5391013"><ele>366.0</ele><time>2026-04-06T09:13:56.083Z</time></trkpt><trkpt lat="45.4438694" lon="11.5390566"><ele>363.5</ele><time>2026-04-06T09:13:57.083Z</time></trkpt><trkpt lat="45.4438111" lon="11.5390086"><ele>361.0</ele><time>2026-04-06T09:13:58.083Z</time></trkpt><trkpt lat="45.4437526" lon="11.5389544"><ele>358.5</ele><time>2026-04-06T09:13:59.083Z</time></trkpt><trkpt lat="45.4436772" lon="11.53888"><ele>356.0</ele><time>2026-04-06T09:14:01.083Z</time></trkpt><trkpt lat="45.443599" lon="11.5388029"><ele>356.33333333333337</ele><time>2026-04-06T09:14:03.083Z</time></trkpt><trkpt lat="45.4435335" lon="11.5387455"><ele>356.6666666666667</ele><time>2026-04-06T09:14:06.083Z</time></trkpt><trkpt lat="45.4434992" lon="11.5386636"><ele>357.0</ele><time>2026-04-06T09:14:09.083Z</time></trkpt><trkpt lat="45.4435189" lon="11.5385596"><ele>357.3333333333333</ele><time>2026-04-06T09:14:13.083Z</time></trkpt><trkpt lat="45.4435674" lon="11.5384784"><ele>357.66666666666663</ele><time>2026-04-06T09:14:16.083Z</time></trkpt><trkpt lat="45.4436193" lon="11.538368"><ele>358.0</ele><time>2026-04-06T09:14:19.083Z</time></trkpt><trkpt lat="45.4436671" lon="11.5382741"><ele>358.0</ele><time>2026-04-06T09:14:21.083Z</time></trkpt><trkpt lat="45.4437085" lon="11.5381789"><ele>358.0</ele><time>2026-04-06T09:14:23.083Z</time></trkpt><trkpt lat="45.4437469" lon="11.5380948"><ele>358.0</ele><time>2026-04-06T09:14:25.083Z</time></trkpt><trkpt lat="45.4437947" lon="11.5380134"><ele>358.0</ele><time>2026-04-06T09:14:27.083Z</time></trkpt><trkpt lat="45.4438376" lon="11.5379471"><ele>358.0</ele><time>2026-04-06T09:14:29.083Z</time></trkpt><trkpt lat="45.4438883" lon="11.5378425"><ele>358.0</ele><time>2026-04-06T09:14:32.083Z</time></trkpt><trkpt lat="45.4439471" lon="11.5377529"><ele>358.00000000000006</ele><time>2026-04-06T09:14:35.132Z</time></trkpt><trkpt lat="45.4439964" lon="11.5376929"><ele>358.0</ele><time>2026-04-06T09:14:38.128Z</time></trkpt><trkpt lat="45.444052" lon="11.5376152"><ele>358.0</ele><time>2026-04-06T09:14:42.083Z</time></trkpt><trkpt lat="45.4440958" lon="11.5375475"><ele>358.0</ele><time>2026-04-06T09:14:45.083Z</time></trkpt><trkpt lat="45.4441469" lon="11.5374685"><ele>358.0</ele><time>2026-04-06T09:14:48.083Z</time></trkpt><trkpt lat="45.4441791" lon="11.5373855"><ele>358.00000000000006</ele><time>2026-04-06T09:14:51.083Z</time></trkpt><trkpt lat="45.4442228" lon="11.537318"><ele>358.0</ele><time>2026-04-06T09:14:54.083Z</time></trkpt><trkpt lat="45.4442705" lon="11.5372322"><ele>358.0</ele><time>2026-04-06T09:14:57.084Z</time></trkpt><trkpt lat="45.4443042" lon="11.5371506"><ele>358.0</ele><time>2026-04-06T09:15:00.083Z</time></trkpt><trkpt lat="45.444328" lon="11.5370401"><ele>358.0</ele><time>2026-04-06T09:15:03.083Z</time></trkpt><trkpt lat="45.4443642" lon="11.5369534"><ele>358.0</ele><time>2026-04-06T09:15:06.083Z</time></trkpt><trkpt lat="45.4444085" lon="11.5368518"><ele>358.0</ele><time>2026-04-06T09:15:09.083Z</time></trkpt><trkpt lat="45.4444447" lon="11.5367473"><ele>358.0</ele><time>2026-04-06T09:15:12.083Z</time></trkpt><trkpt lat="45.4444763" lon="11.5366645"><ele>359.0</ele><time>2026-04-06T09:15:15.083Z</time></trkpt><trkpt lat="45.4445101" lon="11.5365527"><ele>360.0</ele><time>2026-04-06T09:15:19.083Z</time></trkpt><trkpt lat="45.4445503" lon="11.5364475"><ele>361.0</ele><time>2026-04-06T09:15:23.083Z</time></trkpt><trkpt lat="45.4445538" lon="11.5363397"><ele>362.0</ele><time>2026-04-06T09:15:26.083Z</time></trkpt><trkpt lat="45.4445807" lon="11.5362384"><ele>363.0</ele><time>2026-04-06T09:15:29.084Z</time></trkpt><trkpt lat="45.4446008" lon="11.5361321"><ele>364.0</ele><time>2026-04-06T09:15:32.083Z</time></trkpt><trkpt lat="45.4446277" lon="11.5360257"><ele>365.14285714285717</ele><time>2026-04-06T09:15:35.083Z</time></trkpt><trkpt lat="45.4446149" lon="11.5359351"><ele>366.2857142857143</ele><time>2026-04-06T09:15:38.083Z</time></trkpt><trkpt lat="45.4445566" lon="11.5358421"><ele>367.42857142857144</ele><time>2026-04-06T09:15:42.083Z</time></trkpt><trkpt lat="45.4444828" lon="11.5357962"><ele>368.57142857142856</ele><time>2026-04-06T09:15:45.083Z</time></trkpt><trkpt lat="45.4444126" lon="11.5357395"><ele>369.7142857142857</ele><time>2026-04-06T09:15:48.083Z</time></trkpt><trkpt lat="45.444356" lon="11.5356978"><ele>370.8571428571429</ele><time>2026-04-06T09:15:50.083Z</time></trkpt><trkpt lat="45.4442962" lon="11.5356503"><ele>372.0</ele><time>2026-04-06T09:15:52.083Z</time></trkpt><trkpt lat="45.4442381" lon="11.5355965"><ele>372.0</ele><time>2026-04-06T09:15:54.083Z</time></trkpt><trkpt lat="45.4441824" lon="11.5355294"><ele>372.0</ele><time>2026-04-06T09:15:56.083Z</time></trkpt><trkpt lat="45.4441381" lon="11.5354528"><ele>372.0</ele><time>2026-04-06T09:15:58.083Z</time></trkpt><trkpt lat="45.4441075" lon="11.5353671"><ele>372.0</ele><time>2026-04-06T09:16:00.083Z</time></trkpt><trkpt lat="45.4440774" lon="11.5352708"><ele>372.0</ele><time>2026-04-06T09:16:02.083Z</time></trkpt><trkpt lat="45.4440532" lon="11.5351569"><ele>372.0</ele><time>2026-04-06T09:16:04.083Z</time></trkpt><trkpt lat="45.4440307" lon="11.5350422"><ele>373.6666666666667</ele><time>2026-04-06T09:16:06.083Z</time></trkpt><trkpt lat="45.4439996" lon="11.5349316"><ele>375.3333333333333</ele><time>2026-04-06T09:16:08.083Z</time></trkpt><trkpt lat="45.4439717" lon="11.5348131"><ele>377.0</ele><time>2026-04-06T09:16:10.083Z</time></trkpt><trkpt lat="45.443952" lon="11.5347032"><ele>378.66666666666663</ele><time>2026-04-06T09:16:12.083Z</time></trkpt><trkpt lat="45.4439452" lon="11.5345897"><ele>380.3333333333333</ele><time>2026-04-06T09:16:14.083Z</time></trkpt><trkpt lat="45.4439335" lon="11.5344687"><ele>382.0</ele><time>2026-04-06T09:16:16.083Z</time></trkpt><trkpt lat="45.4439299" lon="11.5343436"><ele>382.6</ele><time>2026-04-06T09:16:18.083Z</time></trkpt><trkpt lat="45.4439214" lon="11.534204"><ele>383.20000000000005</ele><time>2026-04-06T09:16:20.083Z</time></trkpt><trkpt lat="45.4438831" lon="11.5340529"><ele>383.8</ele><time>2026-04-06T09:16:22.083Z</time></trkpt><trkpt lat="45.4438137" lon="11.5338977"><ele>384.4</ele><time>2026-04-06T09:16:24.083Z</time></trkpt><trkpt lat="45.4437601" lon="11.5338257"><ele>385.0</ele><time>2026-04-06T09:16:25.083Z</time></trkpt><trkpt lat="45.4436858" lon="11.5337705"><ele>382.6666666666667</ele><time>2026-04-06T09:16:26.083Z</time></trkpt><trkpt lat="45.4436165" lon="11.5337292"><ele>380.33333333333337</ele><time>2026-04-06T09:16:27.083Z</time></trkpt><trkpt lat="45.4435451" lon="11.5336783"><ele>378.0</ele><time>2026-04-06T09:16:28.083Z</time></trkpt><trkpt lat="45.4434704" lon="11.5336368"><ele>375.6666666666667</ele><time>2026-04-06T09:16:29.083Z</time></trkpt><trkpt lat="45.4433943" lon="11.5335964"><ele>373.33333333333337</ele><time>2026-04-06T09:16:30.083Z</time></trkpt><trkpt lat="45.443316" lon="11.5335552"><ele>371.0</ele><time>2026-04-06T09:16:31.083Z</time></trkpt><trkpt lat="45.4432471" lon="11.5335147"><ele>371.0</ele><time>2026-04-06T09:16:32.083Z</time></trkpt><trkpt lat="45.4431821" lon="11.5334775"><ele>371.0</ele><time>2026-04-06T09:16:33.083Z</time></trkpt><trkpt lat="45.4431211" lon="11.5334438"><ele>371.0</ele><time>2026-04-06T09:16:34.083Z</time></trkpt><trkpt lat="45.443062" lon="11.5334096"><ele>371.0</ele><time>2026-04-06T09:16:35.083Z</time></trkpt><trkpt lat="45.4429709" lon="11.5333485"><ele>371.0</ele><time>2026-04-06T09:16:37.083Z</time></trkpt><trkpt lat="45.4428977" lon="11.5333112"><ele>371.0</ele><time>2026-04-06T09:16:39.083Z</time></trkpt><trkpt lat="45.4428321" lon="11.5332737"><ele>371.0</ele><time>2026-04-06T09:16:42.083Z</time></trkpt><trkpt lat="45.4427474" lon="11.5332355"><ele>371.5</ele><time>2026-04-06T09:16:45.083Z</time></trkpt><trkpt lat="45.4426708" lon="11.5332012"><ele>372.0</ele><time>2026-04-06T09:16:48.083Z</time></trkpt><trkpt lat="45.4425946" lon="11.5331603"><ele>372.5</ele><time>2026-04-06T09:16:51.083Z</time></trkpt><trkpt lat="45.442508" lon="11.5330942"><ele>373.0</ele><time>2026-04-06T09:16:54.083Z</time></trkpt><trkpt lat="45.4424666" lon="11.5330229"><ele>373.5</ele><time>2026-04-06T09:16:56.083Z</time></trkpt><trkpt lat="45.4424299" lon="11.5329322"><ele>374.0</ele><time>2026-04-06T09:16:58.083Z</time></trkpt><trkpt lat="45.4423901" lon="11.5328376"><ele>374.5</ele><time>2026-04-06T09:17:00.083Z</time></trkpt><trkpt lat="45.4423561" lon="11.5327604"><ele>375.0</ele><time>2026-04-06T09:17:02.083Z</time></trkpt><trkpt lat="45.4423285" lon="11.5326792"><ele>375.5</ele><time>2026-04-06T09:17:04.083Z</time></trkpt><trkpt lat="45.4423011" lon="11.5325914"><ele>376.0</ele><time>2026-04-06T09:17:06.083Z</time></trkpt><trkpt lat="45.4422709" lon="11.5324699"><ele>376.5</ele><time>2026-04-06T09:17:09.083Z</time></trkpt><trkpt lat="45.4422707" lon="11.5323444"><ele>377.0</ele><time>2026-04-06T09:17:12.083Z</time></trkpt><trkpt lat="45.4422822" lon="11.5322366"><ele>377.0</ele><time>2026-04-06T09:17:15.083Z</time></trkpt><trkpt lat="45.4422988" lon="11.5321197"><ele>377.0</ele><time>2026-04-06T09:17:18.083Z</time></trkpt><trkpt lat="45.4423113" lon="11.5320064"><ele>377.0</ele><time>2026-04-06T09:17:22.083Z</time></trkpt><trkpt lat="45.442267" lon="11.5319162"><ele>377.0</ele><time>2026-04-06T09:17:26.083Z</time></trkpt><trkpt lat="45.4422031" lon="11.5319228"><ele>377.0</ele><time>2026-04-06T09:17:29.083Z</time></trkpt><trkpt lat="45.442122" lon="11.5319114"><ele>377.0</ele><time>2026-04-06T09:17:32.083Z</time></trkpt><trkpt lat="45.442057" lon="11.531905"><ele>379.99999999999994</ele><time>2026-04-06T09:17:35.083Z</time></trkpt><trkpt lat="45.4419871" lon="11.5319211"><ele>383.0</ele><time>2026-04-06T09:17:38.083Z</time></trkpt><trkpt lat="45.4419231" lon="11.5319397"><ele>386.0</ele><time>2026-04-06T09:17:40.083Z</time></trkpt><trkpt lat="45.4418397" lon="11.5319513"><ele>389.0</ele><time>2026-04-06T09:17:43.083Z</time></trkpt><trkpt lat="45.441775" lon="11.5319704"><ele>392.0</ele><time>2026-04-06T09:17:46.084Z</time></trkpt><trkpt lat="45.4417022" lon="11.5319885"><ele>394.99999999999994</ele><time>2026-04-06T09:17:50.083Z</time></trkpt><trkpt lat="45.4416362" lon="11.5319973"><ele>398.0</ele><time>2026-04-06T09:17:54.083Z</time></trkpt><trkpt lat="45.4415733" lon="11.5320081"><ele>397.99999999999994</ele><time>2026-04-06T09:17:57.093Z</time></trkpt><trkpt lat="45.4415111" lon="11.5320282"><ele>398.0</ele><time>2026-04-06T09:18:01.083Z</time></trkpt><trkpt lat="45.4414405" lon="11.5320399"><ele>398.0</ele><time>2026-04-06T09:18:05.108Z</time></trkpt><trkpt lat="45.4413673" lon="11.5320455"><ele>398.0</ele><time>2026-04-06T09:18:10.083Z</time></trkpt><trkpt lat="45.4412953" lon="11.5320341"><ele>398.0</ele><time>2026-04-06T09:18:14.083Z</time></trkpt><trkpt lat="45.4412316" lon="11.5320109"><ele>397.99999999999994</ele><time>2026-04-06T09:18:17.083Z</time></trkpt><trkpt lat="45.4411753" lon="11.5319456"><ele>398.0</ele><time>2026-04-06T09:18:21.083Z</time></trkpt><trkpt lat="45.4411381" lon="11.5318712"><ele>398.2857142857143</ele><time>2026-04-06T09:18:24.083Z</time></trkpt><trkpt lat="45.4410918" lon="11.5318063"><ele>398.57142857142856</ele><time>2026-04-06T09:18:27.098Z</time></trkpt><trkpt lat="45.4410331" lon="11.531749"><ele>398.8571428571429</ele><time>2026-04-06T09:18:31.035Z</time></trkpt><trkpt lat="45.440983" lon="11.5316649"><ele>399.1428571428571</ele><time>2026-04-06T09:18:35.083Z</time></trkpt><trkpt lat="45.4409215" lon="11.5316038"><ele>399.42857142857144</ele><time>2026-04-06T09:18:39.116Z</time></trkpt><trkpt lat="45.4408866" lon="11.5315221"><ele>399.7142857142857</ele><time>2026-04-06T09:18:41.99Z</time></trkpt><trkpt lat="45.4408452" lon="11.5314388"><ele>400.0</ele><time>2026-04-06T09:18:45.083Z</time></trkpt><trkpt lat="45.44081" lon="11.5313547"><ele>400.00000000000006</ele><time>2026-04-06T09:18:48.079Z</time></trkpt><trkpt lat="45.4407889" lon="11.5312503"><ele>400.0</ele><time>2026-04-06T09:18:51.083Z</time></trkpt><trkpt lat="45.4407568" lon="11.5311413"><ele>400.0</ele><time>2026-04-06T09:18:53.993Z</time></trkpt><trkpt lat="45.4407326" lon="11.5310439"><ele>400.0</ele><time>2026-04-06T09:18:56.083Z</time></trkpt><trkpt lat="45.4407061" lon="11.5309202"><ele>400.00000000000006</ele><time>2026-04-06T09:18:59.083Z</time></trkpt><trkpt lat="45.4406993" lon="11.5308043"><ele>400.0</ele><time>2026-04-06T09:19:02.083Z</time></trkpt><trkpt lat="45.4406981" lon="11.5306767"><ele>400.1666666666667</ele><time>2026-04-06T09:19:05.105Z</time></trkpt><trkpt lat="45.4406937" lon="11.5305548"><ele>400.33333333333337</ele><time>2026-04-06T09:19:08.092Z</time></trkpt><trkpt lat="45.4406688" lon="11.5304408"><ele>400.5</ele><time>2026-04-06T09:19:11.083Z</time></trkpt><trkpt lat="45.4406617" lon="11.5303268"><ele>400.66666666666663</ele><time>2026-04-06T09:19:14.083Z</time></trkpt><trkpt lat="45.4406601" lon="11.5302144"><ele>400.8333333333333</ele><time>2026-04-06T09:19:17.083Z</time></trkpt><trkpt lat="45.440639" lon="11.530093"><ele>401.0</ele><time>2026-04-06T09:19:20.083Z</time></trkpt><trkpt lat="45.4406058" lon="11.5300011"><ele>401.8333333333333</ele><time>2026-04-06T09:19:22.083Z</time></trkpt><trkpt lat="45.4405789" lon="11.5299178"><ele>402.66666666666663</ele><time>2026-04-06T09:19:24.108Z</time></trkpt><trkpt lat="45.4405506" lon="11.5298055"><ele>403.5</ele><time>2026-04-06T09:19:27.096Z</time></trkpt><trkpt lat="45.4404776" lon="11.5297275"><ele>404.33333333333337</ele><time>2026-04-06T09:19:29.083Z</time></trkpt><trkpt lat="45.4403831" lon="11.5296724"><ele>405.1666666666667</ele><time>2026-04-06T09:19:31.083Z</time></trkpt><trkpt lat="45.4403058" lon="11.5296419"><ele>406.0</ele><time>2026-04-06T09:19:33.083Z</time></trkpt><trkpt lat="45.4402182" lon="11.5296037"><ele>405.6666666666667</ele><time>2026-04-06T09:19:35.083Z</time></trkpt><trkpt lat="45.4401382" lon="11.5295839"><ele>405.33333333333337</ele><time>2026-04-06T09:19:37.083Z</time></trkpt><trkpt lat="45.4400674" lon="11.5295845"><ele>405.0</ele><time>2026-04-06T09:19:39.087Z</time></trkpt><trkpt lat="45.4399872" lon="11.5295927"><ele>404.66666666666663</ele><time>2026-04-06T09:19:41.119Z</time></trkpt><trkpt lat="45.4399035" lon="11.5295326"><ele>404.3333333333333</ele><time>2026-04-06T09:19:45.083Z</time></trkpt><trkpt lat="45.4398425" lon="11.5295098"><ele>404.0</ele><time>2026-04-06T09:19:47.083Z</time></trkpt><trkpt lat="45.4397798" lon="11.5294924"><ele>403.99999999999994</ele><time>2026-04-06T09:19:49.083Z</time></trkpt><trkpt lat="45.4396971" lon="11.5294699"><ele>404.0</ele><time>2026-04-06T09:19:52.083Z</time></trkpt><trkpt lat="45.4396259" lon="11.5294669"><ele>404.0</ele><time>2026-04-06T09:19:54.083Z</time></trkpt><trkpt lat="45.4395476" lon="11.5294731"><ele>404.0</ele><time>2026-04-06T09:19:56.083Z</time></trkpt><trkpt lat="45.4394813" lon="11.5294549"><ele>403.99999999999994</ele><time>2026-04-06T09:19:57.083Z</time></trkpt><trkpt lat="45.4394065" lon="11.5294275"><ele>404.0</ele><time>2026-04-06T09:19:58.084Z</time></trkpt><trkpt lat="45.4393006" lon="11.52935"><ele>403.79999999999995</ele><time>2026-04-06T09:20:00.083Z</time></trkpt><trkpt lat="45.4392288" lon="11.5292354"><ele>403.59999999999997</ele><time>2026-04-06T09:20:02.083Z</time></trkpt><trkpt lat="45.4391378" lon="11.5291705"><ele>403.4</ele><time>2026-04-06T09:20:04.083Z</time></trkpt><trkpt lat="45.4390434" lon="11.529097"><ele>403.2</ele><time>2026-04-06T09:20:06.083Z</time></trkpt><trkpt lat="45.4389421" lon="11.5290254"><ele>403.0</ele><time>2026-04-06T09:20:08.083Z</time></trkpt><trkpt lat="45.4388787" lon="11.5289622"><ele>403.00000000000006</ele><time>2026-04-06T09:20:09.083Z</time></trkpt><trkpt lat="45.4388444" lon="11.5288419"><ele>403.0</ele><time>2026-04-06T09:20:11.083Z</time></trkpt><trkpt lat="45.438819" lon="11.5287493"><ele>403.0</ele><time>2026-04-06T09:20:13.083Z</time></trkpt><trkpt lat="45.4387825" lon="11.5286378"><ele>403.0</ele><time>2026-04-06T09:20:16.083Z</time></trkpt><trkpt lat="45.4387481" lon="11.5285532"><ele>403.00000000000006</ele><time>2026-04-06T09:20:18.083Z</time></trkpt><trkpt lat="45.4387211" lon="11.5284427"><ele>403.0</ele><time>2026-04-06T09:20:21.083Z</time></trkpt><trkpt lat="45.438665" lon="11.5283823"><ele>404.83333333333337</ele><time>2026-04-06T09:20:24.083Z</time></trkpt><trkpt lat="45.4386045" lon="11.5283211"><ele>406.6666666666667</ele><time>2026-04-06T09:20:27.083Z</time></trkpt><trkpt lat="45.4385504" lon="11.5282519"><ele>408.5</ele><time>2026-04-06T09:20:30.084Z</time></trkpt><trkpt lat="45.4384861" lon="11.5281843"><ele>410.33333333333337</ele><time>2026-04-06T09:20:34.084Z</time></trkpt><trkpt lat="45.4384253" lon="11.5281122"><ele>412.1666666666667</ele><time>2026-04-06T09:20:37.083Z</time></trkpt><trkpt lat="45.4383833" lon="11.52804"><ele>414.0</ele><time>2026-04-06T09:20:40.083Z</time></trkpt><trkpt lat="45.4383717" lon="11.527926"><ele>414.5</ele><time>2026-04-06T09:20:44.083Z</time></trkpt><trkpt lat="45.4383593" lon="11.5278166"><ele>415.0</ele><time>2026-04-06T09:20:47.083Z</time></trkpt><trkpt lat="45.4383183" lon="11.5277073"><ele>415.5</ele><time>2026-04-06T09:20:50.1Z</time></trkpt><trkpt lat="45.4382816" lon="11.5276207"><ele>416.0</ele><time>2026-04-06T09:20:53.088Z</time></trkpt><trkpt lat="45.4382642" lon="11.5275194"><ele>416.5</ele><time>2026-04-06T09:20:58.107Z</time></trkpt><trkpt lat="45.4382568" lon="11.5274097"><ele>417.0</ele><time>2026-04-06T09:21:06.083Z</time></trkpt><trkpt lat="45.4382558" lon="11.5272807"><ele>417.0</ele><time>2026-04-06T09:21:09.083Z</time></trkpt><trkpt lat="45.4382322" lon="11.5271835"><ele>417.0</ele><time>2026-04-06T09:21:11.083Z</time></trkpt><trkpt lat="45.4381731" lon="11.5270674"><ele>417.0</ele><time>2026-04-06T09:21:13.083Z</time></trkpt><trkpt lat="45.4381179" lon="11.5269745"><ele>417.0</ele><time>2026-04-06T09:21:15.083Z</time></trkpt><trkpt lat="45.4380761" lon="11.5268646"><ele>417.0</ele><time>2026-04-06T09:21:17.083Z</time></trkpt><trkpt lat="45.4380421" lon="11.5267251"><ele>417.1666666666667</ele><time>2026-04-06T09:21:19.083Z</time></trkpt><trkpt lat="45.4380363" lon="11.5265523"><ele>417.33333333333337</ele><time>2026-04-06T09:21:21.083Z</time></trkpt><trkpt lat="45.4380523" lon="11.5264624"><ele>417.5</ele><time>2026-04-06T09:21:22.083Z</time></trkpt><trkpt lat="45.4380788" lon="11.5263733"><ele>417.6666666666667</ele><time>2026-04-06T09:21:23.083Z</time></trkpt><trkpt lat="45.4381161" lon="11.5262787"><ele>417.83333333333337</ele><time>2026-04-06T09:21:24.083Z</time></trkpt><trkpt lat="45.4381594" lon="11.5261882"><ele>418.0</ele><time>2026-04-06T09:21:25.083Z</time></trkpt><trkpt lat="45.4382043" lon="11.5260949"><ele>416.83333333333337</ele><time>2026-04-06T09:21:26.083Z</time></trkpt><trkpt lat="45.4382417" lon="11.5259913"><ele>415.6666666666667</ele><time>2026-04-06T09:21:27.083Z</time></trkpt><trkpt lat="45.4382539" lon="11.5258824"><ele>414.5</ele><time>2026-04-06T09:21:28.083Z</time></trkpt><trkpt lat="45.43826" lon="11.5257584"><ele>413.33333333333337</ele><time>2026-04-06T09:21:29.083Z</time></trkpt><trkpt lat="45.438247" lon="11.5256457"><ele>412.1666666666667</ele><time>2026-04-06T09:21:30.083Z</time></trkpt><trkpt lat="45.4382235" lon="11.5255272"><ele>411.0</ele><time>2026-04-06T09:21:31.083Z</time></trkpt><trkpt lat="45.4382078" lon="11.5254051"><ele>410.1666666666667</ele><time>2026-04-06T09:21:32.083Z</time></trkpt><trkpt lat="45.4382292" lon="11.5252908"><ele>409.33333333333337</ele><time>2026-04-06T09:21:33.083Z</time></trkpt><trkpt lat="45.4382424" lon="11.5251681"><ele>408.5</ele><time>2026-04-06T09:21:34.083Z</time></trkpt><trkpt lat="45.4382483" lon="11.5250688"><ele>407.6666666666667</ele><time>2026-04-06T09:21:35.083Z</time></trkpt><trkpt lat="45.4382418" lon="11.5249765"><ele>406.83333333333337</ele><time>2026-04-06T09:21:36.083Z</time></trkpt><trkpt lat="45.4382143" lon="11.5248292"><ele>406.0</ele><time>2026-04-06T09:21:38.083Z</time></trkpt><trkpt lat="45.4381954" lon="11.5246969"><ele>406.00000000000006</ele><time>2026-04-06T09:21:40.083Z</time></trkpt><trkpt lat="45.4381801" lon="11.5245762"><ele>406.0</ele><time>2026-04-06T09:21:42.083Z</time></trkpt><trkpt lat="45.4381802" lon="11.5244793"><ele>406.0</ele><time>2026-04-06T09:21:44.083Z</time></trkpt><trkpt lat="45.4381875" lon="11.5243594"><ele>406.0</ele><time>2026-04-06T09:21:47.083Z</time></trkpt><trkpt lat="45.4381867" lon="11.5242527"><ele>406.00000000000006</ele><time>2026-04-06T09:21:49.083Z</time></trkpt><trkpt lat="45.4381924" lon="11.5241284"><ele>406.0</ele><time>2026-04-06T09:21:51.083Z</time></trkpt><trkpt lat="45.4381898" lon="11.5240048"><ele>406.00000000000006</ele><time>2026-04-06T09:21:53.083Z</time></trkpt><trkpt lat="45.4381812" lon="11.5238834"><ele>406.0</ele><time>2026-04-06T09:21:55.083Z</time></trkpt><trkpt lat="45.4381727" lon="11.5237598"><ele>406.0</ele><time>2026-04-06T09:21:57.083Z</time></trkpt><trkpt lat="45.4381643" lon="11.5236297"><ele>406.0</ele><time>2026-04-06T09:21:59.083Z</time></trkpt><trkpt lat="45.4381659" lon="11.5235047"><ele>406.00000000000006</ele><time>2026-04-06T09:22:01.083Z</time></trkpt><trkpt lat="45.4381612" lon="11.5233787"><ele>406.0</ele><time>2026-04-06T09:22:03.083Z</time></trkpt><trkpt lat="45.4381999" lon="11.523253"><ele>406.20000000000005</ele><time>2026-04-06T09:22:05.083Z</time></trkpt><trkpt lat="45.4382092" lon="11.5231442"><ele>406.40000000000003</ele><time>2026-04-06T09:22:07.083Z</time></trkpt><trkpt lat="45.4382609" lon="11.5230926"><ele>406.6</ele><time>2026-04-06T09:22:09.083Z</time></trkpt><trkpt lat="45.4383704" lon="11.5230738"><ele>406.8</ele><time>2026-04-06T09:22:11.083Z</time></trkpt><trkpt lat="45.4384395" lon="11.5230465"><ele>407.0</ele><time>2026-04-06T09:22:12.083Z</time></trkpt><trkpt lat="45.4385845" lon="11.5230013"><ele>407.0</ele><time>2026-04-06T09:22:14.083Z</time></trkpt><trkpt lat="45.4386682" lon="11.5229883"><ele>407.0</ele><time>2026-04-06T09:22:15.083Z</time></trkpt><trkpt lat="45.4387702" lon="11.5229713"><ele>407.0</ele><time>2026-04-06T09:22:16.083Z</time></trkpt><trkpt lat="45.4388547" lon="11.522953"><ele>407.0</ele><time>2026-04-06T09:22:17.083Z</time></trkpt><trkpt lat="45.4389646" lon="11.5229607"><ele>407.0</ele><time>2026-04-06T09:22:18.083Z</time></trkpt><trkpt lat="45.4390456" lon="11.522926"><ele>405.20000000000005</ele><time>2026-04-06T09:22:19.083Z</time></trkpt><trkpt lat="45.4391276" lon="11.5229005"><ele>403.4</ele><time>2026-04-06T09:22:20.083Z</time></trkpt><trkpt lat="45.4392314" lon="11.5228735"><ele>401.6</ele><time>2026-04-06T09:22:21.083Z</time></trkpt><trkpt lat="45.4393198" lon="11.5227978"><ele>399.79999999999995</ele><time>2026-04-06T09:22:22.083Z</time></trkpt><trkpt lat="45.4393763" lon="11.5227134"><ele>398.0</ele><time>2026-04-06T09:22:23.083Z</time></trkpt><trkpt lat="45.439435" lon="11.522618"><ele>398.0</ele><time>2026-04-06T09:22:24.083Z</time></trkpt><trkpt lat="45.4394917" lon="11.5225402"><ele>398.0</ele><time>2026-04-06T09:22:25.083Z</time></trkpt><trkpt lat="45.439588" lon="11.5224382"><ele>398.0</ele><time>2026-04-06T09:22:27.083Z</time></trkpt><trkpt lat="45.4396468" lon="11.5223776"><ele>398.0</ele><time>2026-04-06T09:22:28.083Z</time></trkpt><trkpt lat="45.4397441" lon="11.5222768"><ele>398.0</ele><time>2026-04-06T09:22:30.083Z</time></trkpt><trkpt lat="45.4397987" lon="11.5222031"><ele>397.8333333333333</ele><time>2026-04-06T09:22:31.083Z</time></trkpt><trkpt lat="45.4398424" lon="11.5221352"><ele>397.66666666666663</ele><time>2026-04-06T09:22:32.083Z</time></trkpt><trkpt lat="45.4399216" lon="11.5220573"><ele>397.5</ele><time>2026-04-06T09:22:34.083Z</time></trkpt><trkpt lat="45.4399823" lon="11.5219985"><ele>397.33333333333337</ele><time>2026-04-06T09:22:36.083Z</time></trkpt><trkpt lat="45.4400319" lon="11.5219272"><ele>397.1666666666667</ele><time>2026-04-06T09:22:38.083Z</time></trkpt><trkpt lat="45.4401038" lon="11.5218429"><ele>397.0</ele><time>2026-04-06T09:22:41.083Z</time></trkpt><trkpt lat="45.4401741" lon="11.5217848"><ele>397.00000000000006</ele><time>2026-04-06T09:22:44.083Z</time></trkpt><trkpt lat="45.4402292" lon="11.5216852"><ele>397.0</ele><time>2026-04-06T09:22:47.083Z</time></trkpt><trkpt lat="45.4402744" lon="11.5216068"><ele>397.0</ele><time>2026-04-06T09:22:49.083Z</time></trkpt><trkpt lat="45.4403184" lon="11.5215091"><ele>397.0</ele><time>2026-04-06T09:22:53.083Z</time></trkpt><trkpt lat="45.4403715" lon="11.5214123"><ele>397.00000000000006</ele><time>2026-04-06T09:22:55.083Z</time></trkpt><trkpt lat="45.4404293" lon="11.5212808"><ele>397.0</ele><time>2026-04-06T09:22:57.083Z</time></trkpt><trkpt lat="45.4404773" lon="11.5211495"><ele>395.8</ele><time>2026-04-06T09:22:59.083Z</time></trkpt><trkpt lat="45.4405517" lon="11.5210537"><ele>394.6</ele><time>2026-04-06T09:23:01.083Z</time></trkpt><trkpt lat="45.4406305" lon="11.5209858"><ele>393.40000000000003</ele><time>2026-04-06T09:23:03.083Z</time></trkpt><trkpt lat="45.440696" lon="11.5209278"><ele>392.20000000000005</ele><time>2026-04-06T09:23:05.083Z</time></trkpt><trkpt lat="45.440775" lon="11.5208338"><ele>391.0</ele><time>2026-04-06T09:23:08.083Z</time></trkpt><trkpt lat="45.4408337" lon="11.5207595"><ele>391.00000000000006</ele><time>2026-04-06T09:23:10.083Z</time></trkpt><trkpt lat="45.4408949" lon="11.5206761"><ele>391.0</ele><time>2026-04-06T09:23:13.083Z</time></trkpt><trkpt lat="45.4409528" lon="11.5205913"><ele>391.0</ele><time>2026-04-06T09:23:16.083Z</time></trkpt><trkpt lat="45.4410069" lon="11.5205025"><ele>391.0</ele><time>2026-04-06T09:23:19.083Z</time></trkpt><trkpt lat="45.4410505" lon="11.5204104"><ele>391.00000000000006</ele><time>2026-04-06T09:23:22.083Z</time></trkpt><trkpt lat="45.44111" lon="11.5203281"><ele>391.0</ele><time>2026-04-06T09:23:26.083Z</time></trkpt><trkpt lat="45.4411821" lon="11.5202705"><ele>391.8</ele><time>2026-04-06T09:23:29.083Z</time></trkpt><trkpt lat="45.4412585" lon="11.5202052"><ele>392.6</ele><time>2026-04-06T09:23:32.083Z</time></trkpt><trkpt lat="45.4412986" lon="11.5201026"><ele>393.4</ele><time>2026-04-06T09:23:35.083Z</time></trkpt><trkpt lat="45.4413965" lon="11.5200472"><ele>394.2</ele><time>2026-04-06T09:23:38.083Z</time></trkpt><trkpt lat="45.4414945" lon="11.5199972"><ele>395.0</ele><time>2026-04-06T09:23:40.083Z</time></trkpt><trkpt lat="45.4415883" lon="11.5199336"><ele>393.2</ele><time>2026-04-06T09:23:42.083Z</time></trkpt><trkpt lat="45.4416667" lon="11.5198405"><ele>391.4</ele><time>2026-04-06T09:23:44.083Z</time></trkpt><trkpt lat="45.4417479" lon="11.5197317"><ele>389.6</ele><time>2026-04-06T09:23:46.083Z</time></trkpt><trkpt lat="45.4418111" lon="11.5196141"><ele>387.8</ele><time>2026-04-06T09:23:48.083Z</time></trkpt><trkpt lat="45.4418466" lon="11.5194922"><ele>386.0</ele><time>2026-04-06T09:23:50.083Z</time></trkpt><trkpt lat="45.441882" lon="11.5193944"><ele>386.16666666666663</ele><time>2026-04-06T09:23:52.083Z</time></trkpt><trkpt lat="45.441915" lon="11.5192718"><ele>386.3333333333333</ele><time>2026-04-06T09:23:55.083Z</time></trkpt><trkpt lat="45.4419533" lon="11.5191937"><ele>386.5</ele><time>2026-04-06T09:23:57.083Z</time></trkpt><trkpt lat="45.4420097" lon="11.5191218"><ele>386.66666666666663</ele><time>2026-04-06T09:23:59.083Z</time></trkpt><trkpt lat="45.4420799" lon="11.5190505"><ele>386.8333333333333</ele><time>2026-04-06T09:24:01.083Z</time></trkpt><trkpt lat="45.4421563" lon="11.5190036"><ele>387.0</ele><time>2026-04-06T09:24:03.083Z</time></trkpt><trkpt lat="45.4422227" lon="11.5189325"><ele>387.0</ele><time>2026-04-06T09:24:05.083Z</time></trkpt><trkpt lat="45.4423002" lon="11.5188647"><ele>387.0</ele><time>2026-04-06T09:24:07.083Z</time></trkpt><trkpt lat="45.4423894" lon="11.5188345"><ele>387.0</ele><time>2026-04-06T09:24:09.083Z</time></trkpt><trkpt lat="45.4424705" lon="11.5188224"><ele>387.0</ele><time>2026-04-06T09:24:11.083Z</time></trkpt><trkpt lat="45.4425717" lon="11.5188182"><ele>387.0</ele><time>2026-04-06T09:24:13.083Z</time></trkpt><trkpt lat="45.4426563" lon="11.5187914"><ele>387.0</ele><time>2026-04-06T09:24:15.083Z</time></trkpt><trkpt lat="45.4427618" lon="11.5187041"><ele>387.0</ele><time>2026-04-06T09:24:17.083Z</time></trkpt><trkpt lat="45.4428091" lon="11.5186406"><ele>387.0</ele><time>2026-04-06T09:24:18.083Z</time></trkpt><trkpt lat="45.4428571" lon="11.518567"><ele>387.0</ele><time>2026-04-06T09:24:19.083Z</time></trkpt><trkpt lat="45.4428897" lon="11.5184893"><ele>387.0</ele><time>2026-04-06T09:24:20.083Z</time></trkpt><trkpt lat="45.4429169" lon="11.5183959"><ele>387.0</ele><time>2026-04-06T09:24:21.083Z</time></trkpt><trkpt lat="45.442968" lon="11.5182307"><ele>387.0</ele><time>2026-04-06T09:24:23.083Z</time></trkpt><trkpt lat="45.442998" lon="11.5181395"><ele>387.0</ele><time>2026-04-06T09:24:24.083Z</time></trkpt><trkpt lat="45.4430282" lon="11.5180522"><ele>387.0</ele><time>2026-04-06T09:24:25.083Z</time></trkpt><trkpt lat="45.4430872" lon="11.5178901"><ele>387.0</ele><time>2026-04-06T09:24:27.083Z</time></trkpt><trkpt lat="45.4431763" lon="11.5177552"><ele>387.0</ele><time>2026-04-06T09:24:29.083Z</time></trkpt><trkpt lat="45.4432914" lon="11.5176686"><ele>385.57142857142856</ele><time>2026-04-06T09:24:31.083Z</time></trkpt><trkpt lat="45.4433524" lon="11.5176336"><ele>384.14285714285717</ele><time>2026-04-06T09:24:32.083Z</time></trkpt><trkpt lat="45.4434252" lon="11.5175927"><ele>382.71428571428567</ele><time>2026-04-06T09:24:33.083Z</time></trkpt><trkpt lat="45.4434952" lon="11.517546"><ele>381.2857142857143</ele><time>2026-04-06T09:24:34.083Z</time></trkpt><trkpt lat="45.4435656" lon="11.5175089"><ele>379.85714285714283</ele><time>2026-04-06T09:24:35.083Z</time></trkpt><trkpt lat="45.4436241" lon="11.5174514"><ele>378.4285714285714</ele><time>2026-04-06T09:24:36.083Z</time></trkpt><trkpt lat="45.4436807" lon="11.517382"><ele>377.0</ele><time>2026-04-06T09:24:37.083Z</time></trkpt><trkpt lat="45.4437305" lon="11.5172872"><ele>377.0</ele><time>2026-04-06T09:24:38.083Z</time></trkpt><trkpt lat="45.4437739" lon="11.517185"><ele>377.0</ele><time>2026-04-06T09:24:39.083Z</time></trkpt><trkpt lat="45.4438171" lon="11.5170837"><ele>377.0</ele><time>2026-04-06T09:24:40.083Z</time></trkpt><trkpt lat="45.443845" lon="11.516963"><ele>377.0</ele><time>2026-04-06T09:24:41.083Z</time></trkpt><trkpt lat="45.4438554" lon="11.5168405"><ele>377.0</ele><time>2026-04-06T09:24:42.083Z</time></trkpt><trkpt lat="45.4438481" lon="11.516717"><ele>377.0</ele><time>2026-04-06T09:24:43.083Z</time></trkpt><trkpt lat="45.4438372" lon="11.5166003"><ele>377.0</ele><time>2026-04-06T09:24:44.083Z</time></trkpt><trkpt lat="45.4438252" lon="11.5164973"><ele>377.0</ele><time>2026-04-06T09:24:45.083Z</time></trkpt><trkpt lat="45.4438128" lon="11.5163906"><ele>377.0</ele><time>2026-04-06T09:24:46.083Z</time></trkpt><trkpt lat="45.4438026" lon="11.5162911"><ele>377.0</ele><time>2026-04-06T09:24:47.083Z</time></trkpt><trkpt lat="45.443796" lon="11.5161402"><ele>377.0</ele><time>2026-04-06T09:24:49.083Z</time></trkpt><trkpt lat="45.443821" lon="11.5160359"><ele>377.0</ele><time>2026-04-06T09:24:51.083Z</time></trkpt><trkpt lat="45.4438383" lon="11.5159313"><ele>377.0</ele><time>2026-04-06T09:24:53.084Z</time></trkpt><trkpt lat="45.4438699" lon="11.5158348"><ele>377.0</ele><time>2026-04-06T09:24:55.083Z</time></trkpt><trkpt lat="45.4439022" lon="11.5157371"><ele>377.0</ele><time>2026-04-06T09:24:58.1Z</time></trkpt><trkpt lat="45.4439515" lon="11.5156352"><ele>377.0</ele><time>2026-04-06T09:25:00.083Z</time></trkpt><trkpt lat="45.4439936" lon="11.5155291"><ele>377.0</ele><time>2026-04-06T09:25:03.083Z</time></trkpt><trkpt lat="45.4440395" lon="11.5154173"><ele>377.0</ele><time>2026-04-06T09:25:06.108Z</time></trkpt><trkpt lat="45.4440802" lon="11.5153229"><ele>378.6666666666667</ele><time>2026-04-06T09:25:09.095Z</time></trkpt><trkpt lat="45.4441304" lon="11.5152273"><ele>380.33333333333337</ele><time>2026-04-06T09:25:12.083Z</time></trkpt><trkpt lat="45.4441897" lon="11.5151361"><ele>382.0</ele><time>2026-04-06T09:25:15.083Z</time></trkpt><trkpt lat="45.4442474" lon="11.5150434"><ele>383.6666666666667</ele><time>2026-04-06T09:25:18.083Z</time></trkpt><trkpt lat="45.4443062" lon="11.5149582"><ele>385.3333333333333</ele><time>2026-04-06T09:25:21.083Z</time></trkpt><trkpt lat="45.4443647" lon="11.5148678"><ele>387.0</ele><time>2026-04-06T09:25:24.083Z</time></trkpt><trkpt lat="45.4444092" lon="11.5147911"><ele>387.0</ele><time>2026-04-06T09:25:26.083Z</time></trkpt><trkpt lat="45.444439" lon="11.5146939"><ele>387.0</ele><time>2026-04-06T09:25:28.098Z</time></trkpt><trkpt lat="45.4444504" lon="11.5145899"><ele>387.0</ele><time>2026-04-06T09:25:30.083Z</time></trkpt><trkpt lat="45.4444582" lon="11.5144833"><ele>387.0</ele><time>2026-04-06T09:25:32.083Z</time></trkpt><trkpt lat="45.4444657" lon="11.514388"><ele>387.0</ele><time>2026-04-06T09:25:34.083Z</time></trkpt><trkpt lat="45.44447" lon="11.5142902"><ele>387.0</ele><time>2026-04-06T09:25:36.105Z</time></trkpt><trkpt lat="45.444465" lon="11.5141821"><ele>387.0</ele><time>2026-04-06T09:25:38.986Z</time></trkpt><trkpt lat="45.4444549" lon="11.5140753"><ele>387.8</ele><time>2026-04-06T09:25:45.083Z</time></trkpt><trkpt lat="45.4444603" lon="11.5139487"><ele>388.6</ele><time>2026-04-06T09:25:47.083Z</time></trkpt><trkpt lat="45.4444535" lon="11.5138274"><ele>389.40000000000003</ele><time>2026-04-06T09:25:49.083Z</time></trkpt><trkpt lat="45.4444624" lon="11.5136897"><ele>390.20000000000005</ele><time>2026-04-06T09:25:51.083Z</time></trkpt><trkpt lat="45.4444967" lon="11.5135168"><ele>391.0</ele><time>2026-04-06T09:25:52.083Z</time></trkpt><trkpt lat="45.444532" lon="11.5133983"><ele>391.00000000000006</ele><time>2026-04-06T09:25:53.083Z</time></trkpt><trkpt lat="45.4445604" lon="11.5133098"><ele>391.0</ele><time>2026-04-06T09:25:54.083Z</time></trkpt><trkpt lat="45.4446256" lon="11.5131654"><ele>391.0</ele><time>2026-04-06T09:25:56.083Z</time></trkpt><trkpt lat="45.4446637" lon="11.5130936"><ele>391.0</ele><time>2026-04-06T09:25:57.083Z</time></trkpt><trkpt lat="45.4447532" lon="11.5129949"><ele>391.00000000000006</ele><time>2026-04-06T09:25:59.083Z</time></trkpt><trkpt lat="45.4448015" lon="11.5129361"><ele>391.0</ele><time>2026-04-06T09:26:00.083Z</time></trkpt><trkpt lat="45.4449139" lon="11.5128317"><ele>388.99999999999994</ele><time>2026-04-06T09:26:02.083Z</time></trkpt><trkpt lat="45.4449705" lon="11.5127717"><ele>387.0</ele><time>2026-04-06T09:26:03.083Z</time></trkpt><trkpt lat="45.44502" lon="11.5127051"><ele>385.0</ele><time>2026-04-06T09:26:04.083Z</time></trkpt><trkpt lat="45.4450721" lon="11.5126373"><ele>383.0</ele><time>2026-04-06T09:26:05.083Z</time></trkpt><trkpt lat="45.445123" lon="11.5125603"><ele>381.0</ele><time>2026-04-06T09:26:06.083Z</time></trkpt><trkpt lat="45.4451704" lon="11.5124734"><ele>378.99999999999994</ele><time>2026-04-06T09:26:07.083Z</time></trkpt><trkpt lat="45.4452137" lon="11.5123761"><ele>377.0</ele><time>2026-04-06T09:26:08.083Z</time></trkpt><trkpt lat="45.4452504" lon="11.5122735"><ele>377.0</ele><time>2026-04-06T09:26:09.083Z</time></trkpt><trkpt lat="45.4452894" lon="11.5121697"><ele>377.0</ele><time>2026-04-06T09:26:10.083Z</time></trkpt><trkpt lat="45.4453342" lon="11.5120613"><ele>377.0</ele><time>2026-04-06T09:26:11.083Z</time></trkpt><trkpt lat="45.4453859" lon="11.5119468"><ele>377.0</ele><time>2026-04-06T09:26:12.083Z</time></trkpt><trkpt lat="45.4454433" lon="11.5118319"><ele>377.0</ele><time>2026-04-06T09:26:13.083Z</time></trkpt><trkpt lat="45.4455297" lon="11.511727"><ele>374.25</ele><time>2026-04-06T09:26:14.083Z</time></trkpt><trkpt lat="45.4456256" lon="11.5116235"><ele>371.5</ele><time>2026-04-06T09:26:15.083Z</time></trkpt><trkpt lat="45.4457199" lon="11.5115195"><ele>368.75</ele><time>2026-04-06T09:26:16.083Z</time></trkpt><trkpt lat="45.4458121" lon="11.5114148"><ele>366.0</ele><time>2026-04-06T09:26:17.083Z</time></trkpt><trkpt lat="45.4459005" lon="11.5113059"><ele>365.8</ele><time>2026-04-06T09:26:18.083Z</time></trkpt><trkpt lat="45.4459838" lon="11.5112091"><ele>365.6</ele><time>2026-04-06T09:26:19.083Z</time></trkpt><trkpt lat="45.4460597" lon="11.5111135"><ele>365.4</ele><time>2026-04-06T09:26:20.083Z</time></trkpt><trkpt lat="45.4461167" lon="11.5110163"><ele>365.2</ele><time>2026-04-06T09:26:21.083Z</time></trkpt><trkpt lat="45.4461596" lon="11.5109039"><ele>365.0</ele><time>2026-04-06T09:26:22.083Z</time></trkpt><trkpt lat="45.4461762" lon="11.5107948"><ele>365.00000000000006</ele><time>2026-04-06T09:26:23.083Z</time></trkpt><trkpt lat="45.4461754" lon="11.5106911"><ele>365.0</ele><time>2026-04-06T09:26:24.083Z</time></trkpt><trkpt lat="45.4461629" lon="11.510598"><ele>365.0</ele><time>2026-04-06T09:26:25.083Z</time></trkpt><trkpt lat="45.446139" lon="11.5105117"><ele>365.0</ele><time>2026-04-06T09:26:26.083Z</time></trkpt><trkpt lat="45.4461154" lon="11.5104257"><ele>365.0</ele><time>2026-04-06T09:26:27.083Z</time></trkpt><trkpt lat="45.446091" lon="11.5103405"><ele>365.00000000000006</ele><time>2026-04-06T09:26:28.083Z</time></trkpt><trkpt lat="45.4460514" lon="11.5101869"><ele>365.0</ele><time>2026-04-06T09:26:30.083Z</time></trkpt><trkpt lat="45.4460437" lon="11.5100344"><ele>364.2</ele><time>2026-04-06T09:26:32.083Z</time></trkpt><trkpt lat="45.4460501" lon="11.5098965"><ele>363.4</ele><time>2026-04-06T09:26:34.083Z</time></trkpt><trkpt lat="45.4461005" lon="11.5097832"><ele>362.6</ele><time>2026-04-06T09:26:36.083Z</time></trkpt><trkpt lat="45.4461711" lon="11.5096643"><ele>361.8</ele><time>2026-04-06T09:26:38.083Z</time></trkpt><trkpt lat="45.4462444" lon="11.5095584"><ele>361.0</ele><time>2026-04-06T09:26:40.083Z</time></trkpt><trkpt lat="45.4463214" lon="11.5094548"><ele>364.0</ele><time>2026-04-06T09:26:42.083Z</time></trkpt><trkpt lat="45.4463935" lon="11.5093577"><ele>367.0</ele><time>2026-04-06T09:26:44.083Z</time></trkpt><trkpt lat="45.4464687" lon="11.509266"><ele>370.0</ele><time>2026-04-06T09:26:46.083Z</time></trkpt><trkpt lat="45.4465511" lon="11.5091785"><ele>373.0</ele><time>2026-04-06T09:26:48.083Z</time></trkpt><trkpt lat="45.4466199" lon="11.5090812"><ele>376.0</ele><time>2026-04-06T09:26:50.083Z</time></trkpt><trkpt lat="45.4466965" lon="11.5089898"><ele>376.0</ele><time>2026-04-06T09:26:52.083Z</time></trkpt><trkpt lat="45.446783" lon="11.5088847"><ele>376.0</ele><time>2026-04-06T09:26:54.083Z</time></trkpt><trkpt lat="45.446852" lon="11.5087711"><ele>376.0</ele><time>2026-04-06T09:26:56.083Z</time></trkpt><trkpt lat="45.4469307" lon="11.5086666"><ele>376.0</ele><time>2026-04-06T09:26:58.083Z</time></trkpt><trkpt lat="45.44702" lon="11.5085765"><ele>376.0</ele><time>2026-04-06T09:27:00.083Z</time></trkpt><trkpt lat="45.4471108" lon="11.5084788"><ele>374.8</ele><time>2026-04-06T09:27:02.083Z</time></trkpt><trkpt lat="45.4472051" lon="11.5084134"><ele>373.6</ele><time>2026-04-06T09:27:04.083Z</time></trkpt><trkpt lat="45.4473138" lon="11.5084005"><ele>372.4</ele><time>2026-04-06T09:27:06.083Z</time></trkpt><trkpt lat="45.4474236" lon="11.5084029"><ele>371.2</ele><time>2026-04-06T09:27:08.083Z</time></trkpt><trkpt lat="45.4475306" lon="11.5084085"><ele>370.0</ele><time>2026-04-06T09:27:10.083Z</time></trkpt><trkpt lat="45.4476338" lon="11.5084172"><ele>370.0</ele><time>2026-04-06T09:27:12.082Z</time></trkpt><trkpt lat="45.4477386" lon="11.5084187"><ele>370.0</ele><time>2026-04-06T09:27:14.082Z</time></trkpt><trkpt lat="45.4478421" lon="11.5083972"><ele>370.0</ele><time>2026-04-06T09:27:16.082Z</time></trkpt><trkpt lat="45.4479489" lon="11.5083519"><ele>370.0</ele><time>2026-04-06T09:27:18.082Z</time></trkpt><trkpt lat="45.4480447" lon="11.5082665"><ele>370.0</ele><time>2026-04-06T09:27:20.082Z</time></trkpt><trkpt lat="45.4481318" lon="11.5081659"><ele>371.2</ele><time>2026-04-06T09:27:22.082Z</time></trkpt><trkpt lat="45.4482107" lon="11.5080458"><ele>372.4</ele><time>2026-04-06T09:27:24.082Z</time></trkpt><trkpt lat="45.4482456" lon="11.5078999"><ele>373.6</ele><time>2026-04-06T09:27:26.083Z</time></trkpt><trkpt lat="45.4482365" lon="11.5077431"><ele>374.8</ele><time>2026-04-06T09:27:28.082Z</time></trkpt><trkpt lat="45.448227" lon="11.507605"><ele>376.0</ele><time>2026-04-06T09:27:30.082Z</time></trkpt><trkpt lat="45.4481952" lon="11.507472"><ele>376.0</ele><time>2026-04-06T09:27:32.082Z</time></trkpt><trkpt lat="45.4481409" lon="11.5073066"><ele>376.0</ele><time>2026-04-06T09:27:34.082Z</time></trkpt><trkpt lat="45.4481132" lon="11.5072148"><ele>376.0</ele><time>2026-04-06T09:27:35.082Z</time></trkpt><trkpt lat="45.4480831" lon="11.507124"><ele>376.0</ele><time>2026-04-06T09:27:36.082Z</time></trkpt><trkpt lat="45.4480571" lon="11.5070333"><ele>376.0</ele><time>2026-04-06T09:27:37.082Z</time></trkpt><trkpt lat="45.4480298" lon="11.5069383"><ele>376.0</ele><time>2026-04-06T09:27:38.082Z</time></trkpt><trkpt lat="45.448005" lon="11.5068447"><ele>374.8333333333333</ele><time>2026-04-06T09:27:39.082Z</time></trkpt><trkpt lat="45.4479982" lon="11.5067407"><ele>373.66666666666663</ele><time>2026-04-06T09:27:40.082Z</time></trkpt><trkpt lat="45.4480046" lon="11.5066331"><ele>372.5</ele><time>2026-04-06T09:27:41.082Z</time></trkpt><trkpt lat="45.4480318" lon="11.5065225"><ele>371.3333333333333</ele><time>2026-04-06T09:27:42.082Z</time></trkpt><trkpt lat="45.4480811" lon="11.5064123"><ele>370.1666666666667</ele><time>2026-04-06T09:27:43.082Z</time></trkpt><trkpt lat="45.4481557" lon="11.5063318"><ele>369.0</ele><time>2026-04-06T09:27:44.082Z</time></trkpt><trkpt lat="45.4482385" lon="11.5062638"><ele>366.6</ele><time>2026-04-06T09:27:45.082Z</time></trkpt><trkpt lat="45.4483266" lon="11.5061958"><ele>364.2</ele><time>2026-04-06T09:27:46.082Z</time></trkpt><trkpt lat="45.4484139" lon="11.5061185"><ele>361.8</ele><time>2026-04-06T09:27:47.082Z</time></trkpt><trkpt lat="45.4485031" lon="11.5060351"><ele>359.40000000000003</ele><time>2026-04-06T09:27:48.082Z</time></trkpt><trkpt lat="45.4485909" lon="11.5059507"><ele>357.0</ele><time>2026-04-06T09:27:49.082Z</time></trkpt><trkpt lat="45.4486757" lon="11.5058476"><ele>357.0</ele><time>2026-04-06T09:27:50.082Z</time></trkpt><trkpt lat="45.4487607" lon="11.5057361"><ele>357.0</ele><time>2026-04-06T09:27:51.082Z</time></trkpt><trkpt lat="45.4488429" lon="11.5056241"><ele>357.0</ele><time>2026-04-06T09:27:52.082Z</time></trkpt><trkpt lat="45.4489253" lon="11.5055204"><ele>357.0</ele><time>2026-04-06T09:27:53.082Z</time></trkpt><trkpt lat="45.4490135" lon="11.5054409"><ele>357.0</ele><time>2026-04-06T09:27:54.083Z</time></trkpt><trkpt lat="45.4491044" lon="11.5053837"><ele>356.40000000000003</ele><time>2026-04-06T09:27:55.082Z</time></trkpt><trkpt lat="45.4491998" lon="11.5053587"><ele>355.8</ele><time>2026-04-06T09:27:56.082Z</time></trkpt><trkpt lat="45.4492946" lon="11.5053488"><ele>355.2</ele><time>2026-04-06T09:27:57.082Z</time></trkpt><trkpt lat="45.4493953" lon="11.5053373"><ele>354.6</ele><time>2026-04-06T09:27:58.082Z</time></trkpt><trkpt lat="45.4494916" lon="11.5052979"><ele>354.0</ele><time>2026-04-06T09:27:59.082Z</time></trkpt><trkpt lat="45.449582" lon="11.5052428"><ele>355.0</ele><time>2026-04-06T09:28:00.082Z</time></trkpt><trkpt lat="45.4496631" lon="11.5051779"><ele>356.0</ele><time>2026-04-06T09:28:01.082Z</time></trkpt><trkpt lat="45.4497386" lon="11.5051032"><ele>357.0</ele><time>2026-04-06T09:28:02.082Z</time></trkpt><trkpt lat="45.4498087" lon="11.5050398"><ele>358.0</ele><time>2026-04-06T09:28:03.083Z</time></trkpt><trkpt lat="45.4498774" lon="11.5049724"><ele>359.0</ele><time>2026-04-06T09:28:04.082Z</time></trkpt><trkpt lat="45.4499402" lon="11.5049089"><ele>360.0</ele><time>2026-04-06T09:28:05.082Z</time></trkpt><trkpt lat="45.4499968" lon="11.504848"><ele>360.0</ele><time>2026-04-06T09:28:06.082Z</time></trkpt><trkpt lat="45.4500892" lon="11.504726"><ele>360.0</ele><time>2026-04-06T09:28:08.082Z</time></trkpt><trkpt lat="45.4501749" lon="11.5046272"><ele>360.0</ele><time>2026-04-06T09:28:10.083Z</time></trkpt><trkpt lat="45.45026" lon="11.5045265"><ele>360.0</ele><time>2026-04-06T09:28:12.082Z</time></trkpt><trkpt lat="45.4503318" lon="11.5044145"><ele>359.6</ele><time>2026-04-06T09:28:14.082Z</time></trkpt><trkpt lat="45.4504023" lon="11.5042884"><ele>359.2</ele><time>2026-04-06T09:28:16.082Z</time></trkpt><trkpt lat="45.4504741" lon="11.5041729"><ele>358.79999999999995</ele><time>2026-04-06T09:28:18.082Z</time></trkpt><trkpt lat="45.4505315" lon="11.5040603"><ele>358.4</ele><time>2026-04-06T09:28:20.082Z</time></trkpt><trkpt lat="45.45061" lon="11.504033"><ele>358.0</ele><time>2026-04-06T09:28:22.082Z</time></trkpt><trkpt lat="45.4507014" lon="11.5040873"><ele>358.0</ele><time>2026-04-06T09:28:24.082Z</time></trkpt><trkpt lat="45.4507906" lon="11.5041564"><ele>358.0</ele><time>2026-04-06T09:28:26.082Z</time></trkpt><trkpt lat="45.4508713" lon="11.504229"><ele>358.0</ele><time>2026-04-06T09:28:28.082Z</time></trkpt><trkpt lat="45.4509408" lon="11.5043368"><ele>358.0</ele><time>2026-04-06T09:28:30.082Z</time></trkpt><trkpt lat="45.4509841" lon="11.5044803"><ele>358.0</ele><time>2026-04-06T09:28:32.082Z</time></trkpt><trkpt lat="45.4510315" lon="11.5046098"><ele>357.59999999999997</ele><time>2026-04-06T09:28:34.082Z</time></trkpt><trkpt lat="45.4510862" lon="11.5047511"><ele>357.2</ele><time>2026-04-06T09:28:36.082Z</time></trkpt><trkpt lat="45.4511733" lon="11.5048564"><ele>356.8</ele><time>2026-04-06T09:28:38.082Z</time></trkpt><trkpt lat="45.4512636" lon="11.5049306"><ele>356.4</ele><time>2026-04-06T09:28:40.082Z</time></trkpt><trkpt lat="45.4513436" lon="11.5050133"><ele>356.0</ele><time>2026-04-06T09:28:42.082Z</time></trkpt><trkpt lat="45.4514329" lon="11.5050549"><ele>355.6</ele><time>2026-04-06T09:28:44.082Z</time></trkpt><trkpt lat="45.4515372" lon="11.5050596"><ele>355.20000000000005</ele><time>2026-04-06T09:28:46.082Z</time></trkpt><trkpt lat="45.4516475" lon="11.5050687"><ele>354.79999999999995</ele><time>2026-04-06T09:28:48.082Z</time></trkpt><trkpt lat="45.4517539" lon="11.505089"><ele>354.4</ele><time>2026-04-06T09:28:50.082Z</time></trkpt><trkpt lat="45.4518488" lon="11.5051764"><ele>354.0</ele><time>2026-04-06T09:28:52.082Z</time></trkpt><trkpt lat="45.4519436" lon="11.5052373"><ele>354.0</ele><time>2026-04-06T09:28:54.082Z</time></trkpt><trkpt lat="45.4520335" lon="11.5052496"><ele>354.0</ele><time>2026-04-06T09:28:56.082Z</time></trkpt><trkpt lat="45.4521211" lon="11.5052932"><ele>354.0</ele><time>2026-04-06T09:28:58.082Z</time></trkpt><trkpt lat="45.4521812" lon="11.5053585"><ele>354.0</ele><time>2026-04-06T09:29:00.082Z</time></trkpt><trkpt lat="45.4522494" lon="11.5054154"><ele>354.0</ele><time>2026-04-06T09:29:02.082Z</time></trkpt><trkpt lat="45.4523468" lon="11.5054819"><ele>354.0</ele><time>2026-04-06T09:29:04.082Z</time></trkpt><trkpt lat="45.4524166" lon="11.5055039"><ele>354.5714285714286</ele><time>2026-04-06T09:29:05.082Z</time></trkpt><trkpt lat="45.4524867" lon="11.5055285"><ele>355.1428571428571</ele><time>2026-04-06T09:29:06.082Z</time></trkpt><trkpt lat="45.4525627" lon="11.5055505"><ele>355.7142857142857</ele><time>2026-04-06T09:29:07.082Z</time></trkpt><trkpt lat="45.452641" lon="11.5055573"><ele>356.28571428571433</ele><time>2026-04-06T09:29:08.082Z</time></trkpt><trkpt lat="45.4527096" lon="11.505556"><ele>356.8571428571429</ele><time>2026-04-06T09:29:09.082Z</time></trkpt><trkpt lat="45.452794" lon="11.5055733"><ele>357.42857142857144</ele><time>2026-04-06T09:29:11.082Z</time></trkpt><trkpt lat="45.4528579" lon="11.5056032"><ele>358.0</ele><time>2026-04-06T09:29:16.082Z</time></trkpt><trkpt lat="45.4529137" lon="11.5056671"><ele>359.0</ele><time>2026-04-06T09:29:30.082Z</time></trkpt><trkpt lat="45.4529833" lon="11.5056782"><ele>360.0</ele><time>2026-04-06T09:29:34.082Z</time></trkpt><trkpt lat="45.4530439" lon="11.5056528"><ele>361.0</ele><time>2026-04-06T09:29:37.082Z</time></trkpt><trkpt lat="45.4531066" lon="11.5056113"><ele>362.0</ele><time>2026-04-06T09:29:40.082Z</time></trkpt><trkpt lat="45.4531779" lon="11.5055939"><ele>363.0</ele><time>2026-04-06T09:29:43.082Z</time></trkpt><trkpt lat="45.4532651" lon="11.5055726"><ele>364.0</ele><time>2026-04-06T09:29:46.082Z</time></trkpt><trkpt lat="45.4533563" lon="11.5055716"><ele>364.0</ele><time>2026-04-06T09:29:49.092Z</time></trkpt><trkpt lat="45.4534209" lon="11.5055714"><ele>364.0</ele><time>2026-04-06T09:29:51.082Z</time></trkpt><trkpt lat="45.4534957" lon="11.5055359"><ele>364.0</ele><time>2026-04-06T09:29:54.034Z</time></trkpt><trkpt lat="45.4535617" lon="11.5055028"><ele>364.0</ele><time>2026-04-06T09:29:56.983Z</time></trkpt><trkpt lat="45.4536482" lon="11.5055054"><ele>364.0</ele><time>2026-04-06T09:30:00.119Z</time></trkpt><trkpt lat="45.4537084" lon="11.5055492"><ele>364.0</ele><time>2026-04-06T09:30:02.061Z</time></trkpt><trkpt lat="45.4537724" lon="11.5056358"><ele>365.16666666666663</ele><time>2026-04-06T09:30:04.082Z</time></trkpt><trkpt lat="45.4538334" lon="11.5057147"><ele>366.3333333333333</ele><time>2026-04-06T09:30:06.082Z</time></trkpt><trkpt lat="45.4538954" lon="11.5057804"><ele>367.5</ele><time>2026-04-06T09:30:08.095Z</time></trkpt><trkpt lat="45.4539503" lon="11.505847"><ele>368.6666666666667</ele><time>2026-04-06T09:30:10.083Z</time></trkpt><trkpt lat="45.4540272" lon="11.505909"><ele>369.83333333333337</ele><time>2026-04-06T09:30:13.082Z</time></trkpt><trkpt lat="45.4540949" lon="11.5059531"><ele>371.0</ele><time>2026-04-06T09:30:15.099Z</time></trkpt><trkpt lat="45.4541671" lon="11.5059823"><ele>371.0</ele><time>2026-04-06T09:30:17.082Z</time></trkpt><trkpt lat="45.4542392" lon="11.5060032"><ele>371.0</ele><time>2026-04-06T09:30:20.082Z</time></trkpt><trkpt lat="45.4543289" lon="11.5060025"><ele>371.0</ele><time>2026-04-06T09:30:23.082Z</time></trkpt><trkpt lat="45.454394" lon="11.5059924"><ele>371.0</ele><time>2026-04-06T09:30:25.082Z</time></trkpt><trkpt lat="45.4544973" lon="11.5059854"><ele>371.0</ele><time>2026-04-06T09:30:28.082Z</time></trkpt><trkpt lat="45.454563" lon="11.5059753"><ele>371.0</ele><time>2026-04-06T09:30:30Z</time></trkpt><trkpt lat="45.4546342" lon="11.50596"><ele>370.5</ele><time>2026-04-06T09:30:32.082Z</time></trkpt><trkpt lat="45.4547079" lon="11.5058803"><ele>370.0</ele><time>2026-04-06T09:30:35.107Z</time></trkpt><trkpt lat="45.4547721" lon="11.5058023"><ele>369.5</ele><time>2026-04-06T09:30:37.082Z</time></trkpt><trkpt lat="45.45484" lon="11.5057224"><ele>369.0</ele><time>2026-04-06T09:30:39.082Z</time></trkpt><trkpt lat="45.4549091" lon="11.5056641"><ele>368.5</ele><time>2026-04-06T09:30:41.083Z</time></trkpt><trkpt lat="45.4549993" lon="11.5056119"><ele>368.0</ele><time>2026-04-06T09:30:43.115Z</time></trkpt><trkpt lat="45.4550744" lon="11.5055671"><ele>368.0</ele><time>2026-04-06T09:30:45.12Z</time></trkpt><trkpt lat="45.4551507" lon="11.5055256"><ele>368.0</ele><time>2026-04-06T09:30:47.082Z</time></trkpt><trkpt lat="45.4552156" lon="11.5054646"><ele>368.0</ele><time>2026-04-06T09:30:49.091Z</time></trkpt><trkpt lat="45.4552843" lon="11.5053986"><ele>368.0</ele><time>2026-04-06T09:30:51.082Z</time></trkpt><trkpt lat="45.4553531" lon="11.5053436"><ele>368.0</ele><time>2026-04-06T09:30:53.082Z</time></trkpt><trkpt lat="45.4554231" lon="11.5053022"><ele>368.0</ele><time>2026-04-06T09:30:55.082Z</time></trkpt><trkpt lat="45.4554904" lon="11.5052704"><ele>366.6666666666667</ele><time>2026-04-06T09:30:58.082Z</time></trkpt><trkpt lat="45.4555476" lon="11.505198"><ele>365.33333333333337</ele><time>2026-04-06T09:31:01.082Z</time></trkpt><trkpt lat="45.4556187" lon="11.5051262"><ele>364.0</ele><time>2026-04-06T09:31:04.082Z</time></trkpt><trkpt lat="45.455655" lon="11.505029"><ele>362.6666666666667</ele><time>2026-04-06T09:31:07.082Z</time></trkpt><trkpt lat="45.455686" lon="11.5048983"><ele>361.3333333333333</ele><time>2026-04-06T09:31:10.082Z</time></trkpt><trkpt lat="45.4557135" lon="11.504816"><ele>360.0</ele><time>2026-04-06T09:31:12.082Z</time></trkpt><trkpt lat="45.4557672" lon="11.5047165"><ele>360.0</ele><time>2026-04-06T09:31:15.082Z</time></trkpt><trkpt lat="45.4557994" lon="11.5046299"><ele>360.0</ele><time>2026-04-06T09:31:19.014Z</time></trkpt><trkpt lat="45.4558379" lon="11.5045369"><ele>360.0</ele><time>2026-04-06T09:31:23.018Z</time></trkpt><trkpt lat="45.4558455" lon="11.5044335"><ele>360.0</ele><time>2026-04-06T09:31:26.082Z</time></trkpt><trkpt lat="45.4558605" lon="11.5043355"><ele>360.0</ele><time>2026-04-06T09:31:29.082Z</time></trkpt><trkpt lat="45.4558772" lon="11.5042451"><ele>360.0</ele><time>2026-04-06T09:31:32.062Z</time></trkpt><trkpt lat="45.4558871" lon="11.5041332"><ele>360.0</ele><time>2026-04-06T09:31:35.082Z</time></trkpt><trkpt lat="45.4558931" lon="11.5040268"><ele>360.2</ele><time>2026-04-06T09:31:38.094Z</time></trkpt><trkpt lat="45.4559024" lon="11.5039003"><ele>360.4</ele><time>2026-04-06T09:31:41.036Z</time></trkpt><trkpt lat="45.4559408" lon="11.5036933"><ele>360.6</ele><time>2026-04-06T09:31:43.082Z</time></trkpt><trkpt lat="45.4559422" lon="11.5035948"><ele>360.8</ele><time>2026-04-06T09:31:44.082Z</time></trkpt><trkpt lat="45.4559377" lon="11.5034968"><ele>361.0</ele><time>2026-04-06T09:31:45.082Z</time></trkpt><trkpt lat="45.4559357" lon="11.5033288"><ele>361.4</ele><time>2026-04-06T09:31:47.082Z</time></trkpt><trkpt lat="45.4559566" lon="11.5031455"><ele>361.8</ele><time>2026-04-06T09:31:49.082Z</time></trkpt><trkpt lat="45.4559504" lon="11.5029876"><ele>362.2</ele><time>2026-04-06T09:31:51.082Z</time></trkpt><trkpt lat="45.455949" lon="11.5028563"><ele>362.59999999999997</ele><time>2026-04-06T09:31:53.082Z</time></trkpt><trkpt lat="45.4559341" lon="11.5027435"><ele>363.0</ele><time>2026-04-06T09:31:55.082Z</time></trkpt><trkpt lat="45.4559172" lon="11.5026488"><ele>363.1428571428571</ele><time>2026-04-06T09:31:57.082Z</time></trkpt><trkpt lat="45.455907" lon="11.5025454"><ele>363.2857142857143</ele><time>2026-04-06T09:31:59.082Z</time></trkpt><trkpt lat="45.4558993" lon="11.50245"><ele>363.42857142857144</ele><time>2026-04-06T09:32:01.082Z</time></trkpt><trkpt lat="45.4559007" lon="11.5023491"><ele>363.57142857142856</ele><time>2026-04-06T09:32:03.082Z</time></trkpt><trkpt lat="45.4558982" lon="11.5022466"><ele>363.7142857142857</ele><time>2026-04-06T09:32:05.069Z</time></trkpt><trkpt lat="45.4558747" lon="11.5021492"><ele>363.85714285714283</ele><time>2026-04-06T09:32:07.05Z</time></trkpt><trkpt lat="45.4558369" lon="11.5020496"><ele>364.0</ele><time>2026-04-06T09:32:09.094Z</time></trkpt><trkpt lat="45.4557922" lon="11.5019703"><ele>364.5</ele><time>2026-04-06T09:32:11.074Z</time></trkpt><trkpt lat="45.4557607" lon="11.5018872"><ele>365.0</ele><time>2026-04-06T09:32:14.082Z</time></trkpt><trkpt lat="45.45574" lon="11.5017975"><ele>365.5</ele><time>2026-04-06T09:32:19.089Z</time></trkpt><trkpt lat="45.4557972" lon="11.5017316"><ele>366.0</ele><time>2026-04-06T09:33:21.083Z</time></trkpt><trkpt lat="45.4558323" lon="11.5016327"><ele>366.5</ele><time>2026-04-06T09:33:24.107Z</time></trkpt><trkpt lat="45.4558205" lon="11.5014908"><ele>367.0</ele><time>2026-04-06T09:33:26.083Z</time></trkpt><trkpt lat="45.4557957" lon="11.5013706"><ele>367.0</ele><time>2026-04-06T09:33:28.083Z</time></trkpt><trkpt lat="45.4557758" lon="11.501273"><ele>367.0</ele><time>2026-04-06T09:33:30.083Z</time></trkpt><trkpt lat="45.4557563" lon="11.5011688"><ele>367.0</ele><time>2026-04-06T09:33:32.059Z</time></trkpt><trkpt lat="45.4557327" lon="11.5010638"><ele>367.0</ele><time>2026-04-06T09:33:34.083Z</time></trkpt><trkpt lat="45.4557324" lon="11.5009351"><ele>367.0</ele><time>2026-04-06T09:33:36.083Z</time></trkpt><trkpt lat="45.4557285" lon="11.5008069"><ele>367.0</ele><time>2026-04-06T09:33:38.083Z</time></trkpt><trkpt lat="45.4557425" lon="11.5006481"><ele>367.3333333333333</ele><time>2026-04-06T09:33:40.083Z</time></trkpt><trkpt lat="45.4557726" lon="11.500524"><ele>367.66666666666663</ele><time>2026-04-06T09:33:43.083Z</time></trkpt><trkpt lat="45.455828" lon="11.5004217"><ele>368.0</ele><time>2026-04-06T09:33:45.083Z</time></trkpt><trkpt lat="45.4558777" lon="11.5003566"><ele>368.3333333333333</ele><time>2026-04-06T09:33:47.084Z</time></trkpt><trkpt lat="45.4559478" lon="11.5003033"><ele>368.6666666666667</ele><time>2026-04-06T09:33:51.083Z</time></trkpt><trkpt lat="45.4560024" lon="11.5002345"><ele>369.0</ele><time>2026-04-06T09:33:55.083Z</time></trkpt><trkpt lat="45.4560364" lon="11.5001512"><ele>369.1666666666667</ele><time>2026-04-06T09:33:58.096Z</time></trkpt><trkpt lat="45.4560687" lon="11.5000422"><ele>369.3333333333333</ele><time>2026-04-06T09:34:01.083Z</time></trkpt><trkpt lat="45.4561374" lon="11.4999559"><ele>369.5</ele><time>2026-04-06T09:34:04.083Z</time></trkpt><trkpt lat="45.4562062" lon="11.4998778"><ele>369.66666666666663</ele><time>2026-04-06T09:34:07.083Z</time></trkpt><trkpt lat="45.456271" lon="11.4998255"><ele>369.8333333333333</ele><time>2026-04-06T09:34:10.083Z</time></trkpt><trkpt lat="45.4563434" lon="11.4997742"><ele>370.0</ele><time>2026-04-06T09:34:13.083Z</time></trkpt><trkpt lat="45.4564037" lon="11.4997118"><ele>369.99999999999994</ele><time>2026-04-06T09:34:16.063Z</time></trkpt><trkpt lat="45.4564563" lon="11.4996609"><ele>370.0</ele><time>2026-04-06T09:34:19.083Z</time></trkpt><trkpt lat="45.4565242" lon="11.4996147"><ele>370.0</ele><time>2026-04-06T09:34:22.083Z</time></trkpt><trkpt lat="45.4565865" lon="11.4995737"><ele>370.0</ele><time>2026-04-06T09:34:25.103Z</time></trkpt><trkpt lat="45.4566437" lon="11.4995071"><ele>370.0</ele><time>2026-04-06T09:34:28.091Z</time></trkpt><trkpt lat="45.4566931" lon="11.4994449"><ele>369.99999999999994</ele><time>2026-04-06T09:34:31.083Z</time></trkpt><trkpt lat="45.456716" lon="11.4993551"><ele>370.0</ele><time>2026-04-06T09:34:33.083Z</time></trkpt><trkpt lat="45.4567198" lon="11.4992427"><ele>370.5</ele><time>2026-04-06T09:34:35.083Z</time></trkpt><trkpt lat="45.456747" lon="11.4991101"><ele>371.0</ele><time>2026-04-06T09:34:37.083Z</time></trkpt><trkpt lat="45.4567441" lon="11.4989929"><ele>371.5</ele><time>2026-04-06T09:34:39.083Z</time></trkpt><trkpt lat="45.4567437" lon="11.4988767"><ele>372.0</ele><time>2026-04-06T09:34:41.083Z</time></trkpt><trkpt lat="45.4567453" lon="11.4987779"><ele>372.5</ele><time>2026-04-06T09:34:43.083Z</time></trkpt><trkpt lat="45.4567547" lon="11.4986503"><ele>373.0</ele><time>2026-04-06T09:34:46.083Z</time></trkpt><trkpt lat="45.4567741" lon="11.4985216"><ele>373.0</ele><time>2026-04-06T09:34:49.083Z</time></trkpt><trkpt lat="45.4567879" lon="11.4984338"><ele>373.0</ele><time>2026-04-06T09:34:51.083Z</time></trkpt><trkpt lat="45.4567992" lon="11.4983293"><ele>373.0</ele><time>2026-04-06T09:34:53.083Z</time></trkpt><trkpt lat="45.4568244" lon="11.4982243"><ele>373.0</ele><time>2026-04-06T09:34:55.103Z</time></trkpt><trkpt lat="45.4568303" lon="11.4981163"><ele>373.0</ele><time>2026-04-06T09:34:57.078Z</time></trkpt><trkpt lat="45.4568911" lon="11.4980066"><ele>373.0</ele><time>2026-04-06T09:34:59.083Z</time></trkpt><trkpt lat="45.4569182" lon="11.4978937"><ele>372.16666666666663</ele><time>2026-04-06T09:35:01.083Z</time></trkpt><trkpt lat="45.4569478" lon="11.4977745"><ele>371.3333333333333</ele><time>2026-04-06T09:35:03.083Z</time></trkpt><trkpt lat="45.456973" lon="11.4976505"><ele>370.5</ele><time>2026-04-06T09:35:05.083Z</time></trkpt><trkpt lat="45.457007" lon="11.4975002"><ele>369.6666666666667</ele><time>2026-04-06T09:35:07.083Z</time></trkpt><trkpt lat="45.4570225" lon="11.4973942"><ele>368.83333333333337</ele><time>2026-04-06T09:35:08.083Z</time></trkpt><trkpt lat="45.4570383" lon="11.4972936"><ele>368.0</ele><time>2026-04-06T09:35:09.083Z</time></trkpt><trkpt lat="45.4570459" lon="11.4971972"><ele>368.2</ele><time>2026-04-06T09:35:10.083Z</time></trkpt><trkpt lat="45.4570464" lon="11.4970355"><ele>368.4</ele><time>2026-04-06T09:35:12.083Z</time></trkpt><trkpt lat="45.457086" lon="11.496905"><ele>368.59999999999997</ele><time>2026-04-06T09:35:14.083Z</time></trkpt><trkpt lat="45.4571234" lon="11.4967541"><ele>368.79999999999995</ele><time>2026-04-06T09:35:16.083Z</time></trkpt><trkpt lat="45.4571457" lon="11.4966633"><ele>369.0</ele><time>2026-04-06T09:35:17.083Z</time></trkpt><trkpt lat="45.4571556" lon="11.4965627"><ele>366.1666666666667</ele><time>2026-04-06T09:35:18.083Z</time></trkpt><trkpt lat="45.4571702" lon="11.4964114"><ele>363.3333333333333</ele><time>2026-04-06T09:35:20.083Z</time></trkpt><trkpt lat="45.4571795" lon="11.4963208"><ele>360.5</ele><time>2026-04-06T09:35:22.083Z</time></trkpt><trkpt lat="45.4572322" lon="11.4962424"><ele>357.66666666666663</ele><time>2026-04-06T09:35:24.083Z</time></trkpt><trkpt lat="45.4572949" lon="11.4961668"><ele>354.8333333333333</ele><time>2026-04-06T09:35:26.083Z</time></trkpt><trkpt lat="45.4573797" lon="11.49607"><ele>352.0</ele><time>2026-04-06T09:35:28.083Z</time></trkpt><trkpt lat="45.4574214" lon="11.4959594"><ele>352.0</ele><time>2026-04-06T09:35:30.083Z</time></trkpt><trkpt lat="45.457405" lon="11.4958523"><ele>352.0</ele><time>2026-04-06T09:35:33.083Z</time></trkpt><trkpt lat="45.4573677" lon="11.4957368"><ele>352.0</ele><time>2026-04-06T09:35:35.083Z</time></trkpt><trkpt lat="45.4573538" lon="11.4956227"><ele>352.0</ele><time>2026-04-06T09:35:38.083Z</time></trkpt><trkpt lat="45.4573534" lon="11.4955163"><ele>352.0</ele><time>2026-04-06T09:35:40.083Z</time></trkpt><trkpt lat="45.4573578" lon="11.495422"><ele>352.0</ele><time>2026-04-06T09:35:42.083Z</time></trkpt><trkpt lat="45.4573572" lon="11.4953113"><ele>352.16666666666663</ele><time>2026-04-06T09:35:45.083Z</time></trkpt><trkpt lat="45.4573552" lon="11.4952035"><ele>352.3333333333333</ele><time>2026-04-06T09:35:50.083Z</time></trkpt><trkpt lat="45.4574021" lon="11.4951126"><ele>352.5</ele><time>2026-04-06T09:35:53.083Z</time></trkpt><trkpt lat="45.4574622" lon="11.4950089"><ele>352.6666666666667</ele><time>2026-04-06T09:35:56.083Z</time></trkpt><trkpt lat="45.4575558" lon="11.4949277"><ele>352.83333333333337</ele><time>2026-04-06T09:35:58.083Z</time></trkpt><trkpt lat="45.4576183" lon="11.494839"><ele>353.0</ele><time>2026-04-06T09:36:00.083Z</time></trkpt><trkpt lat="45.4577152" lon="11.4946961"><ele>353.0</ele><time>2026-04-06T09:36:02.083Z</time></trkpt><trkpt lat="45.4577802" lon="11.4946264"><ele>353.0</ele><time>2026-04-06T09:36:03.083Z</time></trkpt><trkpt lat="45.4578517" lon="11.4945715"><ele>353.0</ele><time>2026-04-06T09:36:04.083Z</time></trkpt><trkpt lat="45.457928" lon="11.4945067"><ele>353.0</ele><time>2026-04-06T09:36:05.083Z</time></trkpt><trkpt lat="45.4580069" lon="11.4944366"><ele>353.0</ele><time>2026-04-06T09:36:06.083Z</time></trkpt><trkpt lat="45.4580954" lon="11.4943924"><ele>353.0</ele><time>2026-04-06T09:36:07.083Z</time></trkpt><trkpt lat="45.4581752" lon="11.4943379"><ele>351.0</ele><time>2026-04-06T09:36:08.083Z</time></trkpt><trkpt lat="45.4582659" lon="11.4942816"><ele>349.0</ele><time>2026-04-06T09:36:09.083Z</time></trkpt><trkpt lat="45.4583491" lon="11.4942294"><ele>347.0</ele><time>2026-04-06T09:36:10.083Z</time></trkpt><trkpt lat="45.4584299" lon="11.4941737"><ele>345.0</ele><time>2026-04-06T09:36:11.083Z</time></trkpt><trkpt lat="45.4584963" lon="11.4941383"><ele>343.0</ele><time>2026-04-06T09:36:12.083Z</time></trkpt><trkpt lat="45.4585652" lon="11.4940893"><ele>341.0</ele><time>2026-04-06T09:36:13.083Z</time></trkpt><trkpt lat="45.4586298" lon="11.494048"><ele>341.0</ele><time>2026-04-06T09:36:14.083Z</time></trkpt><trkpt lat="45.458729" lon="11.4940125"><ele>341.0</ele><time>2026-04-06T09:36:16.083Z</time></trkpt><trkpt lat="45.4588186" lon="11.4939827"><ele>341.0</ele><time>2026-04-06T09:36:18.083Z</time></trkpt><trkpt lat="45.4588864" lon="11.4939448"><ele>341.0</ele><time>2026-04-06T09:36:20.083Z</time></trkpt><trkpt lat="45.4589371" lon="11.4938884"><ele>341.0</ele><time>2026-04-06T09:36:22.083Z</time></trkpt><trkpt lat="45.4590104" lon="11.4938471"><ele>341.0</ele><time>2026-04-06T09:36:24.083Z</time></trkpt><trkpt lat="45.4591116" lon="11.493821"><ele>339.4</ele><time>2026-04-06T09:36:26.083Z</time></trkpt><trkpt lat="45.4592278" lon="11.4938085"><ele>337.8</ele><time>2026-04-06T09:36:28.083Z</time></trkpt><trkpt lat="45.4593552" lon="11.4937689"><ele>336.2</ele><time>2026-04-06T09:36:30.083Z</time></trkpt><trkpt lat="45.4594252" lon="11.493745"><ele>334.59999999999997</ele><time>2026-04-06T09:36:31.083Z</time></trkpt><trkpt lat="45.4594932" lon="11.4937088"><ele>333.0</ele><time>2026-04-06T09:36:32.083Z</time></trkpt><trkpt lat="45.4595688" lon="11.4936955"><ele>332.2</ele><time>2026-04-06T09:36:33.083Z</time></trkpt><trkpt lat="45.4596441" lon="11.4936555"><ele>331.4</ele><time>2026-04-06T09:36:34.083Z</time></trkpt><trkpt lat="45.4597389" lon="11.4936155"><ele>330.59999999999997</ele><time>2026-04-06T09:36:35.083Z</time></trkpt><trkpt lat="45.4598298" lon="11.4935731"><ele>329.79999999999995</ele><time>2026-04-06T09:36:36.083Z</time></trkpt><trkpt lat="45.4599204" lon="11.4935316"><ele>329.0</ele><time>2026-04-06T09:36:37.083Z</time></trkpt><trkpt lat="45.4600196" lon="11.4934962"><ele>329.0</ele><time>2026-04-06T09:36:38.083Z</time></trkpt><trkpt lat="45.4601058" lon="11.493454"><ele>329.0</ele><time>2026-04-06T09:36:39.083Z</time></trkpt><trkpt lat="45.4601942" lon="11.493434"><ele>329.0</ele><time>2026-04-06T09:36:40.083Z</time></trkpt><trkpt lat="45.4602648" lon="11.4934276"><ele>329.0</ele><time>2026-04-06T09:36:41.083Z</time></trkpt><trkpt lat="45.4603709" lon="11.4934072"><ele>329.0</ele><time>2026-04-06T09:36:43.083Z</time></trkpt><trkpt lat="45.4604373" lon="11.4933771"><ele>329.0</ele><time>2026-04-06T09:36:45.083Z</time></trkpt><trkpt lat="45.4605224" lon="11.493377"><ele>329.85714285714283</ele><time>2026-04-06T09:36:48.083Z</time></trkpt><trkpt lat="45.4606068" lon="11.4933669"><ele>330.7142857142857</ele><time>2026-04-06T09:36:51.083Z</time></trkpt><trkpt lat="45.4606855" lon="11.4933545"><ele>331.57142857142856</ele><time>2026-04-06T09:36:54.083Z</time></trkpt><trkpt lat="45.4607549" lon="11.4933478"><ele>332.42857142857144</ele><time>2026-04-06T09:36:57.083Z</time></trkpt><trkpt lat="45.4608336" lon="11.4933554"><ele>333.2857142857143</ele><time>2026-04-06T09:37:00.083Z</time></trkpt><trkpt lat="45.4608992" lon="11.493363"><ele>334.1428571428571</ele><time>2026-04-06T09:37:03.084Z</time></trkpt><trkpt lat="45.4609649" lon="11.4933739"><ele>335.0</ele><time>2026-04-06T09:37:06.083Z</time></trkpt><trkpt lat="45.4610315" lon="11.4933822"><ele>335.0</ele><time>2026-04-06T09:37:09.083Z</time></trkpt><trkpt lat="45.4611033" lon="11.4933687"><ele>335.0</ele><time>2026-04-06T09:37:12.083Z</time></trkpt><trkpt lat="45.4611666" lon="11.4933591"><ele>335.0</ele><time>2026-04-06T09:37:14.083Z</time></trkpt><trkpt lat="45.4612515" lon="11.4933739"><ele>335.0</ele><time>2026-04-06T09:37:17.083Z</time></trkpt><trkpt lat="45.461338" lon="11.4933946"><ele>335.0</ele><time>2026-04-06T09:37:20.083Z</time></trkpt><trkpt lat="45.4614181" lon="11.4934178"><ele>335.0</ele><time>2026-04-06T09:37:23.083Z</time></trkpt><trkpt lat="45.461494" lon="11.4934334"><ele>335.4285714285714</ele><time>2026-04-06T09:37:25.083Z</time></trkpt><trkpt lat="45.4615654" lon="11.4934475"><ele>335.85714285714283</ele><time>2026-04-06T09:37:27.083Z</time></trkpt><trkpt lat="45.461637" lon="11.4934555"><ele>336.2857142857143</ele><time>2026-04-06T09:37:30.083Z</time></trkpt><trkpt lat="45.4617004" lon="11.4934515"><ele>336.71428571428567</ele><time>2026-04-06T09:37:32.083Z</time></trkpt><trkpt lat="45.4617746" lon="11.4934478"><ele>337.1428571428571</ele><time>2026-04-06T09:37:34.083Z</time></trkpt><trkpt lat="45.4618435" lon="11.4934428"><ele>337.57142857142856</ele><time>2026-04-06T09:37:36.083Z</time></trkpt><trkpt lat="45.4619064" lon="11.4934315"><ele>338.0</ele><time>2026-04-06T09:37:38.083Z</time></trkpt><trkpt lat="45.4619758" lon="11.4934232"><ele>338.0</ele><time>2026-04-06T09:37:40.083Z</time></trkpt><trkpt lat="45.4620437" lon="11.4934138"><ele>338.0</ele><time>2026-04-06T09:37:42.088Z</time></trkpt><trkpt lat="45.4621093" lon="11.4933985"><ele>338.0</ele><time>2026-04-06T09:37:44.083Z</time></trkpt><trkpt lat="45.4621808" lon="11.493373"><ele>338.0</ele><time>2026-04-06T09:37:46.083Z</time></trkpt><trkpt lat="45.4622658" lon="11.4933498"><ele>338.0</ele><time>2026-04-06T09:37:49.083Z</time></trkpt><trkpt lat="45.4623409" lon="11.4933496"><ele>338.0</ele><time>2026-04-06T09:37:53.078Z</time></trkpt><trkpt lat="45.4624046" lon="11.4933673"><ele>338.0</ele><time>2026-04-06T09:37:56.083Z</time></trkpt><trkpt lat="45.4624928" lon="11.4933962"><ele>337.4</ele><time>2026-04-06T09:37:59.012Z</time></trkpt><trkpt lat="45.4626627" lon="11.4934605"><ele>336.79999999999995</ele><time>2026-04-06T09:38:01.083Z</time></trkpt><trkpt lat="45.4627406" lon="11.493524"><ele>336.2</ele><time>2026-04-06T09:38:03.083Z</time></trkpt><trkpt lat="45.4628219" lon="11.4935413"><ele>335.6</ele><time>2026-04-06T09:38:05.083Z</time></trkpt><trkpt lat="45.4628863" lon="11.4935149"><ele>335.0</ele><time>2026-04-06T09:38:07.083Z</time></trkpt><trkpt lat="45.4629497" lon="11.4935075"><ele>334.6666666666667</ele><time>2026-04-06T09:38:09.083Z</time></trkpt><trkpt lat="45.4630177" lon="11.4935004"><ele>334.33333333333337</ele><time>2026-04-06T09:38:11.083Z</time></trkpt><trkpt lat="45.4631148" lon="11.4934719"><ele>334.0</ele><time>2026-04-06T09:38:14.083Z</time></trkpt><trkpt lat="45.4631779" lon="11.4934503"><ele>333.6666666666667</ele><time>2026-04-06T09:38:16.083Z</time></trkpt><trkpt lat="45.463253" lon="11.4934112"><ele>333.3333333333333</ele><time>2026-04-06T09:38:20.083Z</time></trkpt><trkpt lat="45.4633038" lon="11.4933468"><ele>333.0</ele><time>2026-04-06T09:38:23.083Z</time></trkpt><trkpt lat="45.4633987" lon="11.4932926"><ele>333.0</ele><time>2026-04-06T09:38:26.752Z</time></trkpt><trkpt lat="45.4634696" lon="11.4932101"><ele>333.0</ele><time>2026-04-06T09:38:29.083Z</time></trkpt><trkpt lat="45.4635299" lon="11.4931649"><ele>333.0</ele><time>2026-04-06T09:38:31.083Z</time></trkpt><trkpt lat="45.4636237" lon="11.4931521"><ele>333.0</ele><time>2026-04-06T09:38:33.083Z</time></trkpt><trkpt lat="45.4636994" lon="11.4932004"><ele>333.0</ele><time>2026-04-06T09:38:36.083Z</time></trkpt><trkpt lat="45.4637316" lon="11.4932887"><ele>333.0</ele><time>2026-04-06T09:38:38.083Z</time></trkpt><trkpt lat="45.4637947" lon="11.4933572"><ele>332.8333333333333</ele><time>2026-04-06T09:38:40.083Z</time></trkpt><trkpt lat="45.4638549" lon="11.4934134"><ele>332.6666666666667</ele><time>2026-04-06T09:38:42.083Z</time></trkpt><trkpt lat="45.4639175" lon="11.4934728"><ele>332.5</ele><time>2026-04-06T09:38:44.083Z</time></trkpt><trkpt lat="45.4639857" lon="11.4935415"><ele>332.33333333333337</ele><time>2026-04-06T09:38:46.083Z</time></trkpt><trkpt lat="45.4640689" lon="11.493605"><ele>332.1666666666667</ele><time>2026-04-06T09:38:49.083Z</time></trkpt><trkpt lat="45.4641494" lon="11.4936823"><ele>332.0</ele><time>2026-04-06T09:38:52.083Z</time></trkpt><trkpt lat="45.464213" lon="11.4937382"><ele>331.2857142857143</ele><time>2026-04-06T09:38:55.103Z</time></trkpt><trkpt lat="45.464277" lon="11.4937694"><ele>330.5714285714286</ele><time>2026-04-06T09:38:57.083Z</time></trkpt><trkpt lat="45.4643419" lon="11.4938072"><ele>329.8571428571429</ele><time>2026-04-06T09:38:59.083Z</time></trkpt><trkpt lat="45.4644018" lon="11.4938435"><ele>329.1428571428571</ele><time>2026-04-06T09:39:01.083Z</time></trkpt><trkpt lat="45.4644678" lon="11.4938746"><ele>328.42857142857144</ele><time>2026-04-06T09:39:03.083Z</time></trkpt><trkpt lat="45.4645311" lon="11.4938876"><ele>327.7142857142857</ele><time>2026-04-06T09:39:04.084Z</time></trkpt><trkpt lat="45.4646104" lon="11.4939302"><ele>327.0</ele><time>2026-04-06T09:39:06.083Z</time></trkpt><trkpt lat="45.4647021" lon="11.4939597"><ele>327.0</ele><time>2026-04-06T09:39:08.083Z</time></trkpt><trkpt lat="45.4647863" lon="11.4940292"><ele>327.0</ele><time>2026-04-06T09:39:10.083Z</time></trkpt><trkpt lat="45.4648553" lon="11.4940652"><ele>327.0</ele><time>2026-04-06T09:39:11.083Z</time></trkpt><trkpt lat="45.4649321" lon="11.4941116"><ele>327.0</ele><time>2026-04-06T09:39:12.083Z</time></trkpt><trkpt lat="45.4649922" lon="11.4941541"><ele>327.0</ele><time>2026-04-06T09:39:13.083Z</time></trkpt><trkpt lat="45.4650533" lon="11.4942059"><ele>327.0</ele><time>2026-04-06T09:39:14.083Z</time></trkpt><trkpt lat="45.465112" lon="11.4942642"><ele>327.0</ele><time>2026-04-06T09:39:15.083Z</time></trkpt><trkpt lat="45.4651604" lon="11.4943222"><ele>327.0</ele><time>2026-04-06T09:39:16.083Z</time></trkpt><trkpt lat="45.4652099" lon="11.4943916"><ele>327.0</ele><time>2026-04-06T09:39:17.083Z</time></trkpt><trkpt lat="45.465241" lon="11.4944793"><ele>327.0</ele><time>2026-04-06T09:39:18.083Z</time></trkpt><trkpt lat="45.4652681" lon="11.4945813"><ele>327.0</ele><time>2026-04-06T09:39:19.083Z</time></trkpt><trkpt lat="45.4653138" lon="11.4946593"><ele>327.0</ele><time>2026-04-06T09:39:20.083Z</time></trkpt><trkpt lat="45.4653957" lon="11.4947383"><ele>327.0</ele><time>2026-04-06T09:39:22.083Z</time></trkpt><trkpt lat="45.4654704" lon="11.4947732"><ele>323.40000000000003</ele><time>2026-04-06T09:39:24.083Z</time></trkpt><trkpt lat="45.4655614" lon="11.4947713"><ele>319.8</ele><time>2026-04-06T09:39:26.083Z</time></trkpt><trkpt lat="45.4656573" lon="11.4947996"><ele>316.2</ele><time>2026-04-06T09:39:28.083Z</time></trkpt><trkpt lat="45.4657585" lon="11.494802"><ele>312.6</ele><time>2026-04-06T09:39:30.083Z</time></trkpt><trkpt lat="45.4658519" lon="11.4947952"><ele>309.0</ele><time>2026-04-06T09:39:32.083Z</time></trkpt><trkpt lat="45.4659598" lon="11.4947691"><ele>309.0</ele><time>2026-04-06T09:39:34.083Z</time></trkpt><trkpt lat="45.4660228" lon="11.4947956"><ele>309.0</ele><time>2026-04-06T09:39:35.083Z</time></trkpt><trkpt lat="45.4661124" lon="11.494808"><ele>309.0</ele><time>2026-04-06T09:39:37.083Z</time></trkpt><trkpt lat="45.4662033" lon="11.4947959"><ele>309.0</ele><time>2026-04-06T09:39:39.083Z</time></trkpt><trkpt lat="45.4663207" lon="11.494775"><ele>309.0</ele><time>2026-04-06T09:39:41.083Z</time></trkpt><trkpt lat="45.4664187" lon="11.4947419"><ele>310.59999999999997</ele><time>2026-04-06T09:39:43.083Z</time></trkpt><trkpt lat="45.4665075" lon="11.4946796"><ele>312.2</ele><time>2026-04-06T09:39:45.083Z</time></trkpt><trkpt lat="45.4666085" lon="11.4946069"><ele>313.79999999999995</ele><time>2026-04-06T09:39:47.083Z</time></trkpt><trkpt lat="45.4666756" lon="11.494573"><ele>315.4</ele><time>2026-04-06T09:39:48.083Z</time></trkpt><trkpt lat="45.4667422" lon="11.4945406"><ele>317.0</ele><time>2026-04-06T09:39:49.083Z</time></trkpt><trkpt lat="45.4668314" lon="11.4944872"><ele>317.0</ele><time>2026-04-06T09:39:51.083Z</time></trkpt><trkpt lat="45.4669443" lon="11.4944354"><ele>317.0</ele><time>2026-04-06T09:39:53.083Z</time></trkpt><trkpt lat="45.4670485" lon="11.4943957"><ele>317.0</ele><time>2026-04-06T09:39:55.083Z</time></trkpt><trkpt lat="45.4671622" lon="11.494349"><ele>317.0</ele><time>2026-04-06T09:39:57.083Z</time></trkpt><trkpt lat="45.4672643" lon="11.4942942"><ele>314.8</ele><time>2026-04-06T09:39:59.083Z</time></trkpt><trkpt lat="45.4673618" lon="11.4942512"><ele>312.6</ele><time>2026-04-06T09:40:01.083Z</time></trkpt><trkpt lat="45.4674662" lon="11.4942166"><ele>310.40000000000003</ele><time>2026-04-06T09:40:03.083Z</time></trkpt><trkpt lat="45.4675547" lon="11.4941723"><ele>308.2</ele><time>2026-04-06T09:40:05.083Z</time></trkpt><trkpt lat="45.4676553" lon="11.494123"><ele>306.0</ele><time>2026-04-06T09:40:07.083Z</time></trkpt><trkpt lat="45.467773" lon="11.4940872"><ele>306.0</ele><time>2026-04-06T09:40:09.083Z</time></trkpt><trkpt lat="45.4678437" lon="11.4940523"><ele>306.0</ele><time>2026-04-06T09:40:10.083Z</time></trkpt><trkpt lat="45.4679242" lon="11.4940207"><ele>306.0</ele><time>2026-04-06T09:40:11.083Z</time></trkpt><trkpt lat="45.4680005" lon="11.4939787"><ele>306.0</ele><time>2026-04-06T09:40:12.083Z</time></trkpt><trkpt lat="45.4680686" lon="11.4939307"><ele>306.0</ele><time>2026-04-06T09:40:13.083Z</time></trkpt><trkpt lat="45.4681359" lon="11.4938785"><ele>306.0</ele><time>2026-04-06T09:40:14.083Z</time></trkpt><trkpt lat="45.4681879" lon="11.4938245"><ele>304.40000000000003</ele><time>2026-04-06T09:40:15.083Z</time></trkpt><trkpt lat="45.4682164" lon="11.4937407"><ele>302.8</ele><time>2026-04-06T09:40:16.083Z</time></trkpt><trkpt lat="45.4682931" lon="11.4936225"><ele>301.20000000000005</ele><time>2026-04-06T09:40:18.083Z</time></trkpt><trkpt lat="45.468409" lon="11.4935639"><ele>299.6</ele><time>2026-04-06T09:40:20.083Z</time></trkpt><trkpt lat="45.4685218" lon="11.4935209"><ele>298.0</ele><time>2026-04-06T09:40:22.083Z</time></trkpt><trkpt lat="45.4686091" lon="11.4935025"><ele>298.0</ele><time>2026-04-06T09:40:24.083Z</time></trkpt><trkpt lat="45.468704" lon="11.4934556"><ele>298.0</ele><time>2026-04-06T09:40:26.083Z</time></trkpt><trkpt lat="45.4687932" lon="11.4934299"><ele>298.0</ele><time>2026-04-06T09:40:28.083Z</time></trkpt><trkpt lat="45.4688756" lon="11.4933827"><ele>298.0</ele><time>2026-04-06T09:40:30.083Z</time></trkpt><trkpt lat="45.4689514" lon="11.4933721"><ele>298.0</ele><time>2026-04-06T09:40:32.083Z</time></trkpt><trkpt lat="45.4690172" lon="11.4933477"><ele>298.0</ele><time>2026-04-06T09:40:34.083Z</time></trkpt><trkpt lat="45.469086" lon="11.4933419"><ele>298.5</ele><time>2026-04-06T09:40:37.083Z</time></trkpt><trkpt lat="45.4691506" lon="11.493339"><ele>299.0</ele><time>2026-04-06T09:40:39.083Z</time></trkpt><trkpt lat="45.4692145" lon="11.4933489"><ele>299.5</ele><time>2026-04-06T09:40:41.083Z</time></trkpt><trkpt lat="45.4692965" lon="11.4934179"><ele>300.0</ele><time>2026-04-06T09:40:43.083Z</time></trkpt><trkpt lat="45.4693892" lon="11.4934809"><ele>300.5</ele><time>2026-04-06T09:40:45.083Z</time></trkpt><trkpt lat="45.4694655" lon="11.493566"><ele>301.0</ele><time>2026-04-06T09:40:47.083Z</time></trkpt><trkpt lat="45.4695159" lon="11.4936315"><ele>301.0</ele><time>2026-04-06T09:40:49.083Z</time></trkpt><trkpt lat="45.4695577" lon="11.4937327"><ele>301.0</ele><time>2026-04-06T09:40:51.083Z</time></trkpt><trkpt lat="45.4696093" lon="11.4937991"><ele>301.0</ele><time>2026-04-06T09:40:53.083Z</time></trkpt><trkpt lat="45.4696481" lon="11.4939073"><ele>301.0</ele><time>2026-04-06T09:40:56.083Z</time></trkpt><trkpt lat="45.4696364" lon="11.494088"><ele>301.0</ele><time>2026-04-06T09:40:58.083Z</time></trkpt><trkpt lat="45.4695897" lon="11.4942498"><ele>299.16666666666663</ele><time>2026-04-06T09:41:00.083Z</time></trkpt><trkpt lat="45.4695623" lon="11.4943472"><ele>297.3333333333333</ele><time>2026-04-06T09:41:02.084Z</time></trkpt><trkpt lat="45.4695564" lon="11.4944832"><ele>295.5</ele><time>2026-04-06T09:41:04.083Z</time></trkpt><trkpt lat="45.4695866" lon="11.4945906"><ele>293.6666666666667</ele><time>2026-04-06T09:41:06.083Z</time></trkpt><trkpt lat="45.4696425" lon="11.494697"><ele>291.83333333333337</ele><time>2026-04-06T09:41:09.083Z</time></trkpt><trkpt lat="45.469672" lon="11.4947943"><ele>290.0</ele><time>2026-04-06T09:41:11.083Z</time></trkpt><trkpt lat="45.469706" lon="11.494882"><ele>290.0</ele><time>2026-04-06T09:41:13.083Z</time></trkpt><trkpt lat="45.4697091" lon="11.4950131"><ele>290.0</ele><time>2026-04-06T09:41:16.104Z</time></trkpt><trkpt lat="45.4697427" lon="11.4951698"><ele>290.0</ele><time>2026-04-06T09:41:18.083Z</time></trkpt><trkpt lat="45.4697899" lon="11.4953004"><ele>290.0</ele><time>2026-04-06T09:41:20.083Z</time></trkpt><trkpt lat="45.4698409" lon="11.4953891"><ele>290.0</ele><time>2026-04-06T09:41:22.083Z</time></trkpt><trkpt lat="45.4699203" lon="11.4954401"><ele>287.6666666666667</ele><time>2026-04-06T09:41:24.083Z</time></trkpt><trkpt lat="45.4699694" lon="11.4955329"><ele>285.33333333333337</ele><time>2026-04-06T09:41:26.083Z</time></trkpt><trkpt lat="45.4700331" lon="11.4955959"><ele>283.0</ele><time>2026-04-06T09:41:27.083Z</time></trkpt><trkpt lat="45.4701232" lon="11.4956554"><ele>280.6666666666667</ele><time>2026-04-06T09:41:29.083Z</time></trkpt><trkpt lat="45.4701776" lon="11.495704"><ele>278.3333333333333</ele><time>2026-04-06T09:41:31.083Z</time></trkpt><trkpt lat="45.4702756" lon="11.4957803"><ele>276.0</ele><time>2026-04-06T09:41:33.083Z</time></trkpt><trkpt lat="45.4703666" lon="11.4958468"><ele>276.0</ele><time>2026-04-06T09:41:35.083Z</time></trkpt><trkpt lat="45.4704424" lon="11.4958965"><ele>276.0</ele><time>2026-04-06T09:41:37.083Z</time></trkpt><trkpt lat="45.4705161" lon="11.4959186"><ele>276.0</ele><time>2026-04-06T09:41:39.083Z</time></trkpt><trkpt lat="45.4704759" lon="11.4960552"><ele>276.0</ele><time>2026-04-06T09:41:41.008Z</time></trkpt><trkpt lat="45.4705651" lon="11.4959446"><ele>276.0</ele><time>2026-04-06T09:41:42.081Z</time></trkpt><trkpt lat="45.4706245" lon="11.4958311"><ele>276.0</ele><time>2026-04-06T09:41:45.087Z</time></trkpt><trkpt lat="45.4706646" lon="11.4957382"><ele>276.0</ele><time>2026-04-06T09:41:48.083Z</time></trkpt><trkpt lat="45.4706979" lon="11.49563"><ele>276.0</ele><time>2026-04-06T09:41:51.083Z</time></trkpt><trkpt lat="45.4706975" lon="11.4954854"><ele>276.0</ele><time>2026-04-06T09:41:54.083Z</time></trkpt><trkpt lat="45.4706925" lon="11.4953873"><ele>276.0</ele><time>2026-04-06T09:41:56.083Z</time></trkpt><trkpt lat="45.4706946" lon="11.4952529"><ele>276.0</ele><time>2026-04-06T09:41:59.083Z</time></trkpt><trkpt lat="45.4707212" lon="11.4951448"><ele>277.0</ele><time>2026-04-06T09:42:01.083Z</time></trkpt><trkpt lat="45.4707676" lon="11.495044"><ele>278.0</ele><time>2026-04-06T09:42:03.083Z</time></trkpt><trkpt lat="45.4708192" lon="11.4949619"><ele>279.0</ele><time>2026-04-06T09:42:05.119Z</time></trkpt><trkpt lat="45.4708711" lon="11.49489"><ele>280.0</ele><time>2026-04-06T09:42:07.083Z</time></trkpt><trkpt lat="45.470943" lon="11.4948322"><ele>281.0</ele><time>2026-04-06T09:42:09.083Z</time></trkpt><trkpt lat="45.4710186" lon="11.4947837"><ele>282.0</ele><time>2026-04-06T09:42:11.083Z</time></trkpt><trkpt lat="45.4711008" lon="11.4947459"><ele>282.0</ele><time>2026-04-06T09:42:13.083Z</time></trkpt><trkpt lat="45.4711665" lon="11.4947071"><ele>282.0</ele><time>2026-04-06T09:42:15.084Z</time></trkpt><trkpt lat="45.4712359" lon="11.4946651"><ele>282.0</ele><time>2026-04-06T09:42:17.083Z</time></trkpt><trkpt lat="45.4713104" lon="11.4946223"><ele>282.0</ele><time>2026-04-06T09:42:19.083Z</time></trkpt><trkpt lat="45.4714067" lon="11.4945601"><ele>282.0</ele><time>2026-04-06T09:42:21.083Z</time></trkpt><trkpt lat="45.4715111" lon="11.4945217"><ele>282.0</ele><time>2026-04-06T09:42:23.083Z</time></trkpt><trkpt lat="45.4716117" lon="11.494464"><ele>281.0</ele><time>2026-04-06T09:42:25.083Z</time></trkpt><trkpt lat="45.4717175" lon="11.4944004"><ele>280.0</ele><time>2026-04-06T09:42:27.083Z</time></trkpt><trkpt lat="45.4718311" lon="11.4943642"><ele>279.0</ele><time>2026-04-06T09:42:29.083Z</time></trkpt><trkpt lat="45.4719408" lon="11.4943252"><ele>278.0</ele><time>2026-04-06T09:42:31.083Z</time></trkpt><trkpt lat="45.4720422" lon="11.4942803"><ele>276.2</ele><time>2026-04-06T09:42:33.083Z</time></trkpt><trkpt lat="45.4721449" lon="11.4942486"><ele>274.4</ele><time>2026-04-06T09:42:35.083Z</time></trkpt><trkpt lat="45.4722488" lon="11.4942132"><ele>272.59999999999997</ele><time>2026-04-06T09:42:37.083Z</time></trkpt><trkpt lat="45.4723561" lon="11.4941745"><ele>270.8</ele><time>2026-04-06T09:42:39.083Z</time></trkpt><trkpt lat="45.472462" lon="11.4941791"><ele>269.0</ele><time>2026-04-06T09:42:41.083Z</time></trkpt><trkpt lat="45.4725741" lon="11.4941567"><ele>269.0</ele><time>2026-04-06T09:42:43.083Z</time></trkpt><trkpt lat="45.4726979" lon="11.4941382"><ele>269.0</ele><time>2026-04-06T09:42:45.083Z</time></trkpt><trkpt lat="45.472764" lon="11.4941248"><ele>269.0</ele><time>2026-04-06T09:42:46.083Z</time></trkpt><trkpt lat="45.4728277" lon="11.4941096"><ele>269.0</ele><time>2026-04-06T09:42:47.083Z</time></trkpt><trkpt lat="45.4728943" lon="11.4940966"><ele>269.0</ele><time>2026-04-06T09:42:48.083Z</time></trkpt><trkpt lat="45.4729631" lon="11.4940996"><ele>269.0</ele><time>2026-04-06T09:42:49.083Z</time></trkpt><trkpt lat="45.4730299" lon="11.4941131"><ele>268.83333333333337</ele><time>2026-04-06T09:42:50.083Z</time></trkpt><trkpt lat="45.4731362" lon="11.4941232"><ele>268.6666666666667</ele><time>2026-04-06T09:42:52.083Z</time></trkpt><trkpt lat="45.4732201" lon="11.4941527"><ele>268.5</ele><time>2026-04-06T09:42:54.083Z</time></trkpt><trkpt lat="45.4732879" lon="11.4941878"><ele>268.3333333333333</ele><time>2026-04-06T09:42:56.083Z</time></trkpt><trkpt lat="45.4733354" lon="11.4942477"><ele>268.16666666666663</ele><time>2026-04-06T09:42:58.083Z</time></trkpt><trkpt lat="45.4733812" lon="11.4943158"><ele>268.0</ele><time>2026-04-06T09:43:00.083Z</time></trkpt><trkpt lat="45.4734182" lon="11.4944047"><ele>268.0</ele><time>2026-04-06T09:43:02.083Z</time></trkpt><trkpt lat="45.4734349" lon="11.4945356"><ele>268.0</ele><time>2026-04-06T09:43:04.083Z</time></trkpt><trkpt lat="45.4734281" lon="11.4946863"><ele>268.0</ele><time>2026-04-06T09:43:06.083Z</time></trkpt><trkpt lat="45.4734701" lon="11.4948471"><ele>268.0</ele><time>2026-04-06T09:43:08.083Z</time></trkpt><trkpt lat="45.4735568" lon="11.4949632"><ele>268.0</ele><time>2026-04-06T09:43:10.083Z</time></trkpt><trkpt lat="45.4736536" lon="11.4950758"><ele>267.3333333333333</ele><time>2026-04-06T09:43:12.083Z</time></trkpt><trkpt lat="45.473705" lon="11.4951286"><ele>266.66666666666663</ele><time>2026-04-06T09:43:13.083Z</time></trkpt><trkpt lat="45.47375" lon="11.4951919"><ele>266.0</ele><time>2026-04-06T09:43:14.083Z</time></trkpt><trkpt lat="45.4738192" lon="11.4953217"><ele>265.3333333333333</ele><time>2026-04-06T09:43:16.083Z</time></trkpt><trkpt lat="45.4738124" lon="11.4954674"><ele>264.6666666666667</ele><time>2026-04-06T09:43:18.083Z</time></trkpt><trkpt lat="45.4738136" lon="11.4956093"><ele>264.0</ele><time>2026-04-06T09:43:20.083Z</time></trkpt><trkpt lat="45.47383" lon="11.4957482"><ele>262.6666666666667</ele><time>2026-04-06T09:43:22.083Z</time></trkpt><trkpt lat="45.4738571" lon="11.495878"><ele>261.3333333333333</ele><time>2026-04-06T09:43:24.083Z</time></trkpt><trkpt lat="45.4738918" lon="11.4959944"><ele>260.0</ele><time>2026-04-06T09:43:26.083Z</time></trkpt><trkpt lat="45.4739159" lon="11.4960923"><ele>258.66666666666663</ele><time>2026-04-06T09:43:28.083Z</time></trkpt><trkpt lat="45.4739148" lon="11.4962096"><ele>257.3333333333333</ele><time>2026-04-06T09:43:31.083Z</time></trkpt><trkpt lat="45.4739592" lon="11.4962773"><ele>256.0</ele><time>2026-04-06T09:43:33.083Z</time></trkpt><trkpt lat="45.4740403" lon="11.4963065"><ele>255.99999999999997</ele><time>2026-04-06T09:43:35.083Z</time></trkpt><trkpt lat="45.4741279" lon="11.496333"><ele>256.0</ele><time>2026-04-06T09:43:37.083Z</time></trkpt><trkpt lat="45.4742185" lon="11.4963884"><ele>256.0</ele><time>2026-04-06T09:43:39.083Z</time></trkpt><trkpt lat="45.4742987" lon="11.4964316"><ele>256.0</ele><time>2026-04-06T09:43:41.083Z</time></trkpt><trkpt lat="45.4743731" lon="11.4964877"><ele>255.99999999999997</ele><time>2026-04-06T09:43:43.083Z</time></trkpt><trkpt lat="45.4744407" lon="11.4965569"><ele>256.0</ele><time>2026-04-06T09:43:45.083Z</time></trkpt><trkpt lat="45.4745049" lon="11.496636"><ele>255.99999999999997</ele><time>2026-04-06T09:43:47.083Z</time></trkpt><trkpt lat="45.4745852" lon="11.4967448"><ele>256.0</ele><time>2026-04-06T09:43:49.083Z</time></trkpt><trkpt lat="45.4746726" lon="11.4968406"><ele>256.0</ele><time>2026-04-06T09:43:51.083Z</time></trkpt><trkpt lat="45.4747207" lon="11.496908"><ele>256.0</ele><time>2026-04-06T09:43:52.083Z</time></trkpt><trkpt lat="45.474773" lon="11.4969776"><ele>255.99999999999997</ele><time>2026-04-06T09:43:53.083Z</time></trkpt><trkpt lat="45.474828" lon="11.4970521"><ele>256.0</ele><time>2026-04-06T09:43:54.083Z</time></trkpt><trkpt lat="45.4748969" lon="11.4971142"><ele>253.60000000000002</ele><time>2026-04-06T09:43:55.083Z</time></trkpt><trkpt lat="45.4749753" lon="11.4971756"><ele>251.20000000000002</ele><time>2026-04-06T09:43:56.083Z</time></trkpt><trkpt lat="45.4750473" lon="11.4972217"><ele>248.79999999999998</ele><time>2026-04-06T09:43:57.083Z</time></trkpt><trkpt lat="45.4751628" lon="11.497289"><ele>246.39999999999998</ele><time>2026-04-06T09:43:59.083Z</time></trkpt><trkpt lat="45.4752649" lon="11.4973555"><ele>244.0</ele><time>2026-04-06T09:44:01.083Z</time></trkpt><trkpt lat="45.4753486" lon="11.4974283"><ele>244.0</ele><time>2026-04-06T09:44:03.083Z</time></trkpt><trkpt lat="45.4754401" lon="11.4973518"><ele>243.99999999999997</ele><time>2026-04-06T09:44:05.083Z</time></trkpt><trkpt lat="45.4754803" lon="11.4972056"><ele>243.99999999999997</ele><time>2026-04-06T09:44:07.083Z</time></trkpt><trkpt lat="45.4755052" lon="11.4970445"><ele>244.0</ele><time>2026-04-06T09:44:09.083Z</time></trkpt><trkpt lat="45.4755274" lon="11.496945"><ele>244.0</ele><time>2026-04-06T09:44:10.083Z</time></trkpt><trkpt lat="45.475541" lon="11.4968508"><ele>242.79999999999998</ele><time>2026-04-06T09:44:11.083Z</time></trkpt><trkpt lat="45.4755475" lon="11.4967576"><ele>241.59999999999997</ele><time>2026-04-06T09:44:12.083Z</time></trkpt><trkpt lat="45.4755591" lon="11.4965761"><ele>240.4</ele><time>2026-04-06T09:44:14.083Z</time></trkpt><trkpt lat="45.4755819" lon="11.4964278"><ele>239.2</ele><time>2026-04-06T09:44:16.083Z</time></trkpt><trkpt lat="45.4756013" lon="11.4962802"><ele>238.0</ele><time>2026-04-06T09:44:18.083Z</time></trkpt><trkpt lat="45.4756079" lon="11.4961193"><ele>236.5</ele><time>2026-04-06T09:44:20.083Z</time></trkpt><trkpt lat="45.4756269" lon="11.4959659"><ele>235.0</ele><time>2026-04-06T09:44:22.083Z</time></trkpt><trkpt lat="45.4756509" lon="11.4958181"><ele>233.5</ele><time>2026-04-06T09:44:24.083Z</time></trkpt><trkpt lat="45.475675" lon="11.4956396"><ele>232.0</ele><time>2026-04-06T09:44:26.083Z</time></trkpt><trkpt lat="45.4757035" lon="11.4954794"><ele>232.39999999999998</ele><time>2026-04-06T09:44:28.083Z</time></trkpt><trkpt lat="45.4757481" lon="11.4953542"><ele>232.79999999999998</ele><time>2026-04-06T09:44:30.083Z</time></trkpt><trkpt lat="45.4758087" lon="11.4952121"><ele>233.2</ele><time>2026-04-06T09:44:32.083Z</time></trkpt><trkpt lat="45.4758526" lon="11.4950553"><ele>233.6</ele><time>2026-04-06T09:44:34.083Z</time></trkpt><trkpt lat="45.4758926" lon="11.4949772"><ele>234.0</ele><time>2026-04-06T09:44:35.083Z</time></trkpt><trkpt lat="45.4759194" lon="11.4948438"><ele>234.0</ele><time>2026-04-06T09:44:37.083Z</time></trkpt><trkpt lat="45.4759743" lon="11.4947122"><ele>233.99999999999997</ele><time>2026-04-06T09:44:39.084Z</time></trkpt><trkpt lat="45.4760233" lon="11.4946516"><ele>233.99999999999997</ele><time>2026-04-06T09:44:40.083Z</time></trkpt><trkpt lat="45.4761083" lon="11.4945301"><ele>234.0</ele><time>2026-04-06T09:44:42.083Z</time></trkpt><trkpt lat="45.476211" lon="11.4943869"><ele>234.0</ele><time>2026-04-06T09:44:44.083Z</time></trkpt><trkpt lat="45.4762631" lon="11.4942575"><ele>232.66666666666666</ele><time>2026-04-06T09:44:47.083Z</time></trkpt><trkpt lat="45.4763097" lon="11.4941968"><ele>231.33333333333331</ele><time>2026-04-06T09:44:49.083Z</time></trkpt><trkpt lat="45.4763677" lon="11.4941016"><ele>230.0</ele><time>2026-04-06T09:44:52.083Z</time></trkpt><trkpt lat="45.4764226" lon="11.4940144"><ele>228.66666666666666</ele><time>2026-04-06T09:44:54.083Z</time></trkpt><trkpt lat="45.4764797" lon="11.4939465"><ele>227.33333333333331</ele><time>2026-04-06T09:44:56.083Z</time></trkpt><trkpt lat="45.4765562" lon="11.4938845"><ele>226.0</ele><time>2026-04-06T09:44:58.083Z</time></trkpt><trkpt lat="45.4766189" lon="11.4938365"><ele>225.99999999999997</ele><time>2026-04-06T09:45:00.083Z</time></trkpt><trkpt lat="45.4766816" lon="11.4938246"><ele>226.0</ele><time>2026-04-06T09:45:02.083Z</time></trkpt><trkpt lat="45.4767484" lon="11.4937916"><ele>226.0</ele><time>2026-04-06T09:45:04.083Z</time></trkpt><trkpt lat="45.4768427" lon="11.4937522"><ele>226.0</ele><time>2026-04-06T09:45:06.083Z</time></trkpt><trkpt lat="45.4769429" lon="11.4937079"><ele>225.99999999999997</ele><time>2026-04-06T09:45:08.083Z</time></trkpt><trkpt lat="45.477038" lon="11.493681"><ele>226.0</ele><time>2026-04-06T09:45:10.083Z</time></trkpt><trkpt lat="45.4771306" lon="11.493637"><ele>228.33333333333331</ele><time>2026-04-06T09:45:13.083Z</time></trkpt><trkpt lat="45.4771899" lon="11.4935827"><ele>230.66666666666666</ele><time>2026-04-06T09:45:15.025Z</time></trkpt><trkpt lat="45.4772694" lon="11.4935216"><ele>233.0</ele><time>2026-04-06T09:45:18.083Z</time></trkpt><trkpt lat="45.477358" lon="11.4934577"><ele>235.33333333333331</ele><time>2026-04-06T09:45:21.084Z</time></trkpt><trkpt lat="45.4774214" lon="11.493416"><ele>237.66666666666666</ele><time>2026-04-06T09:45:23.083Z</time></trkpt><trkpt lat="45.4775024" lon="11.4933723"><ele>240.0</ele><time>2026-04-06T09:45:26.083Z</time></trkpt><trkpt lat="45.4775599" lon="11.4933313"><ele>240.0</ele><time>2026-04-06T09:45:28.083Z</time></trkpt><trkpt lat="45.4776156" lon="11.4932743"><ele>240.0</ele><time>2026-04-06T09:45:30.083Z</time></trkpt><trkpt lat="45.4776773" lon="11.4932273"><ele>240.0</ele><time>2026-04-06T09:45:32.083Z</time></trkpt><trkpt lat="45.4777371" lon="11.4931922"><ele>240.0</ele><time>2026-04-06T09:45:34.083Z</time></trkpt><trkpt lat="45.4778004" lon="11.4931673"><ele>240.0</ele><time>2026-04-06T09:45:36.083Z</time></trkpt><trkpt lat="45.477865" lon="11.493156"><ele>240.0</ele><time>2026-04-06T09:45:38.083Z</time></trkpt><trkpt lat="45.4779565" lon="11.4931439"><ele>240.0</ele><time>2026-04-06T09:45:41.083Z</time></trkpt><trkpt lat="45.4780559" lon="11.4931534"><ele>239.0</ele><time>2026-04-06T09:45:44.083Z</time></trkpt><trkpt lat="45.4781492" lon="11.4931925"><ele>238.0</ele><time>2026-04-06T09:45:46.083Z</time></trkpt><trkpt lat="45.4782581" lon="11.4932252"><ele>237.0</ele><time>2026-04-06T09:45:48.083Z</time></trkpt><trkpt lat="45.4783797" lon="11.493264"><ele>236.0</ele><time>2026-04-06T09:45:50.083Z</time></trkpt><trkpt lat="45.4784507" lon="11.493284"><ele>235.0</ele><time>2026-04-06T09:45:51.083Z</time></trkpt><trkpt lat="45.47852" lon="11.4933051"><ele>235.0</ele><time>2026-04-06T09:45:52.083Z</time></trkpt><trkpt lat="45.4785835" lon="11.4933261"><ele>234.99999999999997</ele><time>2026-04-06T09:45:53.083Z</time></trkpt><trkpt lat="45.4786551" lon="11.4933437"><ele>235.0</ele><time>2026-04-06T09:45:54.083Z</time></trkpt><trkpt lat="45.4787243" lon="11.4933674"><ele>235.0</ele><time>2026-04-06T09:45:55.083Z</time></trkpt><trkpt lat="45.47879" lon="11.4933811"><ele>234.99999999999997</ele><time>2026-04-06T09:45:56.083Z</time></trkpt><trkpt lat="45.478861" lon="11.4933833"><ele>235.0</ele><time>2026-04-06T09:45:57.083Z</time></trkpt><trkpt lat="45.4789302" lon="11.4933903"><ele>235.0</ele><time>2026-04-06T09:45:58.083Z</time></trkpt><trkpt lat="45.4789948" lon="11.4933949"><ele>234.16666666666666</ele><time>2026-04-06T09:45:59.083Z</time></trkpt><trkpt lat="45.4790715" lon="11.4933883"><ele>233.33333333333331</ele><time>2026-04-06T09:46:00.083Z</time></trkpt><trkpt lat="45.4791471" lon="11.4933834"><ele>232.5</ele><time>2026-04-06T09:46:01.083Z</time></trkpt><trkpt lat="45.4792174" lon="11.4933728"><ele>231.66666666666669</ele><time>2026-04-06T09:46:02.083Z</time></trkpt><trkpt lat="45.4792926" lon="11.4933641"><ele>230.83333333333334</ele><time>2026-04-06T09:46:03.083Z</time></trkpt><trkpt lat="45.4794103" lon="11.493342"><ele>230.0</ele><time>2026-04-06T09:46:05.083Z</time></trkpt><trkpt lat="45.4795068" lon="11.4933362"><ele>230.0</ele><time>2026-04-06T09:46:07.083Z</time></trkpt><trkpt lat="45.4795766" lon="11.4933519"><ele>230.0</ele><time>2026-04-06T09:46:09.083Z</time></trkpt><trkpt lat="45.4796343" lon="11.4934316"><ele>230.0</ele><time>2026-04-06T09:46:11.083Z</time></trkpt><trkpt lat="45.4795762" lon="11.4935333"><ele>230.0</ele><time>2026-04-06T09:46:13.083Z</time></trkpt><trkpt lat="45.4794944" lon="11.4936371"><ele>230.0</ele><time>2026-04-06T09:46:15.084Z</time></trkpt><trkpt lat="45.4794108" lon="11.493752"><ele>229.2</ele><time>2026-04-06T09:46:17.083Z</time></trkpt><trkpt lat="45.4793034" lon="11.4938631"><ele>228.4</ele><time>2026-04-06T09:46:19.083Z</time></trkpt><trkpt lat="45.4792502" lon="11.4939143"><ele>227.60000000000002</ele><time>2026-04-06T09:46:20.083Z</time></trkpt><trkpt lat="45.4791762" lon="11.4940451"><ele>226.8</ele><time>2026-04-06T09:46:22.083Z</time></trkpt><trkpt lat="45.4791338" lon="11.494131"><ele>226.0</ele><time>2026-04-06T09:46:23.083Z</time></trkpt><trkpt lat="45.4790784" lon="11.4942131"><ele>225.99999999999997</ele><time>2026-04-06T09:46:24.083Z</time></trkpt><trkpt lat="45.4790484" lon="11.4942986"><ele>226.0</ele><time>2026-04-06T09:46:25.083Z</time></trkpt><trkpt lat="45.4790087" lon="11.49438"><ele>226.0</ele><time>2026-04-06T09:46:26.083Z</time></trkpt><trkpt lat="45.4789721" lon="11.4944581"><ele>226.0</ele><time>2026-04-06T09:46:27.083Z</time></trkpt><trkpt lat="45.478911" lon="11.4945645"><ele>225.99999999999997</ele><time>2026-04-06T09:46:28.083Z</time></trkpt><trkpt lat="45.4789393" lon="11.4947447"><ele>226.0</ele><time>2026-04-06T09:46:30.083Z</time></trkpt><trkpt lat="45.4789729" lon="11.4948309"><ele>224.33333333333331</ele><time>2026-04-06T09:46:31.083Z</time></trkpt><trkpt lat="45.4790123" lon="11.494904"><ele>222.66666666666666</ele><time>2026-04-06T09:46:32.083Z</time></trkpt><trkpt lat="45.4790933" lon="11.4950132"><ele>221.0</ele><time>2026-04-06T09:46:34.083Z</time></trkpt><trkpt lat="45.479162" lon="11.4950871"><ele>219.33333333333331</ele><time>2026-04-06T09:46:36.084Z</time></trkpt><trkpt lat="45.4792375" lon="11.4951482"><ele>217.66666666666666</ele><time>2026-04-06T09:46:38.083Z</time></trkpt><trkpt lat="45.4793111" lon="11.4952079"><ele>216.0</ele><time>2026-04-06T09:46:40.083Z</time></trkpt><trkpt lat="45.4794" lon="11.4952559"><ele>216.0</ele><time>2026-04-06T09:46:42.083Z</time></trkpt><trkpt lat="45.4794716" lon="11.4953198"><ele>216.0</ele><time>2026-04-06T09:46:44.083Z</time></trkpt><trkpt lat="45.4795356" lon="11.4953581"><ele>216.0</ele><time>2026-04-06T09:46:46.083Z</time></trkpt><trkpt lat="45.4796002" lon="11.4953956"><ele>216.0</ele><time>2026-04-06T09:46:48.083Z</time></trkpt><trkpt lat="45.4796716" lon="11.4954335"><ele>216.0</ele><time>2026-04-06T09:46:50.083Z</time></trkpt><trkpt lat="45.4797582" lon="11.4954706"><ele>216.0</ele><time>2026-04-06T09:46:52.083Z</time></trkpt><trkpt lat="45.4798262" lon="11.4955022"><ele>215.33333333333334</ele><time>2026-04-06T09:46:54.083Z</time></trkpt><trkpt lat="45.4798927" lon="11.4955145"><ele>214.66666666666669</ele><time>2026-04-06T09:46:56.083Z</time></trkpt><trkpt lat="45.479966" lon="11.4955539"><ele>214.0</ele><time>2026-04-06T09:46:58.083Z</time></trkpt><trkpt lat="45.4800484" lon="11.4955868"><ele>213.33333333333334</ele><time>2026-04-06T09:47:00.083Z</time></trkpt><trkpt lat="45.4801398" lon="11.4956289"><ele>212.66666666666669</ele><time>2026-04-06T09:47:02.083Z</time></trkpt><trkpt lat="45.4802397" lon="11.4956894"><ele>212.0</ele><time>2026-04-06T09:47:04.083Z</time></trkpt><trkpt lat="45.4803341" lon="11.4957423"><ele>212.0</ele><time>2026-04-06T09:47:06.083Z</time></trkpt><trkpt lat="45.4804201" lon="11.4957638"><ele>212.0</ele><time>2026-04-06T09:47:08.083Z</time></trkpt><trkpt lat="45.4805156" lon="11.4958082"><ele>212.0</ele><time>2026-04-06T09:47:10.083Z</time></trkpt><trkpt lat="45.4806134" lon="11.4958549"><ele>212.0</ele><time>2026-04-06T09:47:12.083Z</time></trkpt><trkpt lat="45.4806972" lon="11.4959037"><ele>212.0</ele><time>2026-04-06T09:47:14.083Z</time></trkpt><trkpt lat="45.4807685" lon="11.4959424"><ele>210.16666666666669</ele><time>2026-04-06T09:47:16.083Z</time></trkpt><trkpt lat="45.4808528" lon="11.4959825"><ele>208.33333333333334</ele><time>2026-04-06T09:47:18.083Z</time></trkpt><trkpt lat="45.4809257" lon="11.4960166"><ele>206.5</ele><time>2026-04-06T09:47:20.083Z</time></trkpt><trkpt lat="45.480986" lon="11.4960511"><ele>204.66666666666669</ele><time>2026-04-06T09:47:22.083Z</time></trkpt><trkpt lat="45.4810552" lon="11.4961051"><ele>202.83333333333334</ele><time>2026-04-06T09:47:24.083Z</time></trkpt><trkpt lat="45.4811316" lon="11.4961763"><ele>201.0</ele><time>2026-04-06T09:47:26.083Z</time></trkpt><trkpt lat="45.48121" lon="11.4962606"><ele>204.20000000000002</ele><time>2026-04-06T09:47:28.083Z</time></trkpt><trkpt lat="45.4812983" lon="11.4963363"><ele>207.4</ele><time>2026-04-06T09:47:30.083Z</time></trkpt><trkpt lat="45.4813907" lon="11.496447"><ele>210.6</ele><time>2026-04-06T09:47:32.083Z</time></trkpt><trkpt lat="45.4814456" lon="11.4965047"><ele>213.8</ele><time>2026-04-06T09:47:33.083Z</time></trkpt><trkpt lat="45.4815536" lon="11.4965896"><ele>217.0</ele><time>2026-04-06T09:47:35.083Z</time></trkpt><trkpt lat="45.4816191" lon="11.4966295"><ele>216.99999999999997</ele><time>2026-04-06T09:47:36.083Z</time></trkpt><trkpt lat="45.4816793" lon="11.4966701"><ele>217.0</ele><time>2026-04-06T09:47:37.083Z</time></trkpt><trkpt lat="45.4817469" lon="11.4967149"><ele>217.0</ele><time>2026-04-06T09:47:38.083Z</time></trkpt><trkpt lat="45.4818348" lon="11.4967705"><ele>217.0</ele><time>2026-04-06T09:47:39.083Z</time></trkpt><trkpt lat="45.4819117" lon="11.4968153"><ele>216.99999999999997</ele><time>2026-04-06T09:47:40.084Z</time></trkpt><trkpt lat="45.4819762" lon="11.4968588"><ele>217.0</ele><time>2026-04-06T09:47:41.083Z</time></trkpt><trkpt lat="45.4820481" lon="11.4968858"><ele>217.2</ele><time>2026-04-06T09:47:42.083Z</time></trkpt><trkpt lat="45.4821347" lon="11.4969179"><ele>217.39999999999998</ele><time>2026-04-06T09:47:43.083Z</time></trkpt><trkpt lat="45.4822356" lon="11.4969413"><ele>217.60000000000002</ele><time>2026-04-06T09:47:44.083Z</time></trkpt><trkpt lat="45.4823261" lon="11.4969727"><ele>217.8</ele><time>2026-04-06T09:47:45.083Z</time></trkpt><trkpt lat="45.4824226" lon="11.4970082"><ele>218.0</ele><time>2026-04-06T09:47:46.083Z</time></trkpt><trkpt lat="45.4825126" lon="11.4970535"><ele>216.8</ele><time>2026-04-06T09:47:47.083Z</time></trkpt><trkpt lat="45.4825923" lon="11.4970919"><ele>215.60000000000002</ele><time>2026-04-06T09:47:48.083Z</time></trkpt><trkpt lat="45.4826758" lon="11.4971248"><ele>214.39999999999998</ele><time>2026-04-06T09:47:49.083Z</time></trkpt><trkpt lat="45.482756" lon="11.497161"><ele>213.2</ele><time>2026-04-06T09:47:50.083Z</time></trkpt><trkpt lat="45.4828605" lon="11.4972065"><ele>212.0</ele><time>2026-04-06T09:47:52.083Z</time></trkpt><trkpt lat="45.4829537" lon="11.4972607"><ele>212.0</ele><time>2026-04-06T09:47:54.083Z</time></trkpt><trkpt lat="45.4830525" lon="11.4972981"><ele>212.0</ele><time>2026-04-06T09:47:56.083Z</time></trkpt><trkpt lat="45.4831627" lon="11.4972912"><ele>212.0</ele><time>2026-04-06T09:47:58.083Z</time></trkpt><trkpt lat="45.4832858" lon="11.4972662"><ele>212.0</ele><time>2026-04-06T09:48:00.083Z</time></trkpt><trkpt lat="45.4834058" lon="11.4972235"><ele>212.0</ele><time>2026-04-06T09:48:02.083Z</time></trkpt><trkpt lat="45.4835189" lon="11.4971545"><ele>212.0</ele><time>2026-04-06T09:48:04.083Z</time></trkpt><trkpt lat="45.4835772" lon="11.4971167"><ele>212.0</ele><time>2026-04-06T09:48:05.083Z</time></trkpt><trkpt lat="45.4836859" lon="11.4970455"><ele>212.0</ele><time>2026-04-06T09:48:07.083Z</time></trkpt><trkpt lat="45.4837658" lon="11.4970105"><ele>212.0</ele><time>2026-04-06T09:48:09.083Z</time></trkpt><trkpt lat="45.4838291" lon="11.4969661"><ele>210.6</ele><time>2026-04-06T09:48:11.083Z</time></trkpt><trkpt lat="45.4839272" lon="11.4969361"><ele>209.2</ele><time>2026-04-06T09:48:13.083Z</time></trkpt><trkpt lat="45.4840218" lon="11.4968976"><ele>207.8</ele><time>2026-04-06T09:48:15.083Z</time></trkpt><trkpt lat="45.4841302" lon="11.4968921"><ele>206.4</ele><time>2026-04-06T09:48:17.083Z</time></trkpt><trkpt lat="45.484233" lon="11.4969016"><ele>205.0</ele><time>2026-04-06T09:48:19.083Z</time></trkpt><trkpt lat="45.4843352" lon="11.4969177"><ele>204.99999999999997</ele><time>2026-04-06T09:48:21.083Z</time></trkpt><trkpt lat="45.4844357" lon="11.4969423"><ele>205.0</ele><time>2026-04-06T09:48:23.083Z</time></trkpt><trkpt lat="45.4845297" lon="11.4969645"><ele>205.0</ele><time>2026-04-06T09:48:25.083Z</time></trkpt><trkpt lat="45.4846371" lon="11.4969977"><ele>205.0</ele><time>2026-04-06T09:48:27.083Z</time></trkpt><trkpt lat="45.4847004" lon="11.4970067"><ele>204.99999999999997</ele><time>2026-04-06T09:48:28.084Z</time></trkpt><trkpt lat="45.4847695" lon="11.4970111"><ele>205.0</ele><time>2026-04-06T09:48:29.083Z</time></trkpt><trkpt lat="45.4848444" lon="11.4970062"><ele>204.83333333333331</ele><time>2026-04-06T09:48:30.083Z</time></trkpt><trkpt lat="45.4849244" lon="11.4969922"><ele>204.66666666666666</ele><time>2026-04-06T09:48:31.083Z</time></trkpt><trkpt lat="45.485004" lon="11.4969721"><ele>204.5</ele><time>2026-04-06T09:48:32.083Z</time></trkpt><trkpt lat="45.4850862" lon="11.4969453"><ele>204.33333333333331</ele><time>2026-04-06T09:48:33.083Z</time></trkpt><trkpt lat="45.4851752" lon="11.4969168"><ele>204.16666666666666</ele><time>2026-04-06T09:48:34.083Z</time></trkpt><trkpt lat="45.4852685" lon="11.496898"><ele>204.0</ele><time>2026-04-06T09:48:35.083Z</time></trkpt><trkpt lat="45.4853602" lon="11.4968863"><ele>203.39999999999998</ele><time>2026-04-06T09:48:36.083Z</time></trkpt><trkpt lat="45.4854517" lon="11.496888"><ele>202.8</ele><time>2026-04-06T09:48:37.083Z</time></trkpt><trkpt lat="45.4855433" lon="11.4968892"><ele>202.2</ele><time>2026-04-06T09:48:38.083Z</time></trkpt><trkpt lat="45.4856305" lon="11.4968987"><ele>201.60000000000002</ele><time>2026-04-06T09:48:39.083Z</time></trkpt><trkpt lat="45.4857282" lon="11.4969056"><ele>201.0</ele><time>2026-04-06T09:48:40.083Z</time></trkpt><trkpt lat="45.4858284" lon="11.4969176"><ele>201.0</ele><time>2026-04-06T09:48:41.083Z</time></trkpt><trkpt lat="45.4859198" lon="11.496921"><ele>201.0</ele><time>2026-04-06T09:48:42.083Z</time></trkpt><trkpt lat="45.4860172" lon="11.4969265"><ele>201.0</ele><time>2026-04-06T09:48:43.083Z</time></trkpt><trkpt lat="45.4861156" lon="11.4969152"><ele>201.0</ele><time>2026-04-06T09:48:44.083Z</time></trkpt><trkpt lat="45.4862122" lon="11.4968882"><ele>201.0</ele><time>2026-04-06T09:48:45.083Z</time></trkpt><trkpt lat="45.4863112" lon="11.4968316"><ele>198.8</ele><time>2026-04-06T09:48:46.083Z</time></trkpt><trkpt lat="45.4863999" lon="11.4967506"><ele>196.60000000000002</ele><time>2026-04-06T09:48:47.083Z</time></trkpt><trkpt lat="45.4864766" lon="11.4966372"><ele>194.4</ele><time>2026-04-06T09:48:48.083Z</time></trkpt><trkpt lat="45.4865409" lon="11.496528"><ele>192.2</ele><time>2026-04-06T09:48:49.083Z</time></trkpt><trkpt lat="45.4866145" lon="11.4964393"><ele>190.0</ele><time>2026-04-06T09:48:50.083Z</time></trkpt><trkpt lat="45.4867009" lon="11.4963742"><ele>190.0</ele><time>2026-04-06T09:48:51.083Z</time></trkpt><trkpt lat="45.4868013" lon="11.4963182"><ele>190.0</ele><time>2026-04-06T09:48:52.083Z</time></trkpt><trkpt lat="45.4869108" lon="11.4962706"><ele>190.0</ele><time>2026-04-06T09:48:53.083Z</time></trkpt><trkpt lat="45.4870382" lon="11.4962349"><ele>190.0</ele><time>2026-04-06T09:48:54.083Z</time></trkpt><trkpt lat="45.4871687" lon="11.4961894"><ele>186.0</ele><time>2026-04-06T09:48:55.083Z</time></trkpt><trkpt lat="45.4873057" lon="11.4961416"><ele>182.0</ele><time>2026-04-06T09:48:56.083Z</time></trkpt><trkpt lat="45.4874469" lon="11.4960992"><ele>178.0</ele><time>2026-04-06T09:48:57.084Z</time></trkpt><trkpt lat="45.487586" lon="11.4960498"><ele>174.0</ele><time>2026-04-06T09:48:58.083Z</time></trkpt><trkpt lat="45.4877333" lon="11.495997"><ele>174.0</ele><time>2026-04-06T09:48:59.083Z</time></trkpt><trkpt lat="45.4878814" lon="11.4959472"><ele>174.0</ele><time>2026-04-06T09:49:00.083Z</time></trkpt><trkpt lat="45.488019" lon="11.495911"><ele>174.0</ele><time>2026-04-06T09:49:01.083Z</time></trkpt><trkpt lat="45.4881413" lon="11.4958735"><ele>174.0</ele><time>2026-04-06T09:49:02.083Z</time></trkpt><trkpt lat="45.4882427" lon="11.4958289"><ele>172.0</ele><time>2026-04-06T09:49:03.083Z</time></trkpt><trkpt lat="45.4883234" lon="11.4957734"><ele>170.0</ele><time>2026-04-06T09:49:04.083Z</time></trkpt><trkpt lat="45.488402" lon="11.4956679"><ele>168.0</ele><time>2026-04-06T09:49:05.083Z</time></trkpt><trkpt lat="45.4884791" lon="11.4955581"><ele>166.0</ele><time>2026-04-06T09:49:06.083Z</time></trkpt><trkpt lat="45.48856" lon="11.4954785"><ele>164.0</ele><time>2026-04-06T09:49:07.083Z</time></trkpt><trkpt lat="45.4886581" lon="11.4954298"><ele>160.75</ele><time>2026-04-06T09:49:08.083Z</time></trkpt><trkpt lat="45.4887748" lon="11.4953982"><ele>157.5</ele><time>2026-04-06T09:49:09.083Z</time></trkpt><trkpt lat="45.4889022" lon="11.4954123"><ele>154.25</ele><time>2026-04-06T09:49:10.084Z</time></trkpt><trkpt lat="45.4890192" lon="11.4954441"><ele>151.0</ele><time>2026-04-06T09:49:11.083Z</time></trkpt><trkpt lat="45.4891393" lon="11.4954931"><ele>151.0</ele><time>2026-04-06T09:49:12.083Z</time></trkpt><trkpt lat="45.4892031" lon="11.4956081"><ele>151.0</ele><time>2026-04-06T09:49:13.083Z</time></trkpt><trkpt lat="45.4892663" lon="11.495707"><ele>151.0</ele><time>2026-04-06T09:49:14.083Z</time></trkpt><trkpt lat="45.4893244" lon="11.4958255"><ele>151.0</ele><time>2026-04-06T09:49:15.083Z</time></trkpt><trkpt lat="45.4893831" lon="11.4959683"><ele>151.0</ele><time>2026-04-06T09:49:16.083Z</time></trkpt><trkpt lat="45.4894785" lon="11.4961123"><ele>150.25</ele><time>2026-04-06T09:49:17.083Z</time></trkpt><trkpt lat="45.4895573" lon="11.4962615"><ele>149.5</ele><time>2026-04-06T09:49:18.083Z</time></trkpt><trkpt lat="45.4896517" lon="11.4964"><ele>148.75</ele><time>2026-04-06T09:49:19.083Z</time></trkpt><trkpt lat="45.4897512" lon="11.4965255"><ele>148.0</ele><time>2026-04-06T09:49:20.083Z</time></trkpt><trkpt lat="45.4898638" lon="11.4966106"><ele>144.0</ele><time>2026-04-06T09:49:21.083Z</time></trkpt><trkpt lat="45.4899967" lon="11.4966611"><ele>140.0</ele><time>2026-04-06T09:49:22.083Z</time></trkpt><trkpt lat="45.4901256" lon="11.4967138"><ele>136.0</ele><time>2026-04-06T09:49:23.083Z</time></trkpt><trkpt lat="45.4902599" lon="11.4967808"><ele>132.0</ele><time>2026-04-06T09:49:24.083Z</time></trkpt><trkpt lat="45.4904027" lon="11.4968449"><ele>129.2</ele><time>2026-04-06T09:49:25.083Z</time></trkpt><trkpt lat="45.4905273" lon="11.4968823"><ele>126.39999999999999</ele><time>2026-04-06T09:49:26.083Z</time></trkpt><trkpt lat="45.4906351" lon="11.4969083"><ele>123.60000000000001</ele><time>2026-04-06T09:49:27.083Z</time></trkpt><trkpt lat="45.4907414" lon="11.4969231"><ele>120.80000000000001</ele><time>2026-04-06T09:49:28.083Z</time></trkpt><trkpt lat="45.4908271" lon="11.4969071"><ele>118.0</ele><time>2026-04-06T09:49:29.083Z</time></trkpt><trkpt lat="45.4909014" lon="11.4968714"><ele>118.00000000000001</ele><time>2026-04-06T09:49:30.083Z</time></trkpt><trkpt lat="45.4909684" lon="11.4968527"><ele>118.0</ele><time>2026-04-06T09:49:31.084Z</time></trkpt><trkpt lat="45.4910357" lon="11.4969011"><ele>118.0</ele><time>2026-04-06T09:49:32.083Z</time></trkpt><trkpt lat="45.4911002" lon="11.4969977"><ele>118.0</ele><time>2026-04-06T09:49:33.083Z</time></trkpt><trkpt lat="45.4911616" lon="11.4971093"><ele>118.00000000000001</ele><time>2026-04-06T09:49:34.083Z</time></trkpt><trkpt lat="45.4912389" lon="11.497218"><ele>118.0</ele><time>2026-04-06T09:49:35.083Z</time></trkpt><trkpt lat="45.4913347" lon="11.4973513"><ele>113.75</ele><time>2026-04-06T09:49:36.083Z</time></trkpt><trkpt lat="45.4914338" lon="11.4974884"><ele>109.5</ele><time>2026-04-06T09:49:37.083Z</time></trkpt><trkpt lat="45.4915347" lon="11.4976328"><ele>105.25</ele><time>2026-04-06T09:49:38.083Z</time></trkpt><trkpt lat="45.4916454" lon="11.4977547"><ele>101.0</ele><time>2026-04-06T09:49:39.083Z</time></trkpt><trkpt lat="45.4917776" lon="11.4978504"><ele>101.66666666666666</ele><time>2026-04-06T09:49:40.083Z</time></trkpt><trkpt lat="45.4919237" lon="11.4979255"><ele>102.33333333333334</ele><time>2026-04-06T09:49:41.083Z</time></trkpt><trkpt lat="45.4920634" lon="11.498"><ele>103.0</ele><time>2026-04-06T09:49:42.083Z</time></trkpt><trkpt lat="45.4922183" lon="11.4980478"><ele>103.0</ele><time>2026-04-06T09:49:43.083Z</time></trkpt><trkpt lat="45.4923552" lon="11.4980815"><ele>103.0</ele><time>2026-04-06T09:49:44.083Z</time></trkpt><trkpt lat="45.4924998" lon="11.4981051"><ele>103.0</ele><time>2026-04-06T09:49:45.083Z</time></trkpt><trkpt lat="45.4926466" lon="11.4981237"><ele>103.0</ele><time>2026-04-06T09:49:46.083Z</time></trkpt><trkpt lat="45.4927863" lon="11.4981404"><ele>99.0</ele><time>2026-04-06T09:49:47.083Z</time></trkpt><trkpt lat="45.4929281" lon="11.4981496"><ele>95.0</ele><time>2026-04-06T09:49:48.083Z</time></trkpt><trkpt lat="45.4930744" lon="11.4981534"><ele>91.0</ele><time>2026-04-06T09:49:49.083Z</time></trkpt><trkpt lat="45.4932211" lon="11.4981523"><ele>87.0</ele><time>2026-04-06T09:49:50.083Z</time></trkpt><trkpt lat="45.4933568" lon="11.4981363"><ele>87.0</ele><time>2026-04-06T09:49:51.083Z</time></trkpt><trkpt lat="45.4934887" lon="11.498143"><ele>87.0</ele><time>2026-04-06T09:49:52.083Z</time></trkpt><trkpt lat="45.4936256" lon="11.4981667"><ele>87.0</ele><time>2026-04-06T09:49:53.083Z</time></trkpt><trkpt lat="45.4937574" lon="11.4981613"><ele>87.0</ele><time>2026-04-06T09:49:54.083Z</time></trkpt><trkpt lat="45.4938593" lon="11.4981618"><ele>82.39999999999999</ele><time>2026-04-06T09:49:55.083Z</time></trkpt><trkpt lat="45.4939782" lon="11.4981663"><ele>77.8</ele><time>2026-04-06T09:49:56.083Z</time></trkpt><trkpt lat="45.4940786" lon="11.4981707"><ele>73.2</ele><time>2026-04-06T09:49:57.083Z</time></trkpt><trkpt lat="45.4941663" lon="11.4981901"><ele>68.6</ele><time>2026-04-06T09:49:58.083Z</time></trkpt><trkpt lat="45.4942305" lon="11.4983117"><ele>64.0</ele><time>2026-04-06T09:49:59.083Z</time></trkpt><trkpt lat="45.4942025" lon="11.4985408"><ele>64.0</ele><time>2026-04-06T09:50:00.083Z</time></trkpt><trkpt lat="45.4942194" lon="11.4986867"><ele>64.0</ele><time>2026-04-06T09:50:01.083Z</time></trkpt><trkpt lat="45.4941852" lon="11.4988595"><ele>64.0</ele><time>2026-04-06T09:50:02.083Z</time></trkpt><trkpt lat="45.4941356" lon="11.4990212"><ele>64.0</ele><time>2026-04-06T09:50:03.083Z</time></trkpt><trkpt lat="45.4940734" lon="11.4991877"><ele>63.49999999999999</ele><time>2026-04-06T09:50:04.083Z</time></trkpt><trkpt lat="45.4940133" lon="11.4992737"><ele>63.0</ele><time>2026-04-06T09:50:05.083Z</time></trkpt><trkpt lat="45.4939694" lon="11.4993664"><ele>62.5</ele><time>2026-04-06T09:50:06.083Z</time></trkpt><trkpt lat="45.4939679" lon="11.4995286"><ele>62.0</ele><time>2026-04-06T09:50:08.083Z</time></trkpt><trkpt lat="45.4940105" lon="11.4996088"><ele>61.49999999999999</ele><time>2026-04-06T09:50:09.083Z</time></trkpt><trkpt lat="45.4941101" lon="11.4996126"><ele>61.0</ele><time>2026-04-06T09:50:10.083Z</time></trkpt><trkpt lat="45.4942178" lon="11.4996384"><ele>61.0</ele><time>2026-04-06T09:50:12.083Z</time></trkpt><trkpt lat="45.494314" lon="11.4996661"><ele>60.99999999999999</ele><time>2026-04-06T09:50:14.083Z</time></trkpt><trkpt lat="45.4942934" lon="11.499548"><ele>60.99999999999999</ele><time>2026-04-06T09:50:22.083Z</time></trkpt><trkpt lat="45.494271" lon="11.4994063"><ele>61.0</ele><time>2026-04-06T09:50:25.083Z</time></trkpt><trkpt lat="45.4942849" lon="11.4992981"><ele>61.0</ele><time>2026-04-06T09:50:27.083Z</time></trkpt><trkpt lat="45.4943567" lon="11.4992157"><ele>60.99999999999999</ele><time>2026-04-06T09:50:30.083Z</time></trkpt><trkpt lat="45.4944035" lon="11.4991511"><ele>61.0</ele><time>2026-04-06T09:50:32.084Z</time></trkpt><trkpt lat="45.4944575" lon="11.4990501"><ele>61.0</ele><time>2026-04-06T09:50:34.083Z</time></trkpt><trkpt lat="45.4944977" lon="11.4989445"><ele>61.0</ele><time>2026-04-06T09:50:36.083Z</time></trkpt><trkpt lat="45.4945497" lon="11.4988644"><ele>60.99999999999999</ele><time>2026-04-06T09:50:38.083Z</time></trkpt><trkpt lat="45.4945805" lon="11.4987318"><ele>61.0</ele><time>2026-04-06T09:50:40.083Z</time></trkpt><trkpt lat="45.494619" lon="11.4986468"><ele>55.199999999999996</ele><time>2026-04-06T09:50:41.083Z</time></trkpt><trkpt lat="45.4946798" lon="11.4985222"><ele>49.39999999999999</ele><time>2026-04-06T09:50:43.083Z</time></trkpt><trkpt lat="45.4946997" lon="11.4983852"><ele>43.6</ele><time>2026-04-06T09:50:45.083Z</time></trkpt><trkpt lat="45.4947363" lon="11.4982554"><ele>37.8</ele><time>2026-04-06T09:50:47.083Z</time></trkpt><trkpt lat="45.4947531" lon="11.4981486"><ele>32.0</ele><time>2026-04-06T09:50:49.083Z</time></trkpt><trkpt lat="45.4948156" lon="11.4980807"><ele>31.999999999999996</ele><time>2026-04-06T09:50:53.083Z</time></trkpt><trkpt lat="45.4947949" lon="11.4979622"><ele>32.0</ele><time>2026-04-06T09:50:57.083Z</time></trkpt><trkpt lat="45.4947206" lon="11.4978962"><ele>32.0</ele><time>2026-04-06T09:50:59.083Z</time></trkpt><trkpt lat="45.4946829" lon="11.4977954"><ele>32.0</ele><time>2026-04-06T09:51:01.083Z</time></trkpt><trkpt lat="45.4947308" lon="11.4977054"><ele>31.999999999999996</ele><time>2026-04-06T09:51:03.083Z</time></trkpt><trkpt lat="45.4947858" lon="11.4976311"><ele>32.0</ele><time>2026-04-06T09:51:05.083Z</time></trkpt><trkpt lat="45.4948802" lon="11.497551"><ele>31.400000000000002</ele><time>2026-04-06T09:51:07.083Z</time></trkpt><trkpt lat="45.4949591" lon="11.4974817"><ele>30.800000000000004</ele><time>2026-04-06T09:51:09.083Z</time></trkpt><trkpt lat="45.4950466" lon="11.4974102"><ele>30.2</ele><time>2026-04-06T09:51:11.083Z</time></trkpt><trkpt lat="45.4951489" lon="11.4973427"><ele>29.6</ele><time>2026-04-06T09:51:13.083Z</time></trkpt><trkpt lat="45.4952393" lon="11.4972722"><ele>29.0</ele><time>2026-04-06T09:51:15.083Z</time></trkpt><trkpt lat="45.495338" lon="11.4972052"><ele>29.0</ele><time>2026-04-06T09:51:17.083Z</time></trkpt><trkpt lat="45.4954185" lon="11.4971284"><ele>29.0</ele><time>2026-04-06T09:51:19.083Z</time></trkpt><trkpt lat="45.4955019" lon="11.4970552"><ele>29.0</ele><time>2026-04-06T09:51:21.083Z</time></trkpt><trkpt lat="45.4955951" lon="11.4969897"><ele>29.0</ele><time>2026-04-06T09:51:23.083Z</time></trkpt><trkpt lat="45.4956846" lon="11.496919"><ele>29.0</ele><time>2026-04-06T09:51:25.083Z</time></trkpt><trkpt lat="45.4957771" lon="11.4968314"><ele>28.6</ele><time>2026-04-06T09:51:27.083Z</time></trkpt><trkpt lat="45.4958667" lon="11.4967667"><ele>28.2</ele><time>2026-04-06T09:51:29.083Z</time></trkpt><trkpt lat="45.4959603" lon="11.496684"><ele>27.800000000000004</ele><time>2026-04-06T09:51:31.083Z</time></trkpt><trkpt lat="45.4960138" lon="11.4965958"><ele>27.400000000000002</ele><time>2026-04-06T09:51:34.083Z</time></trkpt><trkpt lat="45.4959702" lon="11.4964932"><ele>27.0</ele><time>2026-04-06T09:51:37.083Z</time></trkpt><trkpt lat="45.4959293" lon="11.496405"><ele>27.0</ele><time>2026-04-06T09:51:39.083Z</time></trkpt><trkpt lat="45.4958981" lon="11.4963127"><ele>27.0</ele><time>2026-04-06T09:51:41.083Z</time></trkpt><trkpt lat="45.4958571" lon="11.4962142"><ele>27.0</ele><time>2026-04-06T09:51:43.083Z</time></trkpt><trkpt lat="45.4958162" lon="11.4961156"><ele>27.0</ele><time>2026-04-06T09:51:45.083Z</time></trkpt><trkpt lat="45.4957766" lon="11.4960268"><ele>27.0</ele><time>2026-04-06T09:51:47.083Z</time></trkpt><trkpt lat="45.4957361" lon="11.4959463"><ele>27.0</ele><time>2026-04-06T09:51:49.083Z</time></trkpt><trkpt lat="45.4957035" lon="11.4958449"><ele>27.285714285714285</ele><time>2026-04-06T09:51:52.083Z</time></trkpt><trkpt lat="45.4957139" lon="11.4957335"><ele>27.57142857142857</ele><time>2026-04-06T09:51:55.083Z</time></trkpt><trkpt lat="45.495757" lon="11.4956594"><ele>27.85714285714286</ele><time>2026-04-06T09:51:57.083Z</time></trkpt><trkpt lat="45.4958031" lon="11.4955898"><ele>28.142857142857146</ele><time>2026-04-06T09:51:59.084Z</time></trkpt><trkpt lat="45.49586" lon="11.4955165"><ele>28.42857142857143</ele><time>2026-04-06T09:52:01.083Z</time></trkpt><trkpt lat="45.4959193" lon="11.495438"><ele>28.71428571428572</ele><time>2026-04-06T09:52:03.111Z</time></trkpt><trkpt lat="45.4959771" lon="11.4953635"><ele>29.000000000000004</ele><time>2026-04-06T09:52:05.077Z</time></trkpt><trkpt lat="45.4960443" lon="11.495288"><ele>28.999999999999996</ele><time>2026-04-06T09:52:07.083Z</time></trkpt><trkpt lat="45.4961096" lon="11.4952215"><ele>29.0</ele><time>2026-04-06T09:52:09.087Z</time></trkpt><trkpt lat="45.4961686" lon="11.49515"><ele>29.0</ele><time>2026-04-06T09:52:11.124Z</time></trkpt><trkpt lat="45.4962232" lon="11.4950924"><ele>29.0</ele><time>2026-04-06T09:52:13.083Z</time></trkpt><trkpt lat="45.4962847" lon="11.4950312"><ele>28.999999999999996</ele><time>2026-04-06T09:52:15.083Z</time></trkpt><trkpt lat="45.4963432" lon="11.4949632"><ele>29.0</ele><time>2026-04-06T09:52:17.095Z</time></trkpt><trkpt lat="45.4964044" lon="11.4948922"><ele>28.999999999999996</ele><time>2026-04-06T09:52:19.081Z</time></trkpt><trkpt lat="45.4964776" lon="11.4948177"><ele>29.0</ele><time>2026-04-06T09:52:21.083Z</time></trkpt><trkpt lat="45.4965529" lon="11.4947514"><ele>29.0</ele><time>2026-04-06T09:52:23.083Z</time></trkpt><trkpt lat="45.4966258" lon="11.4946859"><ele>29.0</ele><time>2026-04-06T09:52:25.102Z</time></trkpt><trkpt lat="45.4966861" lon="11.4946315"><ele>28.999999999999996</ele><time>2026-04-06T09:52:26.932Z</time></trkpt><trkpt lat="45.4967547" lon="11.4945584"><ele>29.0</ele><time>2026-04-06T09:52:29.039Z</time></trkpt><trkpt lat="45.4968252" lon="11.4944898"><ele>30.71428571428572</ele><time>2026-04-06T09:52:31.083Z</time></trkpt><trkpt lat="45.496888" lon="11.4944179"><ele>32.42857142857143</ele><time>2026-04-06T09:52:33.083Z</time></trkpt><trkpt lat="45.4969462" lon="11.4943566"><ele>34.14285714285714</ele><time>2026-04-06T09:52:35.083Z</time></trkpt><trkpt lat="45.4969958" lon="11.4942972"><ele>35.85714285714286</ele><time>2026-04-06T09:52:37.083Z</time></trkpt><trkpt lat="45.4970481" lon="11.494232"><ele>37.57142857142857</ele><time>2026-04-06T09:52:40.083Z</time></trkpt><trkpt lat="45.497124" lon="11.4942104"><ele>39.285714285714285</ele><time>2026-04-06T09:52:43.083Z</time></trkpt><trkpt lat="45.4972011" lon="11.4942551"><ele>41.0</ele><time>2026-04-06T09:52:45.083Z</time></trkpt><trkpt lat="45.4972807" lon="11.4943071"><ele>44.0</ele><time>2026-04-06T09:52:47.094Z</time></trkpt><trkpt lat="45.4973578" lon="11.494396"><ele>44.0</ele><time>2026-04-06T09:52:49.083Z</time></trkpt><trkpt lat="45.4974352" lon="11.4944557"><ele>44.0</ele><time>2026-04-06T09:52:51.083Z</time></trkpt><trkpt lat="45.4975101" lon="11.4944838"><ele>44.0</ele><time>2026-04-06T09:52:53.083Z</time></trkpt><trkpt lat="45.4975891" lon="11.4944559"><ele>44.0</ele><time>2026-04-06T09:52:56.083Z</time></trkpt><trkpt lat="45.4975439" lon="11.4943844"><ele>44.0</ele><time>2026-04-06T09:52:59.083Z</time></trkpt></trkseg></trk></gpx>